ECMWFFLT1_sfc_thetae_000.txt.gz
Theta_e
317 318 321 323 325 322 323 324 324 326 327 327 326 326 326 326 326 325 325 324 321 321 321 321 323 323 324 324 326 327 326 326 325 325 324 325 323 325 330 329 328 327 330 329 326 321 320 316 319 330 330 329 330 329 332 332 335 335 337 338 336 336 338
320 321 320 321 321 323 323 322 323 324 325 325 324 325 324 321 319 319 319 318 317 316 314 315 319 320 323 324 324 324 325 325 324 324 322 321 322 322 322 322 324 323 326 327 326 323 320 315 315 320 322 329 328 329 332 334 334 336 336 336 335 334 336
319 319 319 320 322 323 322 322 322 322 322 322 323 323 321 319 319 319 318 317 317 315 314 316 316 318 319 321 322 323 324 323 323 323 323 322 322 323 322 321 320 320 320 320 321 319 319 320 314 315 317 318 321 327 328 327 328 330 333 334 336 332 333
319 320 318 321 321 321 321 321 321 321 322 320 321 322 321 320 321 319 319 318 318 317 315 315 316 315 317 317 318 320 320 320 320 320 320 321 320 320 320 319 317 317 316 316 316 316 316 314 314 314 315 314 313 315 321 325 327 328 327 327 329 330 334
321 320 320 320 320 320 321 319 320 320 321 321 321 320 320 320 321 320 320 319 318 318 316 316 316 315 315 316 316 317 317 318 318 316 317 316 317 316 318 318 317 317 317 316 316 316 315 314 313 312 311 312 313 314 316 323 322 323 325 323 325 329 332
322 321 320 320 322 319 320 320 319 318 320 320 320 320 320 321 320 321 320 318 317 318 317 315 316 316 316 316 316 316 317 316 316 316 314 314 314 314 313 315 314 314 315 316 316 315 315 315 314 312 313 314 311 312 313 315 315 317 321 325 327 328 329
321 322 321 320 322 320 320 320 319 318 319 320 321 321 320 320 321 322 321 320 318 318 317 317 317 317 317 315 316 316 316 316 316 315 314 314 314 313 313 311 312 312 313 314 314 314 313 312 312 312 311 311 311 309 310 312 315 314 319 324 327 327 328
321 319 320 321 323 321 321 322 320 319 319 320 321 323 322 322 322 322 322 321 319 318 317 317 317 317 316 315 315 317 316 316 316 315 314 314 312 312 311 311 310 311 311 311 313 312 312 312 311 311 310 306 307 309 308 312 313 316 317 320 322 322 326
322 321 319 320 322 324 324 321 320 320 320 320 322 324 324 323 323 323 322 321 320 319 318 317 317 316 316 315 315 316 315 315 315 315 315 314 313 312 311 311 311 310 310 310 311 311 312 313 312 312 311 310 307 305 308 308 310 313 319 319 322 323 324
329 326 321 323 326 327 326 324 321 321 321 321 321 324 324 325 324 324 322 322 321 319 318 317 316 316 316 315 315 315 315 316 315 313 314 314 313 313 313 311 311 310 311 311 310 312 313 313 313 312 312 310 309 307 306 306 308 309 313 318 316 321 322
328 330 328 327 329 328 328 327 325 323 322 322 322 323 325 324 324 323 323 322 321 320 318 317 316 316 317 315 315 315 314 315 314 313 313 312 311 311 310 311 310 311 312 312 311 311 312 313 313 313 313 312 312 308 308 306 308 311 311 315 317 319 325
329 329 329 330 331 329 328 326 326 325 325 324 322 323 324 323 323 323 323 322 321 320 319 318 317 317 316 315 315 314 315 314 313 312 311 311 310 310 309 309 309 310 310 311 312 312 313 312 313 312 312 312 312 312 310 309 307 312 316 313 315 318 320
326 326 329 331 329 329 328 327 326 326 326 324 322 323 322 322 323 323 322 321 321 320 318 318 317 317 316 316 315 313 313 313 312 311 311 310 307 309 308 308 307 308 309 309 311 311 310 311 311 310 311 312 312 312 311 309 308 308 314 315 316 316 317
329 328 329 330 330 329 328 327 327 327 326 325 323 322 321 322 321 322 321 321 320 319 318 317 317 316 316 315 314 313 312 311 310 310 310 310 309 308 306 306 306 307 309 309 310 309 309 309 310 310 310 310 310 311 310 309 307 308 312 316 316 315 317
328 328 329 329 329 328 328 327 329 327 327 326 324 322 320 322 322 322 321 320 320 318 318 316 316 316 314 314 314 313 313 311 310 309 310 307 309 308 309 306 305 306 307 306 309 307 308 308 307 309 309 309 307 308 311 308 308 307 307 312 312 314 315
325 327 327 328 328 327 327 328 328 328 326 326 324 323 321 322 322 321 321 320 319 318 317 316 316 315 315 314 312 313 312 311 310 310 309 307 306 306 307 306 306 306 307 307 308 309 309 309 308 306 308 308 308 309 308 307 306 305 306 307 311 309 311
326 326 326 326 327 328 327 327 327 327 326 326 324 324 322 323 322 321 321 320 319 317 316 316 315 315 314 313 312 311 311 311 310 309 308 307 306 306 306 305 306 306 306 306 306 306 307 308 307 307 307 308 309 308 309 309 309 306 306 304 308 308 309
325 325 326 326 326 326 327 326 326 324 325 325 325 324 322 324 321 320 321 319 318 317 316 315 315 314 314 314 312 312 311 310 310 309 308 307 307 306 305 305 305 305 305 306 306 306 306 307 305 306 305 305 305 307 309 309 308 308 306 305 306 309 310
324 325 325 326 325 324 324 325 325 325 322 322 324 324 324 322 321 320 321 319 318 317 316 315 314 313 313 313 312 312 311 310 309 307 307 306 305 305 305 304 304 305 304 304 305 305 306 307 306 306 305 305 304 306 307 307 307 307 306 306 306 306 309
325 326 327 327 327 325 325 325 324 324 324 323 323 323 323 322 322 321 320 319 318 317 315 315 314 314 313 312 311 311 310 309 308 307 305 303 303 304 304 303 304 304 304 304 304 304 306 306 306 306 306 306 306 306 305 305 304 305 305 304 305 306 306
323 324 325 325 325 326 326 325 325 324 324 324 323 323 321 321 322 321 320 318 318 316 315 314 314 313 312 312 311 311 309 308 306 305 304 302 303 303 303 303 303 302 303 303 304 304 303 302 303 304 305 305 306 305 304 304 304 304 304 304 304 304 305
321 322 323 323 323 324 325 326 325 325 324 324 323 323 322 321 320 319 318 318 317 316 315 314 313 313 312 311 311 309 307 305 304 303 302 302 302 302 301 302 302 302 301 299 298 298 299 299 300 299 301 303 303 304 304 304 303 303 303 303 303 304 304
319 320 321 321 322 323 323 324 324 324 324 323 323 323 322 321 318 318 316 316 315 315 314 314 308 303 305 309 308 306 305 304 302 302 301 301 301 301 301 302 302 298 299 299 298 296 294 295 297 299 300 302 302 302 302 302 302 302 302 301 302 302 302
316 318 319 320 321 321 321 321 322 322 323 322 323 321 318 317 316 318 315 315 314 314 314 310 295 294 294 297 305 306 304 303 302 301 301 300 300 301 301 301 302 302 300 299 299 294 293 294 294 294 295 296 297 299 299 299 300 301 301 301 302 302 302
312 315 318 318 319 321 321 321 320 320 321 321 320 318 318 315 315 314 314 313 314 314 311 296 292 292 293 293 298 303 303 302 301 301 300 300 300 300 300 301 301 302 302 302 301 298 298 294 292 293 292 292 292 292 293 298 298 299 300 300 300 301 302
310 312 315 317 318 320 319 319 319 319 318 319 318 317 315 316 316 316 314 311 309 308 301 291 291 291 292 292 293 298 302 302 301 300 300 300 299 299 300 299 300 301 302 301 299 300 301 300 295 293 292 293 292 292 291 290 292 298 299 299 299 300 301
309 310 313 316 318 317 317 317 319 319 318 318 317 317 316 315 315 314 311 310 308 306 300 292 291 291 291 290 290 294 303 302 301 300 300 299 300 300 300 300 299 300 301 301 301 300 301 300 299 299 300 300 301 299 293 291 290 290 294 297 297 297 300
309 310 312 314 316 316 316 316 317 317 317 317 316 315 314 314 313 311 310 309 308 306 300 291 290 290 290 290 289 292 302 301 300 300 300 300 300 300 300 301 301 300 300 301 300 299 299 298 298 298 298 298 299 300 301 302 302 301 299 299 298 299 300
310 310 311 313 314 315 316 316 315 316 317 317 317 316 313 312 311 310 310 309 307 304 299 289 290 290 290 290 288 297 301 301 301 300 300 300 300 300 300 301 300 300 300 300 297 292 293 297 296 296 296 297 298 299 300 298 296 296 299 301 302 302 302
310 310 311 312 313 315 315 315 315 316 315 316 315 314 312 311 310 310 308 307 305 303 298 291 290 290 290 289 292 299 301 300 300 301 301 301 301 301 301 301 301 300 300 299 295 291 290 292 296 295 296 296 297 298 298 300 296 293 292 293 292 292 291
309 310 311 312 313 314 315 315 314 314 314 315 315 313 311 310 311 308 306 304 303 304 300 293 289 290 290 289 293 300 301 300 300 300 300 301 301 301 301 300 299 299 299 299 293 290 290 293 295 295 295 295 295 295 296 298 299 299 294 292 291 291 291
310 310 311 312 313 314 314 313 314 314 314 315 315 315 310 309 308 307 307 306 302 303 302 297 289 290 290 290 294 299 299 299 299 300 300 300 301 301 301 300 297 297 298 296 291 290 289 292 295 295 295 294 293 293 295 297 297 297 297 297 297 298 297
310 311 311 312 313 313 314 314 314 314 314 314 314 314 310 307 305 306 305 304 303 302 300 299 294 289 290 289 290 298 300 299 298 299 299 298 299 300 300 300 298 292 291 291 290 289 289 289 293 295 294 293 292 292 295 296 296 295 295 295 295 296 296
310 311 313 313 313 313 313 313 314 314 314 314 312 310 307 305 305 305 304 303 302 302 302 302 296 289 290 290 288 291 299 299 299 298 298 297 298 298 297 298 299 294 289 289 289 288 288 288 289 293 293 292 293 293 292 293 292 291 293 293 292 293 293
311 312 313 312 312 312 313 313 313 312 310 309 307 304 302 302 301 302 302 301 301 300 298 298 302 291 290 290 289 289 297 299 298 298 296 296 296 296 297 298 298 293 287 289 288 288 288 288 288 291 292 289 288 288 290 291 291 291 291 291 291 291 292
310 312 313 312 311 311 311 311 310 308 307 305 303 301 301 301 300 299 300 299 300 300 301 298 293 296 290 290 289 290 289 293 290 295 296 295 296 296 298 298 297 291 288 288 288 288 288 288 288 291 288 288 288 287 288 290 290 290 290 289 289 289 290
310 312 312 311 311 310 311 308 304 303 302 300 299 298 300 299 298 297 297 299 299 299 299 299 293 291 293 288 289 288 288 287 288 295 296 296 296 297 297 298 295 288 288 288 288 288 288 288 290 288 288 287 287 288 290 290 290 289 289 289 288 289 289

ECMWFFLT1_sfc_thetae_006.txt.gz
Theta_e
324 322 324 325 327 326 326 325 328 328 326 327 326 323 322 321 323 323 322 323 325 323 323 322 323 323 324 324 325 326 325 327 326 323 321 322 321 319 323 321 322 325 325 324 322 319 316 313 318 325 328 327 327 327 327 325 329 333 332 334 335 334 333
323 323 322 322 323 326 326 329 326 324 326 324 320 321 320 320 321 321 320 318 317 318 318 320 322 324 325 324 324 324 323 323 323 324 323 321 322 322 322 322 322 322 324 324 324 321 317 313 314 316 319 327 328 327 326 327 326 329 331 333 333 333 332
322 321 321 323 324 327 325 323 323 324 324 325 325 322 321 320 321 321 319 321 319 316 315 316 320 321 322 322 323 323 323 321 321 320 318 318 318 316 319 325 321 320 321 321 321 320 319 317 313 312 316 316 314 323 327 324 323 324 324 323 325 330 329
321 322 321 321 322 324 321 322 323 324 324 323 324 325 323 321 320 322 321 319 320 321 318 318 318 315 319 321 319 318 318 318 318 317 317 316 317 315 314 313 312 314 314 313 313 314 313 312 310 310 310 308 307 307 315 324 323 323 322 323 323 323 324
323 322 320 320 321 321 322 322 322 322 321 323 324 323 322 323 323 322 323 322 323 323 322 321 319 319 320 320 320 320 318 318 318 316 314 313 313 314 313 313 314 316 313 311 313 314 313 311 311 307 306 307 308 308 311 311 313 314 320 321 322 321 322
324 323 322 322 322 322 321 322 320 319 320 320 322 321 323 323 324 323 322 321 320 321 319 316 317 319 319 318 317 317 317 316 316 315 314 313 313 312 312 313 312 313 312 315 315 314 315 314 314 309 309 309 306 307 308 309 309 311 312 313 315 317 317
324 325 322 323 323 323 323 323 321 320 319 321 321 321 323 324 325 325 323 321 322 322 323 323 322 320 319 316 318 317 317 318 317 316 315 315 314 313 313 311 312 311 312 316 313 315 313 312 310 309 308 309 308 306 308 308 309 308 310 312 314 316 318
324 324 324 324 324 325 324 323 324 322 322 321 321 322 322 324 324 322 322 321 322 321 320 320 322 321 320 316 317 318 317 317 316 316 315 314 314 312 312 313 317 311 312 310 312 312 310 311 309 309 308 305 305 307 306 308 308 308 308 311 314 315 317
323 324 325 324 324 328 325 323 326 326 324 323 323 321 322 324 322 322 320 322 321 321 321 320 320 319 320 317 317 318 316 319 318 317 316 315 315 314 313 315 312 311 313 310 313 312 312 313 312 311 309 307 303 301 304 304 306 307 312 310 312 314 314
323 323 323 326 325 328 328 324 327 327 327 325 324 322 323 324 323 321 320 320 321 321 321 321 320 320 321 318 318 318 317 318 317 316 317 315 315 316 314 313 316 313 310 315 315 313 313 313 314 312 312 309 309 304 302 301 304 305 308 311 309 312 315
325 326 326 328 327 326 329 324 327 325 328 326 324 323 323 324 323 323 322 321 322 321 321 321 318 319 320 317 317 318 318 318 316 316 316 315 314 314 314 313 310 313 311 314 313 314 316 316 314 314 311 311 310 306 304 302 302 307 307 310 311 310 313
328 328 327 329 327 326 327 326 325 323 327 326 324 323 322 323 323 322 322 320 321 320 320 320 319 317 318 317 318 317 318 317 316 316 316 315 315 315 312 312 312 315 313 313 314 316 314 314 315 309 310 311 311 310 308 306 301 307 310 308 310 312 311
328 330 330 331 329 324 326 326 327 323 324 323 325 324 322 322 322 321 322 320 320 319 318 319 319 317 319 316 317 315 315 317 315 314 313 314 312 315 311 312 311 311 311 309 309 314 314 312 311 310 310 310 309 309 309 306 303 303 309 309 309 309 310
331 329 332 330 328 331 329 326 326 326 324 322 324 323 322 322 321 321 321 320 319 318 317 318 317 318 318 316 316 316 314 314 314 312 313 312 314 313 311 311 310 312 311 309 309 309 309 309 310 312 310 310 309 309 307 306 303 302 305 309 308 307 308
331 332 330 328 327 329 331 329 329 330 328 324 324 322 321 322 321 321 320 320 320 318 317 317 316 317 316 316 315 318 313 312 312 312 313 310 312 314 312 310 310 310 311 309 309 305 305 305 304 303 307 310 307 311 311 307 303 302 301 305 306 308 307
330 331 331 330 328 326 327 328 330 328 329 330 327 323 321 322 322 321 320 320 319 318 317 317 317 317 316 315 314 315 315 312 312 313 311 311 310 310 311 311 310 310 312 309 310 309 308 307 307 305 305 305 305 306 306 305 304 303 303 304 307 306 306
331 330 330 331 330 328 329 329 329 329 328 327 328 330 324 320 320 320 320 320 319 319 318 318 317 316 316 315 314 313 313 313 312 313 311 310 309 310 309 310 310 311 309 309 308 309 309 308 308 307 305 304 304 304 307 309 309 305 305 304 306 305 306
330 331 330 330 328 324 323 323 325 324 326 325 328 327 328 327 322 319 321 320 319 319 319 318 316 316 316 316 315 314 313 312 312 312 312 311 313 311 309 310 310 309 308 308 308 308 308 309 305 305 304 304 304 305 306 305 304 303 301 300 301 303 305
327 326 326 325 322 322 321 321 319 322 324 323 322 324 325 325 323 321 320 320 319 319 319 318 317 316 315 316 315 314 313 313 313 312 312 313 311 311 310 309 309 309 308 307 308 308 307 306 306 305 304 304 303 303 304 304 304 304 303 301 301 301 302
325 325 324 323 323 323 323 323 323 323 322 323 323 321 322 322 322 322 323 322 319 320 320 319 318 317 316 315 315 314 314 313 314 313 313 312 311 310 309 309 309 309 307 307 306 306 306 307 308 305 305 303 301 301 300 300 301 300 301 300 301 301 301
325 326 325 322 320 321 321 320 320 321 321 321 322 321 320 321 321 321 320 318 320 322 321 320 320 318 316 315 315 314 314 314 312 312 313 311 311 309 309 309 308 308 307 307 305 303 301 300 300 299 299 299 299 299 299 299 299 299 298 299 299 298 300
323 322 324 325 323 322 322 322 321 320 320 320 319 319 318 319 319 321 322 322 321 321 321 320 319 318 316 315 316 314 314 313 312 311 310 310 309 308 307 307 307 306 306 300 300 300 300 299 299 296 298 299 298 297 297 296 296 295 296 296 296 298 297
319 319 319 320 320 323 323 322 322 322 324 324 323 323 322 321 320 321 321 320 320 321 321 319 315 308 309 316 315 316 315 314 313 311 309 307 307 306 306 306 308 306 303 301 296 293 293 294 297 300 297 296 296 296 296 295 293 293 294 293 293 294 294
318 318 320 322 320 321 319 321 322 321 323 323 324 324 323 323 322 321 321 320 319 321 320 318 307 303 301 305 314 314 313 312 312 311 308 307 305 306 306 305 305 302 300 299 297 292 293 292 292 293 294 296 298 297 295 294 293 294 293 293 294 293 293
316 314 317 317 319 320 320 320 320 321 322 323 324 325 324 322 322 322 322 321 320 321 319 310 304 301 299 301 307 314 313 310 309 308 306 306 305 304 303 304 305 305 302 301 300 298 295 293 291 292 291 292 292 292 294 295 294 293 293 293 293 293 293
314 316 316 316 316 317 317 319 319 319 319 322 323 321 322 322 321 321 321 321 317 310 308 297 298 297 297 299 301 306 309 309 308 307 306 306 306 305 304 305 304 306 304 306 304 302 300 296 293 292 292 293 292 291 290 290 292 295 295 294 293 293 294
314 315 315 315 315 315 315 315 319 320 320 319 320 320 319 319 319 319 320 318 311 306 304 295 295 295 296 296 298 302 306 306 306 306 306 305 305 303 305 304 303 304 304 303 300 301 300 300 299 296 294 294 294 295 293 291 291 291 292 293 293 293 295
314 314 314 314 314 313 314 314 316 319 319 319 318 318 317 317 317 318 318 313 306 305 302 293 293 294 294 294 296 300 306 308 305 304 306 308 307 306 305 306 304 302 302 302 304 303 303 301 300 300 298 297 296 297 296 296 297 296 295 294 294 294 296
314 314 314 314 314 313 314 314 315 318 318 318 317 317 318 317 317 317 317 309 306 303 298 292 292 293 292 292 294 301 305 306 303 306 306 306 305 306 304 303 301 301 301 301 297 294 297 300 298 297 296 295 295 295 296 297 296 296 297 298 298 298 298
314 313 313 313 312 313 313 314 315 317 317 317 316 316 315 316 316 315 311 308 305 301 296 293 291 291 290 292 296 302 305 302 302 303 304 304 302 302 303 302 302 301 302 301 294 291 292 294 297 295 295 294 295 295 295 298 296 294 293 293 292 292 292
312 313 312 311 311 312 312 313 313 316 315 315 314 314 315 315 316 314 309 307 304 300 297 292 290 290 290 292 296 302 302 303 303 302 301 303 303 303 304 307 304 301 302 298 289 290 289 294 296 295 295 294 293 293 294 296 298 298 295 294 293 293 292
313 313 312 312 314 312 313 313 312 315 316 315 315 314 313 313 313 312 308 305 302 300 296 292 290 289 289 290 296 300 300 299 300 300 301 301 302 302 301 303 301 298 295 290 289 289 289 293 294 294 294 293 292 292 293 294 294 293 293 293 293 294 293
311 309 309 314 313 313 313 312 311 311 314 314 313 311 311 311 311 308 304 302 302 300 295 294 292 289 290 289 290 298 299 298 297 297 299 300 303 303 303 298 291 289 289 288 288 288 288 289 291 291 291 290 290 290 293 292 292 291 290 291 291 292 292
311 311 312 313 314 313 313 312 312 311 311 313 312 312 312 310 308 306 304 303 301 299 297 294 292 289 290 290 289 291 295 296 297 299 296 296 297 298 297 295 292 289 289 289 288 288 289 289 289 290 290 289 290 292 290 289 290 291 290 290 290 290 290
310 314 314 314 313 312 312 311 310 311 309 310 312 310 310 308 306 305 303 301 299 297 297 295 292 290 290 290 289 289 294 296 293 294 294 293 294 296 296 297 292 290 288 289 289 289 289 289 288 290 290 289 289 289 289 290 289 289 289 289 289 289 289
309 311 311 310 309 310 311 310 310 309 311 311 310 307 306 306 305 302 299 298 297 296 295 294 292 291 289 290 289 290 288 291 290 295 295 294 295 296 297 297 292 290 289 288 288 288 289 288 289 289 289 288 288 288 288 288 289 289 289 289 289 288 289
306 308 308 308 307 308 309 309 310 310 311 309 308 305 304 304 302 300 298 297 296 295 294 293 292 291 291 289 289 290 289 287 288 295 295 294 294 295 296 296 293 289 290 290 289 289 289 289 289 289 288 288 288 288 288 289 289 289 289 288 288 288 289

ECMWFFLT1_sfc_thetae_009.txt.gz
Theta_e
315 314 316 317 318 319 318 317 318 316 315 315 314 314 314 316 313 311 311 314 316 318 320 318 318 319 320 321 321 320 321 322 320 319 316 317 316 315 319 317 318 321 321 319 318 315 310 307 310 318 323 325 323 324 325 322 323 325 323 321 328 332 331
315 316 317 318 318 318 317 316 314 312 312 312 312 312 311 313 316 313 310 309 312 315 318 316 317 319 318 318 317 317 315 315 318 319 318 316 317 315 315 316 317 318 318 317 319 317 312 307 308 311 314 323 324 324 324 324 323 323 320 320 325 328 329
315 314 315 316 317 317 315 314 313 312 312 313 313 313 313 314 313 313 312 311 310 315 316 315 315 314 313 313 314 315 314 313 313 313 314 312 311 311 315 318 315 315 315 315 316 316 316 313 308 309 307 308 307 314 322 322 323 322 322 322 321 322 324
313 314 314 314 315 313 313 313 312 313 312 313 314 313 312 312 313 315 311 311 313 317 314 311 312 313 312 312 313 313 312 310 309 309 310 310 309 308 308 309 310 311 309 308 306 309 308 306 305 305 304 305 304 303 307 318 322 322 321 320 321 321 323
314 315 314 314 313 312 313 313 313 312 313 313 312 311 312 314 314 313 314 313 314 312 312 312 313 314 314 313 311 311 311 310 310 309 306 306 306 307 306 308 308 308 308 307 309 308 308 306 305 303 304 304 305 304 308 309 309 309 313 317 319 320 322
315 314 314 314 313 313 314 313 311 311 311 312 312 312 311 312 314 312 312 310 311 312 311 313 313 312 311 311 311 310 310 309 308 308 306 305 306 306 305 306 306 307 308 308 309 308 308 308 307 303 304 305 302 303 305 306 305 308 308 308 310 313 315
315 315 314 314 314 315 315 313 312 312 311 311 312 311 313 314 314 314 313 312 312 314 314 312 311 311 312 311 311 311 310 310 309 307 307 306 305 305 305 304 304 305 305 306 307 307 306 305 304 303 303 303 303 303 305 304 306 305 307 310 310 313 315
316 315 315 316 315 315 315 314 313 313 313 313 313 313 314 314 313 312 312 311 311 310 312 312 315 313 312 313 313 311 310 309 310 309 307 306 307 305 304 306 307 305 304 305 306 307 308 306 306 305 303 301 299 300 302 303 305 305 306 308 311 311 312
317 316 316 317 316 316 316 315 314 314 314 314 314 314 314 314 312 312 312 311 311 312 311 310 311 311 310 310 310 309 309 313 309 308 308 307 306 306 306 307 305 305 305 308 308 306 306 308 308 306 305 302 299 296 299 299 301 303 307 307 309 310 311
317 316 316 316 316 316 317 316 315 315 315 315 315 315 316 314 313 311 312 311 311 311 311 312 312 310 310 311 310 308 308 311 310 309 308 307 307 307 306 307 306 304 305 307 306 308 308 307 307 306 307 304 304 300 297 296 297 300 303 307 305 307 310
317 316 316 315 317 317 315 316 317 316 316 316 315 316 316 314 313 318 312 311 311 312 311 312 310 311 311 310 310 310 311 308 308 308 309 308 306 307 306 305 305 304 306 305 306 307 308 308 307 308 306 306 305 302 301 298 298 301 302 305 306 306 307
316 316 318 316 317 317 314 315 317 318 317 316 315 316 316 314 314 314 312 311 312 311 312 310 310 309 309 308 310 310 310 309 308 308 308 308 309 306 306 306 305 307 306 306 307 309 308 307 308 305 304 305 306 304 301 301 297 300 305 303 304 306 305
318 316 319 317 317 316 315 315 315 318 317 316 315 316 316 315 314 314 313 313 312 311 311 311 309 308 309 308 309 309 308 309 309 307 306 307 309 307 304 306 305 304 304 303 303 306 306 307 305 304 304 304 303 305 304 301 299 299 303 304 303 304 306
319 319 320 317 317 317 316 316 315 318 318 316 315 316 316 316 315 315 314 314 312 311 310 310 310 308 309 307 308 307 307 309 308 307 306 305 308 307 306 306 305 306 305 303 304 303 303 303 306 306 306 305 304 304 303 301 299 300 300 303 305 305 306
320 319 318 318 319 319 319 318 319 316 315 315 316 316 316 317 316 316 315 314 313 312 311 310 310 309 310 307 307 311 308 308 307 305 305 304 305 308 305 304 305 306 305 303 303 303 303 303 301 301 303 305 303 304 305 303 299 299 298 301 302 305 305
323 320 319 318 318 319 319 318 318 317 317 318 318 315 316 317 316 316 316 315 314 313 312 311 310 310 309 309 307 308 308 306 305 306 305 304 305 305 304 304 305 306 307 303 304 304 304 304 303 301 301 302 301 301 302 303 301 299 299 300 302 303 303
321 320 320 320 319 318 316 316 316 317 317 318 320 320 316 316 316 316 315 315 315 314 313 312 311 312 311 310 308 309 307 306 306 307 306 305 306 305 303 304 304 305 305 303 304 303 303 303 302 301 301 301 300 300 302 301 301 301 300 298 299 300 301
321 320 318 317 316 317 317 316 316 317 318 319 321 320 320 319 315 315 315 314 315 314 314 313 312 312 312 311 310 309 308 307 307 307 306 305 308 305 304 304 304 304 302 302 303 302 303 302 303 302 300 301 300 301 301 301 300 300 298 297 298 300 301
321 320 318 317 316 316 316 316 315 317 317 318 317 317 319 319 317 316 316 315 315 315 315 314 313 312 312 312 311 310 309 308 308 307 306 306 306 306 305 304 304 304 302 301 301 302 302 302 302 300 299 298 297 297 297 297 298 297 296 296 296 297 299
317 317 318 318 318 319 318 317 317 317 318 318 318 317 317 317 317 317 317 318 316 315 315 315 314 312 312 312 311 310 309 308 308 307 307 307 306 304 304 304 303 303 302 301 301 301 300 298 299 297 297 296 296 296 296 295 295 294 294 293 294 295 295
316 317 316 316 316 317 318 318 318 317 316 316 316 317 316 317 317 317 318 318 318 316 315 315 314 313 313 312 311 310 309 308 308 307 307 306 305 304 304 304 303 303 301 301 299 297 297 295 295 293 294 296 295 294 293 294 292 291 291 291 290 290 291
312 315 316 315 314 314 314 314 316 317 316 315 316 316 316 316 316 316 318 318 318 317 316 316 316 314 313 311 311 310 310 309 308 307 306 305 305 304 303 303 302 302 306 304 301 300 298 298 294 290 292 294 295 292 292 291 292 290 290 290 290 291 291
310 310 312 312 313 314 313 312 313 315 316 316 315 314 313 312 313 315 316 316 317 317 316 317 315 309 309 312 311 312 311 309 308 307 306 304 302 302 302 301 307 308 304 301 298 295 294 296 299 295 292 291 292 292 291 291 290 291 291 290 289 290 290
310 310 310 311 311 315 316 316 316 315 315 316 317 316 315 314 314 315 315 316 316 317 317 317 308 303 302 305 311 311 310 309 308 307 305 303 301 301 301 302 303 304 301 300 296 293 293 293 293 294 296 296 296 292 290 291 290 290 291 291 291 290 289
305 306 307 310 311 312 313 314 314 314 316 316 317 316 315 314 314 313 315 315 314 315 316 311 304 302 300 299 304 312 310 309 308 306 305 303 302 301 301 302 302 302 298 296 295 294 294 293 292 292 291 292 292 294 295 293 291 290 289 289 289 290 290
303 303 305 305 305 306 308 309 310 310 313 316 316 316 317 315 314 313 313 312 311 309 313 308 302 301 299 298 298 306 309 309 307 305 304 304 302 301 301 302 303 302 301 304 304 298 296 295 294 292 292 292 292 291 289 289 292 294 291 290 289 289 290
302 303 304 304 304 305 306 307 309 310 311 312 313 314 314 314 313 310 306 303 300 299 298 294 295 297 298 296 297 303 307 306 304 303 303 303 303 303 302 301 301 302 301 302 301 299 297 296 295 294 292 291 291 293 293 291 290 290 292 291 290 289 291
301 302 302 302 302 303 304 304 305 306 309 309 309 310 311 310 310 309 306 301 298 296 295 292 293 294 294 295 297 300 304 303 302 303 303 303 302 302 302 302 300 301 301 302 301 300 298 296 294 295 293 292 292 292 292 293 293 292 293 292 291 291 292
301 301 302 301 302 302 302 302 303 303 306 306 307 307 307 307 306 306 304 301 298 293 292 292 292 294 294 295 297 302 302 301 301 301 301 301 301 301 300 299 299 300 301 300 299 295 297 298 296 294 293 292 291 292 292 295 295 295 296 295 294 293 294
301 300 300 300 300 300 301 303 302 303 305 304 305 305 304 304 305 305 302 300 297 292 291 291 292 293 294 295 297 300 299 299 298 298 299 301 299 300 301 301 301 300 300 298 292 290 290 294 295 293 291 290 291 291 292 294 294 294 292 292 291 291 291
301 301 299 300 300 300 301 302 302 302 304 303 303 302 305 304 303 304 302 298 296 293 290 290 291 292 293 294 297 298 297 298 297 297 298 300 301 301 302 305 305 301 296 292 290 290 291 293 292 290 290 289 289 289 289 291 293 293 292 292 291 291 291
301 300 300 300 301 301 301 301 300 301 302 302 302 301 302 303 301 300 299 298 299 294 290 290 290 291 292 294 296 296 296 295 295 295 297 298 300 301 297 294 296 294 294 291 289 289 289 291 289 288 288 287 286 286 287 287 288 288 288 288 288 289 289
300 300 300 300 300 301 300 302 301 300 300 301 303 301 300 303 299 296 296 297 297 293 290 288 290 290 292 293 294 295 294 294 295 295 295 294 296 297 293 292 290 289 289 289 288 288 289 289 288 287 287 286 285 285 287 287 289 288 287 287 287 287 288
299 299 300 301 302 301 301 300 300 300 299 300 300 300 302 299 297 295 295 295 294 292 291 288 289 289 290 291 292 293 293 291 292 294 294 293 293 294 292 290 290 290 288 288 289 288 288 289 289 288 286 286 286 289 289 286 288 290 287 287 288 287 287
298 302 301 301 301 301 300 300 300 300 299 300 299 300 299 298 296 295 294 293 292 292 293 292 288 289 289 290 291 292 292 291 291 293 293 293 294 294 292 291 290 290 288 288 288 289 289 289 288 289 287 288 288 288 288 289 287 287 286 286 285 286 286
299 304 302 300 300 300 299 300 300 299 299 299 299 299 298 296 293 292 292 291 290 290 289 290 290 289 289 289 289 289 290 290 289 294 292 291 291 292 293 291 291 290 289 289 289 288 289 288 289 287 288 288 288 288 288 286 286 286 285 285 285 286 286
298 298 298 299 299 298 298 299 300 301 299 299 298 298 296 294 292 291 290 288 289 288 287 287 290 290 289 289 289 289 288 288 290 292 290 289 291 292 291 290 290 289 289 289 289 289 288 289 288 288 288 288 288 288 286 286 285 285 285 285 286 287 287

ECMWFFLT1_sfc_thetae_012.txt.gz
Theta_e
312 312 313 313 313 316 314 313 311 311 312 311 310 310 312 313 312 312 314 315 317 318 319 317 316 317 319 319 317 318 320 318 316 316 314 314 314 314 318 315 315 318 317 316 312 311 305 305 307 311 316 318 318 318 321 320 318 319 321 321 320 321 323
314 315 315 315 315 315 312 309 309 309 309 309 310 310 311 312 314 310 311 314 315 315 318 316 315 316 316 314 313 313 313 313 316 315 315 312 311 312 314 314 315 314 314 315 316 312 309 305 305 307 307 312 315 319 321 323 323 321 321 318 317 320 319
315 314 314 314 313 312 309 307 307 308 308 310 310 310 309 310 310 311 311 312 313 315 315 311 311 311 312 312 312 311 311 311 311 312 310 307 308 309 313 314 311 312 312 310 309 311 311 309 306 307 304 302 302 305 311 316 320 321 321 320 318 318 319
314 314 313 311 311 309 308 307 308 309 309 309 309 309 310 311 311 312 310 311 312 315 313 310 310 311 310 310 310 309 309 308 307 307 307 307 307 308 309 309 310 310 309 305 305 306 305 302 302 302 302 303 303 302 304 307 310 311 313 315 317 318 318
315 314 314 313 311 309 308 308 309 309 308 307 308 309 309 309 310 309 311 309 310 308 310 311 311 310 310 309 308 308 308 307 307 307 305 304 304 305 305 306 305 307 306 306 306 306 304 303 302 301 301 301 301 301 305 306 305 306 307 308 310 311 311
315 315 315 313 311 310 309 309 308 308 307 308 307 308 307 307 309 308 307 308 308 309 309 309 308 308 308 308 308 307 306 305 304 304 303 302 303 303 303 303 304 305 304 305 305 305 305 304 302 299 301 302 301 301 301 303 304 304 306 307 309 309 310
314 315 314 313 311 311 311 309 309 308 307 308 308 308 309 309 309 310 309 308 308 308 308 308 308 308 308 308 308 307 307 305 305 304 303 303 303 302 301 302 302 302 302 305 304 305 303 302 300 300 300 299 300 301 301 301 303 303 305 307 308 308 308
315 315 314 313 312 312 311 309 309 309 309 309 308 309 310 309 309 308 308 307 308 308 309 309 311 309 309 310 309 308 307 307 307 306 303 303 305 303 303 301 303 302 303 304 305 304 305 304 303 302 300 299 297 294 298 299 301 302 303 305 307 307 307
315 315 314 314 313 313 312 310 310 309 310 310 310 311 310 310 309 309 308 307 307 307 307 308 308 308 308 307 306 306 306 310 307 305 303 303 303 303 302 301 302 301 303 303 304 303 304 304 304 303 301 299 296 294 295 295 296 299 303 304 305 306 306
315 314 314 313 314 314 312 311 310 311 311 311 311 312 311 309 309 309 308 307 307 307 307 307 307 306 307 308 307 306 307 307 308 306 304 305 304 303 303 302 301 302 303 303 303 305 305 303 304 302 302 301 299 297 294 293 293 296 300 304 303 304 306
315 315 315 314 314 314 313 312 310 311 311 312 313 314 310 309 310 315 308 307 307 307 308 307 307 306 307 306 306 306 307 307 307 306 306 305 304 305 304 303 302 302 304 302 303 304 305 305 304 303 302 302 300 298 297 295 294 296 299 300 303 302 304
316 315 315 315 314 314 313 312 311 312 312 312 313 313 309 309 310 308 308 307 307 307 307 307 307 306 306 306 306 306 305 305 305 304 304 305 305 305 304 303 303 302 303 301 302 303 304 304 304 302 303 302 302 299 299 297 294 295 301 299 299 302 303
317 316 316 315 315 315 314 314 313 312 312 313 313 313 310 310 310 309 308 309 308 307 307 307 306 306 305 306 306 306 305 304 305 304 304 305 307 304 303 302 301 301 301 301 301 302 302 302 304 302 301 302 301 301 300 298 296 297 299 301 300 302 303
316 316 316 315 316 315 314 315 314 314 313 312 313 313 311 311 311 310 309 310 309 308 308 307 305 306 306 304 305 305 304 305 305 303 304 303 305 302 303 303 302 303 302 300 300 301 301 301 301 301 303 301 301 300 301 299 298 298 298 299 301 302 304
315 316 315 314 316 315 313 315 315 314 313 312 314 313 312 312 312 311 310 310 309 309 308 308 307 306 307 305 304 306 306 305 304 304 303 302 303 305 302 301 303 303 302 301 301 301 302 302 300 299 300 301 299 300 299 299 296 297 296 298 300 302 301
315 315 315 313 315 314 313 314 315 314 313 312 314 314 313 313 313 312 311 311 310 310 309 308 308 307 307 306 305 306 306 304 304 303 302 301 302 302 300 301 302 302 303 300 301 301 302 301 300 300 299 299 299 299 300 299 297 295 295 296 298 298 298
317 316 315 315 315 315 315 314 316 315 314 313 314 314 313 313 313 312 312 311 311 310 310 309 308 308 308 307 305 306 306 304 303 303 304 302 302 302 301 300 301 301 302 300 301 300 300 300 300 300 299 299 297 298 298 297 297 296 295 294 294 297 298
316 316 316 316 315 315 315 315 315 315 315 315 315 314 314 313 313 313 313 312 311 311 311 310 310 309 308 308 307 306 307 305 304 304 305 304 306 302 302 301 301 302 300 300 300 300 299 299 300 298 296 296 296 297 297 296 295 295 293 292 293 295 295
316 317 317 316 315 315 315 314 315 315 316 316 315 315 315 314 314 313 313 313 313 312 312 311 310 310 309 309 309 307 307 306 305 304 305 304 304 303 302 302 302 302 301 300 299 299 298 298 297 294 294 295 295 295 294 293 293 292 291 290 290 291 291
314 315 317 316 316 316 315 315 315 315 315 316 315 315 315 315 315 314 314 315 315 314 314 313 312 310 310 309 309 308 307 306 305 305 305 304 304 304 303 303 302 302 301 300 299 299 297 296 296 294 296 294 294 292 293 292 291 290 290 289 289 289 289
313 314 314 315 316 316 315 314 313 314 315 314 313 314 314 315 314 314 315 314 314 314 314 314 313 312 311 310 309 308 308 307 306 305 305 304 304 304 303 303 303 302 302 301 300 298 296 294 293 291 294 294 293 291 291 291 290 289 289 289 288 288 289
313 314 314 315 314 314 315 315 315 313 314 314 313 313 313 313 312 313 312 312 313 312 313 313 314 313 312 311 310 309 308 308 307 306 305 304 304 303 302 303 302 301 304 305 302 301 299 297 293 290 292 293 292 290 290 289 290 289 289 289 289 289 288
312 313 312 312 312 313 313 313 314 314 314 314 313 311 310 310 309 309 310 311 312 311 310 312 312 308 308 313 312 311 310 309 308 307 306 305 303 302 302 302 304 308 307 304 300 296 295 297 298 295 291 291 292 290 290 290 288 289 290 289 288 288 288
310 310 311 310 309 311 312 312 312 313 312 311 311 308 309 310 308 308 309 307 308 311 313 315 307 302 300 303 311 311 310 309 309 308 306 305 303 302 301 301 302 305 303 301 297 294 293 294 294 294 295 296 296 293 291 290 288 288 290 289 289 288 287
307 307 307 308 309 309 310 311 311 309 308 308 308 308 308 308 308 307 308 307 307 309 309 309 304 302 299 298 303 311 310 309 309 307 307 306 304 303 301 300 300 301 297 296 294 294 294 293 293 293 293 293 293 294 295 292 291 289 288 288 287 288 287
302 301 302 305 304 305 306 307 307 307 307 308 308 308 309 308 308 308 307 308 307 307 308 297 297 300 300 298 297 303 310 309 308 307 306 306 304 301 300 300 300 301 300 303 300 294 294 293 293 292 292 292 292 291 290 290 292 293 290 288 288 287 288
299 300 300 300 300 301 302 304 303 303 305 305 307 308 307 307 308 307 305 306 303 298 297 294 296 297 298 296 296 298 307 307 307 305 304 303 302 300 300 300 301 301 301 301 299 297 296 295 293 292 292 291 292 294 292 291 290 290 292 291 289 288 289
299 299 299 298 298 298 299 299 301 299 302 304 306 308 308 307 307 305 302 299 296 294 294 292 293 297 296 295 294 295 302 302 302 301 301 302 301 301 300 302 301 301 301 300 301 299 298 296 294 293 292 292 291 290 291 291 291 291 291 290 289 289 289
298 298 298 298 299 299 297 297 299 298 301 300 301 301 302 302 302 300 300 296 293 291 291 292 292 293 293 294 296 300 299 299 299 298 299 299 301 301 300 301 300 300 300 301 299 295 296 296 294 293 292 289 289 289 291 294 293 292 292 290 290 290 290
298 297 298 298 298 297 298 298 298 298 300 298 299 299 300 301 299 300 298 295 292 289 290 291 292 293 293 294 296 298 298 297 297 296 297 298 298 299 299 299 299 298 298 294 291 290 292 294 292 291 290 289 290 290 290 291 292 292 291 291 290 290 290
299 298 297 298 297 295 295 295 296 298 300 299 299 298 299 297 299 299 298 295 293 291 289 292 293 293 294 294 296 296 295 296 295 295 295 296 296 297 298 305 302 295 292 292 290 290 291 292 289 289 288 287 286 285 286 287 290 290 291 291 290 290 290
299 298 298 297 296 296 296 297 296 296 297 298 298 296 296 297 297 296 295 294 298 292 289 291 292 292 293 294 296 295 296 295 294 293 293 293 294 292 291 294 297 294 292 291 289 289 289 290 289 289 288 288 287 285 285 284 285 286 286 287 286 287 288
297 297 297 296 295 297 296 297 297 297 296 295 295 294 295 295 294 293 293 293 293 290 289 289 291 292 293 293 294 295 294 293 291 289 290 293 291 290 289 289 291 289 289 289 289 288 289 289 289 288 287 285 285 284 284 285 287 286 284 285 285 285 287
296 296 295 296 296 296 296 297 296 298 298 294 292 294 294 292 292 291 290 290 289 288 289 288 289 291 292 292 292 292 291 291 290 290 290 291 290 289 289 289 291 290 289 289 288 288 289 289 289 288 286 285 284 287 288 284 286 290 285 285 286 286 286
297 298 297 297 296 296 296 296 295 296 294 293 292 292 291 291 291 290 290 289 288 288 291 291 288 291 291 291 291 291 290 290 291 291 291 291 291 290 290 289 289 289 288 288 288 288 288 288 288 290 286 287 288 287 286 287 286 285 285 285 283 284 285
297 299 298 296 297 296 296 296 296 295 294 292 292 292 291 290 290 289 288 287 286 286 286 289 290 289 290 290 290 290 290 290 291 291 290 290 290 290 290 290 291 290 288 288 288 288 288 288 289 286 288 287 287 287 287 285 284 285 283 283 284 284 284
296 296 295 295 295 296 295 295 295 296 293 293 292 291 289 290 289 288 287 286 286 285 286 286 290 290 289 289 289 289 289 289 290 291 291 290 290 290 290 290 291 289 288 289 289 288 288 288 287 287 288 288 288 288 286 284 284 284 283 284 282 283 284

ECMWFFLT1_sfc_thetae_015.txt.gz
Theta_e
311 310 309 310 311 313 310 309 308 307 308 309 310 310 313 315 314 313 314 315 316 317 318 315 315 316 317 318 319 319 320 319 316 316 314 314 315 315 318 315 316 317 316 314 311 310 304 303 307 309 311 311 316 317 318 320 320 318 318 317 318 319 321
311 312 313 313 311 309 307 306 306 306 307 308 309 310 311 314 316 312 313 314 314 315 317 315 314 314 313 313 313 314 313 313 314 313 314 312 311 313 315 315 314 314 315 315 315 309 305 301 303 303 303 306 308 308 310 311 312 314 316 318 320 320 318
313 312 311 310 308 306 306 305 305 306 307 307 307 308 309 310 311 312 313 312 312 313 314 311 311 311 310 310 309 310 311 310 308 311 311 308 310 312 314 313 313 310 309 305 306 309 308 306 306 303 303 301 301 303 305 307 307 308 311 311 310 310 312
312 312 311 308 307 305 305 305 305 305 306 306 307 307 308 309 310 312 311 311 312 315 312 310 309 309 307 308 308 308 307 307 306 306 307 307 308 309 309 310 310 308 306 303 303 304 303 300 300 301 300 302 301 300 303 305 307 306 307 308 307 307 307
313 313 312 310 307 305 304 305 305 305 304 305 305 307 306 308 310 308 309 308 309 308 309 309 309 308 308 307 306 306 305 305 306 306 304 304 304 304 304 304 304 305 304 304 304 303 302 301 300 298 299 298 299 299 302 303 304 305 306 305 306 306 306
314 313 312 311 307 306 305 304 304 304 304 304 305 306 305 305 308 307 307 308 307 308 308 307 306 306 306 306 305 304 303 303 302 302 302 301 302 302 301 301 302 303 303 302 303 303 302 301 300 297 299 299 299 299 299 301 303 302 304 304 305 305 306
313 313 313 312 308 307 307 306 305 304 304 304 304 305 306 306 306 307 307 305 305 305 306 306 306 306 306 306 305 304 304 302 303 302 302 301 301 300 300 301 301 302 301 302 302 302 300 300 299 298 298 296 296 298 298 300 301 302 302 305 305 305 306
314 314 314 313 310 307 307 307 305 304 304 304 305 305 307 305 305 305 305 306 305 306 306 307 309 307 307 307 306 305 305 303 303 303 301 302 302 300 300 301 302 300 301 301 301 302 303 302 301 299 297 295 293 292 296 295 298 301 301 302 305 305 305
316 315 315 313 311 309 309 308 307 305 305 305 304 306 306 306 306 306 306 305 305 306 306 306 306 307 305 305 304 304 304 306 303 302 301 302 301 300 300 299 301 300 300 301 302 301 301 302 302 299 299 295 293 292 292 293 293 297 300 301 301 304 305
315 315 315 313 311 311 309 308 308 307 306 306 306 308 306 305 306 306 305 304 305 306 306 306 306 305 304 305 304 303 304 302 304 302 301 302 300 300 300 300 300 301 300 301 302 303 302 301 301 300 299 299 295 293 292 291 291 294 299 301 300 300 304
315 316 314 313 312 311 309 308 307 308 307 307 308 310 306 305 306 311 305 305 304 305 306 305 305 304 304 304 303 303 303 303 304 302 303 302 300 302 303 301 300 301 302 301 302 302 302 301 300 300 300 300 297 297 294 293 293 293 297 297 299 300 302
315 316 316 314 312 312 310 309 308 309 307 307 309 308 306 306 306 306 305 304 304 305 304 304 304 304 304 304 303 304 302 302 302 302 302 302 302 302 301 301 300 301 300 301 302 302 302 302 300 299 299 300 300 297 295 294 293 295 299 298 298 299 301
317 317 314 313 312 312 312 311 310 309 309 309 307 308 306 306 307 305 305 306 306 305 305 304 304 304 304 305 305 304 301 302 302 301 301 303 304 301 300 300 300 299 299 299 300 300 300 301 301 300 300 300 300 298 296 295 294 297 297 299 299 300 301
317 316 314 314 313 313 312 312 310 310 310 310 309 309 308 307 307 307 306 307 306 306 306 305 304 304 304 304 304 303 302 302 303 300 302 302 302 300 300 299 299 300 299 298 298 300 301 299 299 300 300 298 298 298 298 296 294 295 296 297 298 299 300
316 315 314 313 313 313 312 312 311 310 310 310 310 311 309 308 307 306 305 306 305 305 306 306 305 305 305 304 303 305 304 303 302 301 300 301 301 302 299 300 300 301 299 299 298 300 299 298 298 298 298 298 297 298 297 296 295 294 293 295 296 297 296
313 313 312 311 311 311 312 312 312 312 311 310 310 311 310 309 308 307 306 306 306 306 306 306 305 305 305 305 305 304 304 304 303 302 301 300 300 300 299 300 299 300 300 298 298 298 299 298 299 298 297 297 297 296 296 296 294 292 292 292 294 294 293
313 313 313 312 311 311 312 313 313 313 312 311 310 311 310 309 309 308 307 306 306 306 306 306 306 306 306 305 305 305 304 304 304 303 303 301 300 301 300 298 299 300 299 299 298 298 298 298 298 297 296 296 296 295 295 294 294 292 292 290 290 293 293
313 312 312 313 313 314 313 312 313 313 312 311 311 311 311 310 309 309 309 308 308 307 307 307 307 306 306 305 305 305 305 304 304 304 304 303 304 302 301 300 300 300 299 299 298 298 298 297 297 295 295 295 295 295 295 294 292 291 289 288 289 291 291
313 312 313 314 314 314 313 313 313 313 314 314 314 314 313 313 314 313 312 311 309 308 308 307 307 306 306 306 305 304 305 305 304 304 304 304 303 302 302 301 300 301 300 299 299 298 298 297 296 295 294 294 294 293 292 292 291 290 289 288 289 289 288
313 313 313 313 314 314 314 312 313 314 313 314 314 314 314 314 314 314 314 313 312 311 310 309 308 307 307 306 306 305 305 305 305 304 304 304 303 303 302 302 301 301 301 300 299 299 298 296 296 294 295 293 292 291 291 290 290 289 289 288 288 288 289
313 314 314 314 313 314 314 313 312 312 313 312 313 314 314 314 315 314 314 313 313 312 312 310 309 308 308 308 306 305 305 304 305 304 304 304 303 303 302 302 302 302 302 301 300 299 298 295 293 293 293 292 291 290 289 290 289 289 289 288 288 287 287
312 313 314 314 314 314 314 314 314 313 313 313 314 315 314 313 311 311 311 311 312 312 312 312 312 311 310 309 307 306 306 306 306 305 304 304 303 302 302 302 302 302 304 306 303 302 300 298 294 292 292 291 290 290 289 290 290 288 288 288 288 288 287
311 312 312 313 314 314 314 313 314 314 313 314 314 313 313 311 311 310 310 311 311 311 310 311 311 308 308 310 309 309 308 307 306 305 305 305 304 304 303 303 304 307 306 306 302 298 296 296 298 295 293 293 293 289 289 288 288 288 289 288 287 287 288
308 310 311 312 312 313 313 312 313 312 312 312 312 311 311 310 310 308 309 310 311 312 312 312 306 302 300 302 309 308 308 308 308 307 306 305 305 305 304 302 300 305 305 304 300 296 294 294 294 294 295 295 295 292 289 288 287 287 290 289 287 287 287
307 309 309 309 309 310 308 309 310 311 311 310 308 308 309 310 310 310 308 309 309 310 310 307 302 301 299 298 301 308 308 308 307 306 306 305 305 305 303 301 300 303 301 299 297 295 295 294 293 293 292 293 293 294 294 292 291 288 287 287 287 287 286
307 307 308 308 307 307 308 308 309 309 309 310 308 308 309 309 308 306 307 308 309 308 307 299 295 298 299 297 297 300 306 307 306 306 306 305 304 303 301 301 300 300 301 303 300 295 295 294 293 292 293 293 293 292 290 290 291 291 288 287 287 286 286
303 303 303 303 305 305 306 308 308 308 308 305 307 308 307 308 307 307 308 307 306 298 296 295 293 294 296 296 295 296 302 303 303 304 303 304 303 300 300 300 300 299 299 300 297 296 296 295 295 294 293 292 293 293 292 292 290 290 292 290 287 287 287
297 297 297 299 299 299 300 298 299 300 303 304 305 305 305 305 306 306 305 302 298 293 293 293 291 294 295 295 295 295 300 299 298 297 298 299 299 299 299 301 299 298 299 299 299 297 296 296 296 295 294 293 292 291 291 290 290 290 290 288 287 287 287
296 295 296 295 296 295 294 296 296 297 296 295 296 297 298 299 299 298 297 294 294 294 291 292 292 293 293 292 295 298 296 296 295 295 295 296 297 297 298 299 300 300 300 299 294 294 296 297 295 293 290 288 288 288 289 292 292 292 291 288 288 288 288
296 295 295 296 294 294 295 295 295 294 294 294 296 297 297 297 297 297 295 293 292 291 290 292 292 292 293 294 295 296 295 295 295 295 294 294 295 296 296 296 297 295 293 293 292 291 292 293 292 290 288 286 286 286 286 288 291 290 290 290 290 290 290
298 298 296 296 294 293 293 293 293 296 295 295 296 295 295 293 296 295 296 294 292 290 289 292 293 292 293 294 296 295 294 294 293 293 292 291 291 292 297 301 296 292 292 291 290 290 291 293 291 290 289 288 287 286 286 286 288 288 290 290 290 289 289
298 299 299 297 295 293 294 295 293 292 293 294 294 292 293 294 293 292 292 291 299 289 288 292 292 292 292 293 295 294 295 294 293 290 290 289 288 289 290 294 295 293 292 291 289 290 290 291 290 289 289 288 288 287 287 286 285 285 285 285 285 287 287
299 298 299 298 296 296 295 293 293 292 291 293 293 291 292 292 291 289 289 288 289 288 288 288 290 292 293 293 294 295 294 293 291 289 289 290 288 287 288 289 290 289 289 289 289 289 289 290 290 290 289 288 287 287 287 286 289 286 283 284 283 283 285
299 298 297 297 296 297 296 295 293 292 292 292 291 291 291 290 289 288 287 287 286 287 289 288 289 291 292 292 292 292 290 291 289 290 289 288 287 287 287 287 288 290 288 289 289 288 289 289 289 289 287 287 288 289 287 284 285 290 284 284 284 284 285
297 297 296 296 296 297 296 295 295 294 292 291 291 289 288 289 288 287 286 286 286 285 291 292 288 290 291 291 291 291 290 289 290 290 288 287 286 287 286 286 287 288 288 288 288 288 288 289 290 290 286 288 287 287 286 287 284 284 283 283 282 283 283
297 298 296 295 294 294 293 294 294 292 291 290 291 290 288 288 287 286 285 284 284 284 285 289 291 289 290 290 290 290 290 290 290 291 289 288 287 287 288 288 289 289 288 288 288 288 288 288 289 287 288 287 287 287 288 286 285 283 282 282 284 283 282
296 296 295 295 294 293 292 292 292 292 290 291 291 289 287 287 287 286 285 284 284 284 284 285 290 290 290 289 290 289 289 289 290 290 290 288 287 288 288 289 290 288 288 288 288 288 287 288 286 288 288 288 288 288 286 284 283 283 283 282 282 282 282

ECMWFFLT1_sfc_thetae_018.txt.gz
Theta_e
311 310 310 310 310 310 307 307 307 307 309 310 312 313 315 316 315 314 317 319 321 323 325 323 323 323 323 323 323 322 321 321 319 318 317 317 318 316 318 317 318 318 317 315 314 313 309 309 310 313 314 313 312 311 312 311 313 313 313 314 314 315 317
310 312 313 312 309 308 306 305 307 307 308 309 311 312 313 316 318 315 316 317 318 319 322 319 320 319 319 319 318 318 318 316 318 317 317 316 316 316 317 317 315 315 315 316 315 313 310 306 307 306 307 310 311 310 310 310 310 311 311 311 312 310 312
313 311 310 308 306 305 305 305 305 306 307 308 309 310 311 312 313 315 314 315 315 317 318 314 312 312 312 313 313 314 314 313 312 316 316 313 315 316 318 316 315 312 311 311 312 312 311 310 308 305 306 306 305 307 309 308 308 308 309 310 310 309 310
311 311 309 306 305 305 305 305 305 305 306 307 310 309 310 311 313 315 312 312 315 317 313 310 310 309 309 310 309 309 308 309 309 309 310 311 313 313 313 314 314 312 310 309 310 308 308 305 304 304 304 304 304 306 308 309 309 307 307 309 309 309 309
312 312 310 307 305 305 304 305 304 305 305 306 307 309 309 310 311 310 311 310 310 309 309 309 309 308 308 307 307 307 306 306 308 309 307 307 306 306 306 307 307 307 307 308 307 306 306 304 304 302 302 302 302 303 305 308 308 307 307 307 307 308 309
312 312 310 308 305 305 305 305 304 304 304 306 306 307 307 307 309 308 308 309 309 310 308 307 307 307 307 306 306 305 305 305 305 306 305 304 305 305 304 305 306 306 306 305 306 304 303 303 303 301 302 301 303 304 304 304 306 306 307 306 307 307 308
312 312 311 310 308 308 307 306 305 305 305 305 305 306 306 307 307 308 308 307 307 307 307 307 307 307 306 305 305 305 304 304 304 304 303 303 303 303 304 305 305 305 304 304 304 304 303 304 302 302 301 299 300 300 302 303 304 303 305 307 307 307 308
313 313 312 313 310 309 308 306 304 303 305 304 305 306 308 305 306 306 307 306 306 307 308 308 308 307 308 307 306 305 305 304 304 304 303 304 304 303 304 304 304 304 304 304 305 305 305 305 304 302 300 298 298 298 300 300 301 304 303 306 307 306 307
316 314 313 313 311 310 309 307 305 304 304 305 305 306 306 306 306 307 307 305 305 306 307 306 306 306 306 306 305 304 305 307 303 303 303 303 303 303 303 303 304 303 304 305 305 305 305 305 304 302 301 298 296 295 298 299 300 302 303 304 305 306 305
314 314 314 312 311 310 309 307 306 305 305 305 307 309 306 306 306 306 306 305 305 305 306 306 306 305 305 306 304 304 304 304 305 303 303 303 302 303 303 304 304 304 305 306 306 306 305 304 304 304 304 303 300 298 297 297 299 300 303 302 301 303 305
314 314 314 313 312 310 308 307 306 306 306 307 308 310 306 306 306 311 305 305 305 305 306 305 305 304 305 304 304 304 304 305 305 304 305 303 303 304 305 304 305 305 305 305 306 306 305 305 305 305 304 303 303 302 299 298 299 300 303 303 302 300 303
314 315 315 314 312 311 309 308 307 307 306 308 311 308 306 306 307 305 305 305 305 306 305 305 305 304 304 304 306 305 304 304 304 303 304 305 304 305 304 303 303 303 304 304 304 304 305 304 304 304 304 304 304 304 302 300 298 301 303 302 303 303 301
315 315 315 314 313 312 310 309 308 307 308 310 308 307 306 307 307 306 305 305 306 305 305 305 305 304 305 306 306 305 304 304 304 304 304 304 304 303 303 302 302 302 302 303 303 303 304 304 304 304 304 303 302 302 302 300 299 299 303 303 303 301 299
315 315 315 315 315 313 312 311 309 309 309 309 309 308 307 307 307 307 306 308 306 306 306 306 305 305 306 305 305 305 303 304 303 303 305 304 303 303 302 302 302 302 302 303 303 302 302 302 303 303 302 302 302 302 302 301 299 299 301 301 302 299 299
315 315 314 313 312 311 312 310 309 309 309 310 310 310 308 307 307 306 306 306 305 306 306 306 305 305 306 305 305 306 304 304 303 303 304 303 303 303 302 302 302 303 301 302 302 301 301 301 300 300 301 301 301 301 302 301 300 299 297 300 300 299 296
314 314 312 311 311 311 310 310 311 309 308 308 309 309 308 307 307 306 306 306 306 305 305 305 304 304 304 304 304 304 305 304 303 303 303 303 303 302 302 303 303 303 302 303 302 302 301 300 300 300 300 300 299 299 299 299 299 297 295 295 298 296 296
313 313 311 310 310 310 311 311 312 310 309 309 309 310 309 309 308 307 307 307 306 306 306 306 306 305 306 305 305 304 304 304 304 304 304 303 302 303 303 302 303 302 303 302 301 301 301 301 300 300 299 299 299 298 299 298 299 299 297 293 295 294 295
313 312 311 311 311 312 312 312 312 311 310 310 310 311 311 311 309 309 309 309 308 307 307 307 307 307 306 306 306 306 305 305 305 304 304 303 305 304 303 303 303 302 302 302 301 301 300 300 298 299 298 298 298 299 298 297 296 295 294 294 295 297 295
311 311 311 311 311 312 313 313 313 313 313 312 312 312 312 312 313 313 313 313 311 310 309 308 308 308 308 307 307 306 306 306 306 306 305 305 305 304 304 304 303 303 302 303 302 301 300 299 298 298 298 297 297 296 296 295 295 295 294 293 294 296 295
311 311 312 312 312 313 313 313 314 313 314 313 313 312 313 313 313 313 314 314 312 312 311 311 311 310 309 308 308 308 306 306 306 305 305 306 305 305 304 304 303 303 303 303 302 302 300 299 299 297 298 297 295 295 294 295 294 294 294 295 293 293 294
312 312 312 312 313 313 313 313 314 314 314 313 313 314 313 313 313 313 313 313 313 313 313 313 312 312 311 310 308 308 307 307 306 306 306 306 306 306 306 305 304 304 304 303 303 303 302 299 299 298 297 296 295 294 294 294 294 294 294 294 293 294 293
312 313 313 313 313 313 313 313 314 314 314 313 314 314 314 313 312 312 312 311 311 312 312 313 313 312 313 312 309 309 308 308 307 307 306 306 306 306 306 306 305 304 306 306 303 303 303 301 299 298 297 296 296 296 295 295 293 293 293 295 295 293 293
312 312 312 313 313 313 313 313 313 313 314 314 314 313 313 312 312 311 309 310 311 312 313 312 311 307 308 312 312 311 309 308 307 307 307 307 307 306 306 306 306 307 306 306 302 299 297 298 300 299 296 297 297 296 295 295 294 295 296 296 295 294 294
309 310 311 311 310 311 311 311 311 312 312 313 313 312 312 311 310 309 311 311 311 311 311 312 305 301 300 302 311 312 310 309 308 307 307 307 307 307 307 307 306 307 307 305 304 297 295 295 295 295 295 296 297 297 296 295 295 294 296 296 293 293 293
307 308 308 309 309 309 308 309 309 309 309 309 309 310 311 311 310 309 309 310 309 310 311 307 301 300 299 298 301 309 310 309 309 308 308 307 308 308 308 307 305 305 306 306 304 300 297 294 293 293 292 292 291 291 294 298 296 293 294 294 293 293 293
307 307 307 307 306 306 306 307 307 306 307 308 307 309 309 309 310 310 309 309 309 309 309 304 299 297 295 295 295 300 308 309 308 308 308 308 307 307 306 306 304 303 304 306 305 300 299 297 293 293 293 293 293 291 289 290 293 298 295 295 295 292 292
304 305 304 303 303 305 305 305 305 306 307 307 307 307 307 307 307 307 308 308 308 307 306 300 295 294 294 293 293 295 304 304 305 306 306 306 306 306 305 304 303 302 301 303 300 298 297 297 296 295 295 296 296 295 292 290 290 291 294 295 294 293 293
303 302 301 302 302 303 303 302 304 305 306 307 307 307 307 306 306 306 306 305 306 305 301 295 293 292 292 293 293 294 301 301 300 299 299 301 303 303 303 303 303 301 300 299 299 297 297 297 297 296 295 294 294 293 294 294 294 295 294 293 294 294 293
297 297 298 298 299 299 298 300 300 299 302 300 301 301 301 302 304 304 303 303 302 301 296 292 291 292 293 292 294 299 298 297 297 297 297 297 297 299 300 300 300 299 299 297 296 294 296 298 297 295 293 292 292 292 293 293 292 293 294 294 294 294 294
296 295 296 297 296 295 295 295 295 296 298 297 298 299 299 299 300 300 300 299 300 297 294 293 292 292 292 293 295 297 297 296 295 294 293 293 295 298 299 298 297 296 295 296 293 292 293 295 296 293 292 291 291 290 290 292 291 290 290 290 290 290 290
297 296 296 297 296 296 295 296 297 297 300 298 299 298 296 296 296 297 296 294 294 295 293 293 293 292 292 294 296 297 296 295 293 292 291 291 292 295 298 298 296 294 294 294 290 290 291 294 294 293 292 291 290 290 290 290 291 291 290 290 290 289 289
299 298 297 298 298 297 296 297 296 294 295 297 297 295 297 296 293 292 293 295 298 292 291 294 292 292 292 293 296 296 296 294 292 291 291 290 290 291 292 295 295 295 294 292 289 290 290 293 294 293 292 291 290 289 290 290 290 290 291 291 290 291 290
299 299 299 298 297 296 296 296 295 295 294 296 296 294 295 294 292 290 289 290 291 291 292 292 293 292 292 293 294 296 295 295 292 290 290 291 290 290 290 291 292 289 289 289 289 289 289 290 292 292 292 291 290 290 290 290 291 290 289 289 289 289 289
299 299 299 298 297 297 296 296 294 295 295 293 293 293 293 291 290 289 288 289 290 291 292 291 292 291 292 292 292 294 295 294 292 292 290 290 289 289 289 290 291 290 288 289 289 289 289 289 290 292 291 291 291 291 289 289 290 289 289 290 289 289 289
299 300 298 298 298 297 296 296 296 294 294 293 293 292 291 291 290 289 288 288 289 288 293 294 291 291 291 291 291 292 294 293 293 291 289 288 288 289 289 289 290 289 288 288 288 288 289 289 289 291 289 287 286 287 291 290 289 289 288 288 288 288 288
297 299 298 298 298 297 296 297 295 295 294 293 293 292 291 291 291 289 288 287 286 287 287 291 291 291 290 290 290 290 290 291 290 293 291 289 289 289 290 290 291 289 288 288 288 288 288 288 289 289 287 287 287 287 289 289 289 287 288 287 287 287 287
296 296 296 296 296 295 295 295 295 295 294 294 293 292 290 290 291 290 288 286 286 286 286 287 290 290 290 289 289 289 289 289 290 291 291 290 289 290 290 290 290 288 288 288 288 288 287 288 288 287 288 287 287 287 289 288 287 287 286 286 286 286 286

ECMWFFLT1_sfc_thetae_021.txt.gz
Theta_e
328 324 325 324 323 322 322 322 324 325 327 331 333 333 334 334 334 333 332 332 331 331 331 330 330 331 331 331 332 333 331 331 330 326 326 327 326 323 327 326 327 328 328 328 325 321 317 310 309 314 317 317 317 317 317 316 317 317 318 317 316 317 317
326 325 324 321 320 322 322 322 324 324 326 327 328 330 330 331 333 333 333 332 331 331 331 330 331 331 331 331 330 330 330 330 331 329 328 326 328 325 325 325 326 326 326 327 326 324 318 314 311 310 309 314 315 316 316 316 316 317 316 316 314 314 316
325 323 322 319 319 321 321 322 323 325 325 326 326 326 328 328 330 332 333 333 331 331 330 330 330 330 330 330 330 331 330 330 330 330 329 329 329 329 329 328 326 324 325 324 324 321 320 319 313 310 311 311 308 311 316 314 314 314 314 315 315 314 315
325 323 320 319 318 320 320 321 323 323 325 325 326 326 327 327 329 330 330 330 331 330 328 328 330 329 329 329 329 329 330 329 328 327 326 327 327 326 326 327 326 325 323 321 320 321 318 315 312 311 312 311 310 309 312 314 313 312 312 313 313 313 314
326 324 322 320 319 319 320 319 320 322 323 323 325 326 326 326 327 327 327 327 326 327 327 328 328 327 326 325 326 326 325 326 328 328 327 326 327 326 326 325 322 323 323 321 320 321 319 316 315 311 310 311 311 310 311 314 312 311 311 310 311 312 312
327 326 324 322 321 320 320 319 320 321 322 323 324 325 324 324 325 325 326 325 325 325 324 324 324 323 323 322 322 323 324 325 326 326 324 325 325 322 318 320 318 318 317 319 319 317 317 316 314 310 310 312 309 310 311 312 309 310 310 310 310 310 310
325 325 324 321 321 322 321 321 321 321 322 324 323 323 322 322 323 324 324 323 322 322 322 322 321 320 322 320 322 322 322 321 322 322 320 321 321 321 321 318 318 317 317 319 318 316 314 313 310 310 310 312 312 308 309 309 310 308 308 309 309 309 309
324 324 323 323 321 320 320 321 321 322 322 321 321 321 320 322 322 323 323 322 321 321 321 321 320 320 321 320 320 320 319 319 320 320 319 319 318 318 320 318 318 317 316 316 315 313 312 313 313 312 310 308 309 309 307 308 307 308 308 308 308 307 308
324 323 321 319 320 322 322 322 321 322 321 320 320 321 320 321 322 322 321 320 320 320 320 319 319 319 320 320 318 319 316 317 319 319 318 318 318 319 318 318 316 314 316 315 314 315 313 314 313 314 313 310 307 305 308 307 307 305 308 307 307 306 305
322 323 322 321 322 322 322 321 320 320 322 322 321 322 321 321 321 322 321 320 320 320 319 318 318 318 319 319 318 318 317 318 318 317 318 317 317 317 317 318 315 314 314 317 315 316 316 317 316 315 310 309 309 306 304 304 306 306 306 306 304 304 304
322 322 323 323 322 321 321 320 320 319 321 322 322 321 322 321 322 320 321 320 320 320 320 318 317 317 318 317 317 316 316 318 316 317 317 316 316 317 317 316 316 313 317 316 316 318 317 317 316 314 312 312 312 307 306 304 304 308 307 307 304 302 303
322 322 323 323 322 322 321 320 319 321 321 322 321 321 321 320 321 320 321 320 320 319 319 319 318 317 317 316 317 315 316 317 315 315 316 317 317 317 316 316 317 315 318 318 317 317 317 317 315 314 313 313 313 312 310 308 305 306 310 306 304 302 302
321 322 322 322 322 321 320 319 319 320 320 320 322 321 320 320 320 319 319 319 319 319 318 318 317 317 318 318 317 315 316 316 313 314 314 315 314 316 315 315 315 314 315 314 315 316 315 316 317 313 313 313 312 313 311 308 306 305 309 306 303 301 303
322 323 323 323 323 322 320 319 320 321 319 319 321 320 319 319 318 318 317 317 317 318 318 317 318 318 317 317 317 317 315 315 313 313 314 314 314 314 313 312 312 313 316 314 314 315 314 313 314 314 313 312 310 311 309 309 306 305 306 306 303 301 303
323 323 323 322 321 320 319 319 320 319 320 319 320 320 319 319 319 318 317 317 318 317 317 317 317 318 317 317 317 317 316 314 313 313 315 312 313 314 315 312 311 313 314 312 314 310 311 310 309 309 310 310 308 307 309 306 305 304 303 305 302 302 302
322 323 323 322 321 319 320 319 318 318 319 318 318 319 318 318 318 318 318 318 317 317 317 317 318 317 317 318 317 318 317 316 315 314 314 313 311 312 312 313 312 313 315 313 313 312 312 310 309 308 309 308 307 306 305 306 306 303 302 300 303 301 302
323 323 323 323 321 320 320 320 319 319 318 319 318 319 319 318 318 319 318 317 317 317 317 318 317 316 315 316 316 315 316 317 316 316 314 313 312 312 313 313 313 314 314 313 312 312 312 312 311 309 309 308 306 304 305 306 306 304 303 301 301 300 302
323 324 324 324 322 321 322 321 320 319 319 319 319 319 319 319 319 318 319 317 317 317 317 317 317 317 318 317 316 317 316 315 316 315 316 316 315 314 314 314 313 313 313 312 313 311 311 311 309 310 308 307 305 304 305 305 304 305 304 303 302 302 304
323 323 324 323 322 323 323 322 321 320 320 319 320 320 320 320 319 319 320 319 319 318 318 318 317 317 317 318 318 318 317 317 316 316 316 315 314 315 315 314 315 314 312 313 312 313 312 311 310 310 308 306 305 305 306 305 305 305 304 303 304 302 304
323 324 324 324 324 323 322 323 322 320 320 320 320 321 321 321 322 321 321 321 320 319 319 320 320 320 319 319 319 319 319 318 318 318 317 316 315 315 314 314 314 315 313 313 313 313 312 313 312 311 310 308 304 305 305 305 304 304 304 303 303 303 303
323 324 324 324 323 323 323 323 322 322 321 321 321 321 321 321 321 321 321 321 321 321 321 321 321 322 322 322 321 320 320 320 319 319 319 317 317 316 316 315 314 314 313 313 314 314 314 312 311 310 310 307 306 305 305 305 305 304 304 304 303 302 303
323 324 323 323 322 323 323 323 323 323 322 322 323 321 321 321 320 320 319 319 319 320 320 320 320 321 322 322 322 322 321 320 321 320 320 319 317 316 316 316 316 315 315 312 308 310 310 309 311 309 308 307 305 306 306 305 305 303 304 304 304 305 304
322 323 323 322 322 323 323 323 323 323 322 323 321 320 320 319 319 320 319 318 318 318 319 319 316 309 310 320 322 321 322 321 321 321 320 319 318 317 316 317 317 313 309 307 303 300 299 299 303 310 308 306 305 306 305 305 304 304 304 303 302 302 302
322 322 323 323 323 322 321 321 321 321 321 321 321 319 319 319 320 320 320 319 319 319 318 317 305 301 299 300 315 321 322 321 321 320 319 319 319 319 319 317 318 314 309 306 307 297 297 296 296 297 299 300 302 308 306 304 304 304 302 302 301 301 301
320 320 321 320 321 321 321 320 319 320 320 321 322 321 322 320 320 320 320 318 318 318 316 308 302 300 298 298 302 318 320 320 320 320 320 319 319 319 319 319 319 317 316 315 314 310 301 295 293 293 292 292 291 291 295 306 305 303 303 301 300 301 302
319 319 319 319 319 320 320 319 319 319 319 321 321 319 320 320 319 319 318 317 318 319 319 303 299 298 297 296 295 302 317 320 320 320 320 319 318 319 319 318 318 316 314 309 310 312 309 301 294 292 292 293 292 291 289 289 293 306 304 302 302 302 302
318 318 318 318 318 319 319 319 319 320 320 319 319 318 319 320 320 319 318 318 318 319 319 302 297 296 296 294 293 295 315 318 319 319 319 319 319 318 318 317 317 317 315 313 314 312 308 303 301 301 303 303 302 299 293 291 291 292 298 303 303 302 303
317 318 317 317 317 317 317 318 318 319 319 318 318 318 318 318 318 320 320 319 318 317 315 296 296 294 293 292 291 294 315 316 317 316 314 313 314 315 315 316 315 315 312 311 310 308 306 304 304 304 304 304 304 303 304 304 304 304 303 303 303 303 302
314 315 316 316 316 316 316 316 317 318 318 318 318 319 319 319 319 318 318 317 316 315 312 292 292 292 292 291 292 312 315 314 312 310 309 310 310 311 312 312 312 311 309 306 298 295 300 305 304 304 303 302 302 301 299 295 292 293 300 302 302 301 301
311 312 313 314 316 316 316 315 316 317 317 317 316 316 317 316 316 316 315 316 316 314 308 296 292 292 292 292 302 314 312 310 308 307 306 307 309 309 310 310 310 308 306 304 295 292 294 299 305 304 302 301 300 300 298 297 292 290 290 290 289 289 288
306 306 308 312 315 316 316 315 315 314 317 316 316 316 313 310 311 313 313 313 315 313 309 298 291 292 293 294 304 312 310 308 306 304 303 304 306 305 302 301 305 307 305 302 291 292 293 302 305 304 302 300 299 299 298 298 298 297 289 289 289 288 289
308 308 307 308 310 312 312 313 312 311 314 316 314 312 312 313 312 312 312 312 305 312 311 301 291 292 292 293 304 312 308 306 305 304 303 302 303 303 301 298 296 300 301 296 290 291 293 301 305 304 302 301 299 299 298 299 298 298 299 299 298 298 296
308 307 307 308 307 307 309 310 310 311 311 312 311 311 310 311 309 307 306 308 308 310 311 308 300 291 293 293 297 310 309 307 304 303 303 302 301 301 301 299 295 289 289 289 289 289 291 295 303 303 303 302 300 298 298 298 298 298 297 296 297 297 297
307 308 307 308 309 307 308 310 310 311 311 311 310 309 307 306 305 304 304 305 307 307 308 308 300 291 292 293 293 300 310 308 305 304 303 301 301 301 300 299 298 291 289 289 289 289 290 291 294 302 301 300 299 297 295 298 295 291 297 296 296 295 296
308 307 307 305 306 308 308 308 308 309 309 310 308 307 306 305 304 302 302 303 304 305 301 300 305 293 291 292 292 294 307 308 306 304 302 302 301 300 299 298 297 291 288 289 289 289 289 290 291 298 295 288 286 289 296 296 297 296 296 295 295 294 294
306 307 307 306 305 306 306 306 305 306 307 306 305 304 304 303 302 301 300 300 300 301 302 300 295 299 291 291 291 293 295 299 293 305 303 301 300 299 299 298 294 289 288 288 289 289 289 289 291 293 287 287 287 287 291 296 294 295 294 294 294 293 293
305 307 307 307 305 305 304 305 305 305 307 308 305 303 302 302 302 300 297 296 297 298 300 301 294 293 294 289 290 291 291 291 293 304 304 301 300 299 298 297 294 288 289 288 288 288 288 290 292 287 287 287 287 290 295 295 294 294 292 292 292 293 293

ECMWFFLT1_sfc_thetae_024.txt.gz
Theta_e
330 331 332 332 332 329 327 327 329 330 333 332 332 331 332 331 332 332 333 334 332 332 331 331 332 333 334 336 336 335 333 332 331 328 328 331 328 329 333 332 330 331 331 329 328 322 319 315 315 320 322 323 323 322 322 321 323 323 323 324 324 324 324
332 331 331 330 328 329 327 328 329 328 331 333 331 331 331 330 330 330 332 332 332 332 331 331 333 335 337 337 336 334 332 331 332 330 328 328 330 329 330 331 331 328 328 329 329 327 319 316 313 314 315 320 322 321 321 322 322 323 322 321 320 321 323
331 330 329 327 327 328 326 328 328 328 328 329 331 331 331 329 330 330 329 332 332 331 329 331 333 334 336 336 337 336 334 332 332 332 330 329 331 333 332 331 328 328 328 327 326 325 323 322 315 313 315 316 314 316 321 320 320 320 320 321 321 319 321
331 330 327 327 326 326 325 326 326 325 328 327 328 330 330 329 329 329 330 332 333 332 329 328 329 328 331 332 334 335 336 335 333 334 332 331 330 329 329 328 328 327 326 324 324 325 324 321 316 315 317 316 315 314 317 318 318 317 317 319 318 318 320
333 330 327 326 325 324 324 324 324 324 325 326 327 327 328 328 328 327 330 330 330 331 329 328 328 328 329 330 331 331 333 334 335 334 334 332 331 330 330 330 329 330 329 327 327 326 323 321 319 317 315 315 314 313 314 317 316 316 315 315 315 316 317
332 330 328 326 326 324 324 323 323 323 323 323 325 326 326 327 326 327 328 327 328 329 329 327 328 328 327 327 328 330 330 331 331 333 332 333 333 330 330 330 326 327 326 326 326 324 323 322 320 316 316 316 312 312 313 315 313 314 314 313 313 313 314
332 331 328 326 326 324 324 323 324 322 322 324 325 326 325 325 326 328 330 329 329 329 329 329 328 327 327 324 326 326 327 329 331 333 332 331 330 328 327 324 324 324 323 323 323 323 322 320 317 316 315 314 314 311 312 313 313 311 311 312 312 312 312
331 330 328 327 327 325 325 324 324 324 323 324 324 325 325 325 327 328 328 328 328 328 328 328 326 326 326 324 324 325 325 326 326 326 326 327 325 324 324 321 320 318 316 316 316 316 315 317 317 316 313 311 311 311 310 311 312 311 309 310 310 310 311
331 330 328 326 326 326 326 324 323 324 323 324 325 324 325 325 326 325 325 324 324 324 325 325 325 324 325 324 321 323 322 323 324 324 323 324 324 323 321 319 316 315 316 315 316 315 314 317 317 315 315 314 310 307 310 309 310 309 312 309 308 308 309
331 329 328 329 328 328 327 324 323 323 325 324 324 325 325 325 324 323 322 322 321 321 322 322 323 323 324 322 321 320 321 322 321 320 320 320 320 319 320 319 316 317 318 319 317 317 317 317 316 316 316 314 315 310 308 308 310 308 307 309 307 306 308
331 330 330 330 328 327 326 325 324 322 323 324 324 325 325 324 323 322 322 321 321 319 319 319 319 320 322 319 320 320 319 319 318 318 318 318 319 319 318 318 318 317 320 320 319 321 320 319 316 316 314 315 315 312 311 308 308 312 309 308 308 305 306
331 331 331 329 327 327 325 324 322 321 324 324 323 324 324 322 322 322 321 321 320 319 318 318 319 319 318 317 317 316 318 317 316 317 319 319 319 320 320 319 320 319 321 321 321 321 321 319 317 317 316 317 317 317 314 311 307 310 315 309 306 307 306
330 331 330 329 328 326 324 324 322 323 324 323 323 323 322 321 321 321 320 320 320 319 318 318 318 318 319 318 317 315 316 316 315 315 315 317 317 319 319 318 318 318 318 318 319 320 319 320 319 316 317 317 317 318 316 314 311 309 312 309 307 306 307
331 330 329 330 328 328 324 324 324 324 322 323 323 322 321 321 319 320 319 319 319 321 319 319 319 319 318 318 317 317 317 316 315 315 317 318 317 318 316 316 317 318 319 318 318 318 317 317 318 318 318 316 315 317 316 315 311 309 309 311 309 306 307
330 330 330 330 330 328 325 325 326 324 323 324 323 320 320 322 321 321 320 319 321 321 320 319 320 319 317 317 318 319 318 316 315 315 316 315 317 317 318 316 314 316 317 316 317 314 315 314 315 315 315 315 313 314 316 314 312 311 308 309 308 308 307
330 331 330 328 329 327 326 326 326 324 323 324 324 322 321 322 320 320 320 320 320 321 320 320 321 320 319 318 316 318 318 317 316 316 316 314 313 315 316 316 315 317 318 317 317 316 316 314 315 314 315 314 313 313 313 314 313 311 310 308 310 308 309
329 329 329 329 329 328 326 325 325 325 324 323 321 324 323 321 320 319 319 319 320 320 320 321 320 319 319 320 320 318 318 318 317 316 315 314 313 314 316 316 316 316 317 316 315 315 316 315 316 315 315 315 314 312 315 315 314 313 312 309 310 308 309
328 328 327 327 328 328 327 325 325 325 325 324 322 323 322 322 321 320 320 318 318 319 319 319 319 320 320 321 320 319 319 318 319 318 318 317 316 316 316 317 316 316 316 317 316 315 315 316 315 316 315 314 313 314 314 314 314 314 313 311 310 310 311
327 328 327 327 327 328 328 327 325 325 325 324 324 323 322 322 321 321 320 319 319 320 320 320 319 319 319 320 321 321 320 320 319 319 319 319 318 318 319 317 318 317 316 317 316 316 317 316 315 315 314 314 313 314 314 314 314 314 313 311 312 310 311
327 327 327 327 327 327 327 327 326 325 325 326 326 325 324 323 323 323 321 321 321 321 322 321 322 321 320 321 321 321 321 321 321 321 320 319 319 320 319 318 319 319 317 316 317 316 317 317 316 315 315 315 313 314 314 314 313 313 313 312 311 312 311
327 327 327 327 327 327 327 327 326 326 325 325 325 325 324 323 324 324 324 324 324 324 324 323 323 324 324 325 325 325 325 324 323 323 323 322 322 321 321 320 320 320 318 317 319 318 317 316 316 316 316 315 314 313 313 313 313 313 312 312 311 311 311
327 327 326 326 326 325 325 326 326 325 326 326 326 325 325 325 324 324 325 325 325 326 325 325 325 324 324 324 326 326 326 325 325 325 325 325 325 324 324 323 322 322 321 319 313 313 311 310 317 315 316 315 313 312 313 313 313 312 312 312 310 312 311
325 326 326 327 325 325 325 325 326 326 326 326 327 326 326 326 325 325 325 325 326 326 326 327 321 310 313 323 325 325 326 325 324 325 325 325 325 326 325 325 325 318 314 310 308 303 302 301 305 312 316 314 312 312 313 313 312 313 312 310 310 310 310
324 324 325 325 324 324 324 325 326 327 326 326 327 327 327 326 326 326 325 325 325 324 324 324 304 301 302 305 319 324 324 324 325 325 324 325 324 323 325 325 326 319 315 311 312 300 299 299 298 297 298 298 303 317 313 311 311 312 311 311 311 310 309
324 324 324 324 324 324 325 325 325 325 326 326 327 328 326 325 325 325 325 325 324 324 325 309 299 299 298 298 308 322 324 324 323 323 324 324 323 323 323 323 326 326 324 321 320 316 304 297 296 295 294 294 292 290 293 309 312 311 311 310 309 310 309
324 324 324 324 324 324 323 324 325 325 325 326 326 324 324 324 323 325 325 323 324 325 325 302 299 297 297 297 298 311 322 322 322 324 323 323 322 321 322 325 325 325 322 314 316 319 316 307 295 292 293 293 293 292 290 289 292 309 311 309 308 307 308
321 322 324 324 324 323 323 322 324 325 324 324 324 324 324 323 323 323 324 324 323 323 323 303 298 297 296 295 295 305 323 321 323 324 324 322 321 323 324 322 322 322 322 318 317 319 316 311 306 304 304 305 305 300 292 291 291 291 299 308 308 306 309
316 319 321 321 323 324 324 324 324 324 324 324 324 323 323 323 324 325 325 325 323 322 321 298 297 296 295 293 292 304 323 322 321 320 321 323 322 322 322 322 322 320 320 319 319 316 314 310 308 308 307 307 308 308 310 311 311 311 309 309 309 309 309
314 316 318 320 321 321 322 323 323 324 324 325 325 325 325 325 325 325 325 324 323 321 323 294 295 294 294 292 295 319 322 320 319 319 320 321 322 322 321 322 321 320 319 317 302 299 304 310 310 309 308 309 310 309 303 295 292 294 303 307 309 308 308
312 313 315 317 318 319 321 322 322 323 323 323 323 323 323 324 325 325 324 323 322 322 320 299 292 293 292 291 302 318 319 319 318 318 318 319 318 318 318 318 319 317 314 312 298 295 297 301 311 310 309 309 308 307 303 300 293 290 290 290 289 289 288
311 312 313 313 316 319 320 320 321 322 320 320 321 322 323 322 323 324 323 322 321 322 319 302 291 292 292 292 306 319 317 317 317 317 316 316 315 312 307 299 309 314 310 307 292 295 295 304 311 310 309 308 307 307 306 304 303 300 289 290 290 290 290
310 311 311 313 316 317 318 319 319 320 320 321 322 324 322 322 322 321 321 321 315 319 319 303 291 292 293 293 308 320 317 316 315 315 314 312 312 310 308 303 296 304 306 300 291 294 293 301 312 310 310 308 306 306 306 306 306 305 304 303 302 300 298
309 310 310 312 313 315 317 318 318 317 318 317 318 320 320 321 321 320 320 320 319 321 319 315 303 292 294 295 298 319 317 314 313 313 313 311 310 309 307 305 298 290 290 289 290 290 291 292 309 310 309 308 308 306 306 306 304 304 304 303 303 304 303
309 309 310 310 311 312 315 316 316 315 315 315 316 317 319 321 320 318 317 319 319 321 320 316 306 292 294 295 295 300 316 314 314 312 311 310 309 308 307 305 302 291 289 289 290 290 291 291 295 310 309 308 304 301 300 304 299 291 301 302 302 301 302
309 310 310 311 311 311 313 314 316 315 314 314 317 318 318 317 317 316 316 317 319 317 312 308 311 294 292 294 295 293 311 315 314 312 311 310 309 308 306 304 302 293 289 289 290 290 290 292 293 302 298 289 288 290 302 301 302 302 301 301 300 299 299
307 309 309 310 310 310 311 313 314 314 314 314 315 315 316 315 314 314 315 315 316 315 314 309 301 304 292 293 293 295 298 308 298 313 311 310 309 307 306 303 297 289 289 289 290 290 291 291 293 295 288 288 289 287 292 301 300 300 300 300 299 298 298
306 307 308 309 309 310 310 311 312 313 312 312 311 312 313 314 311 310 310 312 313 313 314 311 298 297 298 291 292 293 294 296 298 311 313 311 309 306 304 302 296 289 289 289 288 289 289 291 293 287 288 287 287 289 299 300 298 300 297 296 297 298 298

ECMWFFLT1_sfc_thetae_027.txt.gz
Theta_e
329 328 331 330 329 327 326 327 329 331 332 331 330 331 332 332 332 332 333 333 330 329 328 328 330 333 335 334 335 336 335 336 335 331 329 332 326 328 333 329 329 331 330 329 326 324 318 314 315 320 323 324 324 324 323 322 322 323 325 325 324 324 325
329 330 329 328 327 328 328 328 329 328 331 332 331 329 332 330 330 331 332 331 331 330 328 329 333 335 335 335 334 334 335 334 335 334 332 330 331 329 329 328 329 329 329 327 328 325 321 313 313 315 317 320 322 322 322 323 321 323 322 321 321 322 323
330 329 328 327 326 327 327 328 328 328 326 327 329 330 330 330 330 331 331 331 331 330 329 331 333 335 336 336 336 335 336 334 335 332 331 330 330 330 330 329 326 328 325 325 325 323 323 319 314 314 317 317 314 317 321 320 321 321 321 322 322 321 321
329 329 327 327 325 327 326 327 328 328 329 328 328 330 330 329 329 330 332 331 331 331 329 328 329 328 331 334 336 336 336 335 333 332 329 329 330 330 331 331 330 326 326 324 324 325 323 318 316 316 318 318 315 314 317 319 319 318 317 320 320 320 321
330 328 327 326 325 325 326 326 325 326 327 326 328 328 329 329 328 330 331 331 329 330 329 329 329 328 328 329 331 333 333 335 335 332 329 329 329 329 330 328 329 328 328 326 326 327 323 322 319 317 315 316 314 312 314 318 316 315 315 315 316 318 318
331 329 327 326 326 324 324 324 323 324 323 324 326 327 327 327 326 328 329 329 329 330 330 327 327 328 328 327 329 331 333 332 333 333 332 332 331 330 330 330 327 327 325 327 330 325 325 323 320 315 315 315 311 311 312 314 312 313 314 313 314 315 315
331 330 327 326 326 325 325 324 325 323 324 326 326 325 325 326 328 329 330 329 330 329 328 327 328 328 328 325 327 328 328 330 333 332 333 332 331 328 328 325 325 324 324 325 325 324 322 321 317 316 314 313 313 310 312 311 312 309 310 311 312 313 313
330 329 326 327 327 325 325 325 325 324 324 326 326 326 326 327 328 328 328 328 327 327 326 325 325 327 327 325 325 327 326 327 327 327 328 327 325 324 325 323 322 320 319 318 318 321 321 321 319 318 315 310 311 312 311 312 312 309 307 309 310 311 313
331 330 327 326 327 327 327 325 325 325 325 325 325 324 325 327 327 326 326 325 325 326 325 325 325 325 325 323 322 323 322 322 324 325 325 324 323 322 320 319 318 315 317 316 317 317 316 319 319 317 316 313 309 307 310 308 309 309 312 308 309 310 311
330 328 326 327 326 327 327 325 324 324 327 325 323 325 325 325 325 323 322 322 323 324 325 325 325 325 324 322 322 322 322 323 322 321 321 321 321 320 319 319 317 317 317 319 317 317 318 318 317 317 316 315 314 308 307 307 309 307 309 310 306 307 310
330 330 328 327 326 325 325 324 325 323 324 324 324 324 325 324 323 322 320 320 320 320 321 322 322 323 322 320 321 320 320 320 319 319 320 320 320 320 320 320 321 320 322 322 321 322 320 319 318 318 316 317 316 312 311 309 309 311 308 309 309 306 309
330 330 330 329 328 325 323 322 322 322 324 323 323 323 322 320 321 321 320 318 319 318 319 320 320 320 319 318 318 317 318 319 318 319 320 321 321 322 321 321 321 320 322 322 322 321 322 320 318 317 317 319 318 319 315 312 309 312 314 308 308 309 308
329 330 330 328 327 324 321 321 322 323 322 321 322 322 319 319 320 319 319 317 317 317 317 317 318 318 318 317 316 316 317 317 316 316 317 320 319 322 321 319 319 319 320 320 321 322 320 320 321 318 319 319 318 319 317 315 311 309 312 310 309 309 310
329 329 329 329 327 324 322 321 322 324 321 321 321 320 319 319 318 319 318 317 316 317 317 318 319 319 317 317 316 316 316 315 314 316 318 319 318 320 318 318 319 319 320 319 319 319 318 318 319 319 319 318 317 319 318 316 312 310 312 314 312 309 312
328 329 328 329 328 324 322 321 323 323 323 321 321 319 318 319 319 318 317 317 317 316 317 317 318 319 318 318 318 319 318 316 316 316 318 317 319 318 319 317 317 318 319 317 318 316 316 317 317 317 317 317 315 316 318 316 313 311 310 312 311 311 311
329 329 328 328 328 324 322 323 324 323 323 322 321 320 319 319 318 318 318 318 317 317 317 317 319 318 318 318 318 319 319 318 317 317 317 316 316 317 317 317 317 318 318 318 318 318 317 316 317 316 316 316 316 316 316 316 315 313 311 310 313 310 311
329 329 328 327 329 327 324 325 323 324 323 324 321 321 320 319 318 318 318 318 318 317 317 319 319 317 316 316 317 318 318 318 318 317 316 315 315 316 317 316 317 317 318 317 316 316 316 317 318 317 317 317 317 315 317 317 316 315 313 311 312 309 311
328 327 327 329 330 328 326 325 324 321 323 323 324 323 320 320 318 318 319 317 317 318 318 318 318 318 320 319 317 318 318 317 318 318 318 317 318 317 317 318 316 317 318 317 317 315 316 317 317 318 318 316 315 316 317 317 316 315 314 313 313 313 314
328 327 326 326 327 329 328 325 325 325 323 320 322 324 322 320 319 317 317 317 317 318 317 318 318 318 319 320 320 319 319 319 319 319 319 319 317 318 318 319 318 318 318 319 317 318 318 317 317 317 317 316 315 316 318 317 317 316 314 312 313 313 314
328 327 327 327 328 328 328 327 325 323 324 323 321 321 322 321 320 320 318 318 317 318 318 318 318 318 318 319 320 319 320 320 319 320 319 319 319 319 320 320 320 319 319 319 319 319 319 318 317 317 317 317 316 316 316 316 315 314 314 313 313 313 311
329 329 329 329 328 329 329 328 327 325 324 324 323 321 320 321 322 321 320 319 319 319 319 318 318 319 318 319 320 320 320 321 321 321 322 320 321 321 320 320 321 321 320 320 321 320 319 318 318 317 318 317 317 316 316 317 315 314 313 313 311 310 311
329 329 327 328 328 327 328 327 327 326 324 323 324 323 322 321 321 320 320 321 320 320 321 320 320 320 320 320 321 321 321 321 321 321 321 322 323 323 322 322 322 322 322 322 315 313 313 313 321 317 318 318 317 315 316 315 316 314 312 311 310 312 310
327 328 328 328 325 328 327 328 327 326 325 324 323 323 322 322 321 321 320 320 321 322 323 323 323 313 315 322 324 324 324 324 323 324 323 323 324 324 325 324 325 323 316 311 309 303 302 304 304 313 318 319 315 314 314 315 314 314 312 310 310 309 308
326 325 327 327 326 326 324 326 326 327 327 326 324 324 324 324 323 322 322 322 322 325 325 324 303 305 306 311 322 325 325 325 325 324 324 324 323 324 324 324 324 320 318 314 315 302 302 301 300 297 295 297 305 320 316 314 314 314 312 312 311 310 308
324 325 325 325 324 325 325 325 325 326 327 328 326 326 325 324 324 325 325 324 324 327 328 309 299 301 304 305 311 326 326 325 326 325 325 324 325 325 322 321 318 321 321 321 320 316 308 299 298 294 293 293 292 291 295 308 311 313 313 311 310 311 310
324 325 326 325 325 326 325 326 326 325 324 327 326 325 326 325 325 327 327 325 325 326 328 301 300 299 300 300 301 310 324 325 324 324 324 323 324 325 323 321 322 322 322 317 319 319 316 308 296 293 293 293 293 292 291 290 294 309 312 312 311 310 310
319 321 324 326 326 325 325 325 327 327 327 325 325 323 324 325 326 325 324 325 324 325 324 302 299 298 298 297 298 302 323 323 323 322 323 323 325 324 324 324 322 320 321 319 320 321 318 311 307 304 306 308 307 301 293 293 293 293 302 310 310 309 311
316 317 318 320 322 324 325 326 326 326 326 326 324 323 322 321 324 324 324 323 322 319 321 298 298 298 298 296 295 297 321 324 324 324 325 325 325 324 323 323 321 319 321 319 319 319 318 313 311 310 309 310 309 306 308 308 310 312 311 312 311 311 311
314 314 316 318 318 318 320 323 325 326 326 326 326 325 324 323 321 320 321 322 320 318 320 299 297 297 296 295 294 315 319 323 323 323 320 322 322 323 322 322 320 320 319 320 309 304 309 315 313 312 311 311 309 309 305 294 291 294 303 308 308 308 307
313 313 314 314 314 317 318 320 322 325 324 324 323 323 323 322 322 320 319 322 319 321 321 304 296 296 295 294 298 318 319 322 321 319 320 318 317 318 315 315 318 318 320 318 302 298 300 304 314 313 312 310 311 311 307 302 294 291 291 290 289 289 289
312 312 313 313 314 315 316 318 319 322 322 322 321 322 322 322 323 324 323 321 319 319 318 306 294 295 294 293 304 318 318 317 319 318 317 316 318 316 309 300 308 318 319 311 294 297 296 306 314 313 312 312 310 308 306 305 304 302 290 291 291 290 290
311 311 311 312 314 314 316 316 317 319 319 320 319 321 321 321 323 323 324 323 317 318 319 306 293 294 293 293 304 319 317 316 314 314 315 315 315 314 310 303 298 308 310 301 292 293 291 301 315 313 312 311 308 308 308 307 307 306 304 304 302 301 299
309 310 311 312 313 313 314 315 316 318 319 318 317 318 319 320 321 322 323 322 322 320 320 315 301 293 294 295 297 317 319 316 315 314 315 312 312 313 310 306 299 291 291 290 290 291 291 292 311 313 312 310 308 308 310 309 309 308 307 306 306 306 306
307 309 310 311 312 312 313 313 314 315 317 317 315 314 316 319 320 321 322 324 324 323 320 317 307 293 294 295 295 298 318 316 315 315 313 312 311 310 308 305 303 292 290 290 291 290 292 293 298 312 309 305 303 303 303 308 303 294 302 302 303 303 303
307 308 308 309 310 310 312 313 313 313 314 316 315 313 314 317 317 319 321 322 322 321 319 312 312 293 293 294 294 292 307 315 314 313 311 312 311 310 308 304 302 293 289 290 290 291 291 293 294 302 298 289 288 290 304 304 306 304 304 303 302 301 302
305 306 306 307 308 309 310 311 312 313 313 315 314 313 313 313 316 317 318 318 320 320 320 314 303 304 294 294 294 294 295 310 300 317 311 310 310 309 307 303 297 290 290 290 291 291 291 292 294 294 288 289 289 286 293 302 302 302 300 301 301 300 299
304 304 305 306 306 306 307 309 310 311 312 312 312 311 312 314 314 316 314 315 318 319 317 316 302 301 299 291 293 294 296 297 300 311 313 312 311 307 304 301 296 289 289 289 289 290 290 292 294 288 288 288 288 290 300 302 300 302 299 298 298 299 300

ECMWFFLT1_sfc_thetae_030.txt.gz
Theta_e
334 330 334 332 333 332 332 331 334 339 333 331 338 334 334 336 337 337 337 337 334 330 330 331 334 336 338 333 334 334 333 331 331 327 324 326 325 326 330 329 329 328 328 328 324 321 314 311 312 318 319 321 320 320 318 318 321 323 322 322 321 320 319
330 332 329 328 330 333 332 332 335 330 332 335 330 334 336 335 334 335 336 335 332 334 329 330 334 335 336 336 333 333 336 333 332 329 328 327 326 325 326 324 327 327 327 328 328 326 319 312 311 313 314 318 319 319 318 319 319 321 320 319 319 319 318
330 329 328 328 329 333 333 334 332 331 329 334 337 335 335 331 334 336 332 335 334 329 329 331 333 335 336 334 335 334 335 332 334 329 328 327 327 328 327 326 323 323 322 322 324 323 321 321 313 312 313 312 310 315 320 317 318 318 317 319 318 317 316
331 330 326 326 328 331 329 330 332 331 331 330 333 335 333 331 333 333 334 333 332 333 331 329 331 329 332 334 335 336 333 332 331 330 329 328 327 327 327 326 323 322 320 318 320 321 320 318 313 313 314 314 312 312 318 317 315 314 315 318 317 316 315
332 328 327 326 327 327 329 330 333 332 328 331 333 332 331 331 333 332 332 331 331 333 333 335 332 329 330 331 333 333 333 331 333 330 329 328 329 327 327 326 325 324 324 322 323 324 321 321 317 313 313 312 311 309 313 317 312 312 312 312 313 315 315
331 330 330 329 329 329 330 330 328 328 328 328 330 328 329 331 331 334 331 331 330 329 330 330 329 328 329 329 329 330 330 329 330 330 329 329 328 328 326 327 326 326 326 327 325 324 324 322 320 313 312 312 306 307 307 308 307 308 310 310 311 311 313
331 330 331 330 331 330 332 331 331 329 329 329 328 329 329 331 329 327 329 330 330 329 329 327 329 328 329 325 326 327 328 330 330 330 330 330 330 329 328 326 326 326 324 326 325 323 322 321 317 314 309 309 308 306 307 306 306 304 305 307 308 310 311
330 330 329 331 332 332 333 331 333 330 329 328 327 329 330 330 331 331 330 328 325 327 328 328 330 327 326 324 325 327 327 327 328 328 328 327 326 325 325 325 323 321 323 324 323 322 322 321 321 316 310 306 307 306 304 305 304 303 303 304 308 309 311
330 330 329 330 333 336 333 334 331 332 328 326 326 328 330 331 328 326 325 326 328 328 328 328 328 324 326 325 323 325 323 327 326 324 321 322 322 323 322 321 317 316 317 319 317 316 318 323 320 318 313 310 307 304 306 304 304 302 305 302 305 308 309
329 329 327 330 331 334 335 332 333 329 327 326 326 329 328 329 328 325 323 324 326 327 326 326 326 326 324 323 322 321 319 320 319 318 320 319 319 319 318 318 316 316 317 318 318 319 320 320 321 325 316 314 313 305 303 302 303 304 303 304 301 304 308
334 328 327 327 328 330 330 330 329 327 325 326 327 328 327 325 324 323 323 322 323 325 327 327 324 323 324 323 322 320 321 322 320 321 320 320 321 322 320 319 319 318 320 318 319 318 317 316 316 318 315 315 314 313 308 303 304 307 304 304 304 302 305
332 328 327 326 327 327 326 327 327 327 325 326 325 326 324 323 324 322 322 321 323 322 323 323 324 321 320 318 318 319 321 320 319 318 320 321 321 321 320 319 320 320 322 321 321 321 321 322 319 315 316 316 317 316 309 307 304 308 310 304 306 306 305
332 328 328 327 327 325 323 324 326 325 325 324 324 324 323 322 321 321 320 319 320 320 321 322 319 320 321 319 320 318 318 317 317 316 318 320 320 320 318 318 318 319 320 317 317 317 316 317 318 316 316 317 315 316 312 309 305 305 310 307 307 306 308
331 330 329 329 329 325 323 324 326 326 324 324 324 323 321 320 318 320 318 318 317 320 320 321 321 321 320 319 317 317 317 315 315 317 318 318 319 318 317 316 316 318 318 317 317 318 316 316 317 318 317 315 314 316 313 309 305 305 308 316 313 308 310
330 328 329 328 328 324 322 324 326 324 324 324 323 322 319 322 320 320 317 316 318 317 319 319 321 321 319 319 319 321 319 317 315 316 319 317 317 319 319 316 317 318 320 317 318 313 314 316 314 315 313 315 312 315 314 312 308 306 305 311 308 308 310
330 332 329 329 327 322 322 324 325 325 324 323 324 323 321 322 320 319 319 319 316 317 317 319 322 321 320 319 319 321 320 318 319 317 316 316 314 317 317 316 316 317 320 318 317 315 316 314 315 313 313 314 313 313 313 313 312 308 307 308 312 307 309
329 329 330 328 329 324 323 324 325 325 325 322 321 326 321 321 321 321 320 317 317 317 318 321 320 318 320 320 320 319 317 318 319 319 317 315 315 316 316 316 316 317 318 316 316 315 316 317 315 314 314 315 314 314 314 317 312 313 309 307 309 305 309
326 328 328 328 329 326 325 324 325 323 328 325 323 326 320 324 321 320 321 317 316 317 318 318 318 319 321 321 321 321 318 318 319 319 319 316 319 316 316 315 315 316 317 316 315 316 315 315 316 315 315 312 312 315 316 314 314 312 312 310 309 310 313
325 327 328 330 331 329 327 325 324 325 324 324 327 326 321 322 319 318 318 317 316 317 317 318 317 317 317 320 321 320 320 320 320 319 319 317 317 318 318 317 317 316 317 316 316 317 316 315 317 315 315 313 312 315 316 316 313 311 311 311 311 310 309
327 327 327 327 330 331 330 328 324 322 323 324 327 326 326 323 324 323 317 319 318 318 317 317 319 320 319 321 320 320 321 320 321 321 320 319 318 319 318 319 317 319 319 318 318 317 316 316 317 315 315 317 314 313 314 314 312 312 311 308 308 312 310
327 327 327 327 328 328 329 330 328 326 325 323 323 322 324 324 324 323 322 321 321 319 320 319 319 318 318 322 321 321 322 320 319 321 320 320 319 319 320 320 319 319 319 320 318 318 317 317 316 315 316 316 315 315 314 315 312 311 311 311 309 308 308
328 328 327 329 328 329 329 330 329 328 328 326 328 324 322 322 323 322 322 323 323 322 322 321 323 320 320 318 321 319 321 319 320 319 320 319 320 319 318 320 319 318 320 319 311 310 309 312 318 316 316 316 315 315 313 313 313 313 311 310 309 310 308
326 327 327 326 326 327 327 329 329 328 327 326 324 325 326 324 321 323 322 322 322 324 323 323 319 311 313 319 319 321 321 320 319 319 319 318 319 320 322 320 319 321 313 310 306 302 300 300 305 309 308 311 314 314 313 312 312 311 311 309 308 306 305
327 326 326 328 328 327 326 327 327 328 328 326 324 325 326 324 323 323 322 322 322 323 321 316 302 305 306 308 318 321 320 320 320 320 320 319 320 321 318 320 320 316 314 313 308 300 300 298 296 295 295 297 303 314 313 313 312 311 309 309 307 307 305
325 326 326 325 326 326 326 325 325 326 327 325 323 324 326 325 325 322 322 320 319 316 317 308 303 301 304 308 311 324 324 322 322 321 321 321 321 321 319 318 319 320 319 318 316 311 304 299 296 294 294 293 292 293 298 306 307 308 307 307 307 307 305
323 325 325 325 325 327 324 323 324 324 324 324 323 323 325 326 322 322 322 321 319 318 319 308 304 303 300 301 303 311 323 322 322 322 321 322 321 318 318 318 318 319 321 317 318 318 314 305 295 294 293 294 294 292 292 293 297 306 307 307 307 307 305
321 322 324 324 327 327 327 324 325 324 323 325 323 323 324 323 322 322 321 319 318 320 319 307 300 302 301 299 298 302 321 323 323 322 323 323 319 317 315 313 316 318 319 319 319 319 318 311 306 303 303 304 303 297 292 292 293 295 301 309 308 306 308
314 315 320 324 324 323 325 326 325 324 322 321 322 323 322 322 323 322 321 319 320 320 320 305 299 299 298 299 298 298 315 320 322 321 321 319 319 318 316 316 317 318 319 318 319 316 317 311 307 306 306 307 305 304 306 305 305 308 309 310 308 308 306
314 313 314 316 319 321 323 323 323 325 324 323 323 324 323 323 322 321 321 320 320 318 319 303 298 297 296 297 298 309 315 316 319 319 316 317 319 320 319 319 319 320 319 317 311 303 309 311 308 307 306 307 307 303 296 293 292 294 299 301 300 301 298
310 312 313 313 313 316 317 321 323 323 323 323 322 322 322 321 322 322 321 320 319 319 317 308 301 300 297 296 298 312 314 314 316 316 317 317 319 318 319 321 320 319 319 317 308 300 300 304 310 309 308 308 307 304 300 298 293 291 291 291 291 291 290
307 309 310 311 312 314 316 316 317 321 321 320 320 320 321 321 322 322 321 320 320 319 319 312 302 301 298 297 300 312 314 313 315 316 315 317 315 314 307 307 314 318 318 313 296 298 298 307 311 310 309 308 307 305 302 302 302 298 291 291 290 290 290
305 307 309 310 312 312 313 314 315 316 317 318 318 320 318 317 318 320 322 321 317 319 320 313 299 298 297 296 300 312 314 313 314 315 315 314 314 309 306 302 304 314 311 302 295 296 297 306 312 312 309 308 307 305 303 302 302 300 300 300 298 298 297
305 307 307 308 310 312 312 312 313 313 314 314 314 315 316 316 316 316 319 320 319 318 319 318 303 295 296 295 297 311 315 314 313 312 313 314 312 309 306 303 298 294 293 292 291 292 293 296 305 310 310 309 306 306 305 304 306 303 303 303 302 300 300
304 306 306 307 308 308 309 310 311 312 312 312 313 314 315 315 314 316 318 320 319 319 319 318 313 293 294 294 294 300 314 315 314 312 313 311 311 308 304 302 299 293 291 291 291 292 292 293 297 305 304 300 299 301 303 302 299 298 301 299 299 300 300
304 305 305 305 304 304 306 308 309 310 310 310 311 312 313 313 312 312 316 318 320 318 317 312 318 298 293 294 294 294 309 316 313 313 310 309 310 308 304 300 297 292 291 291 291 291 292 292 293 296 292 289 288 292 300 303 302 300 300 300 298 297 298
303 304 304 304 303 303 304 304 306 308 308 309 309 309 310 312 312 311 313 318 318 318 317 313 306 304 294 294 294 293 297 305 301 312 310 310 309 306 301 298 294 292 291 291 291 291 291 291 292 291 289 289 289 289 294 299 298 300 299 298 298 297 295
301 302 302 303 303 303 303 304 304 305 305 306 307 308 309 310 310 310 310 314 315 312 314 314 305 301 300 293 293 293 294 293 292 306 312 311 306 301 298 296 293 290 290 290 290 290 290 290 290 288 288 289 290 292 298 299 297 299 295 296 295 295 296

ECMWFFLT1_sfc_thetae_033.txt.gz
Theta_e
323 321 322 320 322 324 324 325 325 323 323 325 325 325 326 327 327 328 330 329 328 329 329 329 328 329 329 331 330 329 327 326 324 322 320 321 321 319 324 324 323 324 322 321 317 312 310 307 308 313 315 318 318 319 320 319 319 317 315 315 315 314 314
324 322 321 321 320 322 321 322 323 322 322 323 322 324 324 326 325 325 325 324 324 329 330 328 327 330 330 327 326 326 325 325 325 323 321 321 322 321 320 318 322 321 322 323 321 316 310 308 307 309 310 314 313 314 314 317 318 316 315 314 314 312 312
322 320 320 319 319 319 321 322 321 320 320 322 323 323 322 325 326 325 325 324 323 326 327 327 328 329 329 328 328 328 327 324 324 324 323 322 323 323 322 320 317 316 317 318 317 316 315 313 309 309 310 310 308 311 313 313 315 315 315 313 311 310 309
320 319 318 317 319 320 319 320 319 319 321 321 323 322 322 324 324 325 323 323 323 325 325 325 325 327 327 328 329 328 327 325 324 324 324 324 322 321 321 320 319 319 316 313 316 316 313 311 311 311 311 311 309 308 311 313 313 314 314 313 311 309 308
321 319 317 317 318 318 318 319 320 320 319 321 320 318 318 322 323 322 323 322 322 323 322 323 323 324 325 327 328 327 327 325 324 324 323 322 322 321 320 320 320 319 317 317 318 318 314 313 312 310 310 310 310 310 314 311 312 313 313 312 311 310 309
321 320 319 318 319 319 319 320 319 318 319 321 319 319 318 321 321 320 322 320 319 319 320 322 322 323 323 323 325 325 325 324 323 324 323 322 322 321 320 321 321 320 319 320 321 319 318 317 314 311 310 310 305 306 308 307 305 307 310 311 311 310 308
321 321 321 319 320 319 320 318 319 318 319 320 317 316 318 320 321 322 321 320 319 319 320 320 321 321 322 323 324 324 324 324 324 324 324 323 322 321 322 321 321 321 321 322 321 321 320 317 312 309 307 306 304 303 304 302 304 302 303 308 310 310 309
322 322 322 322 321 319 320 318 320 320 320 319 319 320 321 320 321 321 318 317 317 316 317 319 320 319 319 321 321 321 322 322 323 322 323 323 324 323 320 320 321 320 320 322 320 319 320 318 315 310 306 303 302 302 301 300 299 301 302 304 309 309 310
323 322 322 322 322 320 319 321 321 320 319 317 318 319 321 319 318 318 318 318 318 318 319 319 317 318 317 317 318 318 319 323 316 315 316 317 317 319 318 317 318 318 320 321 321 318 318 319 318 311 307 304 301 298 299 297 298 299 304 302 304 307 308
322 321 320 321 321 321 322 320 319 318 318 318 320 319 319 319 318 317 316 316 316 317 317 317 317 316 315 314 313 313 313 314 314 312 311 312 311 311 310 311 311 312 314 316 316 315 316 316 317 311 308 306 305 300 296 295 297 296 302 303 300 303 306
322 321 321 321 320 319 320 320 318 317 317 319 320 320 317 315 317 319 315 315 315 316 317 316 316 316 314 314 312 313 314 314 313 313 315 315 314 313 313 313 312 311 312 311 312 311 311 312 312 312 311 310 307 302 299 297 299 301 298 302 301 300 304
322 321 320 320 319 319 319 318 317 317 318 318 318 315 314 314 314 313 312 312 313 313 313 314 313 311 310 310 312 312 313 312 312 312 313 314 314 314 313 313 313 313 312 310 311 312 313 312 311 312 310 312 309 305 303 301 298 302 301 300 303 303 302
321 319 318 319 319 318 319 319 318 317 317 318 317 315 314 314 312 311 312 312 312 311 312 312 311 311 310 310 311 312 311 311 312 312 313 314 315 313 311 311 311 311 310 311 311 311 311 312 312 311 311 309 308 307 305 302 299 300 305 301 301 302 303
321 320 319 319 318 317 317 319 317 317 318 316 316 315 315 314 312 312 310 311 310 310 311 310 311 311 310 310 309 310 311 311 311 311 312 312 313 312 312 311 311 311 311 310 309 310 310 310 311 311 311 310 307 306 305 302 300 300 303 306 304 304 305
321 321 320 320 317 316 317 318 318 317 316 316 316 316 314 313 312 311 310 310 310 311 311 310 311 311 310 308 308 313 311 310 310 311 310 310 311 314 311 310 311 311 310 310 309 310 310 309 310 310 310 310 308 309 307 304 301 299 300 304 304 305 305
322 320 319 319 316 315 316 317 317 315 316 315 316 315 313 313 312 310 310 310 309 309 310 310 312 310 310 309 311 311 311 310 310 310 310 310 311 311 310 310 310 311 313 310 309 309 310 310 310 309 309 309 309 309 308 307 304 302 301 302 303 303 303
322 321 319 320 315 315 316 317 318 317 316 314 314 315 314 313 312 312 311 309 310 310 311 312 311 311 312 311 311 311 311 311 311 310 310 310 311 310 309 309 309 309 309 308 308 309 310 309 309 309 309 309 309 309 310 307 306 303 302 303 303 304 305
320 321 320 319 316 316 316 316 317 317 316 313 314 316 312 313 312 312 312 310 310 311 312 311 311 311 312 311 310 310 310 310 310 310 310 311 314 310 309 308 310 310 308 307 309 308 309 311 312 309 308 308 308 310 311 310 308 308 305 302 304 304 304
320 321 321 320 317 317 316 316 316 316 317 314 315 314 311 312 312 312 311 311 311 311 311 311 311 311 312 312 311 311 310 310 311 311 311 312 311 310 309 308 310 310 308 307 309 309 311 310 310 309 308 308 311 310 309 307 307 307 307 305 304 305 305
319 319 321 322 322 319 318 317 316 316 316 316 316 314 310 312 312 312 312 312 311 311 312 311 311 311 311 312 311 311 311 311 311 311 310 312 312 311 311 311 310 310 309 309 310 310 310 310 311 310 310 309 310 309 308 308 307 307 304 303 304 304 304
320 321 321 321 322 320 321 318 315 316 316 315 316 315 314 314 313 312 311 311 312 312 311 311 311 311 311 312 311 311 310 310 311 311 310 311 312 312 312 312 312 312 312 312 311 310 310 310 310 309 309 309 309 309 308 307 305 305 305 304 303 303 303
321 320 320 321 321 321 321 320 320 319 317 315 317 315 315 314 315 312 313 311 311 312 312 312 313 312 311 312 311 312 312 311 311 311 310 311 311 312 312 313 313 312 316 319 313 312 313 313 311 308 306 308 308 307 307 307 307 305 303 304 303 302 301
318 319 319 320 321 321 320 320 319 318 319 317 315 314 314 313 312 312 312 312 312 312 312 313 312 310 310 313 312 313 313 311 311 311 311 310 311 311 314 312 314 321 316 310 305 301 301 304 308 308 306 307 308 308 307 306 305 306 304 302 302 300 301
319 319 318 319 319 320 320 319 317 318 318 316 314 316 318 316 314 314 314 313 312 312 312 311 298 302 303 306 313 312 313 312 311 311 311 310 311 313 312 312 310 311 311 310 304 298 298 297 297 297 298 302 307 308 308 306 305 304 304 303 303 301 300
318 318 317 316 317 318 319 317 317 317 316 315 314 314 317 315 314 313 314 312 310 311 312 309 300 302 301 302 307 313 313 314 314 313 314 313 315 313 313 313 311 312 310 309 306 302 299 295 294 293 293 294 294 296 302 305 303 301 301 303 303 302 301
318 317 317 318 318 317 317 316 316 317 316 315 313 314 316 314 313 313 313 311 311 310 310 306 302 302 301 300 299 304 313 314 315 314 314 313 313 312 312 313 314 314 317 315 312 308 304 300 295 294 294 294 294 293 294 297 299 303 304 304 303 301 301
312 315 316 317 318 317 316 315 314 314 315 314 313 313 314 314 313 312 310 310 310 311 311 307 301 299 299 299 298 302 310 313 313 314 313 313 313 312 310 311 312 312 313 314 312 311 308 304 300 299 299 299 297 295 293 293 294 297 302 305 305 303 303
303 305 306 309 312 313 313 314 316 316 315 313 313 313 312 312 312 311 309 309 309 311 313 305 299 296 295 297 297 298 306 312 314 313 314 314 314 313 313 312 312 313 313 313 314 313 311 307 304 303 301 301 298 298 301 301 303 306 307 306 304 303 301
301 301 303 305 306 306 307 310 311 313 312 312 311 312 311 314 314 313 311 310 310 311 313 304 299 296 296 296 297 303 305 308 311 312 310 314 314 314 314 314 313 313 314 314 309 303 306 308 306 304 302 301 298 294 292 293 292 298 303 302 300 298 297
299 300 302 303 304 304 305 306 306 310 311 311 311 312 314 314 315 314 312 312 312 312 312 306 299 298 297 296 299 305 305 308 309 310 310 312 313 314 315 315 314 313 314 314 306 299 300 302 306 304 303 302 299 296 294 294 292 292 293 293 293 292 291
298 299 300 301 302 302 304 304 305 306 305 305 308 311 314 315 314 315 314 313 314 313 313 309 302 300 298 297 301 308 307 308 307 308 309 310 311 313 314 313 315 315 314 314 301 297 297 304 306 305 303 303 300 297 296 297 296 294 291 291 291 290 290
299 300 300 300 301 301 302 302 303 304 304 304 305 305 307 312 315 315 315 315 314 314 313 311 303 300 299 298 300 306 308 309 307 307 309 309 311 310 309 309 307 309 312 311 298 296 296 304 309 307 305 303 300 298 298 297 296 294 295 295 294 294 293
300 300 300 300 301 300 300 300 300 301 301 303 304 304 304 305 306 311 314 316 316 315 315 314 311 302 300 299 298 305 308 309 308 307 310 310 308 304 304 304 302 298 301 300 295 295 294 300 309 308 306 303 302 301 300 297 296 296 295 295 294 294 295
299 299 300 300 300 300 300 300 301 301 301 302 303 303 304 304 305 306 306 313 316 315 315 315 313 302 300 299 296 298 307 309 310 309 309 309 308 304 301 299 298 296 295 293 293 294 296 297 300 307 306 305 304 301 298 298 298 297 297 294 294 294 294
299 300 300 299 298 298 299 300 300 300 299 299 299 300 301 302 304 304 306 306 312 314 314 311 315 304 298 297 295 295 304 309 310 310 309 310 308 304 301 299 298 295 293 293 293 293 293 293 294 299 298 294 293 294 299 298 298 296 295 293 292 292 292
297 299 299 298 297 297 297 298 298 299 298 298 298 298 299 300 301 301 302 304 307 311 312 311 306 306 297 295 295 294 295 303 302 310 310 309 306 302 299 298 296 292 291 291 291 291 291 291 292 292 291 292 293 294 296 296 295 295 292 292 292 291 290
297 297 297 297 296 296 296 296 296 297 296 296 296 296 297 299 299 300 301 303 305 307 310 312 305 303 301 293 293 293 292 293 293 304 310 308 305 300 297 295 293 290 291 291 290 290 290 291 290 289 290 291 292 293 295 294 292 293 290 289 290 289 290

ECMWFFLT1_sfc_thetae_036.txt.gz
Theta_e
319 318 320 321 322 322 321 320 319 320 323 325 325 324 325 324 323 323 323 323 325 326 327 325 324 324 327 327 327 325 324 322 320 319 318 320 320 319 321 320 320 320 319 315 315 312 310 309 309 313 313 317 317 316 319 318 318 317 315 315 314 312 311
319 319 320 322 321 322 319 318 319 319 320 320 321 322 321 323 325 324 324 323 323 325 326 326 324 325 325 325 325 324 323 321 320 318 320 320 320 319 318 316 320 319 317 317 315 312 309 308 306 309 310 310 311 313 315 315 315 314 313 312 312 311 311
319 318 320 320 319 319 318 317 317 317 317 319 320 320 322 322 321 321 320 320 322 324 325 323 324 324 324 324 325 325 324 322 320 320 320 320 321 320 319 318 317 315 315 313 312 310 311 309 309 308 307 307 307 309 313 313 313 312 311 310 308 307 306
317 317 317 316 317 317 318 316 316 317 318 319 319 319 320 321 322 322 320 321 322 325 324 324 324 324 323 324 325 325 324 323 321 319 318 319 320 320 318 318 318 317 314 311 311 310 309 308 308 308 308 308 309 308 310 312 311 309 308 307 305 305 304
317 317 316 316 317 317 317 315 315 317 316 317 316 317 318 319 320 318 319 318 319 319 320 321 321 322 321 324 323 324 323 322 322 321 319 318 318 319 318 317 317 315 313 315 314 312 311 310 310 307 306 307 308 308 310 308 309 308 307 306 305 305 304
317 316 316 316 316 316 316 317 316 316 315 316 314 316 315 317 318 318 317 316 316 317 320 321 320 321 320 321 321 321 322 321 321 320 319 319 319 319 319 317 319 317 317 317 316 314 312 311 310 307 307 307 306 306 307 307 304 305 307 307 306 305 305
317 317 316 318 317 317 318 317 316 317 316 315 313 313 315 318 318 318 317 315 315 316 318 318 318 319 320 322 320 319 319 319 319 319 318 317 316 316 317 317 317 317 317 319 317 315 313 311 308 308 307 304 305 306 302 300 304 302 304 307 307 306 305
318 317 317 319 318 318 318 318 317 318 317 315 315 315 316 317 315 314 314 313 314 315 316 317 319 318 318 320 319 317 317 317 318 318 317 318 319 317 316 316 318 317 318 318 317 316 315 312 310 308 306 303 300 299 299 297 298 299 302 303 307 307 306
319 318 318 319 318 319 318 318 318 318 317 317 317 317 316 317 315 315 315 314 314 315 315 315 315 316 316 317 316 316 317 320 317 317 316 318 317 316 316 315 317 316 316 318 318 318 315 314 311 309 308 306 302 296 296 296 296 298 303 300 303 306 307
318 317 318 318 317 317 319 319 318 317 317 317 318 316 316 314 315 314 313 313 313 313 314 314 314 313 313 313 313 312 312 311 312 311 310 313 313 315 314 315 316 315 316 316 316 316 316 314 312 307 305 307 304 298 294 292 296 295 299 299 298 302 306
318 317 318 317 318 318 317 317 316 316 316 318 318 317 315 314 316 318 313 311 311 313 312 312 312 311 311 310 310 310 310 310 310 310 311 311 309 310 311 310 311 312 314 315 314 312 313 314 310 307 305 305 303 300 296 294 294 296 297 299 297 299 302
317 318 317 317 317 317 315 315 315 316 316 316 316 313 312 312 311 311 311 309 310 311 311 311 310 310 310 309 310 310 310 311 310 309 309 311 310 311 310 310 309 309 309 310 309 310 310 312 310 307 306 306 304 301 299 297 295 298 298 298 299 300 302
318 317 316 316 316 315 315 315 315 315 316 315 312 312 311 311 310 309 309 309 309 309 309 308 308 308 309 309 309 310 309 310 311 310 309 309 312 310 309 308 307 308 308 309 309 309 308 308 310 308 307 305 302 301 300 298 297 298 300 297 298 300 302
316 316 316 316 316 315 315 315 315 315 314 313 312 311 310 309 309 309 308 309 308 308 307 307 307 307 307 307 307 308 308 310 310 308 309 308 309 310 310 309 308 308 307 308 307 307 308 308 307 308 307 305 303 302 301 298 297 298 300 302 300 300 300
316 316 315 315 315 315 315 314 314 314 313 312 312 312 310 310 309 308 307 308 308 307 307 307 307 307 307 307 307 309 308 309 308 307 307 308 308 310 308 307 308 307 307 307 307 308 308 307 307 306 305 304 302 302 302 301 297 297 297 301 301 302 301
318 317 316 314 314 315 314 314 315 314 313 312 312 312 311 309 309 307 307 307 307 307 307 307 307 306 305 306 306 307 308 306 307 307 308 308 308 307 307 307 307 308 309 307 306 306 307 307 307 306 305 305 303 303 302 302 300 298 299 299 300 301 300
320 319 317 315 314 314 315 314 314 314 313 312 313 312 310 310 309 307 307 307 307 307 307 308 307 306 306 306 307 307 306 306 306 306 308 308 307 307 306 305 305 306 307 307 306 306 306 306 307 307 306 305 305 304 303 302 302 299 298 300 300 301 302
319 320 319 316 314 314 314 313 313 313 312 311 312 312 311 311 309 308 308 306 306 307 308 308 306 307 307 307 308 307 307 307 307 307 308 308 311 307 306 305 306 305 306 307 305 306 307 306 307 307 307 307 306 306 306 304 303 302 301 300 301 301 301
319 317 318 317 315 315 315 314 314 313 313 311 312 312 311 309 310 308 307 307 306 307 308 307 306 308 308 307 307 307 308 307 307 307 307 308 308 307 306 306 306 305 305 306 305 305 306 306 306 306 306 306 307 307 305 304 304 303 302 301 301 301 301
317 317 317 318 319 318 315 315 314 314 312 310 311 310 309 309 310 309 308 308 308 309 308 308 307 308 308 307 307 307 307 307 307 307 307 308 307 306 306 306 306 305 306 306 307 307 306 306 308 305 306 307 307 306 305 304 304 303 302 301 300 300 300
316 316 316 318 319 319 319 317 314 314 314 312 312 309 308 309 309 309 309 308 309 309 308 307 307 307 308 308 307 306 307 307 307 307 307 307 307 306 306 307 307 307 307 308 308 307 308 308 307 306 305 307 306 306 305 304 304 302 301 301 300 301 300
317 317 317 317 317 318 318 319 318 316 314 314 314 312 310 310 309 308 307 308 308 308 309 309 309 308 307 308 307 307 307 308 308 307 306 307 307 307 306 307 307 308 311 315 311 309 310 310 309 308 305 305 306 306 304 304 304 302 301 302 301 299 299
316 317 317 317 317 318 318 317 317 316 315 314 313 313 312 311 309 308 308 308 307 309 309 310 312 308 308 310 307 309 308 306 307 307 307 307 306 307 308 307 308 317 315 312 308 305 304 306 308 309 308 306 306 306 305 304 303 302 302 301 299 299 299
315 315 316 316 314 317 317 317 316 315 315 314 314 313 312 311 310 308 310 309 309 310 310 310 305 300 300 304 309 308 308 307 306 306 306 307 307 308 309 308 308 314 313 311 305 300 300 299 300 301 303 305 307 307 305 304 303 302 301 301 299 298 298
314 314 313 315 315 315 316 315 314 311 313 313 312 312 313 311 310 308 309 308 308 310 310 306 296 298 299 300 305 310 310 309 309 308 308 308 309 309 310 309 308 312 310 309 305 301 299 297 296 295 295 296 299 302 303 306 304 300 301 302 300 299 299
315 313 313 313 313 313 312 313 314 314 313 313 311 313 310 310 310 308 308 308 308 307 307 298 295 297 300 300 299 306 310 310 309 309 310 309 310 310 309 309 309 310 311 313 310 304 301 298 296 295 295 295 295 295 296 298 299 305 304 303 302 299 299
302 304 308 309 310 310 311 312 311 311 311 309 311 312 311 310 309 309 308 308 307 306 306 301 294 296 297 295 296 303 311 311 310 310 311 312 312 311 311 310 310 309 309 310 308 306 303 301 299 299 299 299 298 296 295 294 295 298 302 305 303 302 302
298 300 302 303 303 304 305 306 307 309 310 310 309 310 310 310 309 309 308 307 306 307 309 303 295 293 293 295 294 298 307 310 311 311 311 312 313 312 312 312 311 311 311 310 309 307 305 302 301 301 300 299 297 300 300 300 301 304 305 304 304 304 303
297 298 298 299 299 299 300 301 302 304 305 307 307 308 306 307 307 308 309 307 307 308 310 302 297 294 293 293 294 304 305 309 309 310 310 311 312 310 311 313 313 312 312 311 307 300 303 305 303 302 301 299 298 295 294 294 292 294 302 303 302 301 299
297 297 297 297 297 297 297 298 298 300 300 300 301 303 306 307 309 310 307 306 307 308 309 305 298 296 295 294 296 305 305 308 309 309 310 311 311 311 312 312 310 311 310 310 306 297 298 300 304 303 302 299 297 295 293 294 293 293 294 295 295 295 294
297 297 296 296 296 296 297 297 297 298 297 297 298 299 302 304 306 307 308 309 309 310 311 309 302 299 297 294 299 306 306 306 305 307 307 309 309 312 314 311 313 311 310 312 303 297 296 302 305 305 302 299 297 294 292 293 295 293 292 292 292 292 292
298 297 297 297 297 297 296 296 297 297 297 297 298 298 299 300 301 302 305 309 312 311 311 309 303 300 299 296 299 306 307 306 305 304 306 308 308 309 310 310 309 310 310 309 302 297 296 301 307 306 304 301 298 295 294 293 293 292 292 291 290 290 290
298 298 298 298 298 298 298 297 297 297 297 297 297 297 298 298 298 299 301 303 307 309 310 311 309 302 300 299 298 305 306 306 306 306 306 308 308 307 308 309 307 301 300 301 298 295 296 298 307 306 304 302 299 297 296 294 294 294 294 294 292 292 291
296 297 297 297 297 297 297 297 297 297 297 297 297 297 297 298 298 298 299 300 302 304 308 309 310 303 302 300 298 299 306 307 308 308 306 306 308 308 307 307 307 303 298 297 296 295 295 296 300 306 304 303 302 300 296 295 295 295 297 296 295 295 295
296 297 296 296 294 294 295 295 295 295 295 294 294 295 295 296 296 297 297 298 299 301 304 306 309 305 302 302 299 296 304 307 307 308 306 306 308 307 308 307 306 303 297 296 296 295 294 296 297 305 304 298 294 293 296 297 296 297 296 295 294 293 291
294 296 295 294 293 293 293 293 293 293 292 292 292 292 292 293 293 294 295 296 297 299 300 302 300 303 301 301 300 296 297 301 299 306 308 308 308 308 307 305 303 299 296 295 294 294 295 295 296 298 295 293 293 293 295 297 296 295 294 293 291 290 290
293 293 293 293 293 292 293 293 293 293 293 292 292 291 290 291 291 291 292 293 294 296 298 300 299 299 301 299 299 296 294 293 296 304 307 308 308 307 304 302 299 293 293 293 293 294 293 294 297 293 293 292 292 294 298 296 294 294 291 289 290 289 289

ECMWFFLT1_sfc_thetae_039.txt.gz
Theta_e
320 319 319 320 319 321 318 317 319 320 322 324 325 323 323 324 323 323 323 324 324 325 327 324 324 323 324 324 324 324 323 321 320 319 317 318 319 317 319 317 317 318 315 313 314 312 311 310 311 315 314 315 316 317 318 316 315 313 311 311 310 308 307
319 319 320 322 321 320 317 314 318 317 318 319 321 320 320 322 324 323 323 323 323 325 328 324 324 324 324 324 323 322 321 319 319 318 319 319 317 318 316 314 316 314 313 313 312 311 309 309 308 309 308 312 314 313 314 313 313 312 310 309 310 309 310
318 318 319 318 317 315 315 313 314 315 316 317 317 318 318 319 320 320 322 322 322 324 326 324 323 323 323 324 324 324 322 319 317 319 320 319 319 317 316 316 312 311 311 310 309 310 310 308 310 310 309 310 310 310 312 311 310 309 309 308 306 305 305
317 318 317 315 314 314 314 312 314 315 315 316 318 316 317 317 317 320 316 317 319 324 324 322 323 324 322 323 323 322 322 320 319 318 317 318 319 317 314 316 316 316 312 309 310 309 308 307 308 306 306 309 309 308 309 310 308 306 306 305 304 303 303
318 319 318 315 315 314 314 314 312 314 313 314 315 315 315 315 316 314 316 317 321 319 320 320 319 319 321 321 322 322 321 320 319 319 318 318 318 318 315 314 315 313 311 312 312 311 310 311 311 305 305 307 307 307 308 307 307 305 304 303 303 302 302
318 318 317 315 315 315 314 314 313 313 312 316 313 315 314 314 314 314 313 315 316 317 317 316 317 317 319 319 320 319 319 319 319 318 318 319 319 319 319 314 315 313 312 312 312 311 310 311 309 306 306 307 304 304 306 305 303 303 305 304 303 303 302
317 316 316 316 315 315 315 315 315 315 314 314 312 313 314 316 315 314 313 312 314 315 316 315 316 317 318 320 318 318 317 316 317 317 316 315 315 316 317 315 315 313 313 314 312 312 310 309 306 307 305 305 305 305 301 300 303 302 304 305 305 304 303
316 315 316 317 315 315 315 315 315 314 314 312 312 312 315 314 313 311 312 312 314 315 315 315 317 315 316 318 317 316 315 315 316 316 314 315 316 315 315 315 315 315 315 315 312 312 312 310 309 308 309 305 302 301 299 296 297 298 301 301 304 304 302
318 316 317 316 316 317 316 316 316 315 313 313 312 313 314 313 312 312 312 311 312 313 313 313 314 315 316 317 315 314 315 318 317 315 315 316 315 314 314 315 317 315 315 316 314 313 312 311 310 310 311 308 303 298 296 298 295 298 301 301 302 303 304
316 315 316 315 315 314 316 316 317 315 314 314 315 313 313 312 311 311 311 310 311 311 312 312 313 312 313 314 315 312 311 311 317 316 315 316 315 315 315 316 317 316 315 315 315 314 313 310 308 307 309 308 305 300 295 294 295 296 300 298 301 302 305
316 315 315 315 315 316 315 316 315 315 314 315 316 315 312 312 314 315 311 310 310 311 311 310 310 309 309 310 309 309 308 309 309 308 311 314 314 314 314 313 314 315 314 316 315 314 313 310 307 307 304 303 303 302 295 296 296 294 299 298 296 301 302
315 314 315 315 315 315 315 314 314 314 314 314 315 312 311 310 310 309 308 308 309 309 309 308 308 308 308 308 308 308 307 307 307 306 307 310 311 313 312 311 311 314 315 316 314 313 312 310 307 305 304 303 302 300 301 299 296 297 298 301 298 297 301
316 315 315 315 314 314 314 314 314 313 314 313 311 311 310 309 309 307 307 307 307 307 307 306 306 306 307 307 307 308 307 307 308 307 306 307 310 310 309 309 311 313 314 314 312 312 312 311 308 305 305 304 300 299 299 300 298 299 298 297 296 298 301
317 315 314 314 314 313 313 314 314 314 312 310 310 310 309 308 308 307 307 308 307 306 305 305 304 305 306 305 305 306 306 307 307 306 307 306 307 306 307 307 308 311 312 312 310 310 311 311 308 307 305 303 301 299 299 296 296 296 298 298 297 298 299
319 316 314 314 314 313 313 313 313 311 310 309 309 309 308 308 307 307 306 306 306 306 306 304 304 304 305 305 306 307 307 306 306 305 305 306 306 307 306 306 306 307 309 310 308 309 309 310 309 307 304 303 301 300 300 297 296 296 298 299 298 300 299
319 316 314 313 313 313 313 312 312 311 310 309 308 308 307 306 307 306 306 306 306 305 305 304 304 304 304 304 305 305 306 305 305 305 305 305 305 304 305 306 304 305 307 306 306 306 307 308 309 308 305 303 302 300 300 299 297 296 297 297 298 298 298
318 316 315 315 314 314 313 313 312 310 309 308 309 308 306 306 306 306 306 306 305 305 305 305 305 304 304 304 305 305 304 304 304 304 305 305 305 304 304 305 303 304 305 305 303 304 303 304 306 307 305 302 301 300 300 299 300 296 296 298 297 299 299
317 316 316 317 315 314 314 314 312 310 308 308 308 307 308 307 306 306 307 306 306 305 305 305 305 304 304 304 304 304 304 304 304 304 305 304 310 303 304 304 304 303 304 304 302 303 303 303 304 304 304 302 301 301 302 301 299 299 299 298 298 299 298
317 316 316 315 314 313 313 314 313 310 309 308 308 308 307 306 307 306 306 306 305 305 305 304 304 304 304 304 304 304 304 304 304 304 305 305 305 303 303 303 303 304 304 305 304 303 303 303 303 303 302 302 301 302 301 299 299 299 299 299 299 299 299
317 316 315 315 316 315 313 313 312 311 311 309 309 310 309 307 308 307 306 305 305 305 305 304 304 304 305 304 304 304 304 304 304 304 304 305 304 303 303 304 303 303 304 304 305 305 304 303 305 303 304 303 303 302 301 301 301 299 299 298 297 298 298
316 316 316 316 316 316 316 316 314 311 311 309 309 309 309 308 307 307 306 305 305 306 305 305 304 304 305 304 304 303 304 304 304 304 305 304 304 304 303 304 304 304 304 304 305 305 305 305 303 303 302 304 304 302 302 301 300 299 298 298 297 296 296
316 316 317 316 316 316 316 316 316 314 311 311 312 310 308 308 307 307 306 306 306 307 307 307 307 305 305 304 303 303 303 304 305 304 304 304 304 304 304 304 304 302 307 312 310 308 308 308 306 304 301 303 303 302 302 301 302 299 299 298 297 297 297
314 315 315 315 314 315 316 315 314 313 314 313 311 311 308 308 307 307 307 305 305 306 307 307 310 307 307 307 304 305 304 304 304 304 304 304 303 303 304 303 306 317 314 311 307 304 303 305 307 308 306 304 304 303 302 302 300 300 300 298 298 298 297
313 312 314 314 313 314 314 314 313 312 313 314 314 312 310 308 307 307 307 306 304 306 307 308 304 301 299 303 307 305 305 304 303 303 303 303 303 304 304 304 303 309 312 312 305 302 301 301 302 303 304 305 307 306 303 302 301 301 301 300 298 298 298
312 312 313 313 312 312 312 312 312 312 312 312 312 313 311 309 308 307 307 306 305 306 306 306 301 300 298 297 301 307 305 305 305 304 304 304 305 304 305 305 304 306 307 305 304 302 301 300 299 299 300 300 301 302 303 304 303 300 299 300 298 299 299
301 302 304 307 309 311 311 310 309 310 310 310 310 311 312 311 309 307 306 306 305 305 305 303 295 294 296 297 297 300 304 305 305 306 305 305 305 306 304 305 306 304 308 313 311 302 301 299 297 295 296 298 298 298 298 299 300 305 304 303 301 298 299
298 298 299 300 300 300 301 303 305 308 308 308 308 309 311 312 312 309 306 305 305 304 304 302 295 295 295 295 295 298 303 304 304 304 306 307 307 306 306 307 308 307 306 307 307 303 302 299 298 297 297 298 297 296 295 296 296 299 302 305 303 302 300
297 297 297 297 297 297 297 298 299 301 302 303 305 306 307 308 309 309 309 307 305 305 307 302 296 294 293 293 293 294 303 305 306 307 307 307 307 306 307 308 308 308 308 307 308 305 303 301 299 300 299 299 297 298 297 297 300 301 304 304 304 305 303
296 296 296 296 296 295 295 295 296 297 298 298 298 299 300 302 303 305 307 306 305 307 308 301 297 294 293 293 293 300 302 303 305 307 308 308 309 309 308 308 308 308 306 307 305 299 301 302 301 301 301 298 297 294 294 294 292 293 298 302 303 304 304
295 295 295 295 295 295 295 295 295 296 295 295 295 296 297 298 300 301 302 304 305 306 308 304 299 295 295 294 295 303 303 303 303 304 307 308 309 310 310 310 309 309 308 309 304 299 296 300 301 301 301 299 297 295 294 294 293 292 293 295 296 296 295
294 294 294 294 294 294 294 294 295 296 294 294 294 294 296 296 296 298 299 301 303 304 306 305 300 299 298 295 296 303 304 303 305 306 307 308 307 308 309 310 312 310 309 310 302 298 296 301 303 303 302 302 298 296 294 294 295 294 293 293 293 293 293
295 294 294 294 294 294 294 294 294 294 294 293 294 293 295 294 295 295 296 298 303 302 302 302 300 298 297 298 298 303 305 305 304 304 305 306 305 306 308 309 308 309 309 307 301 298 295 300 305 304 304 302 300 298 298 294 294 293 294 293 292 293 292
295 294 294 294 294 294 295 294 294 294 294 294 293 293 293 293 293 293 294 295 297 298 299 301 300 296 296 296 296 302 306 305 304 304 304 306 307 304 305 306 305 299 298 299 298 298 296 296 304 304 305 304 301 299 301 295 295 295 295 295 294 293 292
294 295 294 294 295 295 295 294 294 294 294 294 293 293 293 293 293 293 293 294 295 296 298 299 298 295 295 295 295 296 303 305 306 306 305 304 305 306 305 305 306 303 298 297 297 297 296 294 297 304 305 305 304 301 295 295 296 295 296 295 294 292 291
294 294 293 293 292 292 293 293 293 292 292 292 291 291 292 292 292 292 292 293 293 293 296 298 297 296 294 294 294 295 300 304 305 306 306 305 305 304 306 307 306 303 299 297 296 296 296 296 296 299 305 299 297 291 297 296 296 296 296 294 293 292 291
292 293 292 292 291 291 291 291 291 291 290 289 289 289 289 290 289 289 290 291 291 292 293 294 295 295 294 293 293 293 294 297 297 304 306 306 306 306 306 306 306 302 298 297 296 295 295 295 295 298 296 296 294 292 294 297 296 296 295 294 293 292 291
291 290 291 290 290 289 289 289 290 290 290 290 289 289 289 289 289 289 289 289 290 291 292 293 294 293 294 293 293 292 292 293 293 301 306 307 308 307 305 304 303 300 298 297 296 295 294 294 297 295 294 295 293 292 297 295 296 296 293 292 292 292 292

ECMWFFLT1_sfc_thetae_042.txt.gz
Theta_e
321 319 318 319 318 320 319 319 322 321 323 323 324 324 324 326 324 324 324 326 327 326 327 325 325 326 327 328 328 326 323 322 321 321 319 319 320 319 321 319 319 318 318 315 317 316 315 312 312 315 317 317 319 319 318 316 315 314 313 312 310 309 309
319 319 320 321 319 318 317 317 320 320 320 321 322 323 323 324 327 323 323 324 325 326 328 324 324 325 326 327 326 324 323 321 322 321 321 320 320 319 318 317 318 316 315 316 316 316 315 313 312 313 312 316 316 316 314 314 313 313 312 312 312 310 310
319 318 319 317 316 316 316 315 317 318 318 318 318 320 322 322 324 324 322 323 323 324 327 325 323 324 325 326 326 324 323 322 321 322 322 321 321 320 321 318 315 314 314 315 314 314 315 315 313 312 314 315 313 313 313 311 310 310 309 309 308 307 307
317 318 316 314 314 315 316 314 316 315 316 316 317 317 318 319 320 323 322 322 322 325 327 324 323 325 324 325 325 324 323 322 320 320 321 320 321 320 318 319 318 317 316 314 314 314 314 313 313 313 312 313 313 312 310 310 309 307 307 308 307 307 307
318 318 316 315 315 315 315 314 313 315 315 315 315 316 316 317 319 318 320 321 322 323 325 323 323 324 323 324 324 324 323 321 321 321 320 319 320 320 319 318 319 318 315 316 316 316 315 316 316 312 310 311 311 308 308 310 309 308 307 306 306 306 306
319 318 317 316 314 315 314 314 315 315 314 316 315 315 315 315 316 316 317 319 321 322 321 320 320 321 322 323 323 323 322 321 321 320 319 320 320 321 320 318 318 317 315 316 316 315 316 317 314 311 310 310 309 307 308 307 307 307 308 307 306 306 305
318 319 318 317 314 315 315 315 316 316 316 317 315 315 314 316 314 315 316 316 317 318 318 318 318 319 321 322 322 322 321 321 320 319 319 319 319 319 319 318 318 317 316 316 315 316 315 314 313 313 310 308 309 308 304 306 305 306 306 308 307 307 307
319 319 318 317 315 315 314 315 315 315 316 315 316 316 316 314 313 313 314 315 316 317 317 318 318 319 320 321 321 320 319 318 318 318 318 319 319 318 318 319 317 316 316 315 315 315 316 316 315 313 312 308 306 307 304 301 302 304 306 306 307 307 308
318 318 317 316 315 316 315 315 315 315 315 314 314 316 314 313 313 313 314 313 314 315 316 315 316 318 318 318 318 318 318 319 318 317 317 317 318 317 318 317 318 318 317 316 315 315 315 316 316 316 315 313 309 304 302 304 302 303 304 306 306 307 307
316 317 317 316 316 315 316 315 315 314 314 315 316 315 313 312 311 312 313 313 313 313 314 314 314 315 316 318 316 316 317 317 318 317 316 318 317 317 317 318 319 318 318 316 315 315 314 315 316 316 317 315 313 307 302 302 303 302 305 303 305 307 307
316 316 316 316 315 315 314 315 314 315 315 315 316 316 313 313 315 316 312 312 312 312 312 311 312 312 313 312 312 311 311 315 316 316 317 317 316 316 317 317 318 318 318 317 315 314 313 314 314 315 314 313 312 308 304 303 303 302 306 304 303 307 306
315 315 315 316 316 315 314 314 314 314 314 315 316 313 312 311 310 310 311 310 311 310 309 310 310 310 311 311 311 310 310 311 312 312 312 316 315 317 317 317 316 318 318 317 316 315 313 312 312 311 309 310 310 309 307 306 304 304 306 307 305 303 307
316 315 315 315 315 314 314 314 314 314 314 314 312 312 311 310 309 309 309 309 309 308 308 307 308 309 309 309 309 309 309 309 309 310 310 311 314 315 315 315 315 317 317 316 315 315 312 311 311 309 308 308 306 307 309 307 306 305 304 307 307 304 305
314 315 314 314 314 314 313 314 314 314 313 312 311 310 310 309 308 309 309 310 308 307 306 307 307 308 309 308 308 308 308 309 308 308 310 309 310 312 314 314 314 315 316 316 315 315 313 311 310 309 308 307 305 305 307 304 304 303 304 303 304 303 303
315 315 314 313 313 313 313 313 313 312 312 310 310 310 309 309 308 307 307 307 307 306 306 305 305 307 308 308 308 309 308 308 308 307 308 308 308 309 310 312 312 314 315 315 314 314 314 312 309 308 307 306 304 304 306 304 302 303 304 304 304 303 303
315 315 314 313 313 313 313 313 313 312 311 309 309 309 308 307 307 307 307 306 306 306 306 305 305 305 306 307 307 307 307 307 308 308 308 307 307 307 308 310 310 311 312 314 313 313 313 313 311 308 308 306 305 304 304 304 303 302 303 303 304 303 304
315 315 314 313 313 313 313 313 313 312 310 309 309 308 307 306 306 306 307 306 306 306 306 306 305 305 306 306 307 307 306 307 307 307 307 307 306 307 307 308 308 310 311 313 311 310 310 312 312 311 309 307 306 303 304 304 307 303 303 303 302 302 303
315 314 314 314 313 313 313 313 313 311 310 309 308 308 308 306 305 306 306 305 306 306 306 306 306 305 305 306 306 306 307 306 307 307 307 307 311 307 308 308 307 308 309 311 308 308 308 310 310 311 310 307 305 304 304 304 304 304 304 303 303 303 303
315 315 314 314 313 313 312 312 312 311 310 309 308 307 307 307 308 306 306 305 305 306 306 305 306 306 306 306 306 306 307 307 307 307 307 308 306 307 307 307 307 308 308 310 309 308 307 308 308 309 310 308 305 304 304 304 304 305 304 303 304 302 304
315 314 314 314 315 315 313 312 312 311 311 310 310 309 307 308 309 307 306 305 305 306 306 306 305 306 306 305 306 306 306 306 306 306 306 307 306 305 306 307 307 307 308 308 308 308 307 307 307 308 309 308 304 304 304 304 303 303 303 302 302 304 303
315 315 315 315 315 316 315 315 313 311 309 309 309 310 310 309 308 308 307 306 306 307 306 305 304 305 305 305 306 305 306 307 306 307 307 306 307 306 306 306 307 307 307 307 308 307 307 307 307 307 306 306 305 305 304 304 303 303 302 302 303 302 303
315 315 315 315 315 315 314 314 314 314 313 312 312 311 310 309 309 309 308 307 306 307 307 307 307 306 306 305 305 306 306 307 307 307 307 307 306 306 307 307 306 306 310 312 309 307 307 307 308 307 306 306 305 305 304 304 304 303 302 302 302 302 303
314 314 314 314 314 314 314 314 313 313 313 313 313 311 308 308 307 307 308 307 306 307 307 307 310 306 306 307 305 306 306 306 306 307 308 307 307 306 306 306 310 315 312 311 307 303 301 303 306 308 308 307 306 305 305 304 303 303 302 301 301 302 302
312 313 313 313 313 313 313 313 312 312 312 312 312 312 312 311 308 307 307 306 306 306 307 308 304 300 299 301 306 306 307 306 306 306 307 307 307 308 307 307 306 311 313 312 309 300 299 299 299 301 302 304 306 307 305 304 304 303 302 303 302 301 302
303 305 306 307 308 309 309 310 310 310 310 310 310 311 311 311 310 309 308 308 307 307 307 302 295 295 295 296 301 307 306 307 306 306 306 306 307 307 307 307 307 308 311 310 309 307 303 300 298 299 298 299 299 300 301 307 306 303 303 303 302 302 302
298 299 299 300 300 300 300 301 302 303 304 306 306 306 306 307 308 309 309 309 308 306 307 297 293 293 293 292 294 300 305 307 307 306 306 306 306 307 306 307 308 308 309 313 313 308 307 306 299 298 298 298 298 298 297 298 299 308 307 306 305 303 303
297 297 298 297 298 297 297 297 299 300 300 301 300 301 302 302 303 305 306 307 307 308 309 299 295 294 293 293 292 295 303 305 306 307 307 307 307 307 307 307 308 309 308 310 312 308 306 305 303 302 303 304 306 303 297 296 296 297 302 308 307 306 306
296 296 296 296 296 296 296 296 296 297 297 297 298 298 299 299 300 301 302 304 304 305 307 296 295 294 294 294 293 297 305 305 306 307 308 307 308 308 308 308 308 309 309 309 309 309 307 306 304 304 304 304 304 303 304 305 305 306 307 307 308 308 309
295 295 296 295 295 295 294 294 294 296 296 295 296 296 297 298 298 298 300 301 301 302 304 294 293 294 295 294 296 305 305 305 306 308 309 309 309 309 309 309 309 309 309 309 305 299 302 307 305 305 305 305 302 300 300 298 294 294 299 304 308 309 309
295 295 295 295 294 294 294 294 294 295 294 294 294 295 295 295 296 297 298 299 299 300 301 297 293 293 294 294 298 305 306 306 306 306 308 309 310 310 310 310 309 310 310 310 304 298 296 300 306 306 306 306 304 301 301 299 294 292 292 293 295 297 298
294 294 294 293 293 293 294 294 294 294 293 293 293 293 294 294 295 295 296 297 299 297 298 297 293 293 293 293 297 303 304 305 306 306 307 308 309 309 310 308 311 311 310 311 302 298 294 301 307 306 307 306 305 303 303 300 300 297 292 292 292 292 292
294 294 293 293 293 293 293 293 294 294 293 293 293 293 294 293 293 293 294 295 298 296 296 297 294 292 292 292 297 302 304 305 305 305 306 306 308 308 308 308 307 308 310 308 300 298 294 301 308 308 307 306 305 304 305 302 298 298 298 298 296 297 295
294 293 293 293 293 292 293 293 292 292 293 293 292 292 293 293 292 293 293 294 294 295 296 296 296 292 292 292 293 299 303 304 304 304 305 306 306 307 308 308 306 299 296 296 296 296 294 295 308 309 307 306 306 306 306 301 299 300 299 299 298 298 296
294 294 294 294 294 293 293 292 292 292 292 292 292 292 292 292 292 292 293 293 293 294 296 295 295 292 292 292 292 294 300 302 303 304 305 305 306 306 307 308 308 302 297 296 295 295 295 292 296 307 307 307 308 306 298 301 298 296 300 298 297 296 296
293 293 293 293 292 292 293 293 293 292 292 292 291 291 291 292 291 292 292 293 293 293 294 295 294 293 292 292 291 292 296 298 298 300 302 304 305 306 307 307 307 303 298 296 295 294 294 293 291 301 306 299 298 293 302 301 300 299 299 297 297 295 295
292 293 292 292 291 290 290 291 291 291 290 290 290 290 290 290 290 290 290 291 292 292 292 293 293 293 292 291 291 291 290 293 291 297 300 301 303 305 308 308 307 301 297 296 295 294 294 293 293 298 296 295 295 293 296 300 299 299 298 296 295 294 293
290 290 291 291 290 289 289 290 290 290 289 289 289 288 289 289 289 289 288 289 290 291 292 292 292 292 292 291 291 290 290 290 290 294 297 299 302 304 306 308 306 298 296 295 294 294 292 292 297 294 293 293 294 294 301 299 298 299 296 295 294 294 293

ECMWFFLT1_sfc_thetae_045.txt.gz
Theta_e
332 331 334 336 337 337 336 335 336 337 337 337 337 336 337 337 335 333 333 334 334 333 332 331 331 331 331 332 333 333 332 332 332 329 328 328 327 328 329 331 331 331 332 331 327 323 319 315 315 321 321 321 321 321 321 321 321 321 321 320 318 317 318
335 334 335 335 334 336 336 336 337 335 335 336 336 336 336 336 336 335 334 334 334 333 332 332 332 332 332 332 331 331 331 332 333 333 332 330 331 330 327 329 330 328 328 329 329 329 321 318 316 317 316 320 321 320 319 320 320 321 319 318 316 315 316
333 333 334 333 334 335 335 336 336 336 336 337 336 337 335 335 336 336 335 334 334 333 333 334 334 334 333 332 332 331 333 333 334 334 333 333 333 332 331 330 328 327 326 326 327 326 325 324 318 317 318 318 316 319 321 320 319 318 317 317 316 313 315
332 333 332 332 332 333 333 334 335 335 336 336 337 337 335 336 335 335 335 335 335 335 334 334 335 335 335 335 334 333 332 332 332 334 334 334 333 332 332 330 329 326 325 323 324 325 325 322 319 318 319 319 317 317 317 317 317 316 316 316 315 314 315
332 331 332 331 332 332 333 333 334 334 334 334 335 335 335 336 335 334 334 334 334 335 334 335 335 336 336 335 335 334 332 331 332 330 334 333 332 332 332 332 331 331 327 325 326 328 326 324 322 318 317 318 317 316 314 315 315 314 314 313 312 313 314
332 332 333 332 333 332 332 332 332 332 332 332 332 333 333 334 335 335 334 333 333 334 335 335 335 336 337 337 336 335 335 334 334 334 333 334 333 332 331 332 333 330 327 327 328 329 329 328 325 319 319 320 316 314 313 312 310 312 313 312 312 312 310
331 332 332 331 332 332 332 333 333 332 332 332 332 332 333 331 332 335 336 336 336 336 335 334 334 335 335 335 336 335 335 335 335 335 335 335 334 333 333 332 331 330 329 328 329 329 328 327 323 321 319 319 318 314 312 311 310 307 308 311 311 311 309
330 330 330 331 331 331 332 333 334 334 331 332 331 333 330 331 331 333 335 336 335 336 335 335 334 335 335 334 335 335 334 334 333 333 333 333 332 331 332 332 332 331 329 327 328 328 327 328 326 324 320 315 316 315 311 310 310 311 308 309 310 309 309
329 330 330 330 331 332 332 332 332 333 333 333 332 331 330 330 331 332 333 334 334 334 334 334 334 334 334 334 333 333 333 331 333 332 332 331 331 332 332 333 332 329 330 327 328 328 327 329 328 327 324 319 314 310 313 310 310 309 310 307 309 309 307
328 329 328 329 330 331 332 332 331 331 332 332 331 331 329 329 332 333 332 333 333 333 333 334 334 334 334 334 334 333 332 333 333 331 332 331 332 331 332 333 332 331 329 329 328 329 330 330 329 328 325 322 319 313 309 309 309 309 309 309 303 306 309
329 330 329 328 329 329 329 329 330 328 329 331 331 329 329 329 330 330 332 331 331 332 332 332 332 333 333 332 332 332 332 333 332 332 332 331 331 331 332 332 333 329 329 327 326 329 329 329 328 328 326 327 322 316 313 308 309 313 310 311 311 305 309
330 329 328 328 329 329 328 328 328 330 330 329 328 327 327 327 328 329 331 330 330 330 330 331 331 331 331 331 331 331 331 333 332 332 332 331 331 330 330 331 331 330 328 327 327 327 328 328 328 327 326 326 324 322 317 313 307 313 316 310 311 311 307
327 327 327 327 328 329 328 328 328 329 330 329 329 328 326 326 327 327 328 328 328 328 328 328 329 329 329 329 328 327 327 328 328 330 330 331 329 330 330 329 330 329 327 325 325 325 324 326 328 325 325 324 323 323 320 314 310 310 316 314 312 312 312
326 327 327 329 329 330 329 328 328 329 327 328 327 326 325 325 325 326 326 325 326 326 326 326 326 327 325 324 324 324 323 322 322 323 326 328 329 330 329 328 329 329 327 325 324 323 322 324 325 325 324 322 320 322 320 316 312 312 315 317 316 312 313
326 327 328 327 328 327 328 327 328 327 328 325 326 325 324 325 325 325 324 323 323 322 323 323 324 324 323 324 325 324 324 322 321 322 323 323 326 328 329 328 327 328 327 325 324 320 321 321 322 321 321 321 319 319 322 314 313 311 311 315 313 314 313
326 327 327 327 327 326 327 327 327 327 326 324 325 325 324 324 323 323 322 322 321 321 321 321 323 323 323 323 323 323 323 323 323 322 322 322 321 324 327 328 327 328 327 326 324 322 322 321 321 320 321 320 319 319 318 316 315 312 312 311 315 310 311
326 326 326 327 327 326 326 326 326 326 325 324 323 323 324 322 322 322 321 321 321 320 320 321 321 320 320 321 321 321 321 322 322 322 321 320 318 321 324 326 327 328 327 326 324 324 322 322 321 320 321 321 320 318 319 319 317 315 314 311 312 309 311
324 325 325 325 324 324 324 323 323 323 323 323 322 322 321 321 321 320 321 319 319 320 320 320 319 320 321 323 322 322 321 321 322 321 322 321 320 320 321 324 325 327 327 326 325 323 324 324 321 322 321 319 318 319 318 317 316 315 315 312 312 312 314
324 323 323 323 323 322 322 321 321 321 321 321 321 322 321 320 319 318 318 318 319 318 319 320 318 318 319 321 323 323 323 322 322 321 321 321 320 321 322 321 324 326 327 327 325 325 325 326 324 324 322 320 318 318 318 317 317 316 314 313 315 311 312
320 320 322 322 323 322 322 322 320 319 319 320 320 320 320 319 321 319 318 318 318 318 318 319 320 320 319 319 321 321 322 322 322 323 322 321 320 320 321 321 322 324 326 328 327 326 325 326 326 326 325 324 319 317 317 316 314 314 314 314 314 313 311
319 319 321 322 323 324 323 322 321 321 321 321 320 319 319 319 320 319 320 319 319 320 320 319 319 320 320 321 321 321 321 322 321 322 324 323 322 321 321 321 322 322 323 324 326 326 325 325 324 325 325 324 322 319 318 316 315 313 313 313 311 311 312
321 321 321 322 322 323 323 325 324 324 323 322 322 321 321 320 320 319 319 319 318 319 320 320 320 322 322 322 322 321 321 320 321 320 321 322 322 321 321 321 321 322 322 320 313 315 316 317 322 321 322 321 321 320 320 318 316 314 313 313 312 313 311
320 320 319 319 319 320 320 321 321 320 319 319 320 320 321 321 320 319 319 318 318 318 318 317 309 300 303 318 321 320 322 322 320 321 320 321 322 322 321 322 321 315 312 311 307 303 301 304 309 318 322 320 319 318 318 317 315 315 314 312 311 311 310
314 313 314 315 316 317 317 318 319 319 318 318 319 319 321 322 322 322 321 321 320 318 314 305 293 294 295 299 315 319 320 321 321 320 321 321 321 321 322 321 323 319 317 313 313 299 299 298 299 301 304 309 314 320 319 317 316 316 314 313 313 313 310
306 306 306 307 309 309 311 311 311 312 313 313 313 315 315 317 319 322 322 320 318 314 308 296 293 293 293 294 302 318 319 319 320 320 320 320 320 320 322 323 323 324 324 325 324 318 307 299 298 298 297 298 299 299 301 318 318 316 316 313 313 313 313
304 304 304 305 305 306 306 306 307 307 307 309 310 310 310 312 314 316 317 315 313 310 305 294 294 294 293 293 293 306 317 318 318 318 318 319 320 321 322 321 322 323 322 315 317 322 323 318 299 296 298 296 296 296 296 295 300 318 320 316 315 315 314
301 301 302 303 303 303 303 303 304 305 306 307 307 308 308 309 310 311 313 312 309 306 303 294 293 293 294 293 294 304 319 319 318 318 318 318 319 319 319 319 319 321 323 322 323 323 322 323 322 318 316 317 318 310 296 295 295 295 307 318 317 316 318
300 300 301 301 302 302 302 302 302 303 304 304 305 305 306 306 307 308 309 310 308 306 301 292 292 292 292 293 295 304 320 321 323 323 322 321 320 320 320 320 320 319 320 321 322 320 321 321 321 321 320 321 321 322 320 318 316 317 315 317 319 319 320
300 300 300 299 300 300 301 302 302 303 303 302 303 304 304 305 305 306 307 308 308 306 302 292 292 292 292 292 297 315 317 318 320 321 323 322 322 322 322 321 322 321 321 321 313 302 307 319 319 318 318 319 320 321 320 311 299 301 311 319 321 321 322
297 297 298 298 298 299 299 299 300 302 302 302 302 302 302 303 304 305 305 305 306 305 303 295 291 292 292 292 303 314 315 314 316 316 318 318 319 320 321 321 321 322 322 323 310 297 296 301 318 318 318 318 319 319 318 312 294 292 292 292 292 293 295
297 297 297 297 298 299 300 300 300 301 300 300 300 301 302 302 302 303 303 303 304 305 303 296 291 292 292 291 298 311 311 312 313 314 315 318 318 319 319 311 313 319 321 322 304 299 294 303 317 319 319 318 318 317 318 317 311 307 292 292 291 292 294
298 298 298 298 299 298 299 299 300 301 301 301 300 301 301 301 301 301 302 302 300 303 303 299 292 291 291 291 299 309 309 310 311 312 312 313 315 317 318 315 308 310 314 311 296 299 294 301 317 319 319 319 317 317 318 320 314 311 311 311 310 308 304
298 298 298 298 298 300 300 299 300 300 300 300 299 300 300 300 300 300 301 301 301 302 301 301 296 290 291 292 292 304 308 307 307 307 309 309 310 313 315 316 314 298 294 292 293 292 295 294 313 319 320 318 317 316 320 320 316 314 314 312 314 314 314
295 296 297 297 297 297 298 297 298 299 299 299 299 299 299 299 300 299 300 300 300 300 299 300 298 291 291 291 291 295 304 303 303 304 305 306 308 309 310 312 314 304 297 296 294 292 293 293 295 313 318 318 319 318 312 318 314 300 313 313 312 311 311
296 296 296 296 296 296 296 296 296 296 297 298 298 298 298 298 299 299 299 299 300 299 299 296 298 293 291 291 290 291 299 300 297 300 302 304 305 307 308 309 311 304 296 294 293 293 293 293 292 305 313 302 301 299 313 316 317 312 312 311 309 307 308
296 297 296 296 296 296 296 296 296 296 296 296 297 297 297 297 298 297 298 299 299 299 299 299 293 296 292 291 290 290 288 294 290 299 300 301 302 304 306 307 308 297 291 291 292 292 293 292 292 301 297 296 296 294 299 313 312 311 309 307 305 305 305
297 297 297 297 297 297 296 297 297 296 296 295 295 296 296 296 296 296 296 296 298 298 298 298 295 292 294 291 290 290 289 288 288 296 297 299 301 302 303 304 300 291 290 290 291 291 292 292 299 295 293 293 293 294 305 309 307 308 306 304 303 305 305

ECMWFFLT1_sfc_thetae_048.txt.gz
Theta_e
334 334 337 338 340 340 340 338 339 339 339 339 339 338 339 338 338 338 338 338 336 335 335 334 334 334 335 335 338 338 337 336 336 332 332 333 330 331 335 332 334 335 334 332 331 325 323 319 318 324 326 328 329 328 328 327 329 330 329 328 327 327 327
336 336 337 338 338 339 338 337 337 337 337 339 337 338 339 338 337 337 337 337 337 336 335 334 335 335 336 337 337 337 337 336 336 333 333 332 332 331 333 332 333 331 331 332 330 329 322 320 318 320 319 324 326 326 328 328 328 329 326 324 323 323 323
335 335 337 336 336 337 336 337 336 334 335 335 336 337 336 336 336 337 337 336 337 336 335 335 336 336 337 337 337 337 337 336 336 335 332 332 332 333 332 330 329 329 328 328 328 328 325 324 319 320 322 321 318 322 326 325 327 325 323 322 322 319 319
335 335 334 334 334 334 334 335 335 335 335 335 337 337 336 335 336 336 336 336 337 337 335 336 337 336 338 337 337 337 336 336 334 334 333 334 333 333 333 331 328 328 327 323 326 326 325 322 322 322 322 321 319 318 322 324 324 322 321 321 320 319 319
336 334 334 334 333 333 333 333 333 334 335 336 336 335 336 336 336 335 337 336 335 337 335 336 336 339 340 338 337 336 335 335 335 334 334 333 333 333 334 333 332 332 333 327 326 328 326 325 324 322 321 321 320 320 320 322 321 319 318 317 317 317 316
336 335 335 334 334 333 332 332 332 331 332 332 333 333 335 335 335 335 335 334 334 336 336 335 337 337 339 339 338 336 335 333 333 334 333 333 333 331 331 333 335 331 331 333 334 331 329 325 327 320 321 322 318 315 316 317 315 316 317 315 315 314 313
335 335 333 333 334 333 333 332 332 331 331 332 332 333 334 334 334 334 335 335 336 336 336 335 334 335 339 338 337 336 335 334 334 334 334 334 334 334 334 331 334 331 332 334 333 332 328 327 324 321 321 322 319 313 313 314 314 312 313 314 314 313 311
334 333 333 335 335 333 333 333 333 332 331 331 331 333 333 334 334 335 334 335 335 335 334 334 334 335 335 334 336 336 335 335 335 335 334 334 333 333 334 331 332 331 332 333 335 333 332 330 328 325 323 319 316 315 312 312 311 311 311 312 312 311 312
335 333 333 335 334 334 334 333 334 333 332 332 333 333 334 333 332 333 333 333 333 333 333 333 333 332 334 336 337 337 336 335 336 336 336 337 336 335 335 334 331 332 335 334 334 332 332 329 329 328 327 323 316 311 312 309 311 310 311 309 310 311 311
337 335 334 334 334 334 335 334 333 333 333 333 333 334 334 333 333 334 332 332 333 333 333 332 332 332 334 337 337 338 338 337 338 336 338 337 337 337 335 334 332 333 335 336 334 334 334 332 331 329 328 322 320 315 311 308 310 308 309 310 307 308 311
335 334 334 334 335 334 333 333 334 333 332 332 332 332 333 332 332 331 332 332 332 332 332 332 331 331 333 332 333 335 335 337 337 337 337 336 337 337 335 333 331 331 334 335 333 336 335 334 331 330 330 326 321 317 315 311 311 311 309 311 311 307 310
335 333 333 334 334 333 333 333 332 332 333 333 331 331 331 331 331 330 331 331 331 331 331 331 331 331 331 330 331 331 334 334 332 333 335 335 336 336 335 333 332 332 335 335 335 335 336 334 332 332 330 328 322 322 319 315 310 312 314 311 311 311 310
335 333 333 334 333 332 331 332 332 332 333 332 331 330 330 330 330 329 328 330 330 330 329 329 331 331 331 330 330 328 331 331 331 331 331 333 331 333 335 333 332 332 334 333 333 334 333 334 333 329 330 326 321 323 320 316 312 311 314 314 313 311 313
334 333 333 333 333 332 332 332 332 333 332 332 331 330 328 330 328 329 328 328 327 328 327 328 330 331 330 329 328 328 328 328 326 326 327 330 329 331 332 332 333 334 335 333 331 331 330 330 332 331 328 323 320 322 321 316 312 313 318 318 316 312 314
334 334 333 332 332 331 332 332 332 332 332 332 331 328 328 329 328 328 326 327 327 326 325 325 328 330 328 328 328 327 327 326 326 326 327 325 327 329 333 332 332 333 333 331 331 326 325 327 328 327 324 323 318 319 322 316 313 313 316 319 315 316 313
333 334 333 332 330 331 331 331 331 331 331 331 331 329 328 328 327 326 325 327 327 325 323 323 327 328 328 328 327 327 327 326 325 325 326 325 324 326 329 333 333 334 333 332 329 326 327 327 324 322 322 321 319 318 318 318 316 314 314 314 318 315 316
334 334 333 331 329 331 331 331 331 331 330 330 328 328 327 327 326 325 324 325 325 323 322 322 324 325 325 326 326 326 325 325 325 325 323 322 322 325 327 331 333 334 334 331 327 325 326 325 323 321 321 322 322 318 320 321 320 318 315 313 315 314 315
332 330 332 330 331 331 331 331 332 330 330 329 327 326 326 326 324 323 324 323 322 322 321 320 322 323 325 326 326 326 325 324 324 324 324 323 325 325 327 331 332 334 334 332 328 327 324 325 321 321 321 320 320 321 321 320 319 319 317 315 315 316 316
329 329 329 332 333 332 331 331 330 329 327 325 324 324 323 322 321 321 322 321 322 321 320 320 319 321 323 324 325 326 326 325 323 323 323 323 323 324 326 327 333 334 333 332 328 327 326 325 321 322 321 319 319 320 322 321 320 320 318 316 317 315 317
330 330 330 331 332 330 330 330 328 326 324 322 322 321 321 321 321 320 320 321 320 320 319 319 320 321 321 322 323 323 324 325 325 324 323 322 323 324 324 326 332 334 334 333 331 329 328 328 325 324 323 323 320 321 321 321 319 319 319 318 318 317 316
330 329 329 329 328 329 328 327 326 324 323 323 322 321 321 321 321 319 319 319 319 320 319 319 319 320 320 321 321 321 321 322 324 324 325 323 324 324 324 325 327 331 334 335 334 332 331 329 327 326 326 326 324 322 321 320 320 318 318 319 317 317 316
329 329 328 327 326 326 326 325 323 322 322 323 322 321 322 321 320 320 320 321 320 322 323 323 323 323 323 320 321 321 321 319 321 323 324 324 323 322 323 324 325 326 334 322 312 317 318 318 326 323 324 325 324 322 322 320 319 318 318 317 317 318 316
327 326 326 326 326 326 326 326 326 325 324 323 324 324 323 323 322 322 322 322 324 326 326 320 304 296 299 319 323 321 321 322 319 321 321 322 322 322 323 324 326 317 312 313 310 306 305 308 311 321 328 324 323 322 321 320 318 318 317 315 315 316 315
324 324 324 325 325 324 324 326 326 325 326 326 327 326 325 323 323 323 324 325 324 321 315 307 294 292 294 292 317 322 322 322 322 321 321 321 320 321 322 323 326 320 319 314 314 299 301 300 301 301 302 307 313 328 322 319 319 320 317 317 317 316 315
319 319 319 319 318 317 317 318 318 319 321 322 323 326 326 326 326 326 324 323 321 317 311 296 292 294 293 292 296 318 322 322 322 322 323 322 322 322 322 324 325 326 326 331 327 320 308 299 298 298 298 299 301 301 301 323 323 319 319 317 315 316 316
313 313 313 313 314 314 314 314 315 316 317 319 322 323 324 325 323 321 318 315 314 312 309 293 293 292 294 293 294 305 323 322 321 321 322 321 323 323 323 323 324 325 323 317 318 321 325 323 299 295 298 298 297 296 297 296 297 319 323 319 317 317 317
310 310 312 313 313 312 313 312 315 316 317 319 320 321 322 321 320 318 316 313 310 308 306 295 292 291 293 292 294 300 326 324 324 322 321 322 322 322 322 321 321 322 324 324 323 323 323 324 326 321 320 320 322 315 297 295 295 293 304 319 320 318 320
307 307 307 308 309 309 310 310 310 312 313 313 313 314 315 315 316 317 316 313 310 307 302 291 292 291 292 292 292 297 328 328 325 326 326 327 326 326 325 324 323 321 322 322 323 323 323 322 323 323 323 323 324 323 326 325 322 321 320 320 321 322 322
304 305 305 304 303 304 306 307 307 308 309 309 310 310 310 311 311 314 314 313 310 306 302 291 291 292 292 292 292 321 324 325 325 325 327 328 327 328 328 328 327 325 326 325 311 301 308 323 323 323 321 322 322 322 324 319 312 316 326 330 326 326 329
302 302 303 303 303 303 304 305 305 307 306 306 305 305 307 307 309 310 311 311 310 307 304 295 291 291 292 290 304 320 321 321 322 323 324 324 325 326 327 327 328 327 327 328 304 300 296 300 323 323 322 323 322 322 322 326 300 295 293 293 293 292 292
301 301 301 301 302 302 302 302 304 305 306 305 306 305 306 306 306 306 306 308 309 307 304 296 291 292 292 291 297 316 316 318 318 319 320 321 322 323 323 309 316 322 325 320 293 298 292 306 322 324 324 323 323 322 323 326 322 315 291 292 293 292 293
301 301 301 301 302 302 302 303 303 305 306 307 307 307 306 306 305 305 305 306 305 308 307 300 291 291 291 291 299 313 313 314 315 317 316 316 319 319 321 316 306 308 312 303 291 294 292 301 321 324 325 324 323 324 325 327 326 323 319 316 316 314 311
301 301 300 301 302 302 303 304 305 305 305 306 306 306 306 306 305 305 306 307 307 308 308 306 297 291 291 292 291 304 312 311 311 311 312 312 312 315 316 319 307 293 293 292 293 291 294 292 309 320 323 324 322 322 326 325 326 326 324 321 321 320 319
299 300 301 301 302 302 303 303 303 304 303 304 305 304 305 305 306 306 306 307 307 305 305 307 301 290 291 291 290 294 310 308 307 307 308 308 310 311 312 313 317 293 290 290 291 290 291 292 292 307 316 321 323 312 306 324 325 308 323 323 322 321 321
298 298 299 300 301 301 302 302 302 302 302 302 303 303 304 305 305 305 306 305 306 306 302 298 304 293 290 291 290 289 302 305 299 303 305 307 307 309 310 311 313 297 289 290 290 290 290 291 291 301 309 300 296 295 310 314 321 321 321 321 320 319 319
298 299 299 300 300 300 301 302 302 302 303 303 303 303 303 303 304 303 305 305 306 306 305 302 294 299 290 291 289 289 287 295 290 301 304 305 306 306 309 309 308 293 290 290 291 290 291 290 291 301 296 294 294 293 297 312 314 316 316 317 316 316 315
300 300 300 300 300 300 300 301 301 302 302 301 301 301 301 302 302 301 301 302 303 303 304 305 295 293 295 289 291 290 289 286 286 298 300 301 304 305 307 308 300 290 290 290 290 291 291 291 295 293 292 293 293 293 303 306 308 311 310 312 313 313 313

ECMWFFLT1_sfc_thetae_051.txt.gz
Theta_e
332 334 335 340 340 339 339 340 342 342 342 342 342 340 340 339 339 338 339 338 337 336 335 335 335 334 338 338 339 338 335 336 336 333 331 332 327 329 333 333 334 333 333 332 331 326 323 318 320 327 330 333 332 331 329 329 330 329 329 329 327 327 328
333 336 336 338 338 339 340 340 339 339 340 341 340 339 338 338 338 338 338 337 337 337 336 334 335 334 334 337 338 337 336 336 336 335 332 331 331 330 331 331 331 331 331 332 332 329 323 319 320 320 322 327 328 329 329 330 329 329 328 327 326 325 326
338 336 337 335 336 339 339 338 338 337 337 338 339 339 339 338 337 338 338 337 337 337 335 335 335 335 336 337 338 338 337 336 337 337 335 333 332 331 331 332 331 327 326 327 329 329 326 325 320 319 322 322 320 324 328 327 328 327 325 324 324 322 322
331 336 337 335 337 337 336 336 335 335 336 335 335 337 337 337 338 337 337 337 338 337 335 335 336 334 336 338 339 339 338 336 335 335 336 336 335 335 333 332 331 330 327 325 325 329 325 321 322 322 322 323 322 321 325 327 326 324 322 323 321 320 320
333 333 333 332 336 335 335 333 333 334 333 335 336 335 335 336 337 336 337 336 336 337 335 336 337 337 338 338 338 338 336 336 336 336 336 335 335 333 334 332 331 331 332 330 330 331 327 326 323 322 322 322 322 322 322 324 324 322 321 320 319 319 317
334 335 334 332 334 333 333 332 333 332 333 333 334 334 335 336 335 336 336 333 334 336 336 335 337 338 338 338 337 335 336 335 336 336 334 334 335 334 332 334 332 330 332 333 331 331 330 327 326 322 320 322 319 319 320 321 319 320 320 318 317 316 315
334 335 335 333 333 333 333 332 332 333 332 333 334 334 335 335 334 335 335 334 334 334 335 335 334 339 339 337 339 337 336 336 336 336 335 335 336 335 334 333 334 333 332 332 333 332 330 327 327 323 320 321 320 317 318 317 317 315 315 316 316 314 312
334 336 336 335 334 332 333 333 333 334 333 334 333 335 335 335 335 334 334 334 333 334 334 335 334 334 338 338 337 337 337 336 336 336 334 333 334 333 335 335 333 334 334 333 335 333 331 329 329 327 322 317 316 316 314 315 315 314 313 314 313 312 313
335 333 334 334 334 334 334 333 334 334 333 333 334 335 334 335 334 333 334 333 334 334 335 334 334 332 333 333 334 335 336 335 336 336 336 335 335 335 335 336 335 333 334 334 333 332 333 332 332 332 325 320 314 311 313 311 312 312 314 310 311 312 313
334 333 332 334 334 335 335 334 333 334 334 334 334 335 334 334 333 334 332 333 333 333 333 333 332 331 333 335 335 335 334 335 336 335 335 335 334 336 336 337 335 333 333 334 332 332 334 335 336 333 332 322 320 315 310 308 310 309 310 310 307 309 313
332 333 334 334 335 334 334 335 335 333 333 334 334 335 334 334 332 333 332 332 333 333 332 332 331 331 333 334 336 336 336 336 336 335 336 334 333 336 335 333 332 334 333 333 331 333 334 333 331 331 331 326 322 318 314 309 309 311 309 311 310 308 312
334 334 335 335 335 333 333 333 334 333 334 333 333 333 334 331 331 331 332 332 332 332 332 331 331 331 331 330 333 336 336 335 332 335 336 335 336 335 334 334 336 331 333 332 332 332 334 331 331 330 328 328 324 323 319 315 309 311 312 309 310 311 312
334 333 334 333 332 333 332 333 333 333 332 330 331 331 331 330 330 330 330 330 330 330 329 330 330 330 331 330 331 329 332 333 331 332 331 333 333 335 334 333 332 331 333 333 334 332 332 333 331 330 329 327 325 324 323 319 314 309 312 311 310 311 314
333 331 332 332 332 333 334 333 333 334 332 330 330 330 330 330 329 329 328 328 328 327 327 329 330 331 329 329 329 329 328 328 326 327 328 330 328 330 333 330 331 332 333 333 331 330 330 331 331 330 329 326 324 323 322 322 312 310 314 316 313 311 314
332 332 331 332 332 331 332 332 334 333 332 331 329 329 329 330 330 328 328 327 327 326 327 327 329 329 327 328 328 328 328 327 326 326 327 326 327 328 332 332 331 332 333 331 329 329 330 330 329 327 327 326 320 320 323 316 312 311 311 315 313 313 313
333 332 332 332 331 331 332 333 333 332 331 331 330 329 328 330 329 327 328 328 327 327 325 326 329 328 327 327 326 327 327 326 326 326 326 326 324 327 330 332 332 332 333 332 331 329 330 329 327 326 323 322 319 319 318 318 314 313 313 313 316 312 314
333 331 331 331 331 331 332 332 331 332 330 330 329 330 329 328 327 326 326 327 326 325 324 324 327 327 325 326 325 326 326 327 326 326 325 325 323 325 327 331 332 332 332 331 329 327 327 327 326 324 322 322 319 317 321 321 318 318 316 313 315 313 314
332 332 330 329 331 332 332 331 332 331 330 329 328 328 326 327 326 324 326 325 324 323 323 321 323 325 327 327 326 325 325 325 326 325 324 324 327 325 326 331 333 332 332 331 329 326 326 327 323 323 321 320 318 319 320 320 318 317 316 315 316 317 317
331 332 331 330 330 330 331 331 331 331 329 327 328 326 325 326 323 322 324 324 322 322 320 321 322 323 324 326 327 326 326 325 325 324 324 323 324 326 327 328 333 333 332 331 328 327 327 325 322 322 321 319 318 319 320 319 319 319 315 314 316 315 318
332 333 332 330 330 329 329 331 330 330 328 327 325 325 325 324 323 322 322 323 322 321 321 320 321 322 324 324 325 325 325 326 325 325 324 323 324 325 325 325 331 332 331 331 330 329 326 326 324 323 323 322 319 319 319 317 316 317 317 316 316 316 315
333 333 331 330 330 330 331 331 329 329 326 325 323 322 321 321 323 322 323 322 322 321 320 320 320 322 322 324 324 325 325 325 324 325 325 324 325 324 326 326 332 332 330 332 330 329 327 325 324 324 323 322 322 320 318 319 318 317 316 317 316 316 315
330 331 331 331 331 330 330 329 327 325 324 323 323 322 322 321 320 320 319 321 320 321 323 322 313 313 318 322 323 322 323 322 323 323 324 324 324 324 324 326 326 327 324 321 310 314 316 319 329 325 324 324 323 322 320 320 319 318 318 317 316 319 318
328 330 327 328 329 329 327 326 325 323 322 323 323 323 322 322 320 320 320 321 323 328 323 317 302 296 297 310 323 321 322 322 321 322 323 322 323 323 324 325 323 318 314 313 309 304 303 305 307 320 326 326 324 322 321 320 319 318 318 317 316 317 316
325 328 328 328 328 327 324 323 321 321 321 321 322 321 321 320 321 321 321 324 325 322 316 305 294 293 294 294 311 325 321 321 320 321 321 322 321 321 323 322 322 323 323 318 322 300 301 301 301 300 299 301 308 328 323 322 320 320 318 317 318 317 317
326 327 328 327 327 326 326 324 323 324 324 325 325 324 323 323 326 325 323 321 319 316 309 295 292 293 293 293 297 315 325 322 321 321 321 321 320 320 321 324 324 324 326 327 321 321 314 301 301 300 299 298 298 296 299 321 323 320 320 318 317 318 317
316 317 320 322 323 322 322 322 322 322 322 325 325 324 324 323 320 318 317 315 312 310 306 293 292 292 293 292 293 304 322 323 320 320 322 322 321 321 321 322 323 324 323 320 321 324 323 318 300 295 298 300 300 298 299 297 299 317 320 320 319 317 317
315 315 316 316 317 317 318 318 320 322 323 324 324 323 322 320 318 316 314 312 308 306 301 294 292 291 292 291 291 297 327 322 321 321 322 322 323 323 322 322 322 322 324 324 321 325 322 325 322 319 322 322 321 319 298 296 296 294 305 319 320 319 322
310 311 313 314 314 313 313 314 314 316 318 320 321 321 321 320 318 316 315 312 308 305 300 291 291 291 292 292 291 296 326 323 322 322 322 322 322 323 322 323 323 322 322 324 324 331 325 323 323 324 324 324 322 321 324 324 323 322 322 322 321 320 321
310 309 310 311 310 310 311 312 312 315 314 314 313 314 316 317 315 314 313 311 309 306 303 291 291 291 291 291 292 318 324 324 323 323 325 324 324 323 323 323 322 321 321 322 302 292 298 317 323 321 321 322 322 323 324 319 317 316 323 323 323 322 323
309 309 310 310 309 309 309 309 311 310 309 309 309 310 310 311 312 313 311 310 308 306 303 294 291 291 291 290 299 320 323 322 321 322 324 326 325 326 327 328 325 326 327 316 295 292 293 299 323 321 320 320 321 321 321 329 311 305 307 306 300 295 293
304 305 306 305 305 305 306 307 307 308 308 307 306 306 306 307 307 308 309 309 309 306 303 296 291 291 291 291 296 314 319 320 322 322 323 325 325 325 323 313 320 323 321 308 292 293 292 307 322 323 323 322 321 321 321 324 327 321 298 296 297 296 295
304 304 304 304 305 305 305 305 306 308 310 309 307 306 305 305 305 306 307 307 308 307 303 298 291 291 291 291 297 309 315 316 317 319 320 319 321 321 320 305 299 302 304 297 290 291 291 300 316 320 323 322 321 322 324 326 323 321 321 320 320 318 313
303 303 303 303 303 304 305 306 306 306 308 306 306 306 306 306 305 305 306 307 308 310 307 300 295 291 291 292 291 302 313 313 313 313 314 313 314 316 317 311 299 290 290 289 289 289 290 290 304 311 314 317 320 320 315 315 319 322 322 320 319 322 322
300 301 302 303 303 303 304 304 304 304 305 306 307 306 306 306 306 306 307 308 307 305 306 305 296 291 291 291 290 294 310 309 306 306 307 308 309 310 311 314 307 292 290 290 290 289 290 290 290 303 308 311 316 304 300 312 315 306 319 322 322 322 323
301 301 302 303 303 302 303 304 304 304 304 305 305 305 305 306 306 305 306 308 309 305 302 303 303 292 291 291 290 290 301 302 298 301 303 305 307 309 310 311 305 295 290 291 290 290 290 291 290 298 306 297 294 293 303 306 310 314 318 320 318 320 321
300 301 301 301 301 302 303 303 303 304 304 305 305 304 305 306 307 306 307 308 308 308 306 301 296 298 291 291 289 290 288 294 290 303 303 304 306 306 309 310 304 294 291 291 291 291 291 290 292 300 294 292 292 291 295 306 308 310 310 313 315 315 316
301 302 302 302 302 302 303 303 303 304 303 303 303 304 303 304 305 304 305 305 306 306 307 305 296 295 296 289 291 289 290 287 287 299 299 301 302 304 306 303 299 291 292 291 291 291 291 290 296 292 291 291 291 292 301 305 307 308 307 308 309 311 313

ECMWFFLT1_sfc_thetae_054.txt.gz
Theta_e
333 332 334 336 336 337 338 338 339 341 339 339 340 337 339 339 340 340 341 342 340 339 339 339 340 340 341 339 338 337 336 335 334 332 330 331 328 328 333 331 332 333 330 329 327 321 318 315 318 325 326 327 328 327 328 328 327 327 328 326 327 328 328
337 335 335 336 334 336 338 339 340 337 339 340 339 339 338 337 338 339 339 339 340 337 335 335 337 336 337 340 338 338 336 336 335 335 332 330 331 329 329 328 330 330 329 329 329 326 320 317 316 319 319 325 326 327 326 328 326 327 327 327 324 324 325
335 336 337 334 336 338 337 338 339 337 337 340 340 338 338 337 338 338 338 337 339 338 336 335 336 337 336 336 339 338 337 336 337 335 333 332 332 333 332 331 329 326 326 325 326 325 324 323 317 317 319 319 318 321 326 326 326 325 322 321 321 320 320
332 335 333 334 335 333 331 335 337 338 338 337 340 340 341 338 339 339 338 337 339 341 337 335 337 334 337 337 338 338 337 336 336 335 334 334 335 333 330 329 326 328 325 323 322 323 322 320 318 318 320 321 320 319 323 326 322 321 320 322 316 316 316
333 332 330 331 334 333 333 334 336 337 336 337 338 337 337 338 340 339 340 338 337 339 339 339 337 336 336 337 338 338 337 336 336 334 333 333 332 331 331 333 332 331 330 327 326 325 324 323 322 318 318 320 320 321 323 324 322 319 317 315 315 315 313
335 334 332 334 335 334 333 333 333 333 334 334 336 335 338 336 338 338 338 338 337 338 339 338 338 339 337 337 336 336 336 335 335 334 333 333 333 330 332 332 331 331 331 332 331 330 329 326 324 318 319 321 317 318 320 321 316 317 316 315 314 312 309
333 335 335 335 336 335 335 333 333 333 334 334 335 336 337 335 338 339 339 338 338 338 339 338 337 339 339 336 337 336 334 335 335 335 334 334 335 332 333 331 330 329 331 333 332 331 327 325 324 320 318 318 318 315 316 317 315 313 313 314 313 310 308
333 333 331 330 334 336 335 334 336 336 335 334 335 337 336 337 337 336 338 338 337 337 336 337 336 335 339 337 338 336 337 336 335 335 334 333 334 332 333 333 333 331 331 332 333 332 330 327 326 324 319 315 315 314 312 313 312 312 310 310 310 308 309
332 332 330 328 330 333 335 335 336 337 336 335 336 335 335 337 335 336 337 337 337 336 336 336 337 334 336 336 337 338 335 334 335 334 334 333 333 334 332 333 332 333 333 332 332 332 331 328 329 330 327 317 311 308 312 309 309 308 311 306 307 310 311
331 330 329 328 329 334 336 337 334 336 336 336 335 335 335 336 335 335 333 335 337 337 338 337 335 335 334 335 334 336 334 336 334 332 334 334 334 334 334 333 333 331 333 333 332 332 334 331 330 331 330 324 318 310 308 306 309 305 307 306 304 308 311
330 329 330 331 332 333 335 337 336 335 334 335 334 335 336 334 335 335 334 334 336 337 336 336 334 334 333 334 335 336 336 336 335 335 334 333 333 334 333 332 332 332 331 331 331 331 333 333 329 330 330 327 325 318 310 306 306 308 306 305 306 306 310
330 330 331 331 332 333 334 335 335 335 336 334 333 334 334 331 334 335 333 332 335 335 335 335 334 332 333 332 334 335 336 336 334 334 334 333 334 333 332 332 331 332 331 330 330 330 332 331 329 329 329 327 325 323 313 311 304 310 308 306 305 309 310
332 332 332 333 333 332 333 334 334 333 333 333 333 334 332 330 331 332 332 332 333 333 333 334 332 334 334 334 332 332 332 334 334 331 334 334 331 333 331 332 331 330 331 330 329 329 330 330 329 328 327 327 325 325 322 312 307 307 310 309 306 309 312
331 331 333 333 332 332 333 333 334 333 331 331 331 331 331 329 329 331 329 329 329 331 331 332 332 334 331 330 331 332 330 331 327 328 329 331 330 330 330 328 329 330 331 329 328 328 330 329 329 329 328 326 325 323 323 318 306 306 312 311 307 308 311
330 331 332 332 332 333 332 333 333 331 331 329 329 329 329 331 330 331 327 327 329 326 328 329 331 332 330 329 330 333 332 328 327 326 327 326 328 331 332 331 328 329 331 330 329 328 329 329 327 326 325 324 322 322 323 318 307 306 306 307 307 310 310
328 328 330 331 331 331 332 333 332 332 330 328 330 330 330 331 330 329 327 328 326 326 327 328 331 331 329 329 327 329 330 327 327 326 326 326 324 326 329 330 329 330 331 328 327 327 329 328 327 325 323 323 323 320 319 315 309 308 306 308 310 308 308
329 329 329 330 330 331 332 332 332 332 330 328 328 332 330 330 330 331 327 326 326 324 328 326 330 329 327 328 328 328 328 329 326 326 327 324 323 324 326 328 329 331 331 328 328 326 327 329 327 328 326 323 322 319 323 314 312 310 309 308 307 307 310
329 329 329 330 330 331 331 331 332 330 330 329 327 332 327 332 328 330 331 328 324 324 325 325 327 328 329 330 328 329 327 326 328 327 328 325 326 325 326 328 329 327 327 329 327 325 325 324 326 324 322 322 317 319 322 315 313 313 311 309 310 311 310
329 329 329 330 330 331 331 331 332 329 328 327 328 328 326 329 325 325 327 327 322 323 323 324 326 327 326 328 329 328 327 328 327 326 320 325 325 326 326 327 327 328 325 326 326 326 324 324 323 322 321 319 314 317 317 318 316 313 313 312 310 313 309
330 330 330 330 331 332 330 331 330 331 329 328 326 326 327 326 329 326 323 327 322 322 322 323 325 326 327 326 328 326 327 326 326 329 323 325 326 326 326 326 326 326 324 326 327 326 326 324 323 321 320 322 319 317 316 315 314 313 313 312 311 311 311
330 329 329 330 329 330 329 329 329 330 328 326 324 324 325 324 328 327 328 325 323 322 317 314 312 314 318 325 327 327 326 326 326 324 327 327 324 324 326 328 328 327 327 327 328 327 326 325 326 323 321 323 322 315 314 314 314 313 312 312 309 309 311
331 330 331 329 328 328 329 327 330 329 327 325 328 324 325 323 323 326 322 323 322 320 315 309 304 302 309 313 319 326 327 326 325 324 324 325 323 324 326 328 328 325 324 319 311 311 310 314 323 325 325 324 321 319 317 315 316 316 315 313 314 313 311
329 328 326 325 325 323 325 328 329 326 323 323 326 323 323 323 324 321 322 321 320 316 311 307 299 296 298 304 314 321 326 324 324 324 322 323 322 325 321 324 326 322 316 314 308 301 299 302 307 312 314 318 322 321 323 319 317 316 316 314 312 313 312
326 323 324 325 324 324 324 323 324 322 323 324 324 323 323 321 322 323 321 318 314 310 305 299 294 292 293 295 309 315 320 323 322 322 323 323 322 322 318 317 317 317 315 315 310 301 299 298 297 298 298 302 307 318 320 320 317 318 316 314 315 314 312
326 325 324 323 323 323 323 322 323 321 323 323 324 324 321 320 319 318 315 312 310 306 302 295 292 293 293 293 296 310 319 322 323 322 321 321 321 321 320 318 318 321 322 320 318 315 310 300 298 298 298 298 298 297 302 317 318 316 318 315 315 314 313
317 318 320 322 323 322 323 324 323 323 323 324 322 320 317 316 315 313 310 307 304 303 300 293 292 292 292 292 291 302 319 321 322 321 322 323 321 322 321 321 321 326 322 323 321 319 317 314 299 296 299 304 305 301 298 298 302 313 315 314 314 315 316
315 317 317 316 316 318 319 319 320 322 322 322 320 318 317 314 312 310 308 306 303 300 298 293 292 292 292 291 291 295 318 324 324 323 322 323 323 323 321 321 323 322 322 320 314 314 321 315 315 314 316 316 317 314 304 298 295 295 304 315 315 312 314
313 313 313 312 311 312 313 314 314 315 317 318 318 317 317 315 312 310 307 306 303 301 297 292 291 291 291 292 292 298 320 325 322 323 322 323 322 323 323 324 321 320 316 309 302 298 311 321 320 319 318 319 318 319 318 316 314 313 311 313 314 316 316
310 310 309 309 309 309 309 310 311 312 312 313 314 315 315 314 312 311 311 309 305 301 298 291 291 291 291 291 295 314 321 323 323 322 323 324 322 323 323 323 323 318 311 304 296 293 296 307 321 319 319 319 320 320 321 319 312 310 316 317 317 316 316
306 307 307 307 306 306 307 308 309 310 309 309 309 309 309 310 311 310 309 307 304 300 297 292 291 291 291 291 297 311 317 320 322 323 323 326 325 316 314 319 323 315 306 300 292 292 294 303 320 320 319 319 320 319 319 322 304 302 302 302 300 299 296
304 305 305 305 306 306 306 307 308 308 307 306 306 307 308 307 307 308 307 306 304 301 297 294 291 291 291 291 296 306 311 315 322 322 322 323 318 308 303 305 310 305 300 295 289 290 292 304 313 314 315 316 318 318 317 314 320 320 309 307 304 301 300
303 304 304 304 305 304 305 306 307 308 308 307 307 308 308 306 305 307 308 308 306 301 297 295 291 291 291 291 295 304 311 311 308 308 312 313 314 306 301 296 296 294 294 291 289 289 290 298 304 306 306 309 310 313 307 307 308 311 312 314 317 320 316
302 303 303 303 304 305 305 306 307 307 308 309 308 307 306 305 304 305 307 308 306 302 298 296 293 291 292 292 293 303 305 301 300 302 304 305 308 308 303 299 295 291 290 290 290 289 289 291 298 301 304 304 305 307 304 303 305 306 306 308 311 314 317
301 302 303 304 304 304 305 305 305 305 306 307 308 307 307 307 306 306 306 304 302 303 300 296 294 291 292 292 292 296 299 296 297 300 302 303 304 307 305 300 296 292 291 291 291 290 290 289 291 298 302 303 304 299 296 301 303 301 305 307 308 311 315
302 302 303 303 303 303 305 306 305 305 305 305 305 306 306 306 305 305 306 303 301 301 301 299 296 292 291 292 291 293 297 297 295 300 302 302 303 304 305 302 299 293 291 291 291 291 291 291 290 297 300 296 294 293 298 299 301 304 305 305 304 304 306
302 303 303 303 303 303 304 304 304 305 304 304 304 304 306 306 305 305 305 305 301 300 300 299 295 295 291 291 291 291 290 294 291 300 298 298 300 301 302 300 299 295 291 291 291 291 291 290 291 296 294 293 292 290 291 298 301 303 302 303 303 303 303
303 302 302 303 303 302 303 303 303 305 303 304 304 305 305 306 305 306 305 304 304 301 301 300 295 294 293 290 291 291 290 288 289 295 298 301 301 301 299 298 295 291 292 292 291 291 291 291 293 292 291 290 289 289 295 298 300 302 299 299 300 301 302

ECMWFFLT1_sfc_thetae_057.txt.gz
Theta_e
326 326 329 330 331 333 333 333 335 333 335 336 334 333 334 336 335 335 335 334 335 334 334 332 331 331 331 331 331 330 330 330 328 326 325 327 324 323 325 325 325 325 323 321 321 319 317 315 318 324 324 322 323 324 326 326 326 326 325 326 326 326 324
329 329 331 331 331 333 333 333 334 335 335 335 334 333 334 335 336 335 335 334 334 334 334 333 332 333 332 329 329 330 328 329 330 329 328 326 325 324 323 323 323 323 323 322 323 320 316 315 316 318 318 320 321 323 324 325 325 325 325 325 326 325 323
331 331 332 329 329 330 332 333 334 333 332 332 333 333 333 334 334 334 333 334 333 333 333 332 332 331 331 331 330 329 330 329 329 330 328 326 326 326 325 324 322 321 320 320 320 319 318 318 316 317 316 317 316 318 322 323 324 324 324 325 325 324 322
330 330 329 329 329 329 330 333 333 332 333 332 332 332 332 333 332 333 332 332 331 333 331 329 329 330 330 332 332 331 331 331 329 328 327 326 327 326 325 324 323 323 320 318 319 318 317 315 316 316 317 318 317 317 321 324 322 320 321 321 320 317 316
330 330 329 328 329 328 329 330 332 331 331 332 331 330 331 331 332 331 331 331 331 330 330 330 330 331 332 332 331 330 331 330 330 329 328 327 326 325 324 323 323 324 322 321 321 320 318 317 318 316 317 318 318 318 322 322 320 317 315 315 315 314 314
331 330 329 329 330 328 328 330 330 330 330 330 330 329 329 330 331 330 330 329 329 329 330 330 330 331 332 331 331 330 329 329 328 328 327 327 327 326 325 325 325 325 324 324 323 322 321 320 319 316 317 319 315 317 320 320 315 314 312 311 312 312 312
330 330 329 330 331 330 330 330 329 329 329 329 329 328 330 330 330 330 330 330 330 329 329 330 330 331 332 331 331 330 329 328 328 328 327 327 327 327 327 325 325 325 325 326 324 324 321 319 317 317 316 317 317 316 318 317 313 310 310 309 310 310 310
331 331 330 331 331 331 330 329 329 330 329 329 329 330 330 330 330 329 329 329 329 328 328 330 332 331 331 331 331 329 329 329 329 328 326 328 328 327 326 326 325 324 324 327 326 325 323 322 320 319 317 313 311 311 313 314 311 310 308 305 307 307 308
330 330 328 327 329 331 330 329 329 329 329 329 330 329 329 330 328 328 329 329 329 328 328 329 329 330 329 329 329 329 329 332 329 327 327 328 328 327 327 326 326 325 327 327 328 325 324 324 323 320 318 316 311 308 309 307 307 307 307 302 305 307 308
329 328 327 326 326 328 330 330 330 330 329 330 330 329 329 329 328 328 327 328 327 327 327 328 329 329 329 328 328 328 328 329 329 329 327 327 325 327 326 327 326 327 326 327 326 326 326 324 325 324 320 316 313 310 306 303 304 302 302 305 302 305 308
328 329 328 326 326 328 329 330 330 329 329 330 329 329 329 327 328 331 326 326 327 328 328 327 328 328 327 326 328 327 328 329 328 328 328 328 327 328 327 327 325 325 327 327 325 324 325 324 324 325 323 319 314 310 306 304 303 303 300 304 305 304 306
324 326 327 327 327 328 329 329 329 328 328 328 328 328 327 327 327 327 326 326 326 326 325 324 326 326 327 327 326 326 326 327 327 327 328 329 328 328 326 326 324 324 326 325 326 325 324 326 324 325 322 322 320 313 308 305 302 304 303 302 305 307 306
324 326 326 327 327 328 330 329 328 327 327 327 327 326 325 325 326 325 325 326 325 324 324 323 325 325 326 327 327 327 327 327 327 327 328 329 330 328 327 326 325 325 324 324 324 324 324 325 324 322 322 322 320 318 309 306 303 302 303 303 305 306 306
325 325 326 327 327 328 329 328 328 327 327 326 327 325 324 324 325 325 325 324 324 322 322 320 323 323 325 325 325 326 327 327 326 325 327 327 327 328 328 328 326 326 326 323 322 323 324 324 323 322 322 321 320 319 310 305 303 302 304 305 306 305 306
326 326 326 327 327 328 327 327 327 327 326 326 326 325 324 324 324 324 324 323 323 323 321 321 322 321 322 320 320 325 325 325 324 324 323 325 324 327 326 326 325 326 326 324 323 324 325 325 324 323 322 322 319 320 317 307 302 301 300 303 305 306 305
326 327 327 327 327 328 327 326 326 325 325 324 324 324 323 323 323 322 322 322 320 319 320 320 320 321 321 320 320 321 322 320 320 321 320 321 322 323 325 324 323 324 327 324 322 323 324 324 324 323 321 320 318 319 316 307 305 302 301 302 305 305 304
326 327 328 328 328 328 327 326 326 324 323 323 323 324 324 323 321 321 320 319 319 318 319 318 319 322 321 320 319 319 319 320 320 320 319 319 320 321 322 323 322 323 323 321 321 321 322 322 322 321 320 318 318 319 313 307 307 304 302 303 304 306 305
325 325 325 327 326 327 327 326 325 323 322 322 323 323 323 322 321 321 320 320 318 317 317 317 318 320 320 319 320 318 318 319 319 318 319 319 324 322 323 322 322 322 321 320 320 320 320 320 323 319 319 318 318 317 317 308 307 306 304 303 304 305 306
324 322 323 325 327 327 326 326 325 323 323 322 323 323 322 322 321 320 320 318 318 316 314 315 316 318 319 318 319 318 317 318 318 317 315 319 321 323 322 320 321 322 321 319 318 319 319 320 322 319 318 317 317 315 311 307 308 306 305 304 304 305 303
323 322 323 325 326 327 326 326 325 324 324 323 321 320 321 320 319 318 318 317 315 312 310 310 310 312 315 318 317 318 317 316 317 317 314 318 321 322 322 322 321 321 320 320 320 320 319 319 320 318 317 317 318 314 310 308 308 306 306 305 304 305 304
322 324 325 325 326 326 326 325 325 324 323 321 319 320 319 318 317 316 314 313 311 308 306 305 305 306 310 313 316 316 316 316 316 316 317 318 320 321 322 321 320 319 320 321 321 320 319 319 319 318 317 317 317 312 309 309 308 307 306 306 304 305 303
323 322 323 322 323 325 325 325 324 322 321 320 321 320 318 317 316 315 312 310 308 306 304 302 301 301 305 308 313 316 317 316 316 314 314 318 322 323 321 321 321 320 321 318 312 312 314 318 319 315 314 317 313 310 308 308 308 307 306 306 305 306 304
322 322 322 322 321 321 323 323 322 320 320 320 318 317 317 317 315 311 309 306 304 302 301 300 298 296 298 304 310 314 315 314 315 316 314 316 319 321 321 320 322 322 315 311 307 302 302 305 310 313 313 315 316 315 313 311 309 308 309 306 305 305 304
322 320 321 321 321 321 321 321 319 318 320 319 318 317 317 314 311 309 306 303 300 299 297 296 294 292 293 297 309 312 313 315 313 314 315 315 315 316 315 316 315 316 314 311 304 299 298 298 299 300 302 307 313 313 312 311 311 311 308 308 308 307 304
320 320 320 321 320 319 320 321 320 319 318 316 315 313 311 309 307 304 302 300 298 297 295 294 292 292 293 293 299 311 314 315 315 312 312 315 314 312 312 311 311 313 312 311 307 304 301 297 296 296 296 296 297 300 305 309 308 307 307 306 306 308 307
317 317 317 318 318 320 320 319 318 316 315 314 311 309 307 305 303 301 299 297 295 294 294 293 292 292 293 293 294 304 314 316 315 312 314 314 315 313 310 311 315 315 311 312 310 310 310 304 298 298 298 298 298 298 297 299 304 309 308 307 308 307 310
313 313 314 314 316 318 318 317 317 316 314 311 309 307 305 302 301 299 298 296 294 293 293 293 292 292 292 293 294 301 313 316 314 314 314 315 315 315 316 316 312 308 305 302 301 303 308 310 309 308 309 309 309 303 297 297 297 300 304 309 309 306 307
310 310 311 311 312 312 313 313 313 313 313 311 308 306 304 302 301 299 298 296 294 293 293 292 291 291 292 293 297 304 313 315 315 316 316 316 317 317 315 312 308 304 301 298 296 296 303 309 313 313 312 313 314 313 314 312 310 307 306 307 307 307 307
307 307 307 308 308 308 309 309 309 309 309 309 309 308 307 305 302 300 299 296 294 293 293 291 291 292 293 294 299 308 309 311 312 316 311 308 310 313 313 308 303 298 296 294 294 294 300 312 314 314 313 314 315 314 313 308 300 301 306 308 308 308 309
304 305 305 305 305 305 305 306 306 308 307 306 306 306 305 305 304 301 299 297 295 293 293 292 291 292 294 295 301 308 307 306 309 310 304 301 301 302 302 300 298 296 295 293 293 293 296 302 305 305 306 308 310 311 306 306 301 299 298 298 298 298 300
302 303 303 304 304 304 305 305 305 306 305 304 304 304 305 304 303 301 298 296 295 293 293 293 292 293 294 296 300 303 303 303 303 306 303 300 298 297 300 303 300 295 294 293 291 292 294 299 300 301 302 302 303 306 303 302 302 302 299 298 298 298 299
302 302 302 302 303 303 304 304 305 305 305 304 304 304 305 305 304 302 300 298 299 294 294 294 292 292 293 294 297 297 298 299 299 300 302 300 298 296 295 296 298 296 295 292 290 291 292 296 298 299 300 299 299 300 300 298 298 299 300 300 301 303 303
302 302 302 302 303 303 304 304 305 305 305 305 304 304 304 304 303 302 301 299 297 296 295 294 294 292 293 293 294 297 297 297 298 300 301 303 299 296 295 295 295 291 290 290 290 289 289 292 296 298 299 297 296 296 298 297 298 298 299 299 300 302 303
301 302 302 302 303 303 304 304 304 304 304 304 305 304 305 304 302 301 300 299 298 297 297 295 294 292 293 293 293 295 297 297 298 299 299 299 301 299 297 295 294 292 290 291 291 290 290 289 291 295 296 297 297 295 294 295 296 297 297 299 299 300 300
302 302 303 303 302 302 304 304 304 304 304 303 303 304 304 303 301 300 300 299 298 298 299 298 296 293 292 292 292 293 297 295 295 297 296 297 296 296 296 295 295 293 291 291 291 291 291 291 289 292 293 292 291 291 294 295 295 296 297 298 297 297 299
301 302 301 302 301 301 302 303 303 303 303 303 303 303 303 303 301 299 298 298 298 297 297 297 295 295 292 292 292 291 291 292 292 298 297 296 295 295 296 295 296 294 291 291 291 290 291 291 292 291 290 289 288 286 289 293 293 295 295 297 297 297 296
299 299 300 300 300 300 300 301 301 301 301 302 302 302 303 303 302 301 298 297 297 297 297 296 294 293 293 291 292 291 290 289 290 295 296 295 295 295 294 294 293 291 291 291 291 291 292 293 292 290 289 289 287 287 291 292 292 294 293 294 294 295 298

ECMWFFLT1_sfc_thetae_060.txt.gz
Theta_e
327 327 329 330 330 331 331 331 331 332 332 332 331 331 331 332 333 332 333 333 332 332 332 330 330 329 329 329 330 329 328 327 327 325 323 324 323 321 322 320 320 321 321 316 319 317 315 314 317 323 323 322 321 322 323 323 323 323 323 324 325 322 319
329 329 329 330 330 332 330 330 331 332 332 332 331 331 331 333 334 333 333 333 332 332 333 331 330 329 328 328 328 327 327 326 326 326 325 324 322 321 321 318 319 319 318 317 320 316 316 316 316 318 318 319 319 319 320 321 322 323 324 324 324 321 320
328 327 328 329 330 331 330 330 331 330 331 331 330 331 331 333 333 332 332 332 332 332 332 331 330 329 328 328 328 328 327 326 325 326 326 325 324 323 323 322 319 317 316 316 315 314 317 319 316 316 318 317 315 316 318 320 321 323 323 323 322 320 319
327 326 326 327 328 329 330 330 331 330 330 330 329 330 331 332 332 333 332 332 332 332 332 330 329 329 328 328 328 328 327 327 327 326 325 325 324 324 322 322 321 321 318 315 316 316 315 314 316 317 318 317 315 314 317 320 320 323 324 323 321 319 317
327 326 326 326 328 328 330 329 330 328 327 327 329 328 330 331 331 330 331 331 331 330 330 330 329 329 329 328 327 328 327 327 327 326 325 324 324 324 323 322 322 322 319 319 319 318 317 315 317 317 316 317 316 315 319 318 320 321 322 322 319 317 316
327 327 326 326 327 328 329 330 328 325 326 326 327 328 329 329 330 329 328 327 328 329 329 327 328 329 329 328 327 328 328 327 326 326 325 324 324 324 323 321 322 322 320 320 321 319 317 318 318 316 316 316 313 314 317 318 312 316 320 318 316 316 315
328 328 328 327 327 328 329 330 329 327 327 328 327 327 328 329 329 329 329 329 328 328 328 327 329 330 329 328 328 328 327 327 326 325 325 324 324 324 323 322 322 323 321 321 321 319 318 318 316 316 315 314 314 315 315 316 310 309 308 312 314 313 313
327 325 326 328 328 328 328 330 329 329 329 328 328 328 329 328 328 328 328 328 327 327 327 328 330 330 329 329 329 328 327 326 326 325 324 324 324 323 323 324 323 323 322 322 322 321 320 320 319 318 316 313 311 311 313 314 308 307 305 303 308 310 311
326 327 326 326 328 328 329 330 329 329 328 327 327 328 328 328 327 327 328 327 326 326 327 328 329 329 329 328 327 327 326 328 326 324 324 324 324 324 324 322 323 323 323 323 323 322 321 321 320 319 318 316 313 309 309 309 305 305 305 302 304 306 308
326 327 327 328 329 329 329 329 329 329 328 328 328 328 327 327 326 327 327 325 325 326 327 328 328 328 327 327 327 325 325 325 326 325 325 325 324 324 322 323 323 323 322 324 324 322 321 321 321 320 320 317 316 312 309 307 304 300 301 302 301 303 307
326 327 327 327 329 329 329 329 329 327 328 329 328 328 327 325 325 330 325 325 324 325 327 327 327 326 326 325 324 325 325 326 325 325 325 325 324 324 323 323 322 323 322 323 322 322 322 321 321 319 318 316 315 314 311 308 305 301 300 301 301 301 305
324 325 325 326 326 327 328 328 328 328 328 328 327 326 326 325 325 324 325 324 324 324 325 325 326 326 325 324 324 323 323 323 324 324 324 325 324 324 323 323 320 322 321 323 323 322 322 322 321 321 318 316 313 311 311 309 304 302 302 301 301 304 305
325 324 325 326 325 326 328 328 328 328 328 327 327 326 325 324 324 323 324 324 323 323 322 323 324 324 324 325 324 323 323 324 325 325 324 325 327 324 323 322 321 323 321 321 322 322 322 322 322 322 320 317 314 311 308 307 305 302 301 302 302 304 305
325 325 326 326 325 323 325 326 327 328 328 327 326 325 324 324 324 324 324 323 323 321 321 322 323 323 323 323 323 325 324 325 325 324 324 323 325 325 324 323 322 322 322 322 322 322 323 322 322 322 321 319 317 313 309 306 303 300 301 303 304 303 305
324 325 325 325 323 324 326 327 327 327 327 326 326 324 325 324 324 324 323 322 321 320 320 322 322 322 323 322 321 324 324 324 324 324 324 324 323 326 324 323 323 322 323 322 321 322 323 322 322 321 319 319 318 317 309 307 302 300 299 302 302 302 303
324 324 324 323 324 325 326 327 328 326 326 325 324 324 324 324 324 324 323 322 321 319 319 320 321 322 322 321 321 321 323 323 322 322 322 324 324 323 322 323 322 322 323 320 320 321 321 322 321 321 319 319 318 316 310 306 302 300 300 300 302 301 302
325 324 323 322 323 325 325 326 327 326 326 324 323 323 324 324 324 323 323 321 320 318 318 319 320 321 321 320 319 320 320 320 321 321 321 321 321 321 321 320 321 322 321 320 319 318 319 320 320 320 319 318 316 317 312 304 305 301 300 301 301 302 302
324 323 322 322 323 324 325 325 326 325 325 324 323 322 323 323 323 322 321 320 318 317 318 318 319 319 318 318 318 318 319 318 319 319 319 320 322 320 320 321 321 322 321 319 317 317 319 318 321 319 318 316 317 317 312 306 304 303 302 302 302 302 302
322 322 320 322 323 324 325 325 326 324 324 323 322 322 322 322 322 320 320 318 317 314 313 314 317 318 317 317 317 316 317 318 317 318 317 317 320 321 321 320 320 320 320 320 318 317 318 319 319 316 315 316 318 316 312 305 304 302 303 303 302 301 300
322 322 321 322 323 324 325 325 324 324 324 324 322 321 320 320 319 318 316 314 312 310 309 310 310 311 313 314 315 314 314 315 314 313 315 319 320 320 320 319 318 319 319 319 319 317 317 316 318 316 315 314 315 314 310 305 305 302 302 302 301 302 302
322 322 321 323 324 324 324 324 324 323 323 322 321 320 318 315 314 313 311 310 309 308 306 306 305 307 310 313 314 314 314 314 315 315 316 319 320 319 319 318 317 316 316 317 318 316 316 317 316 315 314 315 316 312 308 305 305 303 301 302 302 300 300
321 321 321 322 322 323 323 323 323 322 322 321 319 316 315 313 310 309 307 307 305 305 303 302 301 302 308 311 312 313 313 314 315 316 317 318 317 317 315 315 314 314 318 323 317 316 316 317 317 316 314 313 313 310 305 305 304 303 301 301 301 301 300
321 321 321 321 321 321 321 322 321 320 318 317 316 314 312 310 308 306 304 303 302 301 300 300 300 298 301 307 311 313 313 312 313 315 317 317 315 315 317 315 317 322 317 313 308 304 305 310 314 316 314 315 312 309 306 304 303 302 302 301 301 301 299
321 320 321 321 320 320 320 320 319 318 316 315 313 311 309 306 305 304 302 301 300 298 297 297 294 293 294 302 310 312 312 311 311 315 317 317 317 316 314 313 311 314 310 308 304 299 298 299 302 303 305 310 313 313 310 307 304 303 303 303 301 301 300
320 320 320 320 319 318 318 317 317 315 313 310 308 307 305 303 302 300 299 298 297 297 296 295 292 293 294 297 308 312 312 312 312 314 316 316 315 313 311 310 310 310 310 312 309 305 304 300 297 296 297 297 296 296 299 308 308 306 305 306 304 304 302
319 319 318 318 318 318 317 315 314 311 309 307 305 303 301 300 299 298 298 296 295 295 295 293 292 294 294 297 303 309 313 312 311 310 312 312 311 310 309 308 305 304 304 308 306 306 307 304 302 299 298 301 300 299 296 296 298 307 306 305 306 304 303
317 317 317 317 317 316 314 312 310 309 306 304 302 301 300 299 298 297 296 295 294 295 295 294 292 294 296 298 302 307 314 313 313 313 312 311 312 310 308 305 302 299 298 299 300 303 307 308 308 312 313 312 310 306 300 299 299 300 304 307 305 305 305
312 314 315 314 313 312 310 309 308 307 305 303 301 300 299 298 297 296 295 295 295 295 295 293 293 294 296 298 301 305 311 309 308 307 308 308 307 305 302 300 297 296 296 297 299 301 309 311 311 311 312 311 308 305 302 302 303 303 304 306 306 306 306
306 309 310 310 309 308 308 308 306 306 304 303 302 301 300 298 296 295 295 294 295 294 294 292 293 295 297 299 303 309 306 303 301 300 300 300 299 299 299 298 297 296 296 296 296 295 299 304 304 304 305 308 307 304 302 302 297 298 300 301 302 302 303
303 305 306 306 305 305 305 305 305 305 304 303 302 301 299 298 297 295 295 294 294 293 294 293 292 293 295 298 302 305 303 300 298 297 297 298 298 299 299 298 296 295 295 295 293 293 295 299 300 300 300 300 301 300 298 299 297 296 295 295 295 296 296
302 303 304 304 304 304 304 304 302 303 303 301 300 299 298 296 296 296 295 295 295 294 294 294 292 293 294 296 301 305 303 300 298 297 296 296 296 297 299 302 300 295 293 293 291 291 293 298 298 298 297 296 295 296 296 297 298 299 297 297 296 297 297
301 302 302 303 303 303 303 303 304 304 304 303 301 300 298 297 296 296 297 297 300 296 295 295 293 292 293 295 300 303 303 301 299 297 296 296 296 296 296 296 297 295 294 292 290 290 291 296 297 297 296 294 294 294 294 294 296 296 297 298 299 300 300
301 301 301 302 303 303 304 304 304 304 303 303 301 300 299 297 297 297 297 297 297 297 296 295 294 292 293 293 295 301 302 302 300 299 299 297 297 296 296 296 295 290 290 290 290 290 290 291 294 295 295 294 293 293 294 294 296 295 295 296 297 298 298
300 301 301 302 302 303 303 303 303 303 302 301 300 299 298 298 297 297 298 298 297 297 298 296 294 292 292 293 294 296 299 300 300 299 297 296 296 296 296 295 295 292 290 290 290 290 290 290 292 294 294 294 294 294 293 293 295 296 295 296 296 297 298
300 300 300 301 300 301 302 303 303 303 303 301 299 298 298 298 297 297 297 298 297 297 298 298 297 293 292 292 292 294 297 297 298 298 297 296 296 295 295 295 295 292 290 290 290 291 291 291 292 295 291 288 287 288 292 293 294 294 295 295 295 295 296
299 299 299 299 299 299 300 300 301 302 302 301 299 298 298 297 297 296 297 297 297 297 297 296 294 294 292 292 291 291 292 295 294 298 296 295 295 295 295 294 295 292 290 290 291 291 291 292 293 291 288 287 286 286 290 292 292 294 293 293 294 295 295
298 298 298 298 298 298 299 299 299 300 300 300 300 298 298 297 297 296 296 296 296 296 296 296 293 292 292 291 291 291 290 291 292 295 296 294 294 294 293 293 293 290 290 291 291 291 291 292 292 290 289 288 289 290 293 293 293 294 292 292 293 292 295

ECMWFFLT1_sfc_thetae_063.txt.gz
Theta_e
325 326 328 329 330 331 330 331 330 331 332 333 332 331 331 331 330 330 331 331 331 330 330 329 329 328 328 327 328 328 327 327 325 322 321 321 320 320 321 318 317 318 319 314 318 316 314 313 316 322 323 322 320 320 322 321 321 322 323 323 323 321 321
326 325 329 330 329 331 329 329 330 331 331 332 332 331 331 330 331 330 331 330 330 330 331 329 329 329 328 327 327 326 325 326 326 324 323 322 321 320 318 313 316 316 314 314 317 312 313 314 316 317 317 320 319 318 318 318 321 322 323 323 322 320 319
325 325 328 328 328 328 328 328 329 330 330 329 328 329 329 330 330 330 330 331 331 331 331 329 328 328 327 328 327 327 326 326 325 325 324 323 323 321 322 317 314 313 313 313 313 312 315 316 315 316 318 317 316 318 317 317 320 321 322 322 320 319 317
324 324 325 326 327 327 327 327 327 327 328 328 327 328 329 330 330 330 331 331 331 331 331 329 328 328 327 327 327 327 326 326 325 324 323 322 323 321 320 319 318 319 316 312 314 313 312 311 314 317 318 320 317 315 316 316 319 321 322 320 319 317 316
324 324 324 325 327 327 327 326 326 326 326 327 328 328 328 329 329 330 331 331 330 330 330 329 329 328 327 327 327 326 326 326 325 325 323 322 322 321 320 319 319 320 316 315 317 317 316 314 315 315 317 318 317 313 316 315 319 321 321 320 318 317 315
325 324 324 325 326 327 328 327 325 325 325 325 325 326 327 328 328 327 326 328 329 330 330 328 328 328 327 326 326 326 326 325 325 324 323 323 323 322 321 319 319 319 318 316 319 317 314 316 317 315 317 319 313 313 315 315 312 318 320 319 318 316 315
325 325 325 325 325 326 327 327 326 326 325 325 324 325 326 327 328 328 328 328 329 329 328 328 328 328 327 326 326 326 325 326 325 324 324 323 323 322 322 320 320 320 317 319 319 317 316 316 315 315 315 315 310 313 313 313 310 314 312 314 314 314 313
324 325 325 325 325 325 326 328 328 327 326 325 325 326 327 327 328 328 327 328 328 328 327 327 328 327 327 327 326 326 326 325 325 324 322 322 323 321 320 321 321 319 319 318 319 318 319 318 317 316 316 313 310 310 311 310 307 313 311 305 311 312 312
324 325 324 324 324 325 326 328 328 327 327 326 326 327 327 329 328 328 328 327 326 326 326 326 327 327 326 326 325 325 325 326 324 323 322 322 322 321 321 319 320 320 320 320 320 319 319 319 318 318 318 316 313 309 308 308 304 307 306 308 305 309 310
324 325 325 325 325 325 326 328 329 328 328 327 327 328 327 328 328 327 327 325 325 325 326 326 327 327 326 326 325 324 324 324 324 323 321 322 322 321 320 320 321 321 320 320 320 319 319 319 319 320 319 317 316 312 309 307 304 302 301 302 307 305 309
324 325 325 325 326 326 325 326 326 326 326 326 327 327 327 326 326 330 325 324 323 324 325 326 327 327 326 325 324 324 324 324 323 321 322 322 321 321 320 320 318 319 319 320 320 319 319 319 319 319 318 316 315 314 312 310 308 302 301 301 302 304 305
323 324 324 323 323 325 326 325 326 326 326 326 326 324 325 325 325 325 324 323 323 324 324 325 325 325 325 324 322 322 321 323 323 321 321 322 320 322 320 320 317 318 319 321 320 319 318 319 318 318 317 316 315 312 313 310 306 306 302 304 301 302 305
324 324 323 323 322 323 326 326 326 325 325 326 325 325 325 325 325 324 324 323 323 323 324 324 325 324 324 324 323 322 321 322 322 322 320 320 323 322 321 320 319 319 319 319 320 319 319 319 319 318 317 315 313 312 311 309 308 308 302 303 303 301 305
325 325 324 324 324 325 325 326 326 325 325 325 325 324 323 323 324 324 324 323 323 322 323 323 323 323 323 322 321 321 321 322 322 320 321 320 321 321 321 321 320 319 319 321 320 319 319 319 319 318 317 314 313 310 311 308 307 302 300 301 302 302 303
326 325 323 323 323 324 325 324 324 325 325 325 325 325 324 323 323 324 323 323 322 322 322 323 321 322 322 321 320 321 321 321 321 321 320 321 321 322 321 321 321 319 320 321 319 320 320 319 319 319 317 316 314 311 309 310 305 302 300 300 300 301 302
326 324 322 322 324 323 324 324 325 325 325 324 324 324 324 323 323 323 323 322 321 321 322 322 321 321 321 321 321 320 322 322 322 321 321 321 322 321 320 320 320 320 320 318 318 318 317 320 320 320 318 317 316 315 311 310 306 302 300 299 300 300 301
326 325 321 322 323 322 324 324 326 325 325 324 324 323 323 323 322 323 323 321 320 320 320 321 321 322 322 321 321 321 321 321 322 322 322 322 322 321 321 319 319 319 319 319 318 317 318 318 318 318 318 316 316 317 315 309 307 307 301 301 300 301 301
326 325 321 321 323 323 323 324 325 326 324 323 323 322 323 323 322 322 322 320 319 318 319 321 321 320 320 320 321 321 321 320 320 320 321 322 324 321 321 321 321 320 319 318 315 316 317 317 318 319 318 318 317 318 315 310 307 304 301 301 301 300 300
325 323 321 321 322 323 323 324 324 324 325 324 322 322 322 322 322 321 321 320 318 317 318 319 320 319 318 317 317 319 319 319 319 319 318 319 321 320 321 321 320 320 320 319 317 316 316 318 318 317 318 318 318 317 313 306 304 302 302 302 301 299 298
323 322 322 322 322 323 323 323 324 324 324 323 322 322 322 322 321 321 319 316 315 314 315 316 317 316 315 315 315 315 316 317 316 316 316 317 319 319 319 319 318 319 320 320 319 317 316 316 318 316 317 317 317 315 308 304 302 301 301 301 299 300 299
322 323 323 323 322 322 322 322 323 324 323 322 322 321 321 320 317 315 313 311 309 309 309 309 308 310 312 314 313 312 314 315 314 313 314 315 317 318 318 318 317 318 319 319 319 317 317 317 316 315 314 315 315 314 309 304 302 301 300 300 300 299 298
320 322 323 323 322 321 321 321 322 322 322 322 321 321 318 315 312 309 307 306 306 306 306 305 304 306 311 310 311 312 313 314 314 313 312 313 314 314 313 312 312 312 317 319 311 311 315 317 317 315 313 312 314 316 313 307 304 301 300 300 300 300 298
321 321 321 322 322 321 321 320 321 321 321 318 317 315 314 312 310 307 305 303 303 303 302 301 302 301 306 309 311 312 312 311 313 314 315 314 313 314 313 312 315 315 312 310 305 300 302 307 309 314 315 314 314 314 314 311 305 303 301 299 299 299 298
320 320 320 322 321 321 321 320 320 321 319 316 313 313 313 310 307 306 304 303 301 300 299 299 296 296 298 305 310 311 311 311 311 314 315 315 313 311 308 308 308 312 310 310 304 298 297 296 295 296 303 309 313 314 311 307 306 304 301 300 299 299 298
315 319 320 320 321 321 320 319 319 318 314 313 311 310 309 307 305 303 302 301 299 298 297 296 293 296 297 302 307 311 311 313 313 313 313 313 312 308 306 305 304 306 308 309 307 305 301 298 297 297 296 296 295 295 299 305 304 301 300 300 299 299 298
309 318 319 320 320 319 320 318 316 313 310 310 308 306 304 303 302 301 301 299 298 298 297 294 293 296 298 301 302 307 310 310 311 310 311 310 308 306 304 303 302 301 302 310 309 305 305 305 301 299 299 298 297 296 295 296 298 304 304 303 302 300 299
305 309 318 319 317 318 317 315 311 309 307 306 304 302 301 300 299 299 300 299 298 298 297 295 294 297 298 298 300 305 311 310 310 309 309 308 305 303 301 300 300 299 299 302 303 308 308 308 308 307 304 301 300 300 297 296 297 299 303 306 306 304 304
304 305 307 313 316 314 312 308 306 305 304 303 302 300 298 297 297 298 298 299 298 297 295 293 295 297 298 298 300 303 307 306 304 302 301 300 299 298 297 298 297 296 297 299 301 306 311 310 308 305 302 300 299 299 299 299 300 302 303 304 303 304 303
302 303 305 305 307 307 306 304 302 302 301 300 299 298 297 297 296 297 298 298 298 296 295 293 296 297 297 297 299 304 303 301 299 298 297 297 297 297 296 296 296 295 295 296 296 298 303 308 307 304 301 299 297 296 298 299 295 296 301 301 302 302 301
301 302 303 303 303 303 302 302 301 301 299 299 297 296 295 295 296 296 297 297 296 295 295 293 294 296 296 297 299 302 300 298 297 296 296 296 297 298 297 295 294 293 293 293 293 293 296 299 300 300 299 297 296 295 296 298 296 294 294 294 294 295 295
301 301 301 301 302 302 302 301 300 300 298 297 296 296 296 296 296 296 296 295 296 295 295 294 293 294 296 296 300 301 299 297 295 294 294 294 295 296 299 301 298 293 292 292 291 292 294 297 296 295 295 294 294 294 294 295 298 298 295 295 294 294 295
301 301 300 301 302 302 301 300 299 299 298 297 297 297 297 296 296 297 297 297 299 296 295 295 293 293 294 296 300 300 299 297 296 294 294 294 294 295 295 296 296 295 294 292 290 291 292 295 295 294 294 294 294 294 293 293 295 296 296 297 298 298 298
301 301 301 300 301 302 302 300 299 299 298 298 298 297 298 297 297 297 297 297 297 296 295 294 294 293 294 295 297 301 300 298 296 296 295 295 295 295 295 294 294 290 290 290 290 291 292 293 296 296 296 295 295 294 294 295 296 295 296 296 296 296 296
299 300 301 301 301 301 302 300 299 299 298 298 298 297 297 297 296 296 297 297 297 297 297 294 293 292 293 294 295 297 300 298 297 296 295 295 295 295 295 294 294 292 290 291 291 291 292 292 294 296 296 295 294 294 293 295 295 297 296 296 296 296 296
299 299 300 301 301 300 301 301 300 299 299 298 297 296 296 296 296 295 296 296 296 295 297 297 294 292 292 292 292 294 297 297 297 296 295 294 295 295 295 294 294 292 290 291 291 291 291 292 292 293 288 287 287 289 294 294 294 296 296 296 296 296 295
297 298 298 299 300 299 300 300 300 300 299 298 297 296 296 296 295 295 295 295 295 295 295 295 293 293 291 291 291 291 292 294 293 297 295 294 294 294 294 294 295 292 290 291 291 291 292 291 292 290 288 289 289 290 293 295 295 296 295 295 295 295 294
296 296 297 297 298 298 299 299 300 300 299 298 297 296 296 296 295 294 293 293 294 294 295 294 293 291 291 290 290 290 290 290 292 295 295 294 294 295 294 294 293 291 291 291 290 290 290 291 291 290 291 291 291 292 295 295 294 294 293 293 294 293 293

ECMWFFLT1_sfc_thetae_066.txt.gz
Theta_e
324 324 325 327 329 328 329 329 330 331 332 332 331 331 331 331 330 329 329 329 329 329 330 329 329 328 327 329 329 328 327 327 326 324 324 324 321 322 323 322 320 320 321 320 322 317 316 313 316 324 325 324 324 325 325 325 326 327 326 326 326 324 324
326 325 326 328 328 329 328 330 330 330 332 332 332 331 330 331 332 329 329 329 329 329 330 329 329 328 328 327 327 327 326 326 326 326 325 323 323 321 319 316 319 319 318 319 320 318 317 314 315 317 318 322 323 323 322 323 325 326 327 326 325 324 323
326 325 325 327 328 329 329 329 329 328 329 330 331 331 330 330 330 330 330 330 329 330 330 329 328 328 328 328 328 328 327 327 326 326 325 325 324 323 323 319 317 316 317 318 317 317 319 319 315 316 318 318 317 320 321 323 324 325 326 326 324 323 322
324 325 324 326 328 328 328 327 327 327 329 330 330 330 330 330 330 330 329 329 330 331 330 328 327 328 328 328 328 328 327 327 326 326 325 325 325 323 322 321 321 320 319 316 317 317 316 315 317 317 318 320 319 318 321 322 324 325 326 325 322 321 320
325 325 324 325 327 327 328 326 327 328 328 328 329 328 328 329 329 329 330 329 329 330 329 328 327 329 329 329 328 327 327 327 327 326 325 324 324 323 323 322 322 322 320 319 320 320 319 318 318 317 317 319 319 319 320 321 324 324 325 324 322 321 319
325 326 325 324 325 327 328 327 325 325 325 325 327 327 328 328 329 328 328 328 328 329 329 328 328 328 329 329 328 327 327 326 326 326 325 324 324 323 323 322 322 322 321 320 321 320 318 319 319 317 318 320 317 317 319 321 320 323 324 323 321 320 318
326 326 325 325 326 327 327 327 326 326 325 326 327 327 328 328 329 329 329 328 329 328 328 328 328 328 328 328 328 327 326 327 327 326 326 325 324 325 325 322 321 322 321 320 321 320 319 319 318 318 317 318 318 317 317 318 313 320 318 322 320 319 317
327 326 325 325 325 325 326 326 326 326 325 326 326 327 327 328 328 328 328 328 328 328 328 327 328 328 328 328 328 327 327 327 326 326 325 324 324 323 323 324 323 322 321 321 321 321 321 321 320 319 318 314 314 316 317 313 312 319 318 311 318 317 317
326 327 325 324 325 326 326 327 326 326 326 325 325 325 325 326 327 327 327 328 328 328 328 328 328 327 326 327 326 327 326 327 326 325 325 324 324 324 324 324 323 323 322 322 322 322 322 322 321 321 320 318 314 311 313 314 312 314 313 315 310 315 316
324 325 326 325 324 324 324 325 327 326 325 326 325 326 326 326 326 326 326 327 327 327 328 328 327 327 327 327 326 325 325 326 326 325 325 324 324 324 324 323 324 324 322 322 322 322 322 321 321 322 321 320 319 315 312 312 313 312 311 312 315 312 315
323 324 324 324 324 324 324 325 325 324 325 326 326 326 326 326 326 328 326 326 326 326 327 326 326 326 326 326 326 326 326 326 325 324 324 325 323 324 323 322 323 323 323 323 323 322 322 322 321 321 321 321 321 318 316 313 313 312 310 308 312 312 310
323 324 325 325 324 324 325 325 324 324 324 325 325 325 325 325 325 326 326 325 324 325 326 325 326 326 326 326 325 324 324 325 325 324 323 324 323 323 322 322 322 323 322 323 322 322 322 322 322 321 321 321 320 319 317 316 313 314 310 311 309 308 310
324 324 323 323 324 323 324 325 325 324 324 325 325 325 325 324 324 325 325 325 323 324 325 325 326 326 326 325 324 323 323 324 324 323 322 323 323 323 323 322 322 323 322 322 322 321 321 321 322 321 321 320 319 318 318 316 314 314 309 311 312 306 310
322 324 324 324 323 324 325 325 325 326 325 325 325 325 324 324 324 324 323 322 321 322 324 324 325 325 325 324 324 324 323 324 324 323 323 322 323 323 323 323 322 322 323 323 322 321 321 321 321 321 321 320 318 316 318 315 314 308 305 306 308 306 308
324 325 324 323 323 324 324 325 326 325 325 325 325 325 324 323 323 323 322 322 322 322 323 324 324 324 324 323 322 323 323 324 324 323 322 323 323 323 323 323 322 322 322 324 322 321 321 320 320 320 319 319 318 315 318 316 313 310 306 305 307 306 307
325 324 323 323 323 324 324 324 325 325 325 325 325 325 324 323 323 323 322 322 322 322 323 323 323 324 324 323 322 322 323 324 324 323 322 323 323 323 322 323 322 322 322 322 322 322 321 321 322 320 320 319 318 316 314 316 313 310 307 304 306 305 306
325 325 324 323 323 323 324 324 325 325 325 324 324 324 324 323 323 322 322 322 322 322 323 323 323 324 324 323 323 322 322 323 323 323 323 323 323 323 323 322 322 321 322 322 320 321 321 321 321 321 320 320 320 317 316 314 316 314 308 306 304 304 305
323 325 324 323 323 323 323 323 324 324 324 323 323 323 323 323 322 322 322 322 322 321 322 323 323 323 323 323 323 322 322 322 323 323 324 323 324 323 322 323 322 321 321 322 319 320 321 320 321 321 321 320 319 319 317 314 313 313 309 309 307 304 306
316 320 323 324 323 323 323 323 323 323 324 323 322 323 322 322 322 322 322 322 322 321 321 322 323 323 322 321 322 322 322 322 322 323 323 323 324 323 324 323 322 322 322 322 320 320 320 321 320 321 321 320 320 319 319 315 312 310 311 310 309 304 304
312 316 321 323 324 323 323 323 323 323 323 323 322 322 322 322 322 322 322 322 321 321 320 321 322 322 321 320 320 321 321 321 321 321 321 322 323 323 324 324 322 322 322 323 322 320 319 320 320 321 321 321 321 319 317 314 310 309 309 308 305 306 304
310 314 319 323 323 322 322 323 323 323 323 323 322 321 321 321 321 321 321 321 321 319 318 319 319 320 320 319 319 319 320 320 320 320 320 320 321 320 321 321 321 321 322 322 322 320 320 321 321 320 320 321 320 319 318 314 309 308 307 307 306 304 304
309 311 316 321 323 322 322 322 323 323 323 322 321 321 321 321 319 317 316 316 314 315 316 317 317 317 317 317 317 317 318 319 319 319 317 316 317 317 315 315 316 317 322 322 315 314 315 317 320 320 318 319 318 318 315 311 309 306 305 306 305 304 304
306 309 314 319 322 323 322 322 322 323 323 322 322 321 320 318 317 315 312 311 310 311 312 310 311 309 311 316 315 316 316 317 318 317 316 315 314 314 314 315 320 320 315 312 309 307 306 308 314 320 319 318 318 317 314 309 307 306 306 304 305 304 303
305 307 310 315 321 322 322 322 322 322 322 321 320 319 318 314 314 313 312 310 308 308 307 306 300 299 302 306 314 315 315 314 315 316 316 316 313 311 310 310 312 313 310 308 305 298 298 300 303 307 308 311 316 319 316 313 309 307 305 305 304 302 303
304 305 307 309 316 321 321 321 321 321 320 318 317 317 316 314 312 311 310 309 308 306 304 300 295 296 298 300 307 314 314 314 314 315 316 314 311 310 308 307 308 310 310 306 305 303 300 296 295 296 296 295 296 297 305 316 315 310 308 305 302 304 303
303 304 305 308 311 318 320 320 320 319 318 316 314 314 314 312 309 308 308 306 305 303 302 295 294 296 297 299 301 308 314 315 315 314 314 312 309 307 306 306 306 305 310 310 308 304 304 303 298 296 297 298 297 294 292 296 302 314 312 309 306 304 304
302 303 304 305 307 310 316 319 318 317 314 311 311 310 309 308 306 306 306 305 303 302 301 297 294 296 297 297 299 305 313 313 312 311 310 308 307 306 306 307 306 305 306 308 308 308 307 306 304 304 302 302 302 301 298 296 295 298 304 309 308 309 309
301 302 303 303 303 304 303 304 307 307 307 307 306 305 305 304 303 303 303 303 302 300 298 295 295 295 296 298 300 303 310 307 305 302 301 301 301 301 302 303 304 305 306 308 310 309 308 305 303 301 300 300 300 300 300 301 303 306 308 310 310 308 306
301 301 301 301 301 300 300 300 300 301 301 300 300 300 300 301 301 300 300 300 301 300 299 294 294 295 297 298 300 306 304 302 301 299 299 298 298 299 299 301 302 302 304 307 304 300 302 304 301 300 299 299 299 300 300 298 294 297 303 305 306 305 304
300 300 300 300 299 299 298 298 298 299 298 298 297 297 297 297 298 298 299 299 300 299 298 295 294 295 296 297 300 303 301 300 299 298 298 299 299 298 298 297 298 299 300 301 298 296 297 299 301 300 299 298 299 299 299 301 296 294 294 294 294 293 294
299 299 299 299 298 298 299 298 298 298 297 297 296 297 297 297 298 297 297 297 299 298 297 295 293 295 296 297 300 301 300 298 297 296 296 296 297 298 300 301 298 296 297 297 293 294 295 300 300 299 299 298 298 298 299 300 302 300 296 295 295 294 295
298 299 298 298 299 298 298 298 298 299 298 298 297 297 298 297 297 297 297 297 299 297 297 296 293 293 294 296 300 300 299 297 295 295 295 295 296 296 296 296 296 296 296 294 291 292 293 298 299 299 298 297 297 297 297 299 301 301 302 302 301 301 300
298 298 299 299 299 299 299 299 298 298 298 298 297 297 297 296 295 295 296 296 296 296 295 295 294 293 294 295 296 300 299 297 295 294 295 295 295 296 296 296 295 291 290 291 291 291 292 293 298 299 299 298 298 297 298 299 300 301 300 299 299 300 299
297 298 299 300 300 300 299 299 298 298 297 297 297 296 296 296 295 295 295 295 295 295 296 294 293 292 293 293 294 296 298 297 296 296 295 295 296 295 295 295 295 292 291 291 291 291 291 292 294 298 298 298 298 298 297 300 299 298 300 299 299 299 298
297 297 298 300 300 299 300 300 299 298 298 297 296 296 295 295 295 295 295 295 295 294 296 295 294 292 291 292 293 294 297 297 297 296 295 295 295 295 295 294 293 292 290 291 291 291 291 291 291 294 291 289 290 292 298 299 299 299 299 299 298 298 298
296 297 297 298 299 299 299 299 299 298 297 296 296 295 295 295 295 294 294 294 294 294 294 295 292 292 291 291 291 292 293 294 293 298 296 294 294 294 294 294 293 291 290 290 290 290 291 291 293 292 290 290 291 292 295 299 299 299 298 298 298 297 297
295 295 296 296 297 298 298 299 298 298 297 296 295 294 294 294 294 293 293 293 293 294 294 294 293 292 291 290 290 291 291 291 293 296 297 295 295 294 293 293 292 290 290 290 289 289 289 290 290 290 290 291 292 293 298 298 297 297 296 296 297 297 296

ECMWFFLT1_sfc_thetae_069.txt.gz
Theta_e
330 331 331 331 333 333 333 332 333 334 333 334 334 334 335 336 336 335 337 339 338 337 335 335 334 334 333 333 334 334 334 333 332 331 329 329 326 327 330 329 330 331 331 332 329 323 321 318 320 328 330 330 330 329 330 331 331 331 331 332 332 331 331
330 330 331 332 332 333 332 332 332 332 332 333 334 334 333 334 336 336 337 337 338 337 334 334 335 334 333 331 331 331 332 333 335 335 332 329 330 330 328 327 330 330 329 331 331 329 323 321 319 321 323 327 328 329 330 330 331 332 332 331 331 331 331
330 330 330 330 330 331 331 332 332 331 331 332 333 333 333 333 334 335 336 336 336 335 335 336 333 332 333 333 333 332 333 333 335 333 332 332 332 333 331 329 327 328 328 327 327 326 326 326 320 319 321 321 321 325 329 329 329 330 331 332 332 331 331
330 329 328 329 330 329 328 328 330 331 331 332 333 333 332 333 334 334 335 335 335 336 336 334 333 333 334 335 335 334 334 335 332 333 333 334 334 334 332 330 329 328 326 325 326 326 326 323 322 321 321 322 322 322 325 328 329 330 331 331 331 331 331
329 328 327 328 329 329 329 329 330 330 330 331 332 332 332 333 333 334 335 334 334 334 335 335 334 334 336 336 335 334 334 336 336 333 333 333 333 333 332 331 331 331 332 330 330 329 327 326 325 322 320 322 322 323 325 327 329 329 330 330 330 331 330
329 330 330 330 331 331 332 331 329 328 328 327 330 329 331 332 333 332 333 333 333 334 335 333 333 334 335 336 335 334 334 333 333 333 333 334 333 332 332 333 333 332 332 333 333 331 330 330 327 322 322 323 320 321 324 325 325 328 329 329 329 330 330
329 329 330 330 332 332 333 334 330 329 328 329 330 330 331 331 331 332 333 335 334 334 333 333 333 333 333 333 334 333 334 334 334 333 334 335 335 335 335 332 333 332 333 334 333 332 330 328 326 324 322 321 323 320 323 324 325 323 325 328 330 330 329
330 330 330 331 331 331 332 331 329 329 327 328 330 332 331 331 330 331 332 333 334 333 333 333 333 332 332 332 332 332 333 335 333 331 333 335 334 333 332 331 331 331 330 331 332 332 330 329 329 328 323 319 318 320 320 322 323 323 324 327 329 328 329
330 331 331 331 331 332 331 331 331 329 329 329 332 332 331 330 330 330 331 331 331 333 333 332 333 332 332 331 332 332 331 333 334 333 334 335 334 335 334 333 333 331 333 332 332 332 331 331 331 330 327 324 319 315 319 319 320 321 326 324 326 328 328
329 329 330 331 331 332 331 331 332 330 330 330 330 330 330 329 329 329 330 331 330 331 331 332 332 331 332 331 331 331 331 332 334 334 335 331 333 333 333 332 334 334 334 334 332 333 333 333 332 331 329 326 325 320 316 316 318 319 323 326 322 325 328
327 329 330 330 331 330 331 331 332 331 330 331 330 330 330 329 328 330 329 330 331 330 331 332 332 332 332 331 332 332 333 334 334 334 334 333 332 332 331 331 332 333 333 333 333 334 333 333 331 331 330 330 329 324 322 318 320 323 323 326 327 324 327
328 329 329 330 330 329 329 331 330 330 330 331 330 330 330 329 328 329 330 329 330 330 331 331 331 331 330 331 331 331 333 333 333 333 333 331 331 330 330 332 333 333 335 334 334 334 334 333 332 331 331 331 330 329 327 324 321 325 327 323 325 328 325
328 328 328 328 328 328 329 330 330 331 331 331 331 331 330 330 329 329 330 330 329 330 330 330 330 329 329 330 331 332 333 332 332 332 331 331 330 331 331 332 333 333 334 334 334 333 332 332 333 331 331 330 329 330 329 326 322 322 325 325 326 324 325
326 327 327 328 327 328 329 330 330 332 331 330 331 332 331 330 330 330 330 330 328 328 329 329 330 330 329 329 330 333 333 332 331 332 331 329 331 332 331 332 334 334 335 334 333 333 332 332 332 332 332 331 329 330 328 326 324 322 322 321 324 323 323
323 325 327 328 328 328 328 330 330 330 330 331 331 331 331 332 331 331 330 330 329 329 329 330 330 329 328 329 330 333 332 330 331 333 333 331 331 332 335 334 333 334 334 333 333 331 331 331 331 330 330 330 329 329 330 326 325 323 321 319 318 318 320
320 322 323 327 327 328 329 330 330 329 330 331 332 331 331 331 331 331 330 329 330 329 329 329 330 330 328 327 329 331 333 332 332 333 333 333 333 334 334 334 334 334 333 333 333 333 333 331 331 330 331 330 330 329 328 328 326 324 323 319 320 317 318
315 317 318 322 325 327 329 329 330 330 330 331 331 331 330 330 330 330 330 328 328 328 328 328 329 329 329 329 329 330 333 333 334 335 334 334 333 333 332 333 334 334 333 331 332 333 333 333 332 331 331 331 331 329 329 329 328 327 325 320 316 317 318
311 312 313 316 319 323 327 329 330 329 330 330 331 331 329 330 330 330 329 328 328 328 328 328 328 329 330 331 332 332 333 333 334 334 334 334 333 334 334 334 334 333 332 332 332 330 330 331 331 332 331 331 330 330 329 328 328 327 325 323 320 316 318
310 310 311 313 315 319 324 326 328 329 329 329 331 330 330 330 330 330 330 329 329 329 329 330 329 329 330 331 332 333 333 333 334 334 335 335 334 335 335 334 335 333 332 332 331 331 331 331 331 331 331 331 330 330 329 327 327 326 324 324 324 316 315
309 310 311 311 313 317 321 325 326 327 328 328 329 329 329 330 330 330 331 331 330 329 329 329 329 329 330 330 331 331 333 334 334 335 332 328 328 333 335 335 335 335 334 334 333 332 331 332 332 332 332 332 331 329 329 327 326 324 324 324 323 322 317
308 309 310 312 313 316 320 324 325 327 327 327 327 327 328 329 330 330 330 330 331 330 330 329 329 329 329 329 330 330 332 333 333 332 331 329 330 331 334 335 335 335 335 335 336 336 334 333 332 332 333 333 331 330 329 328 326 324 323 323 322 320 319
308 309 310 311 312 314 317 321 325 326 326 326 327 327 327 328 329 329 330 330 329 329 329 329 328 329 328 329 330 331 331 332 332 332 332 331 329 331 331 332 331 331 334 332 324 325 326 326 334 332 332 332 331 331 330 328 326 324 324 323 321 320 317
307 308 308 309 311 312 315 319 322 324 325 326 327 327 326 327 327 328 328 328 328 327 327 328 322 315 317 328 329 330 331 332 332 332 331 330 329 329 328 330 331 326 321 318 315 310 310 311 317 329 334 333 332 331 329 327 325 324 324 322 322 319 315
306 306 307 308 310 310 312 317 321 323 324 325 325 326 326 325 326 327 327 327 327 326 326 323 308 304 306 311 325 329 331 332 332 331 330 330 329 329 329 330 330 322 320 317 319 304 304 303 304 308 312 317 323 332 331 327 327 326 323 323 321 315 316
305 305 306 306 308 309 310 310 312 316 321 324 324 325 324 324 325 326 326 327 326 325 324 311 301 302 303 305 313 328 331 331 331 330 329 328 328 327 326 326 325 324 325 325 324 318 310 301 301 299 299 300 301 301 302 324 329 326 324 322 315 312 314
303 304 304 305 307 307 307 307 307 307 309 317 323 321 321 322 323 324 323 324 324 324 320 301 298 300 301 301 305 317 329 330 329 329 329 328 326 325 324 323 322 322 317 313 318 322 320 312 298 296 297 298 297 294 294 296 299 323 326 320 318 313 313
302 303 303 304 305 305 305 305 305 305 306 308 311 317 320 320 318 317 319 320 322 319 314 297 295 297 298 298 300 311 327 328 328 328 327 326 325 324 323 322 321 319 319 319 320 320 319 317 316 315 316 317 315 309 301 299 299 298 311 322 320 318 319
302 302 303 303 303 303 303 303 303 303 303 302 302 304 306 310 311 311 312 313 313 311 306 294 294 295 296 297 300 310 324 324 324 323 323 323 323 323 323 322 322 320 319 319 319 317 317 316 316 314 313 312 313 311 310 311 316 320 320 323 323 323 320
301 302 302 302 302 302 302 302 301 302 302 300 300 301 301 303 304 305 307 308 307 305 302 292 293 294 296 298 302 315 317 317 316 315 315 316 317 319 320 321 321 320 319 318 305 300 307 314 314 312 311 311 310 308 305 298 295 301 312 315 315 313 309
301 301 301 301 301 301 301 301 301 301 300 300 299 299 299 300 301 302 303 304 303 300 300 295 293 295 296 298 305 311 309 308 309 309 309 309 310 313 316 318 320 319 318 314 300 295 298 304 313 311 311 311 310 309 307 304 296 294 294 294 293 293 293
301 301 301 300 300 301 301 301 300 301 299 298 298 298 298 299 299 300 300 300 300 299 298 295 293 294 296 299 304 308 306 305 304 304 304 305 307 309 307 302 312 318 316 310 294 294 296 307 312 311 310 309 308 307 306 306 305 301 295 294 294 294 295
301 301 301 301 301 300 300 300 300 300 299 299 298 298 298 297 297 297 298 298 299 297 297 295 292 292 293 296 304 306 304 302 301 301 301 301 302 303 303 300 298 304 310 303 292 294 295 306 312 310 309 308 306 305 305 307 307 306 307 307 306 306 305
301 301 302 301 301 301 301 301 300 299 299 299 298 298 298 297 296 296 296 297 296 296 295 295 294 292 293 293 295 305 304 301 300 300 300 300 299 300 301 300 297 291 291 291 291 292 295 300 310 310 309 307 304 302 305 305 305 304 304 303 304 306 306
299 300 302 302 302 301 301 300 299 299 299 299 298 297 297 297 296 295 296 296 296 296 296 295 293 291 292 293 293 297 301 301 300 300 300 299 299 299 298 298 298 292 290 290 291 291 292 293 299 312 313 311 310 306 302 304 303 300 304 304 304 304 305
300 300 301 302 301 300 301 301 300 299 299 298 297 296 296 296 296 295 295 295 295 295 296 296 295 292 292 292 292 294 299 300 300 300 298 297 297 296 296 296 296 292 290 291 291 291 292 293 294 304 301 294 294 296 307 306 307 306 306 306 304 304 304
299 300 300 301 301 300 300 300 300 299 298 298 297 295 295 295 295 294 294 294 295 295 295 295 293 293 291 292 292 292 293 296 294 300 297 295 295 295 295 294 293 291 290 290 291 291 292 293 296 297 291 293 293 294 300 307 306 306 305 305 305 304 304
300 300 301 302 302 302 301 300 299 299 298 297 296 295 294 295 294 294 293 293 294 295 295 295 293 292 292 291 291 291 292 292 293 297 297 295 295 295 294 293 292 289 290 290 289 290 290 292 294 291 292 292 294 297 306 305 304 305 303 303 303 302 302

ECMWFFLT1_sfc_thetae_072.txt.gz
Theta_e
337 337 339 338 339 338 338 339 340 341 341 340 338 338 339 338 337 336 336 336 335 333 339 341 342 341 339 340 340 339 340 336 331 333 333 333 330 329 335 336 336 335 335 335 334 329 324 321 325 332 334 335 336 336 335 335 334 334 337 337 336 336 336
339 337 336 337 335 336 337 339 339 338 338 340 339 338 338 337 337 335 335 335 334 335 335 340 341 339 337 338 339 339 340 336 337 336 333 330 332 333 332 333 334 333 332 334 335 334 325 322 323 326 327 333 334 335 337 338 336 337 337 336 336 335 335
337 336 336 335 335 336 336 337 339 337 336 338 338 336 337 336 335 335 335 335 334 334 337 336 336 335 335 337 338 337 340 339 339 335 332 334 334 337 334 334 332 331 331 331 332 331 331 329 324 323 327 326 325 330 336 336 336 336 335 337 336 334 334
334 333 333 334 334 334 336 336 338 337 337 337 337 337 337 335 334 334 336 336 335 336 335 335 335 337 336 337 339 339 337 338 334 332 332 334 336 332 333 333 332 332 331 329 330 331 330 328 325 325 327 326 325 326 331 335 334 333 333 336 336 333 335
332 332 332 331 333 333 335 335 336 335 335 337 338 337 334 334 334 335 335 335 335 337 335 336 335 335 337 337 338 338 337 337 335 333 334 338 335 333 334 334 334 334 332 330 330 330 330 329 328 326 325 326 325 327 330 333 333 331 332 333 334 335 334
333 333 333 333 334 334 334 334 336 334 335 335 335 334 334 335 335 334 334 335 334 334 334 334 335 336 337 336 336 337 339 335 335 336 337 333 335 329 333 335 336 334 333 333 332 331 332 332 329 325 326 327 324 325 328 328 328 332 333 332 333 334 333
333 334 334 333 334 334 335 335 337 336 335 335 336 336 336 336 335 335 335 335 334 334 335 335 336 337 336 335 336 337 334 335 335 336 337 338 337 335 336 336 336 334 334 333 332 332 332 331 329 327 326 326 326 324 326 326 329 327 329 332 334 334 334
333 334 334 334 334 334 335 335 336 337 337 336 336 337 337 337 337 336 336 336 335 335 336 334 334 335 336 336 337 338 335 334 332 332 337 337 336 335 334 334 336 335 334 334 333 333 333 333 331 329 327 323 324 325 324 326 327 327 327 331 333 333 334
333 334 334 334 335 337 336 335 336 337 337 337 338 338 337 337 337 336 336 336 336 336 335 336 336 335 334 335 337 333 332 335 333 331 336 336 337 336 334 336 337 334 335 335 335 335 333 334 333 331 329 326 322 320 323 323 325 325 329 327 331 333 332
332 332 333 335 337 337 337 335 335 336 337 338 337 337 336 337 337 336 334 335 336 336 336 337 336 336 336 334 334 334 334 334 334 334 336 335 337 336 332 335 335 335 337 339 337 336 334 334 334 332 330 329 328 322 320 320 323 323 326 328 326 329 332
331 332 332 333 334 333 333 336 336 334 335 337 336 337 336 336 337 336 334 334 336 336 336 336 336 336 336 335 333 332 336 336 334 333 333 337 334 336 333 333 331 334 338 338 337 339 337 335 334 333 332 332 331 326 324 320 322 326 326 330 330 328 331
327 330 332 332 332 332 333 333 334 334 335 336 336 337 337 336 335 335 335 334 335 334 335 336 336 336 335 333 334 333 333 335 332 333 337 335 336 336 336 335 335 336 334 333 333 338 337 334 334 334 333 334 333 332 327 324 320 327 330 326 328 330 330
326 327 329 332 331 331 331 332 333 334 335 335 336 337 337 337 335 335 335 334 333 333 333 334 334 335 334 334 334 333 335 334 334 330 333 335 335 336 336 336 335 333 333 332 332 335 335 333 334 334 334 334 333 334 331 326 323 322 327 328 328 329 331
322 324 326 328 331 333 332 332 332 333 334 334 334 335 335 335 335 334 335 334 334 333 332 332 333 334 333 333 333 334 335 336 334 334 330 330 335 335 336 335 335 335 337 333 333 336 335 333 335 336 335 334 333 334 332 329 325 324 328 332 332 329 331
320 321 322 324 326 329 331 332 333 332 333 333 335 334 334 335 335 335 334 334 334 334 332 332 334 334 332 332 332 333 333 334 332 333 328 329 328 332 336 335 334 336 334 332 332 331 335 335 334 333 333 333 331 332 334 330 327 325 323 326 328 331 329
319 320 320 321 321 322 325 329 332 333 332 333 334 335 335 335 335 335 335 335 334 334 334 333 334 334 332 332 331 332 334 336 334 330 330 333 330 331 334 333 335 336 334 332 333 332 334 333 334 332 333 333 332 333 332 331 329 323 323 322 327 327 328
318 318 318 318 319 320 322 324 328 331 332 333 332 335 336 335 335 335 335 334 334 333 333 334 334 334 333 332 331 333 334 334 334 334 331 331 332 332 333 334 335 334 332 332 332 333 332 334 334 333 332 333 333 332 334 334 332 327 326 323 325 324 327
316 316 316 317 317 319 320 322 325 327 330 331 333 334 335 335 335 334 334 333 333 331 333 333 333 333 333 334 334 334 335 334 335 332 330 331 332 328 331 330 332 332 333 332 332 332 333 335 334 333 332 331 331 333 333 333 332 330 328 325 325 325 327
314 315 315 316 317 318 320 321 323 326 328 330 331 333 334 334 334 333 333 332 333 331 332 332 333 333 332 332 333 334 335 333 334 332 332 332 332 333 333 331 333 333 333 333 333 333 335 335 334 333 333 331 330 331 333 333 333 331 328 327 325 323 325
313 314 315 316 316 317 319 320 321 323 326 328 329 330 331 331 333 333 334 333 334 333 334 335 334 333 332 332 333 333 333 335 334 332 331 330 332 332 333 333 332 333 333 334 334 335 335 336 334 334 334 333 330 329 330 332 330 330 329 328 326 324 321
313 313 314 315 314 316 317 318 320 323 324 326 328 329 329 329 331 333 333 332 332 333 335 335 334 332 331 332 332 333 332 330 332 332 332 331 332 334 335 333 332 331 333 335 336 335 336 335 335 334 333 333 331 328 330 330 330 328 327 327 325 324 322
313 313 313 313 313 313 315 316 317 317 320 324 327 329 329 329 330 331 331 332 331 330 330 333 334 333 332 332 332 331 331 335 334 332 330 332 337 337 337 338 334 335 333 328 319 318 318 320 333 330 332 332 331 332 329 328 327 326 325 326 325 326 323
311 312 311 311 312 312 312 313 314 314 315 317 321 325 327 327 328 329 329 329 331 329 330 330 328 316 319 331 332 333 335 334 332 331 331 333 335 336 336 336 335 329 322 322 318 311 310 312 315 326 330 330 334 330 329 328 326 326 325 324 326 325 322
310 310 310 310 311 310 310 311 311 312 313 315 316 319 323 325 326 327 328 327 329 330 330 329 315 307 308 312 329 334 334 332 331 332 333 333 334 335 336 336 337 331 327 322 325 307 308 306 308 311 311 312 313 331 328 331 327 332 328 324 327 325 323
309 309 309 309 309 309 309 309 309 309 310 311 313 315 316 319 324 327 328 328 329 328 328 318 307 304 305 305 313 335 333 330 332 333 333 333 333 335 335 334 334 335 335 335 335 327 315 304 306 304 301 300 300 296 300 321 328 327 329 327 321 322 319
307 307 308 308 308 308 308 307 306 307 307 309 310 310 310 311 313 320 327 326 327 328 329 307 301 302 302 303 304 316 331 332 333 332 332 329 330 333 333 333 333 335 333 326 331 334 331 321 300 296 296 299 300 302 299 298 300 322 326 328 323 321 321
306 307 307 307 307 306 306 305 306 306 307 307 307 307 307 307 308 311 316 322 326 328 327 298 297 298 299 299 301 306 329 332 333 329 330 330 332 332 333 333 332 332 332 331 333 335 333 330 326 324 325 329 327 313 302 304 304 299 311 328 328 322 324
306 306 306 306 306 305 305 305 305 305 305 305 304 304 304 304 305 306 308 311 316 320 312 292 294 295 296 296 297 300 328 328 331 330 330 330 331 332 333 334 333 331 331 331 333 330 332 331 330 330 330 330 328 326 324 322 325 330 330 328 328 328 326
306 306 305 305 305 305 304 304 303 303 304 304 304 303 304 303 302 302 304 306 308 310 311 292 292 294 294 295 295 313 327 328 328 328 328 329 329 328 329 330 327 327 329 331 315 308 318 330 330 328 326 324 320 317 311 299 294 297 315 324 324 323 317
305 305 305 304 304 304 303 303 302 303 302 302 301 301 301 301 301 300 300 301 302 304 307 297 291 294 293 294 298 318 325 323 323 321 321 324 325 326 327 328 330 328 329 328 307 302 305 313 327 324 322 320 318 316 312 307 296 294 294 293 293 293 293
305 305 305 304 303 303 303 303 302 302 301 300 299 299 300 300 300 300 299 299 299 301 301 298 292 292 296 295 302 318 320 320 318 315 314 317 319 316 310 303 313 329 327 321 296 298 300 315 325 322 321 318 316 314 311 311 309 303 295 295 294 294 295
305 305 304 305 305 304 303 302 302 302 301 300 299 300 300 299 298 299 299 299 299 299 299 299 294 292 292 294 306 315 315 314 313 312 310 309 311 310 308 304 298 307 316 305 294 297 297 310 324 322 320 318 315 313 312 312 310 309 310 311 312 313 310
305 305 304 305 305 304 304 303 302 301 301 300 299 299 299 299 298 297 298 298 298 298 297 297 296 292 293 294 298 310 312 312 306 306 307 307 306 304 303 303 299 291 291 292 293 293 295 300 320 320 319 317 314 311 313 313 313 314 313 311 311 311 310
304 305 305 304 304 304 304 303 302 301 300 300 299 298 298 299 298 298 297 297 297 297 297 296 295 292 293 294 295 300 306 306 307 306 305 303 302 301 300 300 299 292 290 291 291 291 292 297 305 319 318 316 314 310 307 309 307 303 309 308 307 307 307
305 305 304 304 304 303 304 304 303 302 301 299 299 298 298 298 298 298 298 297 296 296 297 295 295 293 292 293 293 295 300 299 301 303 300 298 298 297 296 296 295 291 290 291 291 292 293 294 298 315 309 296 295 296 306 307 307 307 306 306 306 305 306
304 305 305 305 304 303 303 303 303 303 301 300 298 298 298 298 298 298 297 297 297 297 297 295 292 293 291 291 292 292 293 295 294 299 297 295 295 295 295 294 293 291 290 290 290 291 292 295 298 300 293 294 295 295 301 309 308 307 306 306 306 305 305
304 304 304 304 303 303 302 303 302 301 301 299 298 298 298 298 298 297 297 298 297 297 297 297 294 292 291 290 290 290 290 291 292 295 296 295 295 295 294 294 292 290 291 291 291 291 290 292 295 291 293 294 295 298 310 309 308 308 305 306 306 305 306

ECMWFFLT1_sfc_thetae_075.txt.gz
Theta_e
338 338 339 340 342 342 342 342 343 344 344 342 342 341 341 341 342 341 340 340 338 338 334 334 336 337 338 337 336 337 339 338 340 335 334 335 331 330 337 336 336 336 335 333 332 324 323 319 322 329 334 335 334 335 337 333 332 334 334 335 333 333 336
339 339 340 340 339 340 339 340 341 342 343 343 341 340 340 339 339 340 337 335 336 337 333 334 336 338 337 337 336 337 338 339 339 339 336 334 332 331 333 332 332 331 333 333 332 332 326 323 324 326 327 331 334 334 334 335 335 334 335 335 333 333 336
338 338 339 338 337 339 339 339 339 340 341 341 343 344 341 340 339 338 338 338 338 336 334 335 335 336 336 337 337 335 337 335 339 339 337 335 334 335 334 333 329 329 333 330 330 329 331 327 323 323 327 326 324 329 335 334 336 333 333 335 335 334 334
336 337 336 336 337 338 338 338 338 338 339 340 342 343 340 339 339 338 339 339 336 334 333 333 336 338 337 338 337 337 333 334 336 337 336 335 337 336 337 334 331 330 329 326 328 329 329 327 327 326 325 326 326 325 332 334 333 332 333 335 333 334 334
335 333 332 333 334 335 337 335 338 337 338 340 341 341 340 339 338 337 338 339 336 335 333 332 335 339 340 338 336 334 335 335 335 335 334 334 339 336 337 335 335 336 333 330 329 330 329 329 326 324 324 327 328 328 331 335 335 332 331 332 332 333 334
334 334 334 334 335 334 335 334 335 334 336 338 339 339 339 339 338 337 337 336 336 336 336 337 338 339 339 335 335 335 334 333 333 335 333 337 338 336 336 337 337 335 333 334 334 333 332 331 329 324 323 327 325 325 329 330 330 331 331 331 331 332 332
335 335 335 334 335 337 337 336 335 336 335 337 338 338 339 340 339 339 337 337 338 338 337 337 337 337 337 336 335 335 335 334 335 333 334 337 337 336 336 336 336 335 337 336 333 333 330 330 328 325 325 325 326 324 328 329 331 328 328 330 331 331 332
333 333 334 335 334 335 335 337 337 335 334 335 336 339 339 339 340 340 339 338 337 337 338 338 337 336 336 335 337 335 338 335 334 336 336 335 334 335 337 337 337 336 334 335 333 333 332 331 329 328 326 322 323 325 323 326 326 325 324 328 330 330 332
329 331 332 334 335 337 337 335 338 338 336 336 335 334 337 338 338 338 339 338 337 337 338 336 334 333 336 338 338 337 333 333 332 334 336 335 335 335 334 334 336 335 337 334 335 336 334 332 331 331 329 325 323 319 322 322 323 323 328 326 328 331 331
326 327 329 333 335 336 336 338 338 339 338 334 334 333 337 335 336 338 338 338 337 337 338 338 338 338 337 337 337 336 333 334 337 336 335 335 335 333 332 332 334 335 337 335 334 332 333 335 333 333 331 327 327 323 319 319 321 323 326 328 325 329 333
324 326 328 330 332 334 335 336 336 337 338 337 333 333 333 333 335 338 337 337 338 337 337 337 338 337 338 337 337 336 335 338 335 335 335 334 333 333 330 331 336 335 336 333 333 336 336 336 334 332 333 331 330 326 323 320 322 326 326 329 329 327 331
323 324 325 326 327 329 332 333 333 332 335 333 333 334 334 333 336 338 338 338 337 337 337 336 337 335 334 332 333 333 335 336 334 334 335 334 333 330 329 333 335 337 336 333 335 337 336 334 336 337 333 332 332 331 328 326 322 325 329 326 328 331 330
323 323 324 324 324 325 328 330 331 333 332 334 333 333 331 335 336 334 337 337 336 336 335 336 336 333 333 332 331 331 336 333 332 333 333 334 334 333 332 332 331 330 335 334 332 332 335 336 338 336 334 334 332 332 330 329 324 323 329 330 329 329 331
321 322 322 323 323 324 324 325 327 328 332 333 333 335 333 334 335 335 335 335 336 335 336 335 336 336 332 332 333 331 334 335 334 333 335 334 333 333 332 330 329 333 336 332 334 333 332 335 336 336 336 334 332 332 329 328 324 322 329 333 332 329 331
320 320 320 321 321 321 322 323 325 327 329 331 334 334 335 334 335 335 334 333 333 335 334 335 335 334 334 333 331 333 333 335 331 332 334 334 332 333 333 330 329 331 333 334 333 334 333 335 334 332 331 332 330 331 333 328 327 326 324 331 329 329 329
319 319 319 319 320 320 321 322 324 325 326 328 331 334 333 334 335 333 331 333 331 331 334 334 335 335 332 332 333 332 334 332 333 330 331 331 331 332 332 332 332 330 331 330 331 332 333 335 334 330 330 332 331 331 329 330 328 325 325 326 329 327 328
319 318 318 318 319 319 320 321 323 323 324 326 327 331 334 332 332 332 330 330 332 332 329 334 336 336 334 331 330 331 332 332 330 329 332 331 331 331 332 332 332 332 329 328 330 335 335 336 334 332 331 333 332 330 330 332 330 327 327 322 325 325 327
317 318 317 317 318 319 319 320 321 320 322 323 325 328 330 332 332 330 333 332 332 334 332 331 331 332 335 334 332 334 331 331 330 330 333 332 332 331 331 332 333 333 331 330 330 331 334 334 332 330 330 330 331 331 332 331 331 329 327 326 326 328 328
316 317 316 316 317 318 318 318 318 319 320 320 322 325 327 330 331 331 331 330 332 332 332 331 331 330 330 331 330 331 334 334 332 332 329 330 330 333 334 332 332 331 330 330 329 332 331 334 332 331 329 329 328 330 332 331 331 330 328 326 327 325 326
315 316 316 316 316 316 316 317 317 316 317 318 319 320 322 325 328 331 331 330 328 329 331 331 331 332 331 330 330 334 334 335 332 329 331 329 332 332 335 334 333 333 332 333 331 330 332 334 332 332 332 332 329 329 331 330 330 328 326 326 326 327 324
314 315 315 315 315 315 315 315 315 316 315 315 316 317 317 319 321 326 330 331 331 329 329 330 331 331 332 331 330 332 332 334 333 333 333 333 333 333 334 334 334 334 334 335 335 335 332 330 332 332 332 333 332 329 329 328 329 327 328 326 325 325 322
314 314 313 313 313 313 313 314 314 314 313 313 314 314 315 316 316 317 320 329 329 328 327 328 330 330 331 331 331 329 330 329 330 330 328 330 329 332 333 332 332 333 334 334 324 326 326 324 333 331 334 332 331 328 329 328 328 328 326 325 324 325 322
312 312 312 312 312 312 312 312 312 312 311 312 312 313 313 313 312 313 314 317 324 329 328 330 326 315 314 326 329 330 332 331 331 333 334 333 333 333 332 332 333 328 323 321 315 310 308 310 315 325 333 332 330 328 326 325 325 327 325 323 322 323 323
310 310 311 311 311 311 311 311 310 310 310 310 310 310 311 310 310 310 311 312 314 319 327 328 314 307 305 305 321 329 328 329 329 329 329 326 332 330 331 331 332 329 324 322 319 306 306 303 304 307 309 319 325 332 330 328 328 328 323 324 323 323 324
309 309 309 309 309 310 310 309 309 308 308 308 308 309 308 308 308 308 308 308 311 314 319 311 300 300 302 303 305 322 329 329 326 329 330 328 329 332 332 331 330 330 328 329 330 322 313 304 301 300 301 302 303 302 303 326 330 326 326 323 322 321 322
307 308 308 308 308 309 308 308 307 307 307 308 307 306 306 306 305 305 305 304 306 308 314 299 295 294 294 295 298 307 327 330 328 330 328 327 329 329 329 329 328 328 328 324 329 331 327 317 303 299 298 298 296 298 301 300 304 332 332 328 326 325 325
307 307 308 308 308 307 307 306 307 307 307 307 305 305 305 304 304 304 303 303 302 304 308 300 294 294 293 293 294 298 319 326 329 328 329 328 328 328 328 328 327 327 328 328 331 330 331 328 323 320 321 326 325 307 298 296 299 301 318 330 329 326 328
306 306 307 307 307 306 306 306 306 306 305 305 304 303 303 302 302 302 302 302 301 301 303 297 294 292 292 292 293 295 315 323 328 326 327 328 327 329 327 328 328 328 328 329 330 330 331 330 329 330 330 330 330 327 327 325 326 327 327 330 330 330 331
305 305 306 306 305 305 305 305 305 305 305 305 305 304 303 302 301 301 301 301 300 299 301 296 294 292 291 292 292 304 313 322 325 327 326 328 328 327 327 327 325 327 324 328 316 309 317 331 330 329 328 327 321 316 309 298 293 295 317 332 330 329 319
305 305 305 305 304 304 304 304 304 305 304 304 303 303 302 302 301 300 299 299 299 298 299 297 293 292 291 291 295 307 313 320 325 327 328 328 329 327 320 325 323 325 328 329 311 303 305 310 328 325 324 322 322 318 314 309 297 294 294 294 293 293 294
304 304 304 304 304 304 304 304 304 304 303 303 302 303 303 302 302 301 299 299 298 297 297 297 293 291 291 291 293 303 312 318 323 324 323 323 320 312 308 303 317 324 324 323 300 304 304 316 325 324 323 321 318 314 312 313 311 304 295 295 294 294 295
304 304 304 304 305 304 304 303 304 304 303 303 303 303 302 302 302 301 300 299 299 297 296 296 294 291 291 292 295 306 312 319 321 320 318 317 316 313 309 303 298 305 317 303 296 298 296 310 323 325 323 321 317 313 313 314 312 311 312 312 312 313 311
304 304 304 304 305 304 305 304 303 303 303 302 302 302 302 302 301 301 300 299 298 297 296 295 295 291 291 292 292 302 314 314 312 311 311 312 310 306 304 303 300 292 292 292 292 292 294 294 320 324 323 320 316 311 312 313 314 315 313 313 313 313 313
304 305 305 304 305 305 304 303 303 302 302 302 302 301 301 301 301 301 301 299 298 298 297 295 295 291 291 291 291 295 307 308 308 306 304 301 301 300 299 299 299 293 291 292 293 293 295 296 305 323 321 320 317 312 309 313 313 306 313 311 311 310 309
305 305 305 305 304 303 304 304 303 302 302 301 301 300 300 300 300 299 300 300 299 299 299 298 295 293 291 291 291 291 296 299 300 302 299 297 297 296 296 296 295 292 291 292 293 294 295 296 298 304 302 296 296 300 312 311 312 311 310 309 308 307 307
304 304 304 304 303 303 303 303 302 302 302 301 301 300 299 299 299 298 298 299 299 299 299 298 295 295 293 291 291 291 290 292 292 299 298 296 295 296 297 297 295 292 291 291 292 293 294 295 298 298 295 295 296 297 302 309 309 309 308 308 308 306 305
304 304 303 303 303 303 302 302 302 301 301 300 300 299 298 299 298 296 295 296 297 297 298 298 297 294 295 292 292 291 291 291 291 294 295 294 294 294 295 296 294 291 291 292 291 291 292 293 295 292 293 295 298 300 308 309 308 309 306 305 304 304 303

ECMWFFLT1_sfc_thetae_078.txt.gz
Theta_e
339 338 340 341 344 343 341 342 342 344 344 343 341 341 341 340 340 340 339 338 338 340 338 336 335 335 336 335 335 336 334 333 332 328 327 328 325 327 330 328 329 333 334 333 330 322 321 319 322 328 330 331 329 331 331 330 330 331 331 332 334 333 333
337 337 337 339 340 342 341 341 340 341 343 343 343 342 341 339 338 340 340 338 337 335 337 337 335 335 335 334 333 332 331 331 332 331 330 328 328 325 326 326 328 331 332 332 331 329 324 320 319 321 322 328 329 330 331 332 331 332 332 331 332 333 332
335 336 337 336 337 338 337 339 336 336 338 339 342 342 340 340 336 335 338 338 336 336 336 335 334 334 331 332 332 332 332 332 333 332 329 330 330 330 329 328 327 329 328 327 328 327 328 325 319 321 323 322 320 325 331 332 332 331 332 333 332 333 332
333 333 333 333 334 334 335 336 339 336 335 337 340 339 338 337 336 337 336 337 338 337 336 334 334 333 333 333 334 333 333 332 332 332 330 330 330 328 330 331 330 329 327 325 324 326 325 321 320 322 324 325 323 323 328 331 331 330 331 333 331 330 331
332 332 332 332 332 332 333 334 336 338 339 338 339 338 335 336 333 334 334 334 336 336 335 335 334 334 334 334 333 332 332 334 333 331 331 328 329 329 330 332 332 332 330 328 329 329 327 325 324 323 323 324 325 325 329 330 332 330 330 332 331 330 331
328 329 331 332 333 332 332 332 333 333 334 335 336 334 337 336 334 334 333 332 334 335 336 335 335 335 334 333 332 333 333 333 333 331 330 329 329 329 329 331 332 331 332 332 332 330 330 330 326 321 322 324 319 322 327 329 328 330 330 330 330 331 331
325 326 328 328 330 332 333 332 332 333 333 334 335 336 336 335 334 335 334 335 336 335 335 336 335 335 335 333 333 331 331 334 334 334 333 332 331 331 332 330 330 329 331 331 331 332 330 329 326 324 322 322 324 323 324 327 329 326 328 330 331 330 330
324 325 326 328 329 329 331 333 333 332 332 334 334 336 336 334 333 332 332 333 334 335 335 336 336 336 335 334 334 333 332 333 332 332 332 333 331 331 331 331 330 330 330 329 331 331 330 331 328 326 322 318 320 320 320 325 325 325 325 327 330 329 329
323 324 324 325 326 327 327 329 332 333 332 334 335 334 336 336 334 331 331 331 333 334 335 335 334 334 334 333 332 331 331 333 331 332 332 332 331 332 332 333 330 330 332 332 332 331 331 330 328 329 326 324 318 317 320 320 322 323 327 324 327 329 329
322 322 323 323 324 325 326 327 329 330 332 333 334 335 335 335 334 334 332 332 332 332 332 333 331 331 335 333 331 330 329 331 332 330 330 331 332 333 333 332 332 331 329 333 333 332 332 331 331 330 328 325 323 319 317 316 319 320 325 325 322 326 329
322 322 322 321 322 322 324 324 325 325 326 329 331 333 333 333 334 333 331 332 332 332 332 332 330 329 331 332 330 331 331 331 331 330 331 331 332 332 332 332 333 331 331 330 333 333 331 330 329 328 329 327 326 322 320 317 317 321 321 324 325 324 328
321 320 321 321 321 321 321 321 322 323 325 327 328 330 331 331 332 333 333 331 331 331 331 330 331 332 330 329 329 329 329 330 329 328 330 330 331 332 332 331 332 332 333 332 333 332 331 331 330 330 330 330 326 326 324 321 317 322 325 322 324 329 327
319 319 320 320 319 319 320 320 321 322 323 325 326 328 329 330 330 330 331 330 330 330 329 330 332 331 330 330 328 329 331 331 330 329 328 330 330 331 331 330 330 331 333 333 333 332 332 332 333 327 326 326 326 327 328 324 320 320 326 325 325 327 329
318 318 320 319 319 319 319 320 320 321 323 323 324 324 326 328 330 330 330 329 329 329 330 329 331 330 329 328 330 331 331 330 329 330 330 329 331 330 330 330 330 331 333 332 332 331 331 331 330 326 326 326 327 330 329 325 323 320 322 326 328 326 328
318 317 318 318 317 317 318 319 319 319 319 320 321 322 323 325 327 330 330 328 328 329 328 329 329 329 329 328 328 331 331 330 328 329 328 328 330 329 329 329 329 331 331 330 331 331 330 330 330 328 327 327 328 329 329 325 324 320 319 324 325 329 328
316 316 316 316 316 316 316 317 318 317 317 318 319 320 321 322 323 324 326 329 328 328 328 327 329 330 328 327 327 328 330 329 327 327 327 327 328 330 329 328 329 330 330 329 330 330 330 330 331 330 329 330 328 327 328 328 325 321 321 323 326 325 325
315 315 314 315 314 315 315 315 316 315 315 316 315 317 319 320 320 321 321 324 327 328 329 327 327 330 330 328 327 328 329 329 327 327 327 327 327 329 328 328 328 330 330 329 329 329 330 329 330 328 327 327 326 326 327 328 327 324 323 320 325 325 325
313 313 313 313 313 313 314 314 314 313 313 313 313 314 315 316 317 317 318 319 319 323 327 328 327 328 329 328 327 328 329 328 328 329 329 328 328 329 329 328 328 329 329 329 329 329 330 329 329 328 326 326 326 327 328 329 326 326 323 321 324 325 325
311 312 312 312 312 312 312 312 311 312 312 311 311 312 312 312 313 314 314 315 317 319 321 325 327 328 327 327 329 328 328 328 328 328 328 328 328 328 328 328 328 329 329 328 327 328 329 329 328 327 328 327 327 326 326 328 328 327 325 324 323 323 323
311 311 311 311 311 311 311 311 310 310 311 310 309 309 309 310 310 311 311 311 313 314 317 320 323 312 312 317 325 328 327 327 326 327 328 328 328 329 328 328 328 329 328 328 328 328 328 328 328 326 327 328 327 326 325 326 327 326 324 323 322 322 322
310 310 310 310 310 310 310 310 309 309 309 308 308 308 307 307 308 308 308 308 308 310 313 318 305 304 303 304 306 314 326 326 327 327 328 329 329 328 328 328 328 328 329 329 330 329 327 328 327 325 326 327 327 326 324 325 324 323 323 322 322 320 321
310 309 309 309 309 308 308 309 309 308 308 308 308 307 307 306 306 306 306 306 306 307 309 311 304 301 299 300 302 306 313 323 326 326 326 327 327 327 328 328 328 328 328 331 324 323 325 325 327 324 326 327 325 324 324 324 323 322 321 320 319 320 319
308 308 308 307 308 308 307 307 307 307 307 307 307 306 305 305 305 304 304 304 304 305 305 307 303 298 297 298 299 302 306 314 324 326 324 323 325 326 327 328 328 326 322 321 317 313 310 313 320 326 329 325 325 324 325 324 323 320 320 319 318 318 318
307 306 307 307 307 307 306 307 306 306 306 306 306 305 305 304 304 303 303 302 302 303 303 304 297 294 294 294 296 298 302 308 317 324 325 325 325 325 326 326 326 326 323 319 318 310 308 307 311 312 316 319 322 325 325 325 323 320 319 319 318 318 318
306 306 306 306 306 306 306 305 305 305 305 305 305 305 304 303 303 302 302 301 301 301 302 300 294 294 293 292 294 296 299 306 312 320 325 326 325 323 324 327 327 328 328 326 324 318 311 305 303 304 305 308 310 312 315 325 325 322 321 319 318 317 320
305 305 305 306 306 305 305 304 304 303 304 304 304 303 303 303 302 302 301 300 300 300 300 297 293 293 292 292 292 293 297 304 311 315 321 324 324 324 323 323 323 326 329 324 326 324 321 313 303 301 302 304 302 301 300 300 309 324 323 321 319 319 320
304 304 305 305 305 305 304 303 303 304 304 304 303 303 302 302 302 301 300 299 299 299 299 296 293 292 292 291 291 292 297 303 310 315 318 322 325 324 323 323 323 324 325 324 325 326 324 319 315 312 313 317 316 306 299 296 299 307 318 323 323 321 322
304 304 304 304 304 304 304 303 303 303 303 303 302 302 302 302 302 301 300 299 298 298 298 294 293 292 291 291 291 292 300 307 311 314 318 322 325 325 324 324 323 323 323 324 325 324 325 321 319 319 320 323 320 322 320 319 321 323 325 327 326 325 324
303 303 303 303 303 303 303 303 303 303 303 302 303 302 302 302 301 301 300 299 298 297 297 294 293 292 292 291 291 297 301 306 309 312 316 320 324 324 324 324 324 322 323 324 316 308 314 323 321 321 321 319 314 311 304 297 293 293 300 320 325 324 325
303 302 302 302 302 302 302 302 303 303 302 302 301 301 300 301 301 301 300 299 298 297 297 295 293 292 292 291 293 297 302 306 309 311 314 318 321 323 323 325 324 323 323 323 312 304 304 311 324 322 322 316 315 312 308 305 296 293 294 294 295 295 294
302 302 302 302 302 302 302 302 302 303 302 301 300 300 300 300 300 300 300 299 299 297 297 296 294 293 292 292 293 298 302 306 310 312 316 313 309 308 307 304 315 323 322 322 306 300 301 311 323 322 318 315 312 310 310 310 307 301 295 295 296 296 296
302 302 301 302 302 302 302 301 302 302 302 301 301 301 300 300 299 299 299 298 300 298 297 297 294 292 292 292 293 296 298 299 302 303 304 306 306 304 304 302 298 299 312 315 303 300 300 311 322 319 319 315 311 310 309 310 309 309 310 311 311 312 309
303 302 301 301 302 302 302 301 301 301 301 301 300 300 300 300 299 298 298 298 297 297 297 296 295 292 292 292 292 295 296 295 296 298 298 298 299 299 299 300 297 292 291 292 297 297 298 304 319 319 319 314 311 309 311 311 312 311 311 311 310 310 309
303 302 302 302 302 302 301 301 301 300 300 300 300 300 299 299 298 298 298 297 297 297 297 296 295 293 292 292 292 293 294 294 295 296 295 294 295 295 295 295 296 293 291 291 292 295 300 301 305 319 319 314 312 309 308 311 309 306 309 306 304 305 306
304 304 303 303 301 301 301 301 300 300 300 299 299 298 299 298 298 297 297 297 297 296 297 297 295 294 292 292 292 292 293 293 294 296 294 293 293 293 293 294 294 293 291 292 292 292 294 298 301 312 310 299 298 300 311 310 309 308 307 305 304 304 304
304 304 303 303 302 301 301 300 299 300 299 299 298 297 298 298 297 296 296 297 297 296 296 296 295 294 293 292 292 292 291 292 291 296 294 293 292 292 294 294 294 293 291 291 291 292 294 295 298 300 296 297 297 298 302 307 306 306 305 304 303 301 301
304 304 303 302 301 301 300 300 299 299 299 298 297 297 297 297 297 296 295 295 296 296 297 296 295 294 294 292 292 291 291 291 291 293 295 294 294 293 293 293 293 291 292 292 292 292 292 294 295 293 294 295 297 299 306 304 302 301 299 299 299 299 299

ECMWFFLT1_sfc_thetae_081.txt.gz
Theta_e
330 329 331 332 334 334 334 334 334 334 338 337 336 335 335 333 332 333 333 332 331 331 332 332 332 333 333 332 332 333 331 329 328 327 325 326 323 323 327 326 325 327 327 326 325 319 317 316 320 325 326 327 326 328 328 329 330 328 328 328 330 330 331
331 331 332 332 331 333 332 332 331 332 333 334 335 336 334 335 333 333 331 329 330 330 331 331 332 332 331 331 331 331 329 329 329 329 327 326 326 323 324 324 324 325 326 326 326 324 318 315 316 320 321 324 325 326 327 329 329 328 328 329 330 331 331
325 327 329 329 329 330 330 330 331 330 331 331 333 334 332 333 332 331 330 328 329 331 332 332 331 331 331 331 331 330 331 329 328 329 328 328 328 326 325 324 323 322 323 322 323 323 322 320 315 319 320 321 320 324 326 327 328 328 329 330 330 331 331
323 324 324 326 327 329 329 330 330 331 332 331 332 333 332 331 329 330 330 330 328 330 331 331 332 332 331 331 331 331 331 329 327 328 328 328 328 326 326 325 323 323 322 320 320 322 321 319 317 319 320 322 322 320 323 327 328 329 329 329 329 330 331
322 322 323 324 326 326 327 327 329 330 330 331 331 330 331 331 330 328 330 328 328 329 330 332 332 332 331 331 332 331 331 330 328 329 328 327 328 327 327 327 326 325 324 324 324 325 323 322 320 317 319 321 322 322 325 326 330 329 328 329 329 329 329
319 320 322 323 323 323 324 324 326 327 328 328 329 330 330 331 330 328 328 327 327 328 330 331 331 333 332 331 332 332 331 330 328 328 328 328 327 326 327 328 328 328 326 328 328 325 325 325 322 318 321 323 319 320 324 326 325 329 328 328 329 328 328
318 319 320 321 322 322 323 323 324 325 325 326 328 329 330 331 330 329 328 328 329 330 330 330 331 331 331 331 332 331 331 331 330 328 328 329 328 327 327 327 328 329 329 330 329 328 324 320 320 320 319 319 319 319 321 323 326 325 326 328 330 328 328
318 319 319 321 319 320 321 321 322 322 322 324 326 328 331 331 331 330 328 327 327 328 329 329 331 330 329 330 330 329 330 330 330 328 328 328 327 327 326 327 327 328 329 329 328 329 327 323 323 323 320 316 314 316 316 321 324 324 324 326 329 328 327
319 317 317 318 318 319 320 319 319 319 320 322 324 326 329 330 330 330 329 328 327 328 328 328 329 329 327 326 326 328 328 331 328 327 327 328 327 327 327 328 327 326 328 329 328 328 329 327 326 325 323 320 315 312 314 315 320 321 327 324 326 328 327
315 315 315 315 316 318 318 318 317 318 319 320 323 325 326 328 329 330 330 329 328 327 327 327 328 328 328 327 327 329 329 328 328 327 328 328 328 328 328 329 328 328 328 329 329 328 328 328 327 326 325 322 320 315 312 313 316 318 323 326 322 326 328
313 314 315 315 315 315 316 316 316 316 317 319 321 321 322 323 325 328 329 329 328 327 327 327 327 327 326 326 326 327 328 327 327 327 328 329 329 329 328 329 329 329 329 328 329 329 329 328 327 326 326 324 324 319 316 314 315 320 321 325 325 324 326
313 314 314 314 313 313 313 315 315 315 315 317 317 317 318 319 321 323 325 326 326 327 327 326 326 326 327 326 325 325 326 328 327 326 327 327 328 328 328 328 328 328 329 328 329 329 329 328 328 327 324 325 325 323 320 317 314 318 323 321 323 326 325
313 313 313 312 312 311 312 313 313 313 313 315 315 315 316 317 318 318 320 322 322 324 326 326 326 326 326 326 325 325 326 327 326 325 326 327 328 328 328 327 327 327 328 328 327 328 329 328 328 326 325 325 325 325 323 318 315 315 320 322 322 324 326
311 311 311 311 311 310 311 311 311 312 312 311 312 313 314 314 315 315 316 317 318 319 321 323 326 326 325 325 326 326 325 325 326 325 325 326 327 328 328 327 328 328 329 328 327 327 328 328 327 326 326 325 324 324 323 321 317 316 319 322 322 323 326
310 310 309 309 309 309 309 309 310 310 309 309 310 310 310 311 312 312 312 312 313 316 318 319 317 314 313 315 322 327 326 325 326 327 327 325 327 327 328 327 327 328 329 328 328 327 328 329 329 326 325 324 323 323 325 322 320 317 317 318 320 325 325
308 308 308 308 308 308 308 308 309 308 308 308 309 309 308 309 309 308 308 308 309 309 312 311 306 307 306 306 306 309 318 325 325 325 326 324 325 327 327 327 326 328 329 328 327 328 328 329 329 329 326 325 324 325 326 325 322 318 318 318 322 322 323
307 307 306 307 306 307 308 308 309 308 308 308 307 307 307 306 307 306 306 306 305 306 308 306 304 301 302 303 303 305 308 314 322 325 324 324 325 325 325 325 326 327 328 328 327 327 327 328 327 327 327 326 325 324 324 325 325 321 319 318 320 322 323
306 306 306 306 305 306 306 307 308 307 307 307 306 306 306 306 305 304 304 304 303 304 306 304 301 299 299 300 300 301 303 307 313 320 325 325 326 325 325 325 326 327 326 325 325 325 326 326 327 327 325 327 326 326 324 323 325 323 320 318 319 322 323
305 305 306 305 305 305 306 306 306 307 307 306 305 305 304 304 304 303 303 302 302 303 304 302 298 298 297 297 298 298 300 302 307 313 322 326 326 326 326 325 326 326 326 325 325 326 327 327 327 327 327 327 326 326 325 323 323 321 321 320 319 319 321
304 304 305 305 305 305 305 305 305 305 306 305 304 304 304 303 303 302 302 302 301 302 303 301 298 297 296 296 296 297 297 299 303 308 314 322 326 326 326 326 326 326 326 326 325 326 327 328 327 327 327 327 326 325 323 323 323 321 320 320 319 320 320
304 304 305 305 305 305 304 304 304 305 306 304 304 303 303 303 302 302 301 301 301 301 302 299 297 296 296 295 295 295 296 298 300 304 309 316 324 327 326 326 326 327 327 327 326 326 328 327 328 327 327 327 325 324 322 322 322 321 320 319 318 316 317
304 304 304 304 304 303 303 303 304 304 304 304 304 303 304 303 302 301 300 300 300 300 300 298 297 296 295 294 294 294 295 296 298 301 306 312 319 326 327 326 326 326 327 328 321 321 323 322 327 326 326 326 324 323 322 321 321 320 319 319 317 317 315
303 303 303 303 303 303 303 303 302 303 303 303 303 303 303 303 302 301 299 299 299 299 299 298 299 296 296 295 294 294 294 295 297 299 303 309 316 322 325 325 326 324 320 319 316 312 310 312 317 325 327 325 325 323 322 320 319 319 319 318 317 317 315
302 302 302 302 302 303 303 302 302 302 302 302 301 302 302 302 301 300 300 299 298 298 298 298 295 293 293 294 295 294 294 294 296 298 302 307 313 318 323 324 324 325 322 320 318 310 307 306 307 309 313 317 321 325 321 321 321 321 319 318 318 317 316
300 301 301 301 301 302 302 302 301 301 301 300 300 301 301 301 301 300 299 299 298 298 298 297 293 293 293 293 294 295 295 295 296 298 302 306 311 317 321 323 323 324 324 323 324 322 314 307 304 305 305 308 308 309 313 319 320 320 320 319 317 317 317
299 300 300 300 300 300 300 300 300 300 300 301 299 299 299 300 300 299 299 298 298 298 297 295 293 293 293 292 293 295 297 298 298 300 304 307 311 315 319 321 321 323 325 322 324 324 323 318 307 303 303 306 306 304 303 306 310 322 322 321 319 317 318
299 299 299 299 299 299 299 298 299 300 300 299 298 298 298 298 299 298 298 298 297 298 297 295 292 292 292 292 292 294 298 299 302 304 307 309 311 314 316 320 321 321 322 324 324 324 323 321 318 312 312 315 318 312 302 301 304 307 313 321 320 318 320
298 298 298 298 298 298 298 298 298 299 298 298 297 297 297 297 298 298 297 297 297 297 297 294 292 292 292 292 293 295 297 298 301 302 303 305 306 309 312 317 321 321 321 322 323 322 323 320 317 315 316 317 317 317 317 315 319 320 319 322 322 321 319
297 297 297 297 297 297 296 297 297 298 298 297 297 297 297 297 297 297 297 297 296 295 296 294 292 292 292 291 293 296 296 296 297 298 300 301 302 302 303 303 304 310 319 322 315 307 313 320 318 316 317 317 315 312 308 303 300 306 306 317 322 322 320
296 296 296 296 296 296 295 295 296 297 296 296 296 296 295 296 296 295 295 295 295 294 294 294 292 292 292 291 293 295 295 295 296 296 297 298 299 299 300 300 300 299 299 310 311 303 303 310 320 317 317 316 313 311 306 302 294 293 294 296 295 294 294
296 295 295 295 295 295 295 294 295 296 295 294 295 295 295 295 295 295 295 294 295 294 294 295 293 292 292 292 293 293 294 294 294 295 296 296 297 297 298 300 301 297 296 296 292 293 299 309 320 319 318 314 311 309 306 305 303 300 295 295 295 295 295
296 295 295 295 295 294 294 295 294 294 294 294 295 294 296 294 294 294 294 295 298 295 294 295 294 292 292 292 293 293 293 293 293 294 294 295 296 296 296 298 298 296 295 293 291 291 293 305 321 319 317 314 311 309 307 306 306 307 308 308 308 308 306
296 295 294 294 295 295 295 294 294 294 293 294 294 293 294 294 293 293 293 294 294 294 294 294 294 292 292 292 292 293 293 292 291 293 294 294 293 294 295 295 296 293 291 291 291 290 291 295 318 319 317 315 312 309 309 309 309 309 308 307 306 306 306
296 296 295 295 295 295 295 294 294 294 293 294 292 292 293 293 293 293 293 293 293 294 295 294 294 292 292 292 292 292 292 292 291 293 293 293 292 292 292 293 295 294 291 291 291 291 292 292 301 318 317 314 314 309 307 309 306 304 306 304 304 304 304
297 299 297 296 294 294 295 295 295 293 293 293 291 292 291 293 292 292 292 293 293 293 295 296 293 293 292 292 291 292 291 292 291 292 293 292 292 292 291 292 293 292 291 291 291 292 291 293 297 315 312 298 297 299 308 306 305 305 304 304 302 302 302
297 299 297 296 294 294 294 294 294 294 293 292 292 291 291 291 292 292 292 292 292 292 293 294 294 292 292 291 291 291 291 291 290 293 292 291 291 291 292 292 293 292 291 291 291 292 291 292 298 302 295 297 297 297 301 305 303 304 303 302 301 300 300
296 295 296 295 295 294 294 294 293 293 292 292 291 291 291 292 291 291 291 291 292 292 292 292 293 292 291 291 291 291 291 290 291 291 292 292 292 292 291 291 291 290 291 291 291 292 292 292 293 293 295 295 297 299 303 301 301 300 298 299 299 300 300

ECMWFFLT1_sfc_thetae_084.txt.gz
Theta_e
326 326 329 329 331 331 330 330 331 331 333 334 331 330 331 330 330 329 330 330 330 331 331 330 330 330 330 331 331 330 330 329 327 325 324 324 322 323 327 326 325 325 325 323 320 318 316 316 320 325 325 325 325 326 328 328 328 328 327 328 328 327 328
325 326 328 328 328 329 328 329 329 330 330 332 333 333 331 331 331 329 329 328 328 328 330 329 329 330 330 329 329 329 327 327 327 327 325 324 324 323 324 324 325 324 324 323 323 322 316 314 315 320 322 324 324 324 326 328 329 329 328 328 329 329 329
322 323 324 324 324 325 324 325 328 328 328 328 329 331 330 332 331 331 330 329 328 328 329 329 329 329 330 330 330 328 328 327 328 327 326 327 327 326 325 324 322 322 322 321 321 321 320 319 313 317 322 321 319 322 325 326 327 328 328 328 328 330 329
321 321 320 319 320 320 321 322 325 326 327 327 327 328 328 330 330 331 328 327 328 329 330 328 328 328 329 331 331 328 328 328 327 328 327 327 327 326 326 325 324 323 320 319 320 320 319 317 316 315 319 322 322 321 324 326 326 327 327 327 328 328 329
319 319 318 317 317 318 320 320 322 322 322 324 325 325 326 329 331 330 329 326 326 326 326 327 328 329 330 330 330 329 329 330 330 329 327 326 326 326 326 326 326 325 324 323 322 322 321 320 319 317 317 320 321 322 324 325 327 327 327 326 328 328 329
315 316 316 316 317 318 318 318 319 318 320 320 322 323 325 328 330 329 329 328 327 327 327 327 327 328 330 331 331 330 330 330 330 329 328 327 326 325 326 326 326 325 325 325 325 323 324 323 320 317 317 321 319 320 322 323 323 326 328 327 327 328 329
315 315 315 315 316 316 317 317 317 318 318 318 320 321 324 326 327 329 330 330 329 328 328 327 327 328 329 329 330 330 330 331 331 330 329 328 327 327 327 326 326 326 326 326 325 324 322 321 320 318 316 316 315 317 318 321 323 323 325 327 328 328 329
315 314 314 316 315 316 316 315 315 316 316 317 318 319 321 322 323 325 327 327 326 327 328 328 328 327 327 327 327 327 327 327 327 328 328 328 327 327 326 327 326 326 326 327 326 325 326 324 322 321 318 315 314 314 316 318 319 323 323 326 328 327 328
315 314 312 313 312 314 315 314 313 313 314 314 315 316 316 318 319 320 321 322 323 323 324 326 327 327 327 326 326 325 324 328 327 328 327 327 327 327 326 326 326 325 326 327 327 327 327 326 324 323 322 319 315 312 314 315 318 321 326 323 326 328 327
311 310 310 310 310 311 312 312 311 311 311 311 313 314 314 315 315 315 315 317 317 320 320 322 319 319 321 325 325 325 325 327 328 327 325 325 326 327 326 326 326 326 326 327 327 327 327 326 326 325 324 321 320 316 313 313 316 317 321 325 322 325 327
309 309 309 309 309 309 309 309 310 309 308 309 310 311 311 311 311 312 310 310 312 315 318 312 310 310 310 312 313 318 323 326 326 326 326 326 326 327 327 327 326 326 327 326 326 327 327 326 326 325 325 324 322 318 316 314 314 317 318 323 325 323 326
309 308 308 308 308 307 307 307 307 307 307 308 308 307 307 308 307 308 307 307 308 309 312 307 306 305 307 307 309 310 312 315 321 325 326 327 327 327 327 326 327 326 327 327 327 327 327 327 326 326 325 324 323 321 318 316 312 315 321 319 323 325 325
308 307 307 307 306 306 306 306 306 306 306 307 306 306 305 306 305 305 305 305 305 307 307 305 304 303 303 304 304 305 307 309 310 315 323 326 326 327 326 326 326 326 327 327 327 327 328 328 327 326 325 324 323 322 321 318 315 315 318 321 322 325 326
306 306 306 306 305 305 306 307 306 306 306 305 305 304 304 304 304 304 304 304 304 305 302 301 302 301 301 300 300 302 304 304 306 309 313 320 326 326 326 325 325 326 327 326 326 327 327 327 327 326 325 324 323 323 322 319 316 316 316 317 321 322 325
305 305 304 304 305 305 306 306 306 305 304 304 304 304 304 304 303 303 302 302 303 304 301 299 299 299 298 298 297 299 300 300 301 304 308 311 317 325 326 325 325 326 327 326 326 326 326 326 326 325 325 324 323 323 324 320 319 318 317 317 317 321 322
304 304 303 303 303 303 304 305 305 303 303 303 304 304 303 303 302 302 301 301 302 303 300 298 298 298 297 297 296 297 298 298 299 300 303 307 310 317 323 325 325 326 327 326 326 326 326 326 326 325 325 325 323 324 324 323 321 318 318 317 319 320 321
303 303 302 303 302 303 303 304 305 303 302 303 303 303 303 301 301 301 300 300 300 301 300 298 298 298 297 297 296 296 296 297 298 299 300 303 307 311 317 323 324 325 326 325 325 326 326 326 326 325 324 324 324 324 324 324 323 321 319 317 318 321 321
302 302 301 301 301 302 303 303 304 303 302 302 303 302 302 301 300 300 300 299 299 299 299 298 297 297 297 297 296 296 296 296 297 298 299 301 306 309 312 318 324 324 325 324 325 325 326 325 326 326 324 325 324 324 324 323 323 323 319 317 318 321 322
301 301 301 301 301 301 302 302 302 303 302 301 302 302 301 300 300 299 299 299 299 299 298 298 297 296 296 296 296 296 296 296 296 297 298 300 302 305 308 313 321 325 325 324 324 325 326 325 325 325 325 325 325 324 323 323 322 322 322 320 319 317 320
301 301 301 300 301 301 301 301 301 301 302 301 302 301 300 300 300 300 299 299 299 299 297 297 296 295 295 295 295 296 296 296 296 297 298 299 300 302 307 311 317 324 325 325 324 324 325 325 324 324 325 326 325 324 322 322 322 322 321 320 318 318 319
301 301 301 300 300 300 301 300 300 300 301 300 301 300 299 299 299 299 299 298 298 299 297 296 295 295 294 294 295 295 296 296 297 297 298 299 300 301 304 308 314 321 325 326 325 324 325 324 324 323 325 326 325 324 321 321 321 320 320 319 318 316 318
300 300 301 300 300 300 300 300 300 299 299 300 301 300 300 299 298 298 298 298 298 298 297 296 296 295 293 293 294 295 296 297 297 297 298 299 301 302 305 308 312 318 324 326 320 319 320 320 324 324 324 325 325 324 323 321 321 320 319 319 317 318 318
299 299 299 299 299 299 299 300 299 298 298 299 299 300 299 298 298 297 297 297 297 297 296 296 297 295 295 294 294 295 296 297 298 299 299 300 302 304 306 308 311 314 314 315 315 311 309 310 315 323 325 326 326 325 323 322 319 319 319 318 317 316 316
298 298 298 298 298 298 299 299 298 298 298 298 298 298 297 296 296 296 296 296 295 296 296 296 294 292 292 293 294 294 295 296 298 299 300 301 302 304 305 307 310 314 316 317 319 310 307 306 305 307 311 315 319 326 324 321 320 319 318 317 318 316 315
297 297 297 297 297 297 297 298 297 297 297 297 297 297 296 296 295 295 295 295 294 295 295 296 292 293 292 292 294 295 295 295 297 298 298 299 300 301 301 302 304 306 310 313 317 322 316 308 303 303 303 304 306 306 310 320 321 319 319 317 317 317 316
296 296 296 296 296 296 296 296 296 296 296 297 296 295 295 295 294 295 294 294 294 294 294 295 292 293 292 292 292 294 294 295 296 297 297 298 298 299 299 300 301 302 304 305 308 313 322 322 310 304 303 304 303 304 302 302 308 320 322 319 318 317 317
295 294 295 295 295 295 295 295 295 295 295 295 294 294 294 294 294 294 294 294 293 293 293 295 292 292 292 291 291 293 294 294 295 296 297 297 298 298 298 298 299 299 300 301 302 303 302 308 320 320 315 312 313 312 304 301 301 305 313 321 319 318 319
294 294 294 294 293 293 293 293 294 295 294 293 293 293 293 293 294 294 293 293 293 293 294 294 292 292 291 291 292 293 293 294 294 295 296 297 297 297 297 298 298 298 298 298 299 298 296 296 299 311 320 318 316 318 319 315 313 315 317 321 322 321 321
293 293 293 292 292 292 292 292 292 293 294 292 292 292 293 293 293 292 293 293 293 292 293 293 292 292 291 291 292 294 293 293 293 293 295 296 296 297 297 297 297 297 297 296 296 293 293 293 296 304 314 318 318 318 318 315 309 311 318 321 322 322 322
293 292 292 292 292 291 291 292 292 293 292 292 291 292 292 292 292 292 293 293 292 292 292 293 292 292 291 291 292 293 293 292 292 292 293 295 296 296 296 297 297 296 295 294 294 291 291 292 295 303 309 315 317 316 314 311 302 301 303 305 307 308 307
292 292 291 292 292 291 291 291 292 292 291 291 291 292 293 292 292 292 292 292 294 292 291 293 293 292 291 291 292 292 292 292 291 291 292 294 295 295 295 298 299 295 294 293 292 290 291 292 295 301 307 312 315 313 312 307 305 301 296 298 301 303 303
292 292 292 292 292 292 292 292 291 291 291 291 292 291 294 292 292 292 292 292 296 292 291 293 293 291 291 291 292 292 292 292 291 290 291 292 294 294 293 295 296 295 294 292 290 291 291 292 294 299 306 311 313 312 312 307 306 304 305 306 305 305 303
293 293 292 292 293 292 292 292 291 292 291 291 290 290 290 292 291 291 291 291 291 291 291 292 293 291 291 291 291 292 292 291 290 290 291 292 292 292 293 292 293 292 291 290 290 290 291 291 292 296 304 310 313 313 310 308 309 309 309 309 309 309 309
294 293 292 292 292 292 292 291 291 291 290 291 290 290 290 290 291 291 290 290 290 290 292 292 292 292 291 291 291 291 290 291 290 290 290 290 291 291 291 291 292 292 290 290 290 291 291 291 292 295 302 311 315 313 305 308 307 305 308 306 305 305 305
295 295 293 293 292 291 291 291 292 290 290 290 290 290 290 290 290 290 290 290 290 289 292 294 291 292 291 291 290 291 290 290 291 291 290 290 290 290 290 291 291 292 290 290 290 291 291 291 292 297 301 302 303 298 307 308 307 305 304 303 303 302 303
294 295 293 292 291 290 290 291 291 291 290 290 290 289 289 289 289 289 289 289 289 289 289 291 292 291 291 290 290 290 290 290 290 291 289 289 289 290 290 290 291 292 290 290 290 290 291 291 293 292 291 294 296 297 301 305 303 304 303 302 302 301 300
292 291 292 291 291 291 290 290 290 291 289 289 289 289 289 289 288 288 288 289 289 289 289 289 291 291 291 290 290 290 290 290 290 290 290 289 290 290 290 290 290 289 290 290 290 290 291 291 291 291 291 293 295 297 304 302 302 301 299 299 300 299 299

ECMWFFLT1_sfc_thetae_087.txt.gz
Theta_e
323 324 325 326 326 327 326 328 329 328 330 331 329 329 330 331 331 331 330 330 330 330 330 329 327 328 329 330 331 331 330 329 327 324 324 325 322 323 327 326 326 326 324 323 322 319 316 314 317 324 326 326 327 327 327 326 325 324 323 324 324 323 324
324 323 323 323 323 324 323 325 326 327 327 328 328 329 329 330 332 331 331 330 329 329 329 329 328 328 328 329 329 329 329 328 328 327 325 324 324 323 323 323 325 324 323 323 323 321 317 314 315 319 321 325 326 327 326 327 327 326 325 325 325 324 324
321 320 320 319 320 321 320 321 322 322 323 324 325 326 326 327 329 330 330 329 328 328 330 329 329 329 329 329 330 330 330 328 328 328 326 326 326 326 325 324 322 323 322 321 321 320 320 319 315 315 320 320 319 323 326 326 326 327 326 326 326 326 324
317 317 316 316 317 318 317 318 319 320 321 321 322 323 323 324 326 328 329 329 329 329 329 328 328 328 328 329 330 330 330 329 328 327 326 326 326 326 326 325 324 323 321 319 319 320 319 317 316 316 318 322 322 321 324 326 326 327 327 327 326 327 326
314 314 313 313 315 315 315 314 315 317 317 318 319 319 319 322 323 324 327 326 324 325 326 327 328 328 328 329 329 330 330 330 330 329 329 327 328 327 326 326 326 325 324 323 322 322 320 319 318 317 317 318 321 323 323 323 326 326 327 327 327 327 328
312 312 312 312 313 313 312 311 311 311 313 313 314 314 316 318 319 319 321 321 320 321 323 321 320 319 320 324 327 328 329 328 329 328 327 328 328 327 326 327 327 326 325 326 324 323 322 322 319 317 319 320 318 319 322 322 322 325 327 327 327 328 328
310 310 309 309 310 311 311 309 309 309 309 309 311 312 313 314 314 314 315 314 316 318 315 312 312 312 313 317 321 322 324 326 327 327 327 327 327 327 328 326 326 326 326 326 325 324 323 321 319 319 318 317 319 318 317 320 321 321 325 327 328 328 328
310 308 308 309 308 308 308 307 307 307 307 307 308 309 310 309 310 309 309 310 311 312 309 308 307 309 310 312 314 314 317 318 318 322 325 326 326 327 327 327 326 326 326 327 326 324 324 323 322 321 319 316 315 317 317 319 320 322 323 325 328 327 327
310 308 307 307 307 307 306 306 305 305 306 305 306 307 306 306 306 306 306 306 308 308 307 307 305 306 307 309 309 310 310 312 311 314 319 324 326 326 326 327 326 326 327 327 326 326 325 324 323 323 322 319 316 313 316 316 318 320 325 322 325 327 327
306 305 305 305 305 306 306 305 305 305 305 305 305 306 305 305 305 305 304 304 306 304 303 304 304 303 304 305 304 305 306 308 309 310 314 318 322 325 326 326 326 326 326 326 326 326 326 325 325 324 323 321 320 316 313 313 316 318 322 324 321 324 328
306 305 305 304 305 305 304 304 304 303 303 304 305 305 304 303 303 305 303 303 305 302 301 301 300 300 301 301 302 302 303 305 305 307 310 312 314 319 323 325 326 325 326 326 326 326 326 326 326 325 324 324 323 318 317 314 315 319 319 322 324 323 326
305 305 305 305 304 304 303 303 302 302 302 303 303 302 302 302 302 302 302 303 303 300 300 299 299 299 299 299 299 300 301 301 302 303 305 307 310 313 316 320 324 325 327 326 326 325 326 326 326 326 325 324 323 322 320 318 314 317 321 319 323 326 325
305 304 304 303 303 303 303 302 302 302 302 303 301 301 301 301 302 301 302 303 302 300 298 298 298 297 297 297 298 298 298 299 299 299 301 303 306 309 311 314 318 322 326 327 326 326 326 326 326 325 325 324 324 323 322 319 316 316 319 321 322 325 326
303 303 302 303 303 302 302 303 302 302 302 301 300 300 300 301 301 301 301 301 300 299 298 297 297 297 297 296 297 298 298 298 297 297 299 299 302 304 306 309 311 316 323 325 326 326 326 326 326 326 325 325 323 323 322 319 316 316 318 319 320 323 325
302 302 302 301 302 302 302 301 302 301 300 301 301 299 299 300 300 300 300 299 298 298 297 297 296 296 295 295 295 297 297 297 297 298 298 298 299 300 303 305 308 311 316 323 326 325 326 326 326 326 325 324 324 323 324 320 318 317 316 317 318 321 323
301 300 300 300 300 301 301 301 302 300 300 300 301 300 299 299 299 299 298 298 298 297 296 296 296 295 295 294 294 295 296 297 297 297 297 297 298 299 300 302 305 308 311 314 321 325 326 325 326 325 325 325 324 324 324 323 320 317 317 317 320 320 321
300 300 299 299 299 300 300 301 303 300 300 300 299 299 300 299 298 298 298 297 297 296 296 296 295 295 294 294 294 294 295 296 297 297 297 297 298 299 300 300 302 304 307 309 314 322 325 325 325 325 325 325 324 324 324 323 323 320 319 317 318 320 321
299 299 299 299 299 299 299 299 301 301 300 300 299 299 299 299 298 298 297 297 297 296 295 295 295 294 294 294 294 294 295 296 297 298 298 298 301 300 300 300 301 303 305 307 310 316 323 324 324 325 324 325 324 324 324 323 323 322 320 318 318 320 321
299 299 299 298 298 298 299 299 299 300 300 299 299 298 298 298 299 297 297 297 297 296 295 295 295 294 294 294 294 294 294 295 297 298 299 299 300 300 300 301 302 304 305 306 309 313 317 321 323 324 324 324 324 324 323 323 323 322 321 320 320 318 319
298 298 298 298 299 298 298 298 298 298 299 298 297 297 297 297 297 297 296 296 296 296 295 295 295 294 293 294 294 294 294 294 296 297 299 300 301 301 302 303 304 305 306 308 310 312 313 313 315 320 324 324 325 323 322 322 322 321 321 320 320 320 318
298 299 299 298 298 298 298 297 297 298 299 297 296 296 296 296 296 296 296 295 296 296 295 294 294 294 293 293 293 293 293 294 295 296 298 299 300 301 301 302 302 304 306 308 307 307 308 308 309 311 319 324 324 323 322 321 321 320 320 319 319 318 319
297 297 298 298 298 297 297 296 297 297 297 297 298 296 295 295 295 294 294 294 294 295 294 294 295 294 293 293 293 293 293 293 294 295 296 297 298 299 300 300 300 302 305 307 304 304 303 303 304 305 309 316 322 322 322 321 320 319 319 318 318 319 318
296 296 296 296 296 297 296 296 296 296 296 296 295 297 295 295 294 294 293 293 293 294 294 294 296 295 294 293 293 293 293 293 294 294 295 296 297 298 298 299 300 303 302 303 302 300 299 299 300 300 301 302 309 319 321 321 320 319 318 317 318 317 316
295 295 295 295 295 296 296 295 295 295 295 295 295 295 294 294 293 294 293 293 292 293 293 295 294 292 292 293 294 293 293 292 293 294 294 295 295 296 297 298 298 301 301 302 301 299 298 297 296 296 296 297 299 304 314 321 320 320 318 317 318 317 316
294 294 294 294 294 294 295 294 294 294 294 294 294 294 293 293 293 293 293 292 292 293 293 296 292 292 292 292 293 293 292 292 293 293 293 294 295 296 296 296 297 298 299 300 300 299 298 297 295 295 294 295 295 297 300 309 318 320 319 318 317 317 317
293 293 293 293 293 293 293 293 293 293 293 294 293 292 292 292 292 293 293 292 292 292 292 294 292 292 292 291 292 293 292 292 292 292 293 293 294 295 295 295 296 297 298 301 301 297 296 295 296 295 295 296 297 299 299 297 300 312 321 319 318 318 318
292 291 292 292 292 292 292 291 291 291 293 292 292 292 292 291 292 292 292 292 291 291 291 294 292 292 292 291 291 292 292 292 292 292 292 293 293 294 295 294 294 295 296 296 296 296 295 294 294 294 295 296 299 301 303 301 299 298 304 316 320 318 319
291 290 290 290 290 290 290 289 291 291 291 291 291 290 290 290 291 292 291 291 291 291 292 293 292 291 291 291 291 292 292 292 292 292 292 292 293 294 294 294 294 295 295 294 295 295 293 293 292 293 294 295 298 301 306 313 315 312 311 311 316 321 321
290 289 290 290 289 289 288 288 288 290 291 289 290 290 290 290 290 289 290 290 290 290 291 292 292 291 291 290 291 292 291 291 291 291 291 292 292 294 294 294 294 294 294 293 294 292 292 292 292 292 293 295 297 301 305 309 309 310 315 317 318 320 322
290 289 289 289 288 288 289 289 289 291 289 288 288 289 289 289 290 289 290 290 289 290 290 291 291 291 291 291 291 291 291 291 291 291 291 292 292 293 293 294 295 294 293 292 293 290 290 292 292 292 293 294 296 299 302 308 307 303 303 303 304 306 307
289 289 288 288 288 288 288 288 289 289 287 287 288 288 290 289 290 289 289 289 290 290 289 291 292 291 291 291 292 290 290 290 290 290 290 291 292 292 293 296 297 293 292 292 291 290 290 291 292 292 292 293 294 296 300 306 312 311 302 300 300 301 302
289 288 289 288 289 288 288 288 288 288 288 287 288 288 292 289 289 289 289 289 294 290 288 291 292 291 291 291 291 290 290 289 289 289 290 290 291 291 291 293 294 293 293 291 290 290 290 291 291 291 292 293 293 295 298 303 308 310 309 308 308 308 306
290 289 289 288 289 289 289 288 288 287 287 288 288 287 288 289 288 289 289 288 289 289 288 289 291 291 291 291 291 291 290 289 289 289 290 290 289 290 290 291 292 291 290 289 289 289 290 290 291 292 293 293 293 294 299 303 308 311 310 310 311 311 311
290 289 289 289 289 289 287 287 287 287 287 288 287 288 288 288 288 288 288 288 288 288 290 290 290 291 291 291 291 290 289 289 289 289 289 289 289 289 289 290 290 291 290 289 289 289 290 290 291 293 293 292 292 294 295 298 305 306 310 310 310 310 311
290 292 290 289 288 288 288 288 288 287 287 286 286 287 287 288 287 287 287 288 288 288 290 293 290 291 291 291 290 291 290 289 290 290 289 288 289 289 289 289 290 291 289 289 289 289 290 290 290 293 292 290 290 291 294 297 303 308 308 307 306 305 305
291 292 291 289 288 287 287 287 287 287 286 286 286 286 286 286 286 286 287 287 287 288 288 290 291 290 291 290 290 290 290 290 290 290 288 288 288 288 289 289 290 291 289 289 289 289 290 290 291 290 290 290 291 291 297 302 303 306 304 303 302 301 300
289 289 289 288 288 287 287 287 288 288 286 286 285 286 286 286 286 286 286 287 287 288 288 288 290 291 290 290 290 290 290 290 290 290 289 288 288 288 288 289 290 289 289 289 289 289 289 290 290 289 289 290 291 293 295 297 299 300 298 299 299 299 298

ECMWFFLT1_sfc_thetae_090.txt.gz
Theta_e
321 320 321 322 323 324 322 322 323 323 324 324 324 324 325 327 329 329 330 329 328 329 330 329 328 329 329 330 331 331 330 330 328 326 325 326 323 324 327 326 327 327 327 326 325 320 318 315 318 325 326 326 327 328 328 328 328 327 326 325 325 325 326
321 320 320 320 319 320 318 319 320 320 321 321 321 320 322 324 326 327 325 324 324 325 327 326 326 326 327 327 328 328 329 329 329 329 327 325 325 324 325 324 326 325 325 326 326 324 318 316 316 318 320 325 326 327 328 329 329 328 327 326 325 326 326
317 317 317 316 316 316 315 315 317 316 317 317 317 317 317 318 320 322 321 320 321 322 320 318 317 317 319 322 325 327 328 328 330 329 327 327 327 327 326 325 324 324 323 323 323 322 321 321 316 318 320 320 319 323 327 328 328 329 328 327 326 327 326
313 313 313 313 312 311 311 311 311 312 313 313 313 314 312 313 314 315 315 317 318 314 313 312 313 313 314 317 321 322 324 325 326 327 327 328 328 327 327 326 325 324 322 321 322 322 320 318 317 317 319 321 321 320 325 328 328 329 329 328 326 327 327
309 309 309 309 309 307 307 307 308 308 308 309 309 309 309 309 310 310 312 313 311 310 310 309 309 310 312 314 316 316 317 320 319 320 322 323 324 325 326 327 326 326 325 324 325 324 322 320 319 318 318 320 321 322 324 327 330 328 328 328 328 328 328
307 307 307 306 307 306 306 305 305 305 305 305 306 305 306 307 307 307 308 309 308 307 310 308 307 307 308 310 311 312 312 314 314 313 316 318 321 322 324 326 327 326 326 327 327 325 325 323 321 318 320 321 317 319 323 325 324 328 329 328 328 328 328
306 306 306 305 305 305 305 304 304 304 303 304 304 304 305 306 306 306 307 306 304 304 305 304 305 305 305 305 307 307 308 310 310 310 312 315 317 320 323 324 325 326 326 327 327 326 324 322 320 319 318 319 319 319 320 322 325 323 325 328 330 329 329
306 305 305 306 304 304 304 303 303 303 303 303 304 304 305 304 304 305 306 303 302 301 301 301 301 301 301 302 303 304 305 306 306 308 309 311 312 315 316 319 322 324 326 326 327 326 326 324 323 321 319 316 316 318 318 320 320 322 323 326 329 329 330
307 305 305 305 304 304 303 303 302 302 303 303 304 303 303 303 303 303 304 302 301 300 300 300 300 299 300 300 300 300 300 303 302 303 305 306 308 310 312 314 317 320 324 326 326 327 327 326 325 324 322 319 316 313 316 316 319 320 325 323 327 329 329
304 303 303 303 303 303 303 302 302 302 302 302 303 304 302 303 303 304 303 301 300 300 299 299 299 298 299 299 299 299 299 300 301 300 301 302 303 305 308 310 313 315 319 323 325 326 327 327 326 325 324 321 320 315 313 313 316 318 321 325 323 326 329
303 303 303 302 303 302 302 302 301 301 300 301 302 303 302 302 302 302 301 300 300 299 299 298 298 298 298 297 298 298 299 300 300 300 301 301 301 302 304 305 308 311 314 316 319 323 326 326 326 326 324 324 323 318 316 313 314 319 319 324 326 325 328
303 303 303 303 302 302 301 301 301 300 300 301 301 300 300 300 300 300 300 299 298 298 298 297 298 297 297 296 297 297 298 299 299 299 300 301 301 302 301 301 304 306 309 311 313 317 322 326 326 326 325 325 323 322 319 318 314 319 323 320 324 328 327
303 302 302 302 301 301 301 301 300 300 300 301 299 300 300 300 300 299 299 298 297 297 297 297 297 296 296 296 296 296 297 298 297 298 299 300 301 301 301 300 301 303 305 308 310 313 315 319 325 326 325 325 324 324 322 320 317 316 321 323 324 326 328
300 301 301 302 301 301 301 302 300 300 300 300 300 299 299 299 299 299 298 298 297 296 296 296 296 296 295 295 295 296 296 297 297 297 299 299 300 301 301 301 302 303 304 305 307 309 311 313 318 323 326 325 324 324 323 320 318 317 320 322 323 324 328
300 300 300 300 300 300 301 301 301 300 299 299 300 299 299 299 299 298 298 297 297 296 296 296 295 295 294 294 294 295 295 295 296 297 298 298 299 300 300 301 301 302 304 304 305 307 309 311 315 318 322 324 324 324 325 321 320 318 317 319 319 323 324
299 299 299 299 299 299 300 301 301 299 299 298 299 299 299 298 298 297 297 297 296 296 295 295 295 294 294 294 294 294 295 295 295 296 296 297 299 300 300 301 301 302 304 304 305 307 309 311 314 315 317 319 320 323 325 324 321 319 318 319 321 319 321
299 298 298 298 298 298 299 299 301 299 298 298 297 298 298 298 297 296 296 296 296 295 295 295 294 294 294 294 294 294 294 295 295 296 296 297 299 300 300 300 301 302 303 303 304 306 309 310 310 310 311 312 314 316 321 325 323 321 320 318 320 320 321
299 298 298 298 298 298 298 298 299 298 297 297 297 297 297 297 296 295 295 295 295 295 295 295 294 294 294 294 294 294 294 294 295 295 296 297 300 299 299 299 300 300 301 301 303 304 305 305 305 305 305 306 309 312 315 319 323 323 321 319 320 321 322
298 298 299 298 298 298 298 298 297 298 297 296 296 296 295 296 297 295 295 294 295 295 295 295 294 293 293 294 294 294 294 294 294 295 295 297 297 298 298 298 299 299 299 300 301 302 302 302 302 302 302 303 305 306 307 310 316 322 322 321 321 319 320
298 298 298 297 298 297 297 297 297 297 298 296 295 295 295 295 296 295 294 294 294 295 294 295 294 293 293 293 293 293 294 294 294 294 295 296 297 297 298 298 298 298 299 300 300 300 301 301 300 299 300 300 301 301 302 305 309 315 320 320 321 321 320
298 298 298 297 296 296 296 296 296 297 297 296 296 295 294 294 294 295 294 294 294 295 294 294 294 294 293 293 293 293 293 294 293 294 295 295 296 296 297 298 298 298 299 300 300 300 300 299 299 298 298 298 297 297 298 300 303 308 314 319 320 319 320
297 297 297 296 296 295 296 296 296 296 295 295 297 295 295 294 294 294 294 294 294 294 294 294 295 294 293 293 293 293 293 293 293 293 294 294 294 295 296 297 297 298 300 302 300 300 300 299 297 296 296 296 296 296 296 297 299 303 308 314 318 320 319
295 295 295 295 295 295 295 295 295 295 295 294 294 296 294 294 294 293 293 293 293 293 293 295 296 294 294 293 293 293 293 293 293 293 293 293 293 294 295 296 298 300 299 299 299 298 297 296 297 296 295 295 294 294 295 295 296 299 304 308 314 318 317
294 294 294 294 295 295 295 295 294 294 294 294 294 294 293 293 293 293 293 292 292 293 293 295 294 292 292 293 293 293 292 292 293 293 293 292 292 293 294 295 296 298 298 299 298 297 296 295 294 294 294 295 296 294 294 294 295 298 300 304 310 315 317
293 293 293 293 294 294 294 294 294 293 293 293 293 293 292 292 292 292 292 292 292 292 292 294 291 292 292 291 293 293 293 292 292 293 293 292 292 293 293 294 295 296 296 298 298 296 296 295 293 293 293 293 293 294 294 295 295 296 298 301 305 311 316
292 292 292 292 293 293 293 293 293 293 293 294 292 292 291 291 291 291 292 291 291 292 292 293 291 292 292 291 291 293 293 292 292 292 292 292 292 292 293 293 294 295 296 299 298 295 294 294 294 293 293 294 294 294 293 293 294 297 299 298 300 304 311
291 291 291 291 291 292 291 291 291 292 293 292 291 291 291 291 291 291 291 291 291 292 291 293 291 291 291 291 291 292 292 292 292 292 292 292 292 292 292 292 292 293 294 295 294 294 293 292 292 292 293 293 294 295 295 295 294 294 297 299 301 303 309
291 290 290 290 290 290 290 290 291 292 291 290 290 290 290 290 291 292 290 290 290 291 291 292 291 291 291 291 291 292 292 292 292 292 292 292 292 292 292 292 293 293 293 293 294 293 292 291 291 291 292 293 294 294 295 296 298 299 300 302 305 307 309
289 289 290 290 290 289 289 289 289 291 292 290 290 290 291 291 290 290 290 290 290 290 291 291 291 291 291 290 291 293 292 291 291 291 291 292 292 292 292 292 293 292 292 292 293 291 291 291 291 291 291 292 293 294 295 297 296 296 298 300 301 303 308
290 289 289 289 289 289 289 289 289 292 289 289 289 289 290 290 290 289 290 290 289 290 290 291 291 291 291 291 292 292 291 291 291 291 291 291 292 292 292 293 293 292 291 291 292 290 290 291 290 290 290 291 292 292 294 296 296 295 295 295 295 295 296
290 289 288 289 288 288 288 288 289 291 288 288 289 288 290 289 289 290 289 289 291 290 289 291 291 291 291 291 292 291 291 291 290 290 290 291 292 291 292 295 295 292 291 291 290 289 289 291 290 290 290 290 290 291 292 294 295 296 295 295 296 296 296
288 288 289 288 289 289 289 290 290 288 288 288 289 288 292 288 288 289 289 290 293 290 288 291 291 290 291 291 292 292 291 291 290 290 290 290 291 291 291 292 293 292 292 291 289 289 289 290 290 290 290 290 289 289 291 293 293 293 295 296 299 303 304
289 289 288 288 288 289 291 288 288 288 288 287 288 288 288 288 287 288 288 288 289 289 289 290 292 290 291 291 291 292 291 290 289 289 289 289 289 289 290 290 291 290 290 289 289 289 289 289 290 290 291 289 288 288 291 291 293 294 295 297 298 301 305
290 289 288 289 291 290 288 287 288 288 288 288 287 287 287 288 288 288 288 288 288 288 290 290 291 291 291 291 291 291 291 290 290 290 289 289 288 288 289 289 290 291 289 289 289 289 289 289 290 291 290 289 289 290 291 292 295 296 298 299 299 301 306
290 291 291 290 288 288 288 288 289 287 287 287 287 287 287 288 287 287 288 288 289 288 290 292 291 291 290 290 290 291 291 291 291 291 289 289 289 289 289 289 290 291 289 289 289 289 289 289 289 291 289 288 289 289 291 295 296 297 300 300 301 304 308
291 292 291 290 288 288 287 287 287 288 287 287 287 287 287 287 287 287 288 288 288 288 288 290 291 291 291 290 290 290 290 290 290 291 289 288 289 289 290 290 291 291 289 289 289 289 289 289 290 289 288 288 288 289 291 294 294 295 296 298 299 298 298
290 289 290 289 289 288 288 288 288 288 286 286 287 287 287 287 287 287 287 287 288 288 288 288 290 290 290 290 290 290 290 289 290 291 291 289 290 290 290 290 290 289 289 289 289 289 289 289 289 288 288 288 289 290 291 291 292 293 293 293 295 295 295

ECMWFFLT1_sfc_thetae_093.txt.gz
Theta_e
323 321 322 323 325 325 324 324 325 323 322 320 319 319 321 322 322 323 324 323 322 323 323 321 321 322 323 325 327 328 331 331 331 328 327 328 325 326 332 332 331 332 332 332 329 323 319 316 321 330 334 334 334 334 333 332 333 332 332 334 333 333 333
323 322 321 321 321 322 321 321 320 319 319 318 316 316 318 318 319 320 319 318 320 319 317 317 318 318 318 320 321 321 322 324 326 327 327 326 327 326 327 328 329 330 331 331 330 330 323 320 320 322 324 330 334 334 334 333 333 335 334 333 333 334 334
321 321 320 318 318 319 317 317 317 316 316 315 316 316 316 317 317 317 317 316 317 317 316 314 315 316 316 317 318 319 320 320 321 321 320 324 326 327 328 326 325 326 326 326 328 327 326 323 318 319 323 324 322 329 335 333 332 334 335 333 333 333 334
318 317 316 315 315 315 315 314 314 314 314 314 315 314 314 315 315 315 314 313 313 314 312 313 313 313 314 315 317 317 317 317 318 318 318 321 323 323 324 325 323 323 320 321 323 325 323 320 320 321 323 324 324 324 330 334 335 334 335 334 331 331 334
315 314 313 312 312 312 312 312 312 312 312 312 312 311 311 312 313 311 311 310 309 309 309 309 309 309 310 312 313 314 314 315 315 314 315 316 317 318 320 323 324 325 324 324 324 324 322 322 322 320 321 324 325 325 328 335 335 333 334 333 333 332 333
313 312 311 310 311 310 310 310 310 309 309 309 308 309 309 310 310 308 308 307 307 307 308 307 307 308 308 310 310 310 310 311 312 311 311 312 313 314 315 318 320 321 322 325 325 324 324 324 322 320 322 325 321 323 327 330 330 333 334 333 332 332 333
311 311 310 309 309 309 309 308 308 307 307 307 307 307 308 309 309 308 307 307 306 306 307 306 306 307 307 307 308 307 307 307 308 308 308 309 309 311 311 312 315 316 318 322 323 324 323 322 321 321 321 323 325 323 325 326 329 327 330 332 332 332 333
310 309 308 309 308 308 308 307 307 307 306 306 306 307 308 308 307 307 306 306 305 306 306 305 305 306 306 306 307 307 307 306 306 306 306 306 306 306 307 308 310 312 315 318 320 322 322 322 322 321 320 316 320 323 324 326 327 326 325 330 332 332 332
310 309 308 308 307 307 307 306 306 306 306 306 306 306 307 307 306 305 305 305 305 305 305 305 304 304 305 305 305 305 305 306 305 306 305 306 306 306 306 307 307 308 311 313 315 317 317 318 319 322 321 320 316 314 321 321 323 323 329 327 331 333 333
308 307 306 307 307 307 307 306 305 305 306 306 305 306 306 306 305 305 304 304 304 304 304 304 303 304 304 304 304 304 303 304 305 305 305 305 306 306 306 306 305 306 308 310 311 312 314 316 317 319 321 318 319 315 314 316 320 321 325 329 326 329 332
307 307 307 306 307 306 306 306 305 304 304 305 305 306 306 305 304 305 304 303 303 303 303 303 303 303 303 303 303 303 303 304 304 305 306 305 305 306 306 306 306 306 308 308 308 310 312 313 314 315 316 319 321 317 317 315 318 324 324 330 329 328 333
307 307 306 306 306 305 305 304 304 304 305 305 305 305 304 304 304 303 303 303 302 302 303 302 303 303 303 302 302 302 303 303 303 303 304 304 304 305 305 305 306 306 307 307 308 309 311 311 312 313 315 317 318 320 318 318 314 323 328 324 329 332 332
307 306 306 306 305 304 304 304 304 304 304 305 304 304 303 303 303 302 302 302 302 302 301 302 302 302 302 302 302 301 301 301 301 302 303 303 303 304 305 304 305 305 306 306 307 308 309 311 313 313 314 315 316 316 317 315 314 317 329 328 330 331 332
306 306 306 305 305 304 304 304 303 304 304 303 303 302 302 302 302 302 301 301 301 301 301 301 301 301 301 301 301 301 301 301 300 301 301 302 303 304 304 303 304 305 306 305 306 307 308 309 310 309 310 310 309 310 311 311 309 311 319 330 330 329 331
305 305 304 304 304 303 303 303 303 303 303 303 303 302 301 302 302 301 301 300 300 300 300 300 300 300 300 300 300 300 300 300 300 300 301 300 301 303 303 302 302 303 304 303 304 305 306 306 306 306 307 307 306 307 309 308 308 308 310 316 323 330 330
304 304 303 303 303 303 303 303 303 302 301 301 302 302 301 301 301 300 300 300 300 300 300 300 300 300 299 299 299 300 300 300 300 300 300 300 300 301 301 301 301 302 302 302 303 304 305 304 304 304 304 305 304 305 305 306 305 304 305 308 314 319 326
303 303 302 302 302 303 303 302 302 301 301 301 300 301 301 300 300 300 299 299 299 299 299 299 299 300 299 299 299 299 300 300 300 300 300 300 300 300 300 300 300 301 301 300 301 302 303 303 302 302 303 303 304 303 303 303 303 302 304 305 310 313 319
303 302 302 302 302 302 302 302 302 301 301 300 300 300 300 301 300 299 299 299 299 299 300 299 299 298 299 299 299 299 300 300 300 300 300 300 301 300 300 300 300 300 300 299 301 300 301 301 301 301 300 301 301 301 302 301 301 302 302 302 305 311 316
302 302 302 302 302 302 302 301 301 301 300 300 300 300 300 299 299 298 298 299 299 299 299 299 298 298 298 299 299 299 299 300 300 300 300 300 300 300 300 299 300 299 299 299 299 299 299 299 299 299 299 299 299 299 299 300 301 301 300 301 304 305 311
302 302 302 302 302 301 301 301 300 300 300 299 299 299 299 299 299 299 298 299 299 299 298 298 298 298 298 298 298 298 298 299 299 300 300 299 300 300 300 300 300 299 299 299 299 299 298 298 298 298 298 298 298 297 298 299 299 300 300 300 301 305 308
302 301 302 301 301 301 300 300 300 300 300 299 299 298 298 298 299 299 299 299 299 299 299 298 298 297 297 298 298 298 298 298 298 299 299 299 299 299 299 299 300 300 300 300 299 299 299 297 297 297 297 297 297 296 296 296 297 298 299 299 300 301 305
302 302 301 301 301 300 300 300 300 299 299 299 299 299 299 298 298 298 298 298 298 299 298 297 297 296 296 297 298 298 298 298 298 298 298 298 299 299 299 299 300 300 300 301 299 299 299 298 297 295 296 296 296 295 295 296 296 296 297 299 299 302 303
301 302 301 301 300 300 300 300 300 299 298 299 299 299 299 298 298 297 297 298 298 298 298 297 295 294 294 295 297 298 298 298 298 298 298 298 298 298 298 298 299 299 298 298 298 297 296 296 296 296 295 295 294 294 294 294 295 296 296 296 298 300 301
301 301 301 301 300 300 299 300 299 299 299 299 299 299 298 298 297 298 297 297 297 298 297 296 292 292 292 292 296 298 298 298 299 298 298 297 297 297 298 298 298 298 298 298 298 296 295 294 293 293 294 294 295 294 294 293 294 295 295 296 297 298 299
301 301 301 300 300 300 300 299 299 299 299 299 299 299 298 298 297 298 298 297 297 297 298 294 291 292 292 291 293 296 299 298 298 298 298 297 297 297 296 296 297 297 297 297 297 296 295 294 293 292 292 292 293 293 293 294 294 294 294 295 295 296 298
300 300 300 300 300 300 299 298 298 298 298 299 299 298 297 297 297 297 297 297 297 297 297 293 291 291 291 291 291 294 298 298 297 297 297 297 297 296 296 295 295 296 296 298 298 295 294 294 294 293 293 294 294 294 293 292 293 296 296 295 295 295 297
300 300 300 300 299 298 298 298 299 299 298 298 298 297 297 297 297 297 297 297 297 297 297 293 291 291 291 291 291 293 299 298 298 298 297 297 296 296 295 294 294 294 295 295 295 294 293 293 293 293 294 295 296 296 295 294 294 293 295 296 296 295 298
300 300 300 299 299 298 298 298 298 298 298 297 297 297 296 296 296 297 297 297 297 296 297 292 291 291 291 291 291 294 298 298 297 298 297 297 297 296 296 295 295 294 294 295 295 293 292 292 292 292 293 294 295 296 297 297 298 298 298 298 297 297 298
300 299 299 298 298 297 298 298 298 298 298 298 298 297 297 297 296 296 296 297 297 296 297 292 291 291 291 290 292 297 297 297 296 296 296 297 297 296 296 295 295 294 294 294 294 291 291 293 293 292 292 293 293 294 296 296 295 294 296 296 297 297 298
299 298 298 298 297 298 297 298 298 299 298 297 297 297 297 296 296 296 296 296 296 296 297 294 291 291 291 290 293 297 297 296 296 295 295 296 296 296 296 296 295 294 294 295 293 290 290 291 292 291 291 291 292 293 293 296 294 293 292 292 292 292 292
298 298 298 297 297 298 299 299 298 299 297 297 296 297 297 296 296 296 296 296 296 296 297 296 291 291 291 290 293 296 296 295 295 295 295 296 296 296 296 295 297 295 294 294 291 290 290 292 292 291 291 290 290 290 291 293 293 293 293 293 293 293 292
299 298 298 298 299 298 298 298 298 299 298 298 298 298 297 296 296 296 296 296 295 296 297 296 293 291 290 291 293 296 295 295 294 294 294 295 296 296 295 296 295 295 294 292 289 290 289 292 292 291 291 290 289 288 290 291 290 291 293 294 296 298 299
300 299 298 299 300 299 299 299 299 299 298 298 297 298 297 297 296 296 296 296 297 297 296 297 296 291 291 291 291 295 296 294 293 294 294 294 294 295 295 295 295 292 290 290 289 289 289 290 292 292 291 289 287 287 290 290 292 292 292 293 294 297 299
300 300 301 300 300 300 300 299 299 299 298 298 298 298 298 298 297 296 296 297 296 297 297 296 296 291 291 291 290 292 296 295 294 294 294 294 294 293 294 294 295 293 290 289 289 289 290 290 290 293 292 289 288 288 289 290 291 292 291 292 294 296 298
302 301 301 301 300 299 300 300 300 299 298 298 298 298 298 297 297 296 297 296 297 297 297 295 295 293 291 290 290 290 294 295 294 295 294 294 294 294 294 294 294 292 290 289 289 290 290 290 290 293 291 289 288 288 290 291 291 291 291 291 293 294 296
301 302 301 301 300 299 300 300 300 300 299 298 298 297 297 297 297 296 296 296 296 297 297 297 293 294 291 290 290 290 289 292 290 295 295 294 294 294 295 295 294 292 289 289 290 290 290 290 292 292 289 289 288 288 290 291 290 290 290 290 291 291 294
302 302 301 301 300 300 299 300 299 299 299 298 297 297 296 297 296 295 294 294 295 296 297 297 295 292 293 290 290 290 289 289 290 293 296 295 295 295 294 294 293 289 289 289 290 290 290 291 291 289 289 289 289 290 290 289 288 288 288 288 289 289 291

ECMWFFLT1_sfc_thetae_096.txt.gz
Theta_e
330 328 329 328 329 328 328 327 327 325 325 325 326 325 325 324 324 325 325 325 325 327 324 324 322 323 324 326 328 328 328 328 327 324 323 325 323 325 329 329 330 332 332 331 331 324 323 321 323 330 332 334 335 336 336 337 338 339 339 340 339 338 337
328 327 327 327 326 327 326 325 325 324 324 324 323 323 323 322 323 323 323 322 322 323 322 324 324 324 324 324 324 323 324 324 325 325 323 322 323 322 323 325 325 325 327 329 330 329 325 322 322 323 324 330 333 333 336 338 339 340 340 339 339 340 338
327 326 326 325 326 326 323 323 322 321 321 321 320 320 321 320 319 320 320 320 320 319 319 320 320 319 320 322 323 322 322 322 324 323 321 322 323 323 322 321 320 321 322 323 324 324 326 327 322 321 323 323 322 327 332 334 337 338 339 340 341 339 338
325 325 323 323 322 323 321 320 320 319 319 318 318 317 317 317 317 317 316 316 317 317 316 316 316 316 317 319 320 320 321 320 320 319 319 320 319 319 320 320 319 319 318 317 318 320 321 320 320 322 323 323 323 324 329 334 334 335 336 339 339 339 340
323 322 322 320 320 319 319 318 317 318 317 316 316 315 315 316 316 315 316 315 315 315 314 315 316 315 316 317 317 317 317 317 316 315 316 314 314 314 316 316 316 318 319 319 320 320 318 318 319 319 320 323 324 324 328 332 333 334 335 336 338 339 340
321 320 319 318 317 317 316 317 317 314 314 313 313 313 314 314 314 314 314 313 313 314 314 314 315 315 315 315 315 316 316 315 313 313 312 312 312 311 311 313 314 316 316 318 318 318 319 318 317 316 318 320 318 321 326 328 328 331 333 335 337 339 340
318 318 317 316 316 316 315 314 314 313 312 312 312 312 313 313 312 313 313 313 312 313 313 313 314 314 314 313 314 314 314 313 313 313 313 312 312 312 312 311 312 313 314 314 315 315 315 315 315 315 313 314 317 317 321 324 327 326 329 333 335 337 339
316 315 315 315 315 314 314 313 314 313 312 312 312 313 313 312 312 312 312 312 311 312 312 312 313 313 314 313 313 313 313 313 313 313 313 312 310 310 311 310 310 311 311 312 312 313 313 313 313 314 314 311 311 314 315 320 323 325 326 330 333 333 337
315 315 314 314 313 313 314 313 312 313 312 312 313 312 312 312 311 311 311 311 311 311 311 311 311 311 312 312 311 312 311 312 312 313 312 312 311 311 311 311 310 310 312 311 312 312 312 313 313 314 314 313 309 307 312 313 317 321 327 326 331 333 334
314 313 312 312 313 314 313 313 311 312 313 312 312 312 311 311 310 310 310 310 310 310 310 311 310 310 311 311 311 310 309 311 312 311 311 311 311 311 310 311 310 310 311 312 312 311 312 312 313 313 314 313 312 309 308 307 310 313 320 326 324 329 336
313 312 312 312 312 312 312 312 312 311 311 311 311 311 311 310 310 309 309 309 309 309 309 310 310 310 310 309 310 309 309 310 310 310 310 310 311 311 310 310 310 310 311 312 310 311 311 312 312 312 312 312 312 309 307 304 306 311 315 320 321 323 330
312 312 312 312 312 311 310 311 310 310 310 310 310 310 309 309 309 308 308 308 308 308 308 308 309 309 309 308 309 308 309 309 308 308 309 310 310 310 310 309 310 309 310 310 311 312 312 311 310 310 310 311 311 311 309 307 304 309 314 313 318 322 322
311 311 311 311 310 310 309 309 309 309 309 308 308 308 308 307 307 307 307 307 307 307 307 307 308 308 308 308 308 307 308 308 307 307 308 309 309 309 308 308 308 308 308 308 309 309 309 310 309 308 309 309 309 310 309 307 304 305 312 312 313 315 317
310 310 310 310 309 309 308 309 308 308 308 307 307 307 307 307 307 307 307 307 306 306 306 307 307 307 307 307 307 308 307 307 306 307 308 307 308 308 308 307 307 307 308 306 307 307 307 308 308 308 308 307 307 308 307 306 303 304 308 312 311 311 315
310 309 309 308 307 307 307 307 308 308 307 307 307 306 306 307 306 306 306 305 306 306 305 306 306 307 306 306 306 307 307 306 306 306 306 306 307 308 308 307 306 306 307 305 306 306 306 305 305 305 305 305 305 305 307 304 303 302 302 307 308 311 312
308 309 308 307 307 306 306 307 307 307 306 306 307 307 306 306 306 306 306 306 306 305 305 305 306 305 305 305 305 306 306 306 306 306 305 305 305 306 306 306 305 305 305 304 305 305 305 304 304 303 303 304 304 304 305 305 303 301 302 303 307 308 310
308 307 307 307 307 307 306 306 306 306 306 306 305 306 306 305 305 305 305 305 305 304 304 304 304 305 305 305 305 304 305 305 305 305 305 305 305 305 305 304 304 304 304 303 303 303 303 303 302 302 302 302 302 302 303 303 303 302 302 301 305 306 308
307 307 307 306 307 306 306 306 306 305 305 305 305 305 305 305 305 305 305 304 304 304 303 303 303 303 304 305 305 304 304 305 305 305 305 305 304 305 304 304 303 303 303 302 302 301 301 301 301 301 301 301 301 301 301 302 302 302 301 301 302 305 308
306 306 306 306 306 306 306 306 305 305 305 304 305 305 305 305 304 304 304 304 304 303 303 302 302 302 303 304 305 305 305 305 305 304 304 304 304 304 304 303 303 303 302 301 301 301 300 300 300 300 300 300 300 300 300 300 301 301 301 300 301 302 306
306 306 306 305 306 305 305 305 304 304 304 304 304 304 304 304 304 304 304 304 303 302 302 301 301 301 301 302 304 304 305 304 304 305 305 304 304 304 303 303 303 302 301 300 299 299 299 299 299 299 300 299 300 299 299 299 300 300 300 300 301 303 304
305 305 305 305 305 304 304 304 304 305 305 304 304 303 303 303 304 304 304 304 303 303 301 300 299 299 300 301 302 304 304 304 304 304 305 304 304 303 303 303 302 302 301 300 299 299 299 297 297 297 298 298 298 298 298 298 299 299 299 299 300 300 302
305 305 304 304 304 304 304 304 304 304 304 304 305 303 303 304 303 303 304 304 303 302 300 299 298 297 298 299 301 303 304 304 304 303 303 303 303 302 302 302 302 302 301 301 299 299 298 297 297 296 297 298 298 297 297 297 297 297 297 297 298 300 300
304 304 304 303 303 304 304 304 304 304 304 304 304 304 303 304 303 303 303 303 303 301 299 299 296 293 294 297 301 303 304 304 303 303 302 302 302 302 302 302 302 300 300 299 299 297 296 296 296 297 297 297 297 296 295 295 295 296 296 295 296 297 297
303 303 303 303 303 303 303 304 303 303 303 303 303 303 303 303 303 303 303 303 302 301 298 297 292 291 292 292 298 302 303 303 303 303 302 301 301 300 301 301 301 301 300 299 299 296 295 295 294 294 294 295 296 296 295 294 295 296 295 295 295 296 295
301 302 302 302 302 302 303 302 302 303 303 303 303 303 303 302 303 303 303 302 301 300 299 294 291 291 292 291 293 300 304 303 303 302 301 301 300 300 300 300 300 300 300 299 299 299 297 295 294 294 293 294 294 294 294 296 296 295 295 294 294 294 295
301 301 301 302 302 302 302 302 302 302 302 303 303 302 302 302 302 303 303 302 301 299 298 293 291 291 292 291 291 295 303 302 302 301 301 301 300 300 299 298 298 299 299 299 300 298 298 297 295 295 295 296 296 296 293 292 293 297 297 295 294 294 295
301 301 302 302 302 302 302 302 302 303 303 303 302 302 302 302 302 302 302 302 301 299 297 294 291 291 291 290 291 293 303 302 301 301 301 301 300 299 299 298 297 297 298 299 299 297 296 296 296 296 297 298 298 298 296 295 294 294 296 297 296 294 297
302 302 302 302 302 302 302 302 302 302 302 302 302 301 301 301 301 301 302 302 301 300 297 292 291 291 291 291 290 294 303 302 301 301 301 301 301 300 299 298 298 297 297 298 298 295 295 295 295 296 296 297 297 298 298 298 298 298 297 297 296 296 296
302 302 301 301 301 301 302 302 302 302 302 302 302 302 301 301 301 301 301 301 301 300 298 291 291 291 291 291 291 301 301 301 300 300 300 300 301 301 300 299 298 298 298 298 296 291 292 294 295 296 296 296 296 296 297 297 295 295 296 296 296 296 296
301 301 301 301 301 301 301 302 302 302 302 302 302 301 301 300 301 300 300 300 301 300 299 294 291 291 291 290 294 301 301 300 300 300 300 300 300 300 300 299 298 298 297 298 294 290 290 292 295 295 295 294 294 295 295 297 295 293 293 292 292 292 292
301 301 301 301 301 302 302 302 302 303 302 301 300 301 301 300 301 301 300 299 299 300 299 295 291 291 291 290 293 300 299 298 299 299 300 300 300 300 299 300 298 298 296 296 291 289 290 293 295 295 294 293 292 292 293 295 295 295 294 293 293 293 292
301 301 301 302 302 301 302 302 303 303 302 302 301 301 301 301 300 301 301 300 298 299 300 297 292 291 291 291 294 299 298 298 298 299 298 298 300 299 300 299 298 296 295 294 290 290 289 292 295 294 294 292 291 290 292 293 293 293 294 295 295 296 295
302 302 302 302 303 302 303 303 303 302 302 301 301 301 301 301 300 300 301 301 300 299 299 299 297 291 291 291 291 297 299 297 296 297 298 297 297 298 299 299 298 293 290 290 290 289 290 290 294 295 294 291 290 289 292 292 294 294 294 294 294 295 295
302 302 303 302 303 303 303 303 303 302 301 302 301 301 302 301 301 300 301 301 301 300 299 299 297 291 292 291 291 292 298 297 296 297 298 297 297 297 297 297 298 294 291 290 290 290 290 290 291 296 295 292 291 291 291 293 294 294 294 294 294 294 294
304 304 303 303 303 302 303 303 303 302 302 302 302 301 302 301 300 300 301 300 301 301 300 298 299 294 291 291 291 290 296 298 296 297 297 297 297 298 297 297 298 294 291 290 290 290 290 290 290 297 295 290 290 290 293 295 294 293 293 293 293 292 292
303 304 304 304 303 302 303 303 303 303 303 302 301 301 301 301 300 299 299 300 300 301 301 300 294 297 293 291 291 291 290 294 291 297 298 297 297 297 298 298 297 294 290 290 290 290 290 290 293 295 290 290 290 290 293 294 293 293 292 292 290 289 289
303 304 304 304 303 303 302 303 302 302 302 301 300 300 299 300 299 299 298 298 300 300 301 301 296 293 296 292 292 291 290 290 290 297 298 298 297 298 298 298 296 291 290 290 290 290 290 291 294 290 290 290 291 293 295 294 293 292 291 290 289 288 288

ECMWFFLT1_sfc_thetae_099.txt.gz
Theta_e
331 329 331 331 331 330 328 327 328 326 325 324 325 325 325 325 326 326 326 326 325 326 324 323 323 323 325 326 327 326 326 326 325 323 321 323 320 322 324 324 325 325 326 327 326 322 320 318 320 326 330 332 332 332 332 331 332 333 335 338 337 338 340
330 328 328 329 328 327 325 325 325 325 324 323 322 323 323 322 322 322 322 322 322 321 321 321 321 322 322 323 322 322 323 322 324 323 321 319 320 319 318 320 321 322 322 324 323 323 318 316 316 318 320 325 328 329 331 332 331 333 333 335 336 337 338
328 328 328 326 326 325 324 323 323 322 321 321 321 320 321 320 320 321 320 320 320 319 319 319 319 319 321 321 321 321 321 320 320 319 318 317 317 317 318 318 317 317 318 318 319 319 320 319 314 314 318 318 316 321 327 327 329 330 332 332 335 336 338
326 326 325 324 324 323 323 322 321 320 320 319 320 320 320 319 319 319 319 318 318 319 318 318 318 318 319 320 320 321 320 318 317 317 317 316 316 315 315 314 314 314 314 313 314 315 315 314 314 314 316 317 317 317 322 324 324 325 326 330 331 334 336
325 323 322 321 322 321 322 320 319 319 318 318 319 318 318 318 318 317 318 317 316 317 316 318 318 318 319 317 317 318 318 318 317 317 316 314 314 313 314 314 314 314 314 313 313 313 313 312 312 312 312 315 315 316 319 321 323 323 323 325 329 332 335
323 322 321 320 320 319 319 319 318 316 317 316 316 316 316 316 316 316 316 314 315 315 316 316 316 317 318 316 315 316 316 316 315 316 314 314 313 312 311 313 314 314 313 314 313 312 313 312 312 309 311 313 311 313 316 318 318 321 322 323 325 329 331
321 321 320 319 319 319 318 317 317 316 315 316 315 315 315 315 315 315 315 315 315 314 315 315 316 316 316 313 314 314 314 316 316 316 315 315 314 314 314 312 312 312 313 314 313 313 311 310 309 308 308 310 312 311 314 315 317 316 319 322 324 326 331
319 318 318 318 318 317 316 317 317 316 315 315 313 314 315 315 314 314 314 314 313 314 314 314 314 315 315 313 312 313 313 315 315 314 313 314 313 313 314 312 312 313 313 312 313 313 312 311 310 309 308 305 307 309 310 312 313 314 315 317 320 320 323
318 318 317 317 317 317 317 316 316 316 315 314 314 314 313 314 313 312 312 312 312 313 313 313 313 313 313 313 311 312 312 314 313 312 312 313 312 313 313 313 312 312 312 311 312 312 312 312 311 311 309 307 303 301 305 306 308 309 314 314 317 319 320
317 316 315 316 316 316 316 316 314 314 315 314 313 314 313 312 312 312 312 311 311 312 313 312 312 312 312 312 311 310 311 312 312 311 311 311 312 312 312 312 311 311 310 312 311 311 312 312 311 310 310 308 306 302 300 300 303 305 308 312 310 314 317
316 316 315 315 316 316 315 315 314 313 313 313 312 312 312 312 311 311 311 310 311 311 312 312 312 311 311 310 311 311 311 311 311 311 311 311 311 311 311 311 311 310 310 310 310 311 311 311 310 309 309 309 308 304 302 300 301 305 306 309 310 309 312
316 315 315 315 315 314 313 312 312 311 312 312 312 311 311 310 310 310 310 310 310 310 310 311 311 311 311 310 310 310 310 310 310 309 310 310 310 311 310 310 310 309 309 309 309 309 310 309 308 308 308 308 308 307 304 302 299 303 307 305 307 310 310
314 314 314 314 313 312 311 311 311 310 310 311 310 311 310 309 310 310 309 309 309 309 309 309 310 310 310 310 309 309 309 309 308 308 309 309 309 310 309 308 307 307 307 307 307 308 307 308 307 306 307 306 306 306 305 302 300 300 305 305 306 307 309
313 312 312 311 311 311 311 311 310 310 310 309 310 309 309 309 309 309 309 308 307 308 308 309 309 309 309 309 309 309 309 308 308 308 309 308 308 310 308 307 306 306 307 306 306 306 306 305 305 305 305 305 304 305 304 302 300 300 303 306 306 306 308
311 311 311 310 310 310 310 309 310 310 310 309 309 308 308 309 309 309 308 307 307 307 307 307 308 309 307 308 308 308 309 308 307 307 308 307 307 308 307 306 305 306 306 305 305 304 304 303 303 303 303 303 302 303 304 302 300 299 299 302 303 306 306
310 310 310 309 309 309 309 310 310 309 308 308 309 308 308 308 308 308 307 307 307 307 307 306 307 307 307 307 307 307 308 307 307 306 306 306 305 306 306 305 305 305 305 304 304 304 304 303 303 302 302 302 302 302 303 303 300 298 298 299 302 302 304
310 310 309 309 309 309 308 308 308 308 308 308 307 308 308 307 308 308 307 306 305 305 305 305 305 306 306 306 307 307 307 307 307 307 306 305 305 305 305 304 304 304 304 303 302 302 302 302 301 301 300 301 301 301 302 302 302 300 299 298 300 301 303
309 309 309 308 309 308 308 308 308 307 307 307 307 307 307 307 307 307 306 305 304 304 303 303 303 304 305 306 307 307 307 306 307 306 306 306 305 305 304 303 303 303 302 301 301 300 300 300 299 299 299 299 300 300 301 301 301 301 299 298 299 302 303
308 308 308 308 308 308 308 307 307 307 307 306 306 306 307 307 307 306 305 305 304 303 302 302 302 302 303 304 306 307 307 307 307 306 306 306 305 305 304 303 303 303 302 300 299 299 299 299 299 299 298 298 299 300 299 300 300 300 299 298 299 299 301
307 308 307 307 308 307 307 307 306 306 306 306 306 306 306 306 307 306 305 304 302 302 301 300 300 301 302 304 306 306 307 306 306 306 306 305 305 304 304 303 303 302 301 300 299 298 298 298 298 298 299 299 299 298 298 298 298 298 298 297 298 298 299
307 307 307 307 306 306 306 306 306 307 307 306 306 306 306 306 307 306 306 304 302 302 300 299 299 300 301 303 305 306 306 306 306 305 306 305 304 304 303 303 303 302 301 300 299 299 299 298 298 297 298 298 298 297 296 296 296 296 295 296 296 296 297
307 306 306 305 306 306 306 306 306 305 306 306 306 306 306 306 306 306 305 304 302 301 300 299 298 298 299 300 303 306 306 305 305 305 304 303 304 303 303 302 303 302 301 301 301 300 300 299 298 296 297 297 297 296 296 295 295 295 295 295 295 296 296
305 306 305 305 305 305 305 305 305 304 304 305 306 306 306 307 306 305 304 303 302 300 299 299 296 293 294 297 300 304 306 306 305 304 303 303 302 302 302 302 303 302 303 302 300 298 296 296 297 297 297 297 296 296 295 295 295 295 294 294 294 294 293
305 304 304 304 304 304 304 304 304 304 305 305 306 306 306 306 306 305 303 301 300 300 298 297 293 292 292 292 298 302 305 304 304 303 303 302 301 301 301 301 301 302 301 300 300 297 296 295 295 295 295 296 297 297 296 295 295 295 294 294 294 294 294
303 303 303 303 303 303 303 303 303 304 305 305 305 306 305 306 306 306 304 301 300 299 298 294 291 292 292 291 293 299 305 304 304 303 302 302 302 301 301 300 301 301 301 300 300 299 297 296 295 294 294 294 294 294 294 297 296 294 294 293 293 294 294
303 303 303 302 302 302 302 303 303 304 304 305 306 305 305 305 305 306 304 301 299 298 298 293 291 292 292 291 291 295 304 304 303 302 302 302 302 301 301 300 300 300 300 301 300 298 297 297 296 295 296 297 297 296 294 293 294 297 297 295 294 293 294
302 302 302 303 303 303 303 303 304 305 304 305 304 304 304 304 305 305 305 302 299 298 296 294 291 291 292 290 291 293 305 304 304 303 302 302 302 301 301 299 299 299 300 300 299 296 296 296 296 298 298 298 298 298 296 296 295 295 296 296 295 293 295
302 303 303 303 304 304 304 304 303 303 304 303 303 303 303 303 303 304 305 303 301 298 297 292 291 291 291 291 290 295 304 304 303 303 303 302 302 301 301 300 299 299 298 299 298 296 295 295 296 297 297 297 298 298 298 298 299 298 298 297 297 296 296
303 303 303 303 303 303 303 303 303 304 304 303 304 303 303 303 302 303 304 304 302 299 296 291 291 291 291 291 291 303 302 303 302 302 302 301 302 301 301 300 299 298 298 298 296 292 292 294 296 297 296 296 296 297 298 298 296 296 298 297 297 297 296
303 303 303 303 303 303 303 303 303 304 303 303 303 302 303 303 303 302 302 303 303 300 297 294 291 291 291 291 294 302 301 301 301 301 302 300 301 301 301 300 299 297 297 297 294 290 291 292 296 296 296 295 296 296 296 298 296 295 294 294 293 293 293
303 303 303 302 302 303 303 304 304 304 303 302 302 303 303 303 303 302 300 300 302 301 298 295 291 291 291 291 294 301 300 299 300 300 301 301 301 301 300 299 299 298 296 296 292 290 291 294 295 295 295 295 294 295 295 297 297 297 295 295 295 294 294
303 303 303 303 304 303 304 304 304 305 303 303 303 302 302 302 302 303 302 300 300 301 300 297 292 291 291 291 295 300 299 298 299 299 300 299 300 301 300 301 298 297 297 295 291 291 290 293 296 295 296 295 294 294 295 295 295 296 297 297 297 297 296
304 304 303 304 304 304 304 305 304 304 303 303 303 303 302 302 302 302 303 302 300 300 300 299 297 291 292 292 292 298 300 297 296 298 299 299 298 300 299 300 299 293 291 291 291 290 290 290 294 296 297 295 294 293 296 296 297 296 296 296 296 296 296
304 304 304 304 305 304 305 304 304 303 302 303 303 303 303 303 303 302 302 303 303 302 301 301 300 291 293 292 292 293 299 298 297 297 298 298 298 298 298 298 300 295 292 291 291 290 291 290 291 296 297 296 296 296 293 296 296 296 295 295 295 295 295
305 305 305 305 305 304 305 305 305 304 303 303 303 303 303 302 302 302 303 302 303 303 301 301 302 294 292 292 292 291 297 298 297 297 297 298 298 298 298 298 298 295 292 291 291 291 290 291 290 296 298 292 290 289 294 297 296 296 295 294 294 294 293
305 305 305 305 304 303 304 304 304 304 304 304 303 303 302 302 302 301 301 301 302 303 303 300 295 299 293 292 292 292 290 294 293 299 297 297 297 297 299 299 298 296 292 291 291 290 291 290 292 296 291 290 290 289 292 296 295 295 294 294 293 292 291
305 306 305 305 305 305 304 304 304 304 304 303 302 301 301 301 301 300 299 300 302 302 303 303 295 294 297 292 292 291 291 290 290 297 298 298 298 297 297 298 297 292 291 290 290 290 290 291 295 291 290 290 290 292 297 295 295 294 294 293 291 290 290

ECMWFFLT1_sfc_thetae_105.txt.gz
Theta_e
324 322 323 323 324 322 319 317 316 316 317 317 316 315 315 316 316 314 314 314 314 315 316 313 314 314 314 316 315 313 313 313 311 308 306 307 306 306 310 309 309 310 309 308 307 303 302 300 302 306 307 307 308 309 309 310 309 310 311 313 315 315 322
324 323 324 323 322 322 319 318 317 316 315 315 315 315 313 314 316 314 312 312 313 314 316 313 313 313 312 312 312 311 310 311 311 310 307 306 306 306 305 306 306 306 306 307 306 305 303 300 300 301 302 305 305 306 308 308 308 309 310 309 314 311 312
324 323 323 321 320 319 316 315 315 314 314 313 313 313 313 313 312 313 312 311 311 314 315 311 311 311 310 311 311 311 311 310 309 309 308 306 307 307 306 306 305 305 304 303 303 304 305 304 300 300 301 300 299 302 306 306 307 308 307 308 308 308 309
322 322 320 319 318 317 314 313 313 313 312 311 311 311 311 312 311 313 311 311 312 314 312 309 309 309 309 309 310 310 309 308 309 308 308 308 307 306 306 305 304 303 301 300 301 302 302 300 299 299 300 300 300 299 302 305 306 305 306 307 305 306 307
322 321 320 318 317 314 313 313 313 311 310 311 310 308 309 310 311 309 310 309 310 309 309 309 309 309 308 309 308 309 308 307 308 309 306 306 306 305 305 305 304 304 303 302 302 302 301 300 299 298 298 299 299 300 302 302 304 303 304 304 305 305 305
320 318 316 317 317 314 313 311 310 309 308 308 308 308 307 308 309 308 308 307 307 309 309 309 308 308 307 307 308 308 307 306 306 306 305 305 305 304 304 305 303 303 303 304 304 302 302 302 300 297 298 299 296 297 299 300 299 301 303 302 303 303 304
316 315 314 314 313 313 312 311 309 308 307 307 307 307 307 308 307 308 308 308 308 308 309 309 308 309 307 307 307 306 306 306 306 305 305 306 305 305 304 304 302 301 302 304 303 303 302 300 297 297 296 297 297 296 298 298 300 298 299 302 303 303 303
314 313 314 314 312 311 310 309 308 308 306 306 306 307 309 307 307 307 308 307 307 307 307 307 308 307 307 306 307 306 307 306 305 306 304 304 305 304 302 303 303 301 302 303 302 302 301 299 298 297 296 293 294 295 295 297 297 297 297 300 302 302 302
315 313 313 313 312 311 310 309 308 307 307 306 307 306 307 307 306 306 306 306 306 306 307 306 306 306 306 306 304 304 305 310 305 304 304 304 304 303 302 302 301 301 302 302 302 300 299 299 298 298 297 295 292 289 292 292 293 294 298 297 299 300 301
313 312 310 310 310 310 309 308 307 307 307 307 308 307 306 306 306 306 305 305 305 306 306 306 306 305 305 305 304 303 304 304 306 304 304 303 303 303 302 302 301 301 300 301 300 300 299 298 298 297 297 295 294 291 289 289 290 291 295 297 295 298 300
311 311 310 310 310 309 308 308 307 306 305 307 308 309 305 305 306 308 304 304 304 305 305 305 305 305 304 304 304 303 304 304 303 303 304 303 302 303 302 301 300 300 300 299 299 299 298 297 297 297 297 296 296 292 291 289 289 293 293 296 297 296 299
312 312 310 309 307 307 306 306 306 305 306 307 307 305 305 304 304 304 304 303 303 303 304 304 305 304 304 303 304 302 303 303 302 301 302 303 303 302 300 299 299 299 298 297 298 297 297 297 296 297 296 296 296 294 292 292 289 293 295 293 296 298 297
310 309 308 306 306 305 306 305 305 305 305 307 305 304 303 303 303 302 302 302 302 302 302 303 303 303 303 302 302 303 302 302 302 301 301 302 303 301 299 298 298 298 298 297 296 296 296 297 297 296 295 295 294 294 294 292 290 290 295 295 295 296 298
307 307 306 306 305 305 306 306 304 305 305 304 304 303 303 302 302 302 301 301 300 300 300 300 301 302 302 301 302 302 301 302 301 300 301 300 301 300 299 298 298 298 297 296 295 296 296 296 296 295 296 294 294 294 293 292 291 291 294 296 296 296 297
306 306 305 304 305 304 304 304 305 304 303 303 303 304 303 302 301 300 299 298 298 298 299 299 299 300 301 301 301 304 303 301 300 299 299 299 299 300 298 297 297 297 297 295 295 295 295 295 295 294 294 294 293 294 295 293 292 292 291 294 295 297 297
306 305 304 303 303 304 304 303 304 302 302 303 304 303 302 301 300 299 298 297 297 297 298 298 298 299 300 301 300 300 302 300 300 299 298 298 298 298 297 297 296 296 298 295 295 295 295 294 295 294 293 294 293 293 294 294 293 291 291 292 295 295 296
304 303 303 303 302 303 303 303 304 302 302 303 302 302 301 300 299 298 297 297 296 296 297 297 297 298 298 299 300 300 300 300 299 299 298 298 297 297 296 295 295 295 296 294 294 294 294 294 293 293 293 293 293 293 294 294 294 293 293 292 293 294 296
303 303 302 302 302 302 302 302 303 302 302 302 302 301 300 299 297 297 297 296 296 295 295 295 295 296 297 297 298 299 300 299 299 299 298 298 302 296 297 295 295 295 295 294 293 293 293 292 293 293 292 292 293 293 294 294 294 294 293 292 292 294 295
302 302 302 301 301 302 302 302 301 302 302 301 301 300 299 298 298 296 296 296 296 295 294 294 294 294 295 295 297 298 300 299 299 298 297 297 297 298 296 296 296 296 295 293 292 292 292 292 292 292 292 292 292 293 292 293 294 294 293 292 292 292 293
302 302 301 301 302 302 301 301 302 302 303 302 301 300 299 298 298 296 296 296 295 294 294 293 292 292 293 294 295 297 299 298 298 299 297 297 297 297 296 296 296 296 294 293 292 292 291 291 292 291 292 292 292 292 292 292 293 293 292 291 292 292 292
302 301 301 301 301 301 301 301 301 302 302 301 301 300 298 298 297 297 296 295 295 295 293 292 292 292 292 293 294 296 297 299 298 297 298 298 298 296 297 297 296 296 294 294 293 292 292 292 292 291 291 292 292 292 291 292 292 292 291 291 290 290 291
301 302 301 301 300 300 300 300 301 302 302 302 302 299 298 297 296 295 295 294 293 293 293 293 293 292 291 292 293 294 296 297 298 297 296 297 296 296 295 296 296 298 301 300 299 298 297 297 293 291 291 292 293 292 291 291 292 291 290 290 290 291 290
300 300 300 300 300 300 300 300 300 301 301 301 299 298 297 296 295 294 294 293 292 293 292 293 294 294 294 292 292 294 295 297 297 296 296 296 295 295 295 294 299 302 302 300 298 296 295 295 296 295 293 292 292 292 292 291 291 291 290 289 289 289 289
300 299 299 299 299 300 300 300 300 300 300 300 299 298 296 295 294 293 292 291 291 292 292 293 293 292 292 294 294 293 294 296 297 296 295 295 295 295 295 295 294 299 299 299 296 295 294 294 293 294 294 295 297 294 292 291 291 291 291 290 290 289 289
299 299 299 299 299 299 299 299 299 299 300 300 300 298 296 295 294 292 292 290 290 291 291 294 291 292 292 292 294 294 293 296 298 296 295 294 295 295 294 295 295 297 296 297 294 292 294 294 293 293 293 293 294 294 294 293 292 291 291 290 289 289 289
298 297 298 298 299 299 299 299 299 299 299 300 299 298 295 294 293 292 291 290 289 290 290 293 291 292 292 292 293 295 296 297 296 296 294 293 294 294 295 295 294 295 295 299 298 292 291 291 294 294 294 295 294 295 293 292 293 294 293 291 290 290 290
297 297 298 298 298 298 298 298 298 299 299 298 298 298 296 295 294 292 291 290 289 290 290 292 292 292 292 292 293 295 295 296 296 296 296 294 294 294 294 293 293 292 291 293 292 292 291 290 290 291 291 291 291 293 294 293 293 294 295 293 291 290 292
297 297 297 297 297 298 298 298 298 298 298 297 296 297 297 295 294 293 291 290 290 290 291 292 291 292 292 292 293 295 294 295 295 295 295 295 294 295 294 295 292 291 291 291 294 294 292 290 290 291 290 291 291 291 292 292 293 294 294 294 292 292 293
296 296 297 297 297 297 297 297 296 297 296 295 295 295 296 297 294 292 291 290 289 289 290 291 291 292 292 292 293 295 293 293 293 293 294 295 295 295 294 293 292 292 291 291 295 293 293 292 291 290 290 290 290 291 292 295 294 294 295 293 293 293 293
296 297 297 297 297 296 296 296 296 297 295 295 294 293 293 295 295 293 292 291 289 288 288 291 291 291 291 292 293 293 292 292 292 292 292 293 294 295 295 293 293 292 291 291 294 291 291 293 291 290 289 289 290 290 291 293 294 293 293 293 293 293 292
297 297 297 296 296 296 296 297 297 298 295 294 293 293 293 293 294 294 292 291 291 289 289 291 291 291 291 292 293 291 291 291 290 291 291 293 293 293 296 303 302 294 292 293 293 291 292 293 290 290 289 288 288 289 290 291 292 293 293 293 293 293 292
298 297 297 296 297 296 297 297 298 297 296 296 295 294 295 293 292 292 293 293 299 292 289 292 292 291 291 292 293 291 292 290 290 289 290 291 293 293 292 297 299 296 295 294 291 292 291 292 290 289 289 288 288 288 289 290 290 290 291 291 291 292 293
298 298 297 297 297 297 297 297 297 297 296 296 295 295 294 293 292 292 293 294 297 293 291 291 291 291 292 292 292 292 292 290 290 289 289 292 291 291 291 291 294 292 292 292 291 291 291 291 290 290 289 288 288 287 289 289 291 292 291 291 291 292 292
298 298 298 297 298 298 297 296 296 296 295 296 295 295 295 294 293 293 293 293 294 293 293 290 291 292 292 292 291 292 289 289 288 288 288 290 290 289 290 290 291 293 292 291 291 290 291 291 291 291 290 288 289 290 290 289 291 294 290 291 291 291 291
299 299 299 299 298 297 297 298 297 296 296 296 295 295 295 295 294 293 293 294 293 294 298 297 290 292 291 292 291 292 291 289 289 289 290 288 289 289 289 289 290 292 291 291 290 290 291 291 290 292 290 290 289 289 290 291 290 290 290 290 290 290 290
299 300 299 298 297 296 296 297 296 296 296 296 295 295 295 295 294 294 294 294 293 294 294 295 294 292 292 291 291 291 290 290 290 291 288 288 288 289 289 290 292 293 291 290 290 290 291 290 291 290 290 289 289 289 290 289 289 289 288 289 289 288 289
299 299 298 298 297 297 296 297 297 297 296 296 294 294 293 295 294 293 293 292 295 292 292 291 293 294 292 291 291 290 290 290 290 290 290 289 290 289 290 290 291 290 290 290 290 290 290 291 291 290 290 289 289 290 288 288 288 288 288 287 287 288 288

ECMWFFLT1_sfc_thetae_108.txt.gz
Theta_e
321 319 318 317 317 316 314 313 313 313 313 313 312 312 313 314 312 311 312 312 312 313 314 310 310 310 310 311 311 310 310 309 306 304 303 304 303 303 307 306 307 307 305 303 303 300 298 295 296 300 302 302 302 302 303 302 303 303 303 304 304 303 304
321 320 319 318 316 315 313 312 311 311 311 312 311 311 311 312 314 311 310 310 311 311 313 310 309 309 309 308 308 308 307 307 308 307 304 303 303 302 302 302 303 302 302 302 302 302 299 294 294 295 296 299 300 301 301 302 302 302 302 302 304 303 304
321 319 318 316 314 313 311 310 310 309 309 309 310 310 310 310 310 310 309 309 309 311 311 307 307 307 307 307 307 307 307 306 306 306 305 303 303 303 302 302 300 300 299 299 299 299 298 297 294 294 295 295 294 297 300 300 301 301 301 301 301 301 301
319 317 314 312 312 311 310 309 309 309 308 307 308 308 308 308 309 311 309 309 309 312 309 306 306 306 306 306 306 305 306 305 304 304 305 304 303 302 301 300 300 300 298 297 297 298 297 294 293 293 294 295 295 295 297 300 301 300 301 301 300 300 300
319 316 313 311 311 310 309 308 308 307 307 307 306 306 306 307 308 306 308 307 308 306 306 305 305 305 306 306 305 305 304 304 305 305 303 302 301 301 300 300 300 300 300 298 298 298 296 295 294 292 293 294 294 295 297 297 299 298 299 299 299 299 300
318 316 313 312 311 309 308 307 306 305 305 305 305 305 305 306 307 306 306 305 305 307 306 305 305 305 305 305 305 304 304 303 303 303 302 301 301 300 299 300 300 299 298 298 298 296 296 296 294 291 292 293 291 292 294 295 294 297 298 298 298 299 299
314 314 312 311 310 309 308 307 306 305 305 305 305 304 305 306 306 306 306 305 305 306 307 306 305 305 305 305 304 304 303 303 303 302 302 301 300 300 300 299 298 298 298 297 296 296 295 294 292 291 291 291 291 290 292 292 294 293 294 297 298 298 298
312 311 311 310 309 307 307 306 305 305 304 304 304 305 306 304 305 305 306 304 304 304 304 304 305 304 304 304 305 304 304 303 302 303 302 301 300 299 298 298 299 298 297 297 296 295 295 295 294 293 291 288 288 289 290 291 291 292 292 295 297 297 298
313 311 310 309 308 307 306 305 305 304 304 304 305 305 305 304 303 303 304 303 304 304 304 303 303 303 303 303 302 302 303 306 302 301 301 300 299 298 298 297 297 296 297 297 297 295 295 296 295 295 293 290 288 286 288 288 289 290 294 293 295 297 297
309 308 307 307 307 307 306 306 305 305 305 305 305 305 304 304 303 303 302 303 303 303 303 303 303 303 302 302 301 301 301 302 303 300 300 299 298 298 297 297 296 296 296 297 296 297 296 296 296 294 294 292 291 287 286 286 288 288 292 294 292 294 297
308 307 307 306 306 306 305 305 305 304 304 305 306 306 303 303 303 305 301 301 302 302 302 302 302 302 302 301 301 301 301 301 300 301 301 299 298 298 298 297 296 295 296 295 295 296 296 296 294 294 293 293 293 289 288 286 287 290 290 293 294 293 296
308 307 307 307 306 305 304 304 304 303 304 305 304 301 301 300 300 300 300 299 300 300 301 301 302 301 301 301 302 300 300 300 299 299 299 299 298 298 296 295 295 295 295 295 295 295 295 296 294 294 292 293 293 291 290 289 287 290 292 291 293 295 295
307 306 305 305 304 304 303 303 303 302 302 303 301 301 300 299 299 298 298 298 298 299 299 300 300 300 300 300 300 300 300 299 298 298 298 298 298 297 296 295 295 295 295 294 294 294 293 294 294 293 293 292 292 292 292 290 289 288 292 292 293 294 295
304 305 304 304 303 303 303 304 302 303 302 300 300 299 298 298 297 297 297 299 297 297 298 298 299 299 300 300 300 300 299 298 298 297 298 297 297 296 296 295 295 296 295 294 293 293 293 293 292 292 293 292 291 292 291 290 288 289 291 294 293 294 295
304 304 303 303 303 302 302 302 302 301 300 300 299 298 297 297 297 297 296 296 296 296 297 297 297 298 298 298 299 301 299 298 297 296 296 295 295 297 294 294 294 295 294 293 292 292 292 291 292 291 291 292 291 291 292 291 290 289 289 292 292 294 294
303 302 302 301 301 301 301 301 302 300 299 298 299 297 297 296 296 296 295 295 295 295 295 295 296 296 296 297 297 298 299 297 296 296 295 295 294 294 294 295 293 294 294 292 291 291 291 291 291 291 291 292 291 291 292 292 290 289 289 290 293 292 292
302 302 301 301 300 300 301 301 301 299 298 298 297 297 296 296 295 295 294 294 293 293 294 294 294 295 295 295 296 297 297 297 296 295 295 294 294 294 293 293 292 292 292 290 290 290 290 290 290 291 290 291 291 291 292 292 292 290 290 289 291 292 293
301 301 300 300 300 300 301 301 301 299 298 297 296 296 297 296 295 294 293 293 292 292 292 293 293 293 294 294 296 296 296 296 295 295 295 296 301 294 295 292 292 292 291 290 289 289 289 289 290 290 290 290 291 291 292 292 291 291 290 290 290 292 292
300 300 300 299 299 300 300 300 299 299 297 296 296 296 295 295 295 293 293 293 292 292 292 292 292 292 292 293 295 296 296 296 296 295 294 295 295 295 294 293 293 292 291 289 289 289 289 288 290 289 289 290 290 291 290 291 291 291 291 290 290 290 291
300 300 300 299 300 300 300 299 299 298 298 296 295 295 294 294 294 293 293 293 292 292 291 291 291 291 291 292 293 295 295 295 295 296 295 295 294 294 294 293 293 292 291 290 290 289 289 289 291 289 291 290 290 290 290 290 291 290 290 290 290 290 290
299 299 299 299 299 299 300 299 299 299 298 296 295 294 294 293 293 293 292 292 292 293 291 291 291 291 291 291 292 293 294 295 295 294 295 295 295 293 294 294 293 292 291 292 292 290 290 290 290 290 289 290 290 290 289 290 290 289 289 289 289 289 290
299 300 299 299 299 299 300 299 299 298 297 297 297 294 294 293 292 291 291 291 291 291 292 292 292 291 291 292 291 292 293 294 294 294 294 294 293 293 293 294 293 293 298 299 299 297 297 296 293 290 290 290 291 289 289 289 289 289 288 288 288 289 289
299 298 299 298 298 299 299 299 298 297 296 295 294 294 293 293 292 291 290 290 290 291 291 292 295 294 295 292 291 292 293 294 294 294 295 293 293 293 293 292 299 300 300 299 299 296 294 295 296 295 292 291 290 289 289 289 288 288 288 288 288 288 288
298 298 298 298 298 299 299 298 296 295 294 294 293 294 292 290 290 290 289 289 289 290 291 293 293 292 292 294 294 291 292 294 294 293 293 293 292 294 294 293 293 297 299 300 296 296 294 294 293 293 294 295 295 292 290 289 288 289 288 288 288 288 288
297 297 298 298 298 298 298 297 296 294 293 293 293 292 291 290 289 289 289 289 289 290 290 294 291 292 293 293 297 294 293 295 295 292 291 292 292 293 292 293 292 293 294 295 295 291 293 294 293 293 293 293 293 293 293 292 289 288 288 288 288 288 288
297 297 297 297 298 298 298 297 296 294 293 293 292 291 290 290 289 289 289 289 289 289 289 293 292 293 293 293 293 295 293 293 294 292 292 291 291 291 293 293 292 292 292 299 298 290 290 291 294 294 294 294 293 293 291 291 292 292 291 289 288 288 289
297 297 297 297 297 298 298 297 296 296 295 293 291 290 289 289 289 288 288 289 288 288 289 292 292 292 293 292 292 293 291 292 292 292 292 292 291 291 291 291 290 291 290 291 291 291 291 291 290 290 290 290 289 291 292 292 292 292 293 291 289 288 290
296 296 297 297 297 297 297 296 297 296 294 293 292 291 290 288 289 290 288 287 288 288 290 292 291 292 292 292 292 292 290 292 291 291 291 291 291 291 290 291 290 290 290 290 293 293 291 290 290 290 289 289 289 289 289 289 290 291 291 291 290 290 290
296 296 296 296 296 296 296 296 296 296 295 293 293 291 290 290 289 288 288 287 287 286 288 291 291 291 292 292 293 292 289 289 289 290 290 290 291 291 291 290 290 291 290 290 294 292 292 292 289 289 288 288 288 288 289 292 292 292 292 291 291 291 291
296 296 296 296 295 295 295 294 294 295 294 293 293 291 290 289 289 288 288 288 286 285 287 290 291 291 291 292 292 289 288 289 289 288 288 290 290 290 291 293 293 291 290 290 293 291 291 293 289 288 288 287 288 287 287 289 291 291 291 292 292 292 291
296 296 296 295 295 294 294 294 294 295 294 293 293 292 292 290 289 289 288 287 288 288 287 291 291 291 291 292 292 288 288 288 287 287 288 289 290 289 291 299 298 291 290 291 292 290 290 292 289 288 287 287 286 285 286 288 289 290 292 292 292 291 291
296 296 295 295 295 294 294 294 295 294 293 293 293 293 294 291 289 288 288 288 296 290 287 291 292 291 291 292 291 287 288 286 287 285 287 289 289 290 289 293 296 294 293 292 290 290 290 291 288 288 287 286 285 285 286 286 287 287 288 288 288 290 290
296 296 295 294 295 295 295 295 294 293 293 293 293 292 293 292 291 291 290 291 294 289 288 288 291 291 291 292 293 289 288 287 287 286 286 289 289 288 288 289 292 291 290 290 290 290 290 290 289 288 287 286 285 285 287 286 288 289 287 287 287 289 289
296 296 295 295 295 296 295 295 294 293 292 292 291 291 292 291 292 291 291 291 291 289 290 288 290 291 291 291 291 290 286 286 285 286 285 287 285 286 288 288 288 292 290 290 290 290 290 290 291 290 288 287 287 289 289 286 287 291 286 287 288 288 288
297 297 296 296 296 295 296 296 295 294 292 291 291 291 290 291 291 291 290 291 291 290 293 296 287 291 291 291 291 291 289 288 288 286 286 285 285 286 287 287 288 291 290 290 290 290 290 290 290 291 289 289 289 289 288 289 287 286 286 286 286 287 287
297 298 297 297 296 295 295 295 294 294 292 292 291 290 290 291 290 289 289 289 290 291 291 294 294 290 291 290 290 290 290 288 290 290 285 286 285 287 286 287 289 292 289 289 290 290 290 290 291 289 289 289 289 288 289 286 286 285 285 285 285 285 286
298 298 297 296 296 295 294 294 294 294 293 293 292 291 291 292 290 290 290 289 291 291 290 290 293 293 289 290 290 290 289 289 290 289 289 287 286 286 287 287 289 289 289 290 290 290 290 290 289 289 289 289 289 289 287 286 285 285 285 284 284 284 285

ECMWFFLT1_sfc_thetae_111.txt.gz
Theta_e
317 315 315 314 314 314 311 310 310 310 310 310 310 311 312 312 311 310 311 311 311 311 311 308 307 307 308 308 308 306 307 305 303 301 300 301 299 300 304 301 302 302 300 299 297 295 294 290 290 295 296 296 297 298 299 298 298 299 299 299 299 299 299
317 316 316 316 313 312 310 309 309 308 309 309 309 309 309 311 313 309 309 309 309 309 311 307 307 307 306 305 305 304 304 304 305 303 301 300 300 299 299 299 299 298 298 298 297 297 294 289 288 290 290 294 294 295 297 297 297 298 299 298 299 299 300
316 315 314 312 311 310 308 307 307 307 307 307 307 308 308 309 308 309 308 308 308 309 309 305 305 305 305 305 305 304 303 302 303 302 301 300 300 299 299 298 296 296 295 294 294 294 293 293 288 288 290 289 289 292 296 295 296 297 298 297 297 297 297
315 314 312 310 309 307 306 306 305 305 305 305 306 306 306 307 308 310 307 307 308 311 307 305 304 304 304 304 304 304 303 302 301 300 300 300 299 298 297 297 295 295 293 292 291 292 291 289 288 288 289 290 290 290 292 295 297 296 296 296 296 296 297
315 312 310 308 308 307 306 305 304 304 304 304 304 304 305 306 306 306 308 305 306 304 304 304 304 304 304 304 303 303 302 301 301 301 298 298 297 297 296 296 295 295 294 293 294 293 291 291 289 288 288 290 290 291 293 293 294 294 295 295 296 296 296
314 312 310 309 308 306 305 304 303 302 303 303 303 304 304 305 305 304 304 304 304 305 304 304 304 304 303 303 302 302 301 300 299 299 298 297 297 296 295 295 295 294 294 294 294 293 293 292 290 288 289 290 287 288 290 291 291 293 294 295 295 296 296
312 311 310 308 306 305 305 304 303 303 302 302 302 303 304 305 305 305 304 304 304 305 305 304 304 304 303 302 301 301 300 300 299 298 297 297 296 296 296 295 294 294 293 295 294 294 292 291 290 289 289 289 288 288 289 289 291 290 291 294 295 295 295
311 310 309 308 306 305 304 304 303 303 302 302 303 304 305 304 304 304 304 303 303 303 303 303 303 302 303 303 302 301 300 299 299 298 296 296 296 295 295 295 296 295 294 294 294 294 294 293 292 291 289 287 287 286 287 288 288 289 290 293 295 295 295
313 310 309 308 306 305 304 303 303 302 302 302 303 303 303 303 302 302 302 302 302 302 302 302 302 301 301 301 300 300 300 302 298 297 296 295 295 294 294 294 294 294 295 295 295 294 293 294 293 292 291 288 286 284 286 286 287 287 291 290 293 294 295
309 307 306 305 305 305 304 303 303 302 303 302 303 303 302 302 301 301 301 301 301 301 301 301 301 301 300 300 299 299 298 298 298 296 296 295 295 294 294 294 294 294 294 294 294 294 294 293 293 292 291 289 289 286 284 284 286 286 289 292 290 292 295
307 306 305 305 305 304 303 304 303 303 302 303 303 303 301 301 301 304 300 300 300 301 300 300 300 300 300 299 299 299 298 298 297 297 297 296 295 296 296 294 294 293 294 293 292 293 293 293 291 292 291 291 291 287 286 285 285 288 289 292 292 291 294
306 306 305 305 304 304 302 302 302 302 302 302 302 299 299 299 299 299 299 299 299 299 299 300 300 300 299 298 299 298 298 297 296 295 295 296 295 295 294 293 293 292 293 292 292 292 292 293 291 292 291 291 291 289 288 287 286 289 291 289 292 294 294
306 305 305 304 303 302 302 302 301 300 300 300 298 298 298 298 298 298 298 298 298 298 298 299 299 299 298 298 297 297 297 296 295 295 294 295 296 294 293 293 293 292 291 291 291 291 290 292 292 291 291 291 290 290 290 288 286 287 291 291 292 293 294
304 305 303 303 302 302 302 302 300 299 299 297 297 297 297 297 297 298 298 299 297 297 297 297 298 298 298 297 297 296 296 296 295 294 296 294 294 294 294 293 292 291 291 290 290 290 291 290 291 290 292 290 290 290 289 288 287 288 290 292 292 292 294
304 303 303 302 302 301 300 300 299 298 297 297 297 296 296 296 296 296 296 296 296 296 296 296 296 297 298 297 296 297 296 295 294 293 293 293 293 294 292 292 291 291 291 290 289 290 290 290 290 289 289 291 289 290 290 289 287 288 287 290 291 293 293
303 302 302 301 300 300 299 299 299 296 296 295 296 296 295 295 295 295 295 294 294 294 294 294 295 296 296 296 296 295 296 294 294 293 293 292 292 292 292 292 290 291 291 289 289 289 289 289 290 289 289 290 289 289 290 290 288 287 287 288 290 290 291
301 301 300 300 299 299 298 297 298 296 295 295 295 295 294 294 294 294 294 293 293 293 293 294 294 294 295 296 295 295 294 294 293 293 293 292 292 292 290 290 290 290 290 288 288 288 288 288 288 289 289 289 289 289 290 290 290 288 288 287 289 289 291
300 300 299 299 298 298 297 297 297 295 295 295 294 294 295 294 293 293 293 292 292 292 292 293 293 293 293 294 295 294 293 293 293 293 293 294 298 292 292 290 291 290 289 287 287 287 288 287 289 289 288 289 289 289 290 290 289 289 288 287 288 290 291
300 299 299 298 298 298 297 296 296 296 295 294 293 293 293 293 293 292 291 291 291 291 291 291 292 292 292 293 294 294 294 293 293 293 292 293 292 292 291 290 291 290 289 288 287 288 287 287 289 289 288 289 289 289 288 289 289 289 288 288 288 288 289
299 299 299 298 298 297 296 295 295 295 295 294 293 293 292 292 293 291 291 291 291 291 291 291 290 290 291 292 293 293 293 293 293 292 292 292 292 291 291 291 291 290 289 289 288 288 288 288 290 289 291 289 289 288 288 288 288 288 287 287 287 288 288
299 298 298 298 297 297 296 295 295 295 295 293 292 292 291 292 292 291 291 291 291 292 291 290 289 289 290 290 292 292 293 293 293 292 292 292 292 292 292 292 291 290 289 289 289 290 289 290 290 290 289 289 289 289 288 288 287 287 287 286 286 286 287
299 299 299 298 297 296 296 295 295 294 294 293 294 291 291 290 290 289 289 290 290 291 292 292 291 290 290 289 289 292 292 293 293 293 292 291 291 291 292 292 291 290 295 299 300 299 298 297 293 290 290 289 290 289 288 287 287 286 286 286 286 287 287
298 298 298 297 297 296 295 295 294 293 292 292 292 292 290 290 289 289 289 289 289 291 291 292 295 296 298 291 290 292 293 293 292 291 293 292 292 292 291 290 296 302 300 300 300 298 295 295 296 294 292 290 289 288 287 287 286 286 286 285 285 285 285
297 297 297 297 297 296 295 294 293 292 292 291 291 292 290 289 288 288 289 289 289 290 290 292 294 292 294 296 293 293 293 292 291 290 291 291 290 294 292 291 289 295 298 296 296 296 294 293 293 293 294 295 295 291 288 287 286 286 286 285 286 285 285
297 297 297 297 296 295 294 293 292 291 290 290 290 289 288 288 288 288 289 289 289 290 290 295 292 293 294 294 296 294 292 292 292 289 289 289 290 291 290 289 290 291 291 294 294 291 293 293 293 293 292 293 292 292 292 290 287 286 286 285 285 285 285
296 297 297 297 296 294 292 292 291 290 289 290 288 288 287 287 287 287 288 288 288 289 288 293 292 293 293 292 293 294 292 291 292 290 289 289 289 289 289 292 291 292 291 296 295 290 289 290 293 293 293 293 292 292 290 289 291 290 288 286 285 285 286
296 296 297 296 295 293 292 291 290 290 290 289 288 287 287 287 287 287 287 288 288 287 288 293 292 292 292 291 292 293 289 290 290 289 290 289 289 288 289 290 288 290 290 290 289 290 290 289 288 288 288 287 287 289 290 290 290 290 291 288 286 285 287
296 296 296 296 295 293 292 291 291 291 289 288 287 287 287 286 287 288 287 286 288 287 289 292 291 292 291 291 291 291 289 291 290 289 288 289 289 289 289 289 288 288 289 289 291 292 290 288 288 288 287 287 287 287 286 286 287 288 289 288 287 287 288
296 296 296 295 295 294 293 292 291 290 289 287 287 288 287 288 287 286 286 286 287 285 287 291 291 291 291 291 292 291 288 288 288 288 288 288 289 289 289 290 289 289 288 288 292 292 291 291 287 286 286 286 286 286 286 291 291 291 290 289 288 288 289
296 296 296 295 294 294 293 292 291 291 289 288 287 287 287 286 286 285 286 286 286 284 286 290 291 291 291 291 290 287 287 288 287 286 287 287 287 288 288 292 291 288 288 288 292 290 290 293 286 286 286 285 285 285 286 288 290 290 290 290 290 290 290
296 296 295 295 294 294 293 293 292 293 289 288 287 287 287 287 285 286 285 284 286 286 285 290 291 291 291 291 291 286 286 287 285 286 286 287 287 286 288 298 297 289 288 289 291 290 290 291 286 286 285 284 284 284 285 287 287 288 290 290 290 290 290
296 296 295 295 295 294 293 293 293 292 291 289 289 289 291 287 286 286 285 286 296 288 285 290 291 290 291 292 290 284 286 286 286 283 284 286 286 287 287 291 294 293 291 291 289 290 290 290 286 285 285 283 284 283 285 285 285 285 286 286 286 288 288
296 296 295 294 294 294 294 294 292 292 292 291 290 289 290 288 286 286 287 289 290 285 285 287 290 291 291 291 292 287 285 286 286 285 284 288 288 286 286 287 291 290 290 289 289 289 290 290 286 286 284 284 284 284 286 285 287 287 285 285 285 287 287
296 296 295 295 295 295 294 293 292 292 292 292 290 290 290 288 287 287 287 288 287 286 287 285 288 290 291 291 291 290 283 284 283 283 282 285 282 284 286 286 286 291 290 289 289 289 290 290 290 288 285 285 285 288 288 285 286 289 285 286 286 286 287
297 296 296 295 294 293 293 294 293 293 292 291 291 290 289 289 287 287 286 287 288 286 290 296 285 291 290 291 290 291 286 287 285 284 284 283 282 283 284 285 286 290 290 289 289 289 290 289 289 289 287 288 288 288 287 288 285 285 284 285 284 285 285
296 296 295 295 295 293 293 293 292 292 292 291 291 290 289 287 286 286 286 287 287 287 286 290 293 290 291 290 290 290 290 288 289 289 285 286 284 285 284 285 287 291 289 289 289 289 289 289 290 287 288 288 288 288 288 285 285 284 284 284 284 284 284
297 296 295 295 295 293 293 292 292 292 292 292 291 290 287 288 286 287 288 288 290 288 287 287 292 293 290 290 289 289 289 289 290 287 287 284 283 284 285 284 288 289 289 289 289 289 289 289 287 288 288 288 288 288 285 284 283 283 283 283 283 283 283

ECMWFFLT1_sfc_thetae_114.txt.gz
Theta_e
315 313 313 313 313 313 310 310 310 310 310 310 311 311 312 313 312 310 310 310 310 310 310 307 306 306 306 307 307 305 305 304 302 301 299 300 299 300 302 300 300 299 298 297 298 297 296 290 291 296 297 297 298 299 298 297 298 300 299 299 299 299 299
314 313 314 314 311 311 309 309 308 308 309 309 309 310 310 312 313 309 309 308 308 308 309 307 306 305 304 304 303 303 302 302 303 301 299 298 298 297 297 297 297 296 296 296 295 296 292 290 290 290 291 295 297 297 298 298 298 299 299 298 299 300 299
314 312 311 309 309 309 307 307 307 307 307 308 308 308 309 309 309 309 308 308 307 309 308 305 305 304 304 303 303 302 302 301 301 300 298 298 297 297 296 296 294 294 294 293 294 293 293 293 289 289 290 290 291 294 298 297 298 298 298 298 298 298 298
312 311 309 308 308 307 306 306 306 306 306 306 307 307 308 308 309 310 307 307 309 310 307 304 304 303 303 303 302 302 301 299 298 298 298 298 297 296 296 295 294 294 293 292 292 293 292 290 290 290 291 291 291 292 296 297 298 297 297 298 297 298 298
312 310 309 307 307 306 305 305 305 305 305 305 305 305 306 306 307 306 308 306 306 305 304 304 304 303 303 302 301 301 300 300 299 299 297 296 296 296 296 296 295 296 295 294 294 294 293 292 291 290 290 291 292 292 295 296 297 296 297 296 297 297 298
313 310 309 307 307 306 305 304 304 304 304 304 304 304 304 305 306 304 305 305 305 305 305 304 303 303 302 301 300 299 299 298 298 297 296 296 296 296 295 296 296 296 295 296 296 294 294 294 292 290 291 292 290 291 293 293 293 295 296 296 296 297 297
311 310 309 307 306 306 305 304 304 303 303 303 303 303 304 305 305 306 305 305 305 305 305 304 303 302 301 300 299 298 298 298 298 297 297 297 297 297 297 296 296 296 296 296 295 295 294 293 292 291 290 291 291 290 292 292 293 291 294 295 296 297 297
311 310 308 308 306 305 305 304 303 303 303 303 303 304 306 304 304 304 304 304 304 304 304 303 303 302 302 300 300 299 298 298 297 298 297 297 296 296 296 296 296 295 295 296 295 295 295 294 293 292 291 289 289 290 290 291 291 291 291 294 296 296 297
312 310 309 308 306 305 305 304 303 303 303 303 304 303 304 303 303 303 303 303 303 303 303 302 302 301 300 299 298 298 298 299 296 296 296 296 296 296 296 295 295 294 295 295 295 295 294 294 294 293 293 291 288 286 289 289 290 290 293 292 295 296 296
310 308 307 305 305 305 304 304 303 303 303 303 303 304 302 302 302 302 302 302 302 302 302 302 301 301 300 299 298 297 297 298 298 296 297 296 296 296 296 295 295 294 294 295 295 295 295 295 294 294 293 292 291 288 287 287 288 289 292 293 291 294 296
309 307 306 304 305 304 304 304 303 303 303 303 304 304 302 302 303 305 301 301 301 301 301 301 300 300 300 299 298 298 298 298 298 298 298 297 297 297 296 295 295 294 295 294 294 295 295 294 294 294 294 294 293 290 289 287 287 291 291 294 294 293 295
307 306 305 305 304 304 303 303 303 302 302 303 303 301 300 300 300 300 301 300 301 300 300 300 300 299 299 298 299 297 297 297 297 297 298 298 297 296 295 294 294 294 294 294 294 294 294 295 294 294 294 294 293 293 291 290 287 291 293 291 293 295 294
306 306 305 304 303 303 303 302 301 301 301 302 299 300 300 300 300 299 299 300 300 300 300 300 299 299 298 298 297 297 297 297 296 296 296 297 296 295 294 294 294 293 294 293 293 293 293 294 294 294 293 293 293 293 292 291 288 288 293 292 293 294 295
305 305 304 304 303 302 303 302 300 300 300 299 299 299 299 299 299 299 299 300 299 299 299 299 299 298 298 297 297 297 296 296 296 296 297 295 296 295 295 294 294 294 293 293 293 293 293 293 293 293 293 293 292 292 292 290 288 289 291 294 293 293 294
304 304 303 303 302 302 300 300 300 299 298 298 298 298 298 299 298 298 298 297 298 298 298 298 298 298 297 297 297 297 296 296 295 295 295 294 295 295 294 293 293 294 294 292 293 292 292 292 292 292 292 292 291 292 292 290 289 289 288 292 292 294 293
303 303 302 301 301 300 299 299 299 297 297 297 298 298 297 297 297 297 297 297 297 297 298 298 298 298 297 297 296 296 296 295 295 295 294 294 294 294 294 294 293 293 294 292 292 292 292 292 292 292 292 292 291 292 292 292 290 288 288 289 292 291 292
302 302 301 300 299 299 298 298 299 297 296 296 296 297 296 296 297 296 296 296 296 296 296 297 297 297 297 296 296 296 295 295 295 295 295 294 294 294 293 293 293 293 293 292 291 292 292 292 292 292 292 292 292 291 292 292 292 290 289 288 290 290 291
301 301 300 299 298 298 297 297 298 296 296 295 295 296 297 296 295 295 295 295 295 295 296 296 296 296 297 296 296 295 295 295 295 295 295 294 298 294 295 294 293 293 292 292 292 292 292 292 292 293 292 292 292 292 292 292 291 291 289 288 289 291 291
300 299 299 298 297 297 297 297 296 296 296 295 294 295 295 295 296 294 294 294 294 294 295 296 296 296 296 296 296 296 296 296 296 296 296 296 294 295 294 294 294 293 293 292 292 292 292 292 293 292 292 292 292 292 291 291 291 291 290 289 289 288 291
299 299 299 297 297 296 296 295 295 295 296 294 294 294 294 294 295 293 293 293 293 294 294 294 295 295 295 295 296 296 295 295 295 295 295 295 295 294 294 294 295 293 293 293 294 293 293 293 293 293 293 292 292 291 291 290 290 290 289 288 288 289 289
299 299 298 297 296 296 295 295 295 295 295 293 293 293 293 293 294 293 293 293 293 294 293 293 293 293 294 295 296 296 296 296 295 295 295 295 295 295 294 294 294 294 294 294 296 297 296 294 294 293 293 293 292 291 290 290 289 289 288 288 287 287 288
299 299 298 296 295 295 295 294 294 294 294 294 294 292 292 292 292 292 292 293 293 293 293 293 293 293 293 293 294 295 296 296 295 295 294 293 293 294 295 296 294 294 300 299 299 299 297 296 295 293 293 293 293 291 290 290 289 288 288 287 287 288 288
299 297 296 295 295 294 294 294 293 293 292 292 292 292 291 292 292 292 292 292 293 293 294 295 298 296 296 295 294 294 295 295 295 295 295 295 294 295 295 293 297 299 298 298 298 296 294 294 295 295 294 294 292 291 290 289 288 288 288 287 287 287 286
298 297 296 295 294 294 294 293 292 292 291 291 291 293 291 291 291 291 292 292 292 293 293 296 295 294 294 295 295 295 296 295 295 295 295 294 294 298 295 293 293 297 296 296 297 295 293 293 293 293 293 294 294 293 291 289 288 289 287 287 287 287 286
297 296 296 295 294 294 293 292 292 291 291 291 291 291 290 290 290 291 291 291 292 293 294 296 292 293 293 294 296 295 294 294 294 294 293 293 295 295 295 295 294 294 295 297 296 293 293 293 292 292 292 292 292 291 291 290 289 288 288 287 287 287 287
297 296 295 295 294 293 292 291 291 290 290 291 290 289 289 289 290 290 291 291 292 294 293 294 292 293 293 293 293 294 294 293 294 293 293 293 292 293 294 296 295 294 293 296 295 292 292 292 293 292 292 292 291 292 289 289 290 291 290 289 287 287 288
296 296 295 294 293 292 291 291 290 290 291 290 289 288 289 289 289 290 291 291 291 291 292 294 292 292 292 292 292 293 292 293 293 292 293 293 293 293 294 295 293 294 293 292 293 293 292 291 291 291 290 290 290 290 290 290 290 290 291 290 289 287 289
296 296 295 293 292 291 291 290 290 290 289 288 288 288 288 289 290 291 291 290 291 291 293 292 291 291 291 291 291 292 292 293 292 292 292 292 293 294 293 293 293 293 292 291 294 293 292 291 291 290 290 289 289 289 289 290 291 291 291 291 290 290 290
297 296 294 293 291 291 290 290 289 289 289 288 288 288 288 290 290 289 289 290 290 289 291 291 291 291 291 291 292 293 291 292 292 292 292 292 292 292 293 294 294 293 291 290 293 291 291 293 291 289 289 289 288 289 290 291 291 291 292 291 291 291 291
297 295 294 292 291 290 290 289 289 290 288 288 288 288 289 289 289 288 289 290 289 289 290 292 290 291 291 290 291 290 291 291 291 291 291 291 291 292 292 296 294 292 291 291 292 290 290 292 290 289 288 288 288 288 289 290 290 290 290 290 290 290 290
297 296 294 292 291 290 290 290 289 290 288 288 288 288 289 288 288 289 289 288 289 289 289 291 291 291 291 290 291 290 290 290 289 291 290 291 290 290 292 297 297 293 291 292 291 289 290 292 290 289 288 287 287 287 288 289 289 290 290 290 290 289 290
298 296 295 293 292 291 290 290 291 290 289 289 288 288 291 287 287 288 288 289 295 290 289 292 291 290 291 291 291 288 289 289 290 288 288 290 290 289 290 292 294 293 293 292 289 289 289 291 291 290 288 287 287 287 288 288 288 288 289 289 289 290 290
298 297 295 294 294 292 292 292 290 289 289 289 289 289 289 288 287 288 290 292 293 289 289 290 292 290 291 291 290 289 288 290 290 289 289 293 290 290 289 290 292 290 289 289 289 289 289 289 291 291 289 288 288 287 289 289 289 290 288 288 288 289 290
298 297 296 295 295 294 293 291 290 289 289 289 289 288 288 288 288 288 289 289 288 288 290 289 291 290 291 291 291 290 288 289 288 288 288 290 287 288 289 290 290 291 289 289 289 289 289 289 290 292 290 289 289 290 290 289 289 289 288 288 288 288 289
298 297 297 296 295 294 294 293 291 290 290 289 289 288 288 289 288 288 288 289 289 288 293 296 288 291 290 290 290 291 290 291 289 288 288 288 287 288 288 289 290 291 289 289 289 289 289 289 289 293 291 288 288 288 289 290 289 288 287 287 287 287 288
298 298 297 296 295 294 294 293 292 291 290 289 289 289 289 289 289 288 288 289 289 289 288 292 293 292 291 290 290 290 290 289 289 293 289 292 289 289 288 289 290 291 289 289 289 289 289 289 290 291 288 288 288 288 289 288 288 287 287 287 287 286 287
298 298 297 297 296 294 294 294 293 291 290 290 289 289 289 289 289 289 289 289 290 290 290 289 292 292 292 290 290 289 289 289 289 291 290 289 288 288 288 288 290 289 289 289 289 289 289 289 290 288 288 288 288 289 288 288 287 286 286 286 286 286 286

ECMWFFLT1_sfc_thetae_117.txt.gz
Theta_e
321 318 318 316 317 318 317 318 319 319 319 320 320 320 320 319 319 318 319 318 316 316 315 314 314 314 314 314 314 313 312 311 311 309 307 307 303 302 307 305 304 305 305 305 306 300 298 299 298 303 303 304 304 303 303 303 303 303 303 304 303 303 303
319 318 317 318 317 318 317 317 318 317 318 319 319 319 319 318 318 317 317 317 316 314 314 313 313 313 313 312 311 310 309 308 308 308 306 304 305 304 304 304 304 302 303 303 304 303 299 300 297 298 300 303 304 302 303 304 304 304 303 303 303 303 304
318 317 318 316 317 317 316 316 316 317 317 317 318 318 317 317 317 317 316 316 315 314 313 313 312 311 311 310 309 309 308 307 307 306 305 304 304 305 305 305 304 304 304 303 302 302 302 301 296 296 299 299 298 301 303 302 303 303 303 303 303 302 303
317 317 317 316 316 316 315 315 315 316 317 316 316 317 317 316 316 317 316 315 315 314 313 312 311 309 309 308 308 308 307 306 305 305 305 305 304 304 304 303 302 301 300 299 300 301 301 299 298 297 299 297 296 298 300 302 302 302 302 302 302 302 303
319 318 317 315 316 315 315 315 315 315 315 315 315 315 315 316 316 314 314 313 313 313 312 311 311 310 309 308 307 306 306 306 306 305 305 304 303 303 303 303 302 302 302 301 301 301 300 299 300 299 296 298 300 299 300 302 303 301 301 301 301 302 302
320 319 318 316 316 315 315 314 315 314 314 313 313 313 314 315 314 314 313 312 312 312 311 310 310 309 308 306 306 305 305 305 304 304 302 303 303 302 301 303 302 302 301 303 303 302 302 302 300 298 298 299 296 298 299 299 298 301 300 301 301 301 301
319 318 317 315 316 315 315 315 315 314 313 313 313 313 314 314 314 314 313 312 311 311 310 310 309 308 307 304 305 304 304 304 304 303 302 303 303 303 303 301 302 301 302 303 302 302 301 300 298 298 298 300 299 297 299 298 299 296 297 300 301 301 302
317 315 314 315 314 313 314 314 315 314 313 313 312 313 314 314 314 313 313 312 311 311 310 309 308 307 307 305 305 305 304 305 304 303 302 302 301 301 303 302 301 301 302 301 302 301 301 300 299 299 298 295 296 298 297 299 299 298 296 299 300 300 301
316 315 313 313 313 314 315 314 314 314 313 313 313 313 314 314 313 312 312 311 310 309 308 307 306 306 306 305 304 304 303 304 303 302 302 302 302 302 302 302 301 300 302 301 302 301 300 301 300 300 298 297 294 292 296 296 297 296 298 297 299 300 300
315 314 313 312 313 314 315 314 313 313 314 313 313 313 313 313 312 312 311 310 310 309 308 307 306 306 305 305 304 304 303 304 303 302 302 301 301 301 301 301 300 300 301 302 301 301 301 301 301 300 299 297 296 293 291 292 295 295 297 297 295 298 300
315 313 312 312 313 313 314 313 313 312 312 312 312 312 312 312 311 311 310 310 310 309 307 306 305 305 305 304 304 304 304 304 302 302 302 301 301 301 301 300 300 299 301 300 300 301 301 301 299 300 299 299 298 294 293 291 293 297 296 298 298 296 298
314 312 311 312 313 313 312 312 312 312 312 312 312 312 311 311 311 310 310 309 309 307 307 306 305 305 305 304 304 303 304 303 301 301 302 302 301 301 300 299 300 299 301 301 300 300 301 300 299 299 298 299 298 298 295 294 291 296 298 296 298 299 298
311 310 311 311 313 312 312 312 312 311 311 312 311 311 310 310 310 310 309 308 307 307 306 305 305 305 305 304 304 303 303 302 301 300 300 301 301 301 299 299 299 299 300 300 300 300 299 300 301 298 298 298 298 298 297 295 293 293 297 297 298 299 299
310 311 311 312 312 312 312 312 312 311 310 310 311 310 310 309 309 309 308 308 307 306 305 305 305 305 304 304 303 303 302 301 300 300 300 300 301 300 299 298 298 299 300 300 300 300 299 299 299 299 299 297 297 298 297 295 293 293 297 299 299 298 300
310 310 311 311 312 311 311 311 311 310 310 310 310 309 309 309 309 309 308 307 307 306 305 305 305 304 303 302 303 303 302 301 300 300 300 298 299 300 300 298 298 299 300 299 300 298 298 298 297 296 297 297 296 296 298 295 294 293 293 297 297 299 299
309 310 310 310 311 310 310 310 310 309 309 309 310 309 309 309 308 308 308 307 306 306 305 304 305 304 303 302 301 302 302 301 301 300 299 298 298 300 299 299 298 300 301 300 300 300 300 299 298 298 298 298 297 297 297 297 296 294 294 295 298 297 298
309 310 310 311 310 310 309 309 309 309 308 308 308 309 309 308 308 308 307 307 306 306 305 304 304 303 303 302 302 301 302 302 301 300 299 298 299 299 299 298 299 300 301 300 299 299 299 299 298 298 297 297 298 296 298 298 298 296 295 294 297 296 297
309 310 310 310 310 309 309 308 308 308 308 308 307 307 307 308 308 307 307 306 306 305 305 304 303 303 304 304 303 302 301 301 302 301 300 299 299 299 299 299 299 300 300 300 299 298 299 299 298 298 297 296 296 297 298 298 298 297 296 295 295 297 298
310 311 310 309 309 308 308 308 308 308 308 307 307 307 307 307 307 306 306 306 306 305 305 304 303 302 303 304 304 303 303 302 301 301 301 300 299 300 300 299 300 301 300 299 299 299 299 299 298 298 297 296 296 297 298 298 298 297 297 295 296 296 298
310 310 309 308 308 307 307 308 307 307 307 307 307 306 306 306 307 306 306 306 306 306 305 304 304 304 303 303 303 303 303 302 302 302 301 300 300 300 300 300 301 301 301 300 299 299 299 299 299 298 297 297 297 297 297 297 297 297 296 296 296 297 296
310 309 308 307 307 307 307 307 307 307 306 306 306 306 306 306 306 306 306 306 306 306 306 305 304 304 303 304 304 303 303 303 302 302 302 301 301 301 301 301 301 302 301 300 300 300 300 298 298 297 297 297 297 297 297 297 297 296 296 295 295 295 296
309 307 306 306 306 305 305 306 306 305 306 306 306 306 306 305 304 304 305 305 305 306 305 305 305 305 304 304 304 303 303 302 302 302 301 301 301 301 301 301 302 301 302 300 298 297 297 296 297 296 297 297 297 297 297 297 296 295 295 295 295 296 295
306 306 305 305 305 305 304 304 304 304 304 305 305 305 305 305 305 304 304 304 305 305 306 306 304 301 302 304 304 304 304 304 302 302 301 301 301 301 300 301 302 299 299 299 297 295 294 294 295 297 296 296 295 295 296 295 295 295 295 294 294 294 294
305 304 304 304 304 304 303 303 303 303 303 303 303 304 304 303 304 304 304 304 304 305 305 304 297 294 295 298 304 305 304 303 303 302 301 301 301 301 300 300 302 301 301 300 300 296 295 293 293 293 293 293 293 295 294 294 294 295 294 294 295 295 294
304 303 304 303 303 303 303 302 302 302 302 302 303 303 303 303 304 304 305 305 305 305 306 300 293 293 294 294 300 305 305 303 303 302 302 301 301 301 301 300 301 302 301 300 300 299 298 296 293 293 292 292 292 292 291 293 293 293 294 294 294 295 295
303 303 303 303 303 302 301 301 301 301 301 302 302 302 303 303 303 303 304 304 304 305 305 295 293 293 293 293 295 301 304 304 302 302 302 302 301 301 301 299 300 302 301 298 299 298 298 298 296 294 295 295 294 293 290 289 291 294 295 295 295 295 295
302 302 303 303 302 301 301 301 301 301 301 301 301 301 302 302 302 303 303 304 304 305 305 295 293 293 293 292 292 298 304 305 304 303 302 302 302 302 300 300 300 300 301 301 300 299 298 298 298 298 298 297 297 296 294 293 292 292 294 297 296 295 296
302 302 302 302 301 301 301 301 300 300 300 300 300 300 301 301 302 302 303 304 304 304 304 293 292 292 292 292 292 297 306 305 304 304 304 303 302 302 301 302 301 300 300 300 299 297 298 298 298 298 297 297 296 297 298 296 296 296 296 297 297 297 297
302 302 301 301 300 300 300 300 299 299 299 299 300 300 301 301 301 302 303 303 303 303 301 291 291 291 291 291 292 303 304 304 303 303 303 302 302 302 301 302 301 300 300 299 296 290 293 298 298 297 297 297 297 298 297 296 293 293 295 296 296 296 296
300 300 299 298 298 298 298 298 298 298 297 297 297 298 300 301 302 301 301 302 303 302 300 293 291 291 291 291 296 303 304 302 302 302 302 302 301 301 302 302 301 300 300 299 294 289 290 293 298 297 297 297 297 297 296 297 294 293 292 291 291 291 290
299 298 298 297 297 297 297 297 296 296 296 296 297 298 300 300 301 301 301 301 302 301 301 296 290 291 291 291 298 303 302 302 301 301 301 301 301 301 302 299 299 301 300 299 291 290 289 296 298 297 297 296 296 296 296 297 297 297 294 293 293 292 292
299 298 297 298 297 296 295 295 296 296 296 297 298 299 299 299 299 300 301 302 300 301 300 296 290 291 291 291 298 302 301 301 300 300 300 299 300 300 300 298 296 297 299 297 288 290 289 295 298 298 297 297 295 295 296 296 296 295 295 296 297 298 297
299 298 297 297 296 296 296 295 295 295 296 297 297 298 298 299 299 299 300 301 300 301 300 299 296 290 291 291 293 301 301 300 299 299 300 299 298 299 300 300 297 289 289 289 289 288 289 289 296 298 298 297 296 294 296 296 296 295 295 295 296 297 298
300 300 300 297 296 296 296 296 295 295 295 296 296 297 298 299 299 299 299 301 300 301 301 299 297 290 291 291 291 295 300 300 300 299 299 299 299 298 298 299 300 293 289 289 289 289 289 289 290 298 299 297 296 295 292 295 296 295 296 296 296 295 295
302 301 300 298 296 296 296 297 296 297 296 296 296 296 297 298 298 298 299 299 299 299 299 298 298 291 290 291 290 291 299 300 301 300 299 299 298 298 298 299 300 295 289 289 289 289 289 290 289 297 299 291 288 288 293 295 297 297 297 296 295 294 294
301 301 299 298 297 297 296 296 296 296 296 296 296 295 295 296 297 297 298 298 298 298 299 297 294 296 291 290 290 290 293 297 290 301 299 298 298 298 300 301 300 292 289 289 289 289 289 288 291 298 289 288 288 287 290 297 297 297 296 296 296 295 294
301 300 299 298 299 298 296 295 294 295 295 295 294 294 294 296 296 296 296 295 296 297 299 298 294 293 294 289 290 290 289 291 291 299 300 299 299 299 300 301 299 290 289 289 288 289 289 289 295 290 288 288 288 290 297 298 296 297 295 295 294 294 294

ECMWFFLT1_sfc_thetae_120.txt.gz
Theta_e
330 328 328 327 328 327 326 326 327 327 327 326 324 323 323 323 322 322 322 322 321 321 320 320 320 319 319 320 320 320 320 321 320 316 313 310 307 308 313 311 310 311 312 312 311 309 305 305 303 306 309 310 309 308 307 306 306 308 308 308 306 306 308
330 327 327 326 325 326 324 325 326 326 326 325 324 323 323 322 322 322 321 321 320 319 318 319 319 319 318 317 316 316 316 315 316 315 313 311 312 309 310 311 311 310 309 311 311 309 306 305 301 303 305 309 310 308 308 308 308 308 308 307 307 307 308
326 326 326 324 324 325 324 325 325 325 324 324 324 323 322 321 321 321 320 321 321 319 318 317 316 315 315 315 315 315 315 314 314 313 312 311 312 313 313 313 311 310 309 308 307 308 308 307 302 300 302 303 303 306 307 307 308 308 308 308 308 306 307
326 325 324 322 321 323 323 324 325 324 324 323 323 323 322 321 321 321 320 320 320 318 316 315 313 311 312 313 314 314 313 312 312 312 312 312 312 311 310 308 307 307 305 304 306 306 306 306 305 303 303 303 302 303 304 307 308 306 305 307 306 306 307
327 326 325 321 321 322 323 323 323 322 321 321 322 321 321 321 321 320 320 319 318 318 316 315 314 313 312 312 311 312 312 312 313 312 311 310 310 310 310 309 307 308 308 307 307 308 306 305 306 304 302 304 304 302 304 309 307 306 304 305 304 305 306
329 329 327 325 325 325 324 323 322 320 319 319 320 320 321 320 319 318 318 317 316 316 316 314 314 313 312 311 311 311 311 310 310 311 310 311 310 308 307 308 307 308 307 308 309 308 307 307 306 304 304 304 303 304 304 304 303 303 303 304 303 304 304
329 330 329 327 326 325 324 323 323 320 320 321 321 320 319 319 318 319 318 317 316 315 315 314 313 311 311 309 310 309 309 309 310 310 310 310 310 310 309 307 307 307 307 308 308 307 306 306 303 303 303 304 306 302 303 303 304 301 302 303 304 304 303
329 328 327 327 326 324 324 323 323 322 321 321 320 320 319 320 318 317 316 315 314 314 314 313 312 312 312 310 310 310 310 310 309 309 308 309 308 308 309 307 307 307 307 306 306 307 306 305 304 304 302 300 302 302 301 302 302 301 300 302 303 303 303
329 328 325 324 324 324 324 324 323 322 321 321 321 320 319 318 317 316 316 315 314 314 313 311 311 311 311 309 308 309 308 309 308 308 308 309 309 309 308 308 307 306 307 306 306 306 305 306 305 305 303 302 299 297 299 300 301 300 302 300 302 303 303
327 325 322 323 323 324 325 324 322 322 322 320 319 319 318 318 317 316 315 314 313 312 312 311 310 310 310 310 309 309 308 308 308 307 307 307 308 307 307 307 306 305 305 307 306 306 306 306 305 304 303 301 301 298 295 297 298 299 300 301 299 301 304
326 324 323 322 322 322 322 322 322 320 320 320 319 319 318 317 316 315 314 313 313 312 311 310 310 310 310 309 309 308 308 309 308 307 307 307 307 307 307 307 306 304 306 306 305 306 306 306 304 303 303 303 301 298 298 296 298 300 299 302 302 300 303
325 324 323 322 321 321 321 321 320 319 320 319 318 318 317 316 315 315 314 313 312 310 310 310 310 310 310 308 308 307 308 308 307 306 307 307 307 307 306 306 306 305 306 306 306 305 305 305 304 303 303 304 303 302 300 299 296 300 302 300 302 304 303
321 322 322 320 319 320 320 319 320 320 319 318 317 317 316 315 315 314 313 312 311 310 309 309 310 310 310 309 308 307 307 306 305 305 306 306 306 306 305 304 305 305 305 305 305 305 304 305 305 303 303 303 302 303 302 299 298 298 302 301 302 304 304
319 321 320 319 319 319 320 320 320 319 318 317 317 316 315 314 313 313 312 311 310 309 309 309 309 310 309 308 307 306 306 305 304 305 305 305 306 306 304 303 303 304 305 305 304 304 303 303 303 303 303 302 301 302 301 300 298 298 302 304 303 303 304
320 321 320 318 318 318 319 318 319 318 318 317 317 315 314 314 314 313 312 311 310 309 309 308 309 309 307 307 307 306 306 305 304 304 305 304 305 305 305 304 304 305 305 304 304 303 303 302 301 301 302 302 301 301 303 300 299 299 298 302 302 304 303
321 320 319 318 318 318 318 319 318 317 316 316 316 315 314 314 313 312 311 311 310 309 308 308 309 308 307 307 306 306 306 305 304 304 304 304 304 305 304 305 305 305 306 305 304 304 304 303 303 302 302 302 302 302 303 303 301 299 299 300 303 302 303
320 318 318 318 318 318 318 318 317 316 315 315 314 315 315 313 313 312 311 310 310 309 308 307 307 307 307 307 306 306 306 306 305 304 304 303 304 304 304 304 305 306 305 304 303 303 303 303 303 302 301 302 302 301 303 304 303 301 300 299 302 301 303
319 318 317 317 318 318 318 317 316 315 315 315 315 314 313 313 313 312 311 310 309 309 307 307 306 306 307 308 307 307 306 305 305 304 304 304 304 304 304 304 305 305 305 304 303 302 303 303 303 302 301 301 301 302 303 303 303 303 301 300 301 303 304
317 317 317 317 317 317 317 317 316 315 314 314 314 313 313 312 312 311 311 310 310 309 307 307 307 307 307 307 307 307 307 306 305 304 304 304 305 305 305 305 305 305 303 303 302 302 303 302 302 302 301 301 301 302 303 303 303 303 302 300 301 301 303
316 317 317 318 317 316 317 317 315 314 314 314 313 312 312 312 312 311 311 310 310 308 307 307 307 308 307 307 307 307 307 307 306 306 304 304 304 305 305 305 305 304 302 302 301 301 301 301 301 301 301 301 301 301 302 301 302 301 301 301 301 301 301
317 317 318 318 317 317 316 316 315 314 314 313 312 312 311 312 312 311 311 311 310 310 308 307 307 307 307 308 308 307 307 307 306 306 306 305 305 305 305 305 304 302 301 300 300 300 299 298 300 300 300 300 301 301 300 300 300 299 300 300 299 299 300
318 318 317 317 317 316 316 315 314 314 313 313 313 312 312 312 311 311 311 311 310 310 309 308 308 308 308 308 308 307 307 307 306 306 305 305 305 305 305 304 303 302 301 299 298 299 297 297 299 298 299 300 300 300 300 300 299 298 299 299 299 300 299
318 318 317 316 316 316 315 314 314 313 312 312 312 312 311 312 311 311 310 310 310 310 310 310 307 303 304 308 308 308 308 308 307 306 305 305 305 304 304 304 301 302 301 300 298 296 295 295 295 297 298 299 298 298 298 298 297 298 298 297 298 298 297
317 316 316 316 316 314 314 314 313 312 312 312 312 312 311 311 310 310 310 310 310 310 310 309 299 297 297 300 308 309 308 307 307 306 306 306 305 304 305 305 305 303 305 303 302 294 295 294 294 294 294 295 295 298 297 296 296 298 296 297 299 298 297
314 314 314 314 314 313 313 313 312 311 312 312 312 312 311 310 310 310 310 310 310 310 311 302 295 296 296 297 301 308 309 308 307 307 306 306 306 305 305 305 304 304 301 301 303 303 300 295 293 293 293 292 292 293 294 296 296 296 297 297 298 298 298
313 312 312 313 313 312 311 311 311 311 311 312 312 310 310 310 310 310 310 309 309 309 311 296 295 294 295 295 295 302 308 308 307 307 306 306 306 306 305 305 305 305 303 301 301 301 302 302 297 294 294 295 292 292 290 290 292 298 299 299 298 297 298
310 310 312 312 312 310 310 310 311 312 311 311 311 310 310 310 311 310 310 310 309 310 311 296 294 293 294 293 294 297 309 307 307 307 306 306 306 306 305 305 305 304 305 303 300 300 301 302 303 303 303 303 303 300 293 291 291 291 296 299 299 297 299
307 307 307 308 309 309 310 310 310 310 310 310 309 308 309 310 310 311 310 310 310 310 311 294 293 293 293 293 293 295 309 307 307 307 307 307 307 307 305 304 305 304 304 302 298 298 301 302 304 303 303 303 303 303 303 301 300 299 299 299 299 299 299
305 305 306 307 307 306 307 308 308 308 308 308 308 308 309 309 309 309 309 310 310 309 309 292 293 293 292 293 292 304 308 307 308 307 307 307 307 306 305 306 305 303 304 302 296 287 294 300 304 302 302 303 303 304 304 301 295 296 301 301 300 300 300
306 306 306 305 304 305 305 306 306 307 306 306 305 306 307 307 309 308 308 309 309 309 307 295 292 292 292 291 295 305 308 306 307 307 307 307 306 306 305 305 304 303 303 302 295 290 291 292 303 302 301 303 303 303 302 303 297 294 293 292 292 292 292
307 306 306 305 305 306 306 306 305 305 304 304 304 305 306 306 307 308 308 308 309 309 308 298 291 292 292 291 298 305 307 306 307 306 306 306 307 305 305 304 306 303 303 302 289 290 289 297 303 302 302 302 301 301 301 302 303 303 297 295 295 293 293
306 305 305 305 304 304 304 304 304 304 304 303 303 304 304 304 305 307 308 308 307 308 308 300 291 292 291 291 299 307 307 306 306 306 306 305 306 305 304 301 301 302 304 300 285 291 288 295 302 302 302 302 300 300 300 301 301 301 302 303 304 304 302
309 307 306 305 305 305 304 303 302 301 301 301 301 301 302 303 304 305 307 308 308 308 308 305 298 291 292 291 293 306 307 305 305 305 305 304 304 305 303 303 300 289 289 288 289 288 290 289 298 301 303 302 300 298 299 300 301 301 302 302 303 303 303
306 306 307 306 305 303 302 302 302 302 301 300 301 302 301 302 303 304 306 307 308 307 308 306 301 290 291 291 292 294 305 305 306 305 304 303 303 303 303 303 303 293 289 290 289 288 290 289 290 300 302 301 299 299 294 299 300 299 303 303 303 302 302
306 305 304 304 304 303 304 303 301 300 300 299 298 298 300 302 302 303 305 306 306 306 307 304 304 292 291 291 291 291 302 306 306 306 304 304 303 303 303 303 305 295 289 290 289 290 288 289 288 299 307 291 288 288 298 298 301 302 302 302 301 300 300
306 305 305 305 305 304 303 303 302 301 300 299 300 300 299 300 301 302 302 302 304 305 306 303 297 298 291 290 290 291 291 297 294 306 304 303 303 303 304 304 304 291 290 289 290 289 290 289 290 299 289 288 289 288 291 300 302 302 301 301 301 300 299
305 305 304 305 305 304 303 302 302 302 300 299 298 298 298 299 299 300 300 301 302 302 304 304 297 295 295 289 290 289 290 289 291 303 305 304 303 302 303 304 302 289 290 289 288 289 289 290 296 291 288 289 288 289 298 302 301 302 300 299 299 299 299

ECMWFFLT1_sfc_thetae_123.txt.gz
Theta_e
333 333 334 334 334 334 333 332 332 331 330 330 329 328 327 326 324 323 323 323 322 323 322 322 321 321 321 322 323 325 325 324 322 317 314 312 310 311 316 313 312 314 316 316 314 312 309 308 305 308 311 312 310 308 307 306 308 309 310 310 308 308 308
335 333 332 334 332 331 330 330 330 329 328 329 328 327 326 324 324 323 323 322 322 321 320 321 322 321 321 321 321 321 320 320 320 319 316 314 314 311 313 313 312 309 310 312 312 312 307 307 304 305 307 312 314 311 309 310 309 311 310 309 308 308 309
334 332 332 330 330 331 328 328 328 328 327 327 327 324 323 321 321 322 322 323 322 321 320 320 319 319 319 319 319 319 319 318 318 318 317 316 317 316 317 316 313 311 311 310 310 310 309 310 304 301 304 306 308 309 310 308 310 309 308 309 309 307 307
333 332 330 329 329 328 328 327 327 328 328 327 325 324 323 322 323 323 323 322 321 319 318 317 316 315 317 317 317 318 317 317 316 316 316 316 315 314 313 312 311 310 309 308 309 309 309 308 307 305 305 304 304 306 307 309 309 307 305 307 306 307 307
332 331 331 329 328 326 327 326 328 327 327 326 326 324 323 324 324 323 322 321 320 319 316 316 315 314 314 314 315 316 316 316 316 315 315 313 314 313 312 311 311 311 311 310 310 310 309 307 308 306 304 305 305 305 307 310 308 306 304 305 304 306 305
333 332 331 330 329 327 327 327 327 324 324 323 323 322 322 322 321 321 321 319 318 319 317 314 315 315 315 314 315 314 315 316 316 316 314 314 313 310 309 311 311 311 310 311 310 310 310 310 307 305 305 305 304 304 305 306 304 305 304 304 304 304 304
333 334 332 331 330 329 329 329 328 325 323 322 322 321 321 320 320 321 321 320 319 318 317 316 315 314 314 311 313 312 312 313 314 314 313 313 313 313 313 310 311 310 309 311 310 309 308 307 305 304 305 306 307 302 304 303 304 302 302 303 304 304 304
334 333 332 333 331 330 330 329 328 326 322 323 322 322 321 322 322 321 319 318 317 317 315 315 314 314 314 312 313 314 312 313 313 313 313 313 311 311 313 311 310 310 309 309 308 309 308 307 306 305 304 302 304 302 301 303 302 302 300 303 304 304 304
334 334 333 332 332 332 331 328 327 325 328 324 323 321 321 321 319 318 317 317 316 316 315 315 314 314 314 313 312 312 311 312 312 312 312 312 311 311 311 311 310 308 309 308 309 308 307 308 307 306 305 303 300 298 300 301 302 301 302 301 303 304 304
334 333 332 333 333 332 330 329 328 327 327 324 322 321 319 319 318 317 316 316 315 315 315 314 314 314 313 312 312 311 311 312 312 311 311 311 312 310 310 310 308 307 307 309 309 309 309 308 307 307 305 303 303 299 298 298 301 299 300 303 300 303 305
332 333 332 332 331 329 328 328 328 325 324 323 322 320 320 318 318 317 316 315 315 314 314 313 312 313 313 312 312 312 311 312 311 312 311 311 311 311 309 308 308 307 309 308 307 308 308 308 306 306 306 305 304 301 300 298 299 302 301 304 303 302 305
334 333 332 331 330 328 326 326 325 324 324 323 321 320 319 318 317 316 316 315 314 313 313 313 313 313 313 311 311 310 311 311 310 309 310 310 309 309 308 308 308 307 309 308 308 307 308 308 306 305 305 306 305 304 302 301 297 302 304 302 304 305 305
332 332 331 329 328 326 325 325 324 323 323 321 321 320 318 317 317 316 315 314 312 312 312 312 313 312 312 311 310 310 310 310 309 308 308 309 308 309 309 308 308 308 308 307 307 307 306 307 306 305 305 305 304 305 303 301 300 300 304 304 304 306 306
331 330 329 328 326 325 325 324 324 324 322 321 321 319 317 316 315 315 313 312 311 311 311 312 313 312 312 311 310 309 309 309 308 308 308 308 307 308 307 306 306 306 307 307 306 306 305 305 306 305 305 304 304 304 303 302 300 301 304 306 305 305 306
331 329 328 327 325 324 324 323 324 322 320 320 319 317 317 316 315 314 313 312 311 311 311 311 312 312 310 310 309 308 309 307 307 307 308 307 307 308 307 306 305 306 307 305 306 305 305 304 303 303 303 304 302 303 304 302 301 301 301 304 304 306 305
330 327 326 325 324 322 323 324 323 321 320 319 318 318 316 316 315 314 313 312 311 311 311 311 312 311 310 309 307 308 308 308 308 307 307 306 306 307 307 307 307 308 308 307 306 306 306 305 305 303 304 303 303 303 304 304 303 301 301 302 305 304 304
328 325 325 324 324 323 322 322 321 321 320 318 317 317 317 315 314 314 312 312 311 310 310 311 311 310 309 309 308 308 307 308 308 308 306 306 306 307 307 307 307 307 307 306 305 305 305 306 305 304 303 304 304 303 304 305 305 303 302 301 304 302 304
326 326 325 324 323 323 322 321 321 320 319 317 317 317 316 316 315 313 313 311 311 310 310 310 310 309 310 310 309 308 307 307 308 307 307 307 307 307 307 306 306 307 307 305 305 304 305 305 304 303 302 303 303 303 304 305 305 304 303 301 302 304 304
326 325 324 323 322 322 322 321 320 320 318 316 317 317 315 314 314 313 312 311 311 310 309 309 309 309 309 310 309 309 308 308 307 307 307 307 307 308 307 306 306 306 305 305 304 304 304 304 304 303 302 302 302 303 304 304 304 304 302 301 302 302 304
326 325 323 322 322 321 320 320 319 318 318 317 316 316 314 314 314 313 312 312 311 310 309 309 309 310 309 309 309 308 308 307 306 307 307 307 307 308 307 306 305 304 304 304 303 302 302 303 303 302 302 302 302 303 303 303 302 302 302 301 302 302 301
326 325 323 322 320 320 319 319 319 319 317 316 315 315 313 314 314 313 312 312 312 310 309 309 309 309 309 309 309 309 308 308 307 307 307 307 308 307 307 305 304 303 302 302 302 301 300 302 303 302 301 302 302 302 301 301 301 300 300 300 300 300 301
324 323 321 320 319 318 319 319 319 318 317 317 316 314 315 314 313 312 312 313 311 310 309 309 310 310 309 309 310 309 309 308 307 306 306 306 307 307 306 304 302 300 298 296 297 296 296 296 302 300 300 301 300 300 300 300 300 299 299 299 300 301 300
321 321 320 318 318 318 318 319 318 317 316 315 314 314 314 314 313 312 312 311 311 311 310 310 311 306 307 309 309 309 309 309 307 307 306 306 306 306 304 303 300 299 298 298 298 298 295 295 295 298 299 299 298 298 298 298 298 298 298 298 299 299 298
320 319 318 317 318 319 319 318 317 316 315 314 313 314 313 312 312 313 312 311 311 311 310 309 299 297 297 302 310 310 309 308 308 308 307 306 306 305 303 300 301 302 302 300 301 296 295 295 294 294 295 297 297 298 297 295 296 297 296 298 299 299 297
319 318 317 317 318 319 318 317 316 315 314 314 313 314 313 313 312 313 313 312 312 311 312 302 296 296 298 297 300 313 310 309 309 308 307 307 306 306 306 305 306 307 306 305 304 300 299 295 294 293 293 293 293 293 295 298 295 296 296 297 298 298 298
318 317 317 317 318 317 316 315 314 313 313 314 313 313 312 313 312 313 312 311 312 312 312 297 296 296 296 297 296 302 310 310 309 308 309 308 307 307 306 306 304 303 300 299 302 304 304 300 297 294 295 294 294 292 290 289 292 298 298 298 298 297 297
319 318 317 317 318 316 315 315 314 313 313 313 313 313 312 312 312 312 312 312 311 312 311 297 295 295 296 294 295 297 311 310 310 309 308 308 308 308 307 306 305 304 304 304 304 303 304 305 305 304 303 301 300 300 295 292 290 290 295 299 299 297 299
316 315 315 316 316 315 315 314 313 312 313 313 312 312 311 311 311 311 311 311 311 310 311 295 295 294 295 294 294 296 310 310 309 310 309 309 309 308 307 308 308 306 306 303 300 298 303 304 306 305 305 305 306 306 303 303 304 303 302 302 302 301 301
313 314 315 314 314 314 314 313 313 313 313 312 312 312 311 311 311 311 311 311 310 310 308 293 294 294 293 294 293 305 307 309 309 309 308 308 308 309 307 307 307 306 305 301 297 287 294 299 304 304 304 305 305 306 306 306 299 299 303 304 304 304 304
314 314 314 313 312 314 314 313 313 313 312 311 310 309 309 309 311 311 310 310 310 310 305 295 293 293 293 292 296 305 307 308 307 309 308 308 308 308 306 306 307 305 305 301 295 289 291 293 302 304 303 304 305 305 304 305 300 293 293 294 293 293 293
314 313 312 311 312 314 315 314 312 311 310 308 309 309 310 311 310 310 309 309 309 309 305 297 293 293 293 292 299 304 306 308 307 308 308 308 308 308 307 307 308 306 305 301 290 289 290 296 303 305 304 304 303 303 303 303 305 304 295 293 293 292 292
314 312 312 312 313 313 313 313 312 311 311 311 309 309 309 307 310 309 309 309 309 309 308 299 293 293 293 292 298 304 305 308 307 307 308 307 308 308 306 305 303 299 305 298 287 291 290 295 302 304 303 304 302 301 302 302 302 302 303 305 306 308 306
314 313 312 310 311 310 309 308 307 308 308 308 307 306 306 304 305 306 308 307 309 308 309 303 297 292 293 293 294 303 306 307 306 307 307 306 305 307 306 302 300 290 290 288 289 289 290 289 297 302 304 304 302 300 301 300 301 301 302 303 305 304 304
314 313 311 310 309 309 308 307 308 308 307 307 305 304 303 301 301 303 306 306 308 308 309 305 299 292 293 293 293 295 304 306 308 307 306 306 304 305 305 301 300 294 289 290 290 289 290 287 290 299 302 303 302 300 295 298 300 300 303 304 304 303 302
312 310 309 308 307 307 307 308 307 307 305 304 303 301 300 300 301 302 304 306 307 307 308 307 304 293 292 292 293 292 300 304 303 305 306 306 305 305 305 304 302 296 290 290 290 290 289 290 288 297 308 292 289 289 299 298 299 301 303 303 302 301 301
309 310 309 308 306 305 305 305 305 305 304 303 302 301 300 301 302 302 304 304 306 305 307 307 299 298 292 291 292 292 292 297 294 301 305 306 305 305 305 306 304 293 290 290 289 290 290 289 290 297 293 290 290 289 292 297 299 302 302 301 301 300 300
310 309 308 307 307 306 305 305 304 304 304 304 302 301 300 301 301 301 303 303 304 304 306 307 298 296 296 290 291 291 291 290 290 299 300 304 306 306 306 305 298 290 290 290 289 289 289 290 295 292 289 289 289 290 296 298 300 302 300 299 299 299 300